<?xml version="1.0" encoding="UTF-8" standalone="no" ?>
<gpx xmlns="http://www.topografix.com/GPX/1/1" xmlns:xsi="http://www.w3.org/2001/XMLSchema-instance" xsi:schemaLocation="http://www.topografix.com/GPX/1/1 http://www.topografix.com/GPX/1/1/gpx.xsd" version="1.1" creator="VisuGPX - https://www.visugpx.com">
  <metadata>
    <name>VTT - Gourdon</name>
    <desc><![CDATA[VTT - Gourdon/Cipières
Relevé terrain: 43 km /   1 600]]></desc>
  </metadata>
  <trk>
    <name><![CDATA[2016-01-30T08:15:33Z]]></name>
    <trkseg>
      <trkpt lat="43.71183" lon="6.97035">
        <ele>723.094</ele>
        <time>2016-01-30T08:15:33Z</time>
      </trkpt>
      <trkpt lat="43.71205" lon="6.97045">
        <ele>723.796</ele>
        <time>2016-01-30T08:15:45Z</time>
      </trkpt>
      <trkpt lat="43.71219" lon="6.97049">
        <ele>724.141</ele>
        <time>2016-01-30T08:15:53Z</time>
      </trkpt>
      <trkpt lat="43.71229" lon="6.97049">
        <ele>727.489</ele>
        <time>2016-01-30T08:15:58Z</time>
      </trkpt>
      <trkpt lat="43.7124" lon="6.9705">
        <ele>730.592</ele>
        <time>2016-01-30T08:16:04Z</time>
      </trkpt>
      <trkpt lat="43.71256" lon="6.9705">
        <ele>734.423</ele>
        <time>2016-01-30T08:16:13Z</time>
      </trkpt>
      <trkpt lat="43.71267" lon="6.97052">
        <ele>738.429</ele>
        <time>2016-01-30T08:16:20Z</time>
      </trkpt>
      <trkpt lat="43.71282" lon="6.97057">
        <ele>741.444</ele>
        <time>2016-01-30T08:16:28Z</time>
      </trkpt>
      <trkpt lat="43.71298" lon="6.97062">
        <ele>744.449</ele>
        <time>2016-01-30T08:16:36Z</time>
      </trkpt>
      <trkpt lat="43.7132" lon="6.97076">
        <ele>736.797</ele>
        <time>2016-01-30T08:16:46Z</time>
      </trkpt>
      <trkpt lat="43.71334" lon="6.97088">
        <ele>735.902</ele>
        <time>2016-01-30T08:16:53Z</time>
      </trkpt>
      <trkpt lat="43.71353" lon="6.97104">
        <ele>735.255</ele>
        <time>2016-01-30T08:17:03Z</time>
      </trkpt>
      <trkpt lat="43.71365" lon="6.97116">
        <ele>736.475</ele>
        <time>2016-01-30T08:17:10Z</time>
      </trkpt>
      <trkpt lat="43.71382" lon="6.9713">
        <ele>736.186</ele>
        <time>2016-01-30T08:17:19Z</time>
      </trkpt>
      <trkpt lat="43.71397" lon="6.97148">
        <ele>736.86</ele>
        <time>2016-01-30T08:17:28Z</time>
      </trkpt>
      <trkpt lat="43.71408" lon="6.97162">
        <ele>739.089</ele>
        <time>2016-01-30T08:17:36Z</time>
      </trkpt>
      <trkpt lat="43.71421" lon="6.97178">
        <ele>742.348</ele>
        <time>2016-01-30T08:17:44Z</time>
      </trkpt>
      <trkpt lat="43.71438" lon="6.9719">
        <ele>743.843</ele>
        <time>2016-01-30T08:17:53Z</time>
      </trkpt>
      <trkpt lat="43.7145" lon="6.97201">
        <ele>743.879</ele>
        <time>2016-01-30T08:18:00Z</time>
      </trkpt>
      <trkpt lat="43.71458" lon="6.97205">
        <ele>744.002</ele>
        <time>2016-01-30T08:18:05Z</time>
      </trkpt>
      <trkpt lat="43.71462" lon="6.97199">
        <ele>743.636</ele>
        <time>2016-01-30T08:18:10Z</time>
      </trkpt>
      <trkpt lat="43.71461" lon="6.97197">
        <ele>743.997</ele>
        <time>2016-01-30T08:18:11Z</time>
      </trkpt>
      <trkpt lat="43.71451" lon="6.97186">
        <ele>745.132</ele>
        <time>2016-01-30T08:18:19Z</time>
      </trkpt>
      <trkpt lat="43.71436" lon="6.97172">
        <ele>744.37</ele>
        <time>2016-01-30T08:18:29Z</time>
      </trkpt>
      <trkpt lat="43.71427" lon="6.97157">
        <ele>744.079</ele>
        <time>2016-01-30T08:18:36Z</time>
      </trkpt>
      <trkpt lat="43.71418" lon="6.97139">
        <ele>744.555</ele>
        <time>2016-01-30T08:18:44Z</time>
      </trkpt>
      <trkpt lat="43.7141" lon="6.97121">
        <ele>745.473</ele>
        <time>2016-01-30T08:18:52Z</time>
      </trkpt>
      <trkpt lat="43.71401" lon="6.97106">
        <ele>747.675</ele>
        <time>2016-01-30T08:19:00Z</time>
      </trkpt>
      <trkpt lat="43.7139" lon="6.9709">
        <ele>748.793</ele>
        <time>2016-01-30T08:19:09Z</time>
      </trkpt>
      <trkpt lat="43.71377" lon="6.97071">
        <ele>749.708</ele>
        <time>2016-01-30T08:19:18Z</time>
      </trkpt>
      <trkpt lat="43.71365" lon="6.97055">
        <ele>751.137</ele>
        <time>2016-01-30T08:19:25Z</time>
      </trkpt>
      <trkpt lat="43.71356" lon="6.97037">
        <ele>750.879</ele>
        <time>2016-01-30T08:19:32Z</time>
      </trkpt>
      <trkpt lat="43.71345" lon="6.97016">
        <ele>751.875</ele>
        <time>2016-01-30T08:19:41Z</time>
      </trkpt>
      <trkpt lat="43.71336" lon="6.96999">
        <ele>752.482</ele>
        <time>2016-01-30T08:19:49Z</time>
      </trkpt>
      <trkpt lat="43.71327" lon="6.9699">
        <ele>753.295</ele>
        <time>2016-01-30T08:19:55Z</time>
      </trkpt>
      <trkpt lat="43.71317" lon="6.96978">
        <ele>755.038</ele>
        <time>2016-01-30T08:20:02Z</time>
      </trkpt>
      <trkpt lat="43.71308" lon="6.96958">
        <ele>757.789</ele>
        <time>2016-01-30T08:20:11Z</time>
      </trkpt>
      <trkpt lat="43.71304" lon="6.96941">
        <ele>757.759</ele>
        <time>2016-01-30T08:20:17Z</time>
      </trkpt>
      <trkpt lat="43.71301" lon="6.96926">
        <ele>758.623</ele>
        <time>2016-01-30T08:20:23Z</time>
      </trkpt>
      <trkpt lat="43.71296" lon="6.96911">
        <ele>759.754</ele>
        <time>2016-01-30T08:20:29Z</time>
      </trkpt>
      <trkpt lat="43.71292" lon="6.96896">
        <ele>761.305</ele>
        <time>2016-01-30T08:20:35Z</time>
      </trkpt>
      <trkpt lat="43.7129" lon="6.96885">
        <ele>761.354</ele>
        <time>2016-01-30T08:20:39Z</time>
      </trkpt>
      <trkpt lat="43.71285" lon="6.96862">
        <ele>763.556</ele>
        <time>2016-01-30T08:20:48Z</time>
      </trkpt>
      <trkpt lat="43.71285" lon="6.96851">
        <ele>764.439</ele>
        <time>2016-01-30T08:20:52Z</time>
      </trkpt>
      <trkpt lat="43.71279" lon="6.96834">
        <ele>765.216</ele>
        <time>2016-01-30T08:20:59Z</time>
      </trkpt>
      <trkpt lat="43.71278" lon="6.96831">
        <ele>765.477</ele>
        <time>2016-01-30T08:21:00Z</time>
      </trkpt>
      <trkpt lat="43.71274" lon="6.96818">
        <ele>765.946</ele>
        <time>2016-01-30T08:21:05Z</time>
      </trkpt>
      <trkpt lat="43.71278" lon="6.96806">
        <ele>766.775</ele>
        <time>2016-01-30T08:21:10Z</time>
      </trkpt>
      <trkpt lat="43.71287" lon="6.96793">
        <ele>765.908</ele>
        <time>2016-01-30T08:21:17Z</time>
      </trkpt>
      <trkpt lat="43.713" lon="6.96777">
        <ele>762.713</ele>
        <time>2016-01-30T08:21:25Z</time>
      </trkpt>
      <trkpt lat="43.71307" lon="6.96768">
        <ele>763.405</ele>
        <time>2016-01-30T08:21:31Z</time>
      </trkpt>
      <trkpt lat="43.71315" lon="6.96757">
        <ele>765.654</ele>
        <time>2016-01-30T08:21:38Z</time>
      </trkpt>
      <trkpt lat="43.71322" lon="6.96749">
        <ele>765.738</ele>
        <time>2016-01-30T08:21:44Z</time>
      </trkpt>
      <trkpt lat="43.7133" lon="6.9674">
        <ele>768.378</ele>
        <time>2016-01-30T08:21:51Z</time>
      </trkpt>
      <trkpt lat="43.7134" lon="6.96731">
        <ele>773.019</ele>
        <time>2016-01-30T08:21:59Z</time>
      </trkpt>
      <trkpt lat="43.71347" lon="6.96724">
        <ele>773.539</ele>
        <time>2016-01-30T08:22:04Z</time>
      </trkpt>
      <trkpt lat="43.71352" lon="6.96722">
        <ele>773.36</ele>
        <time>2016-01-30T08:22:07Z</time>
      </trkpt>
      <trkpt lat="43.71363" lon="6.96723">
        <ele>775.185</ele>
        <time>2016-01-30T08:22:14Z</time>
      </trkpt>
      <trkpt lat="43.71364" lon="6.96723">
        <ele>775.305</ele>
        <time>2016-01-30T08:22:15Z</time>
      </trkpt>
      <trkpt lat="43.71374" lon="6.96718">
        <ele>775.27</ele>
        <time>2016-01-30T08:22:22Z</time>
      </trkpt>
      <trkpt lat="43.71386" lon="6.96713">
        <ele>777.931</ele>
        <time>2016-01-30T08:22:30Z</time>
      </trkpt>
      <trkpt lat="43.71396" lon="6.96712">
        <ele>780.86</ele>
        <time>2016-01-30T08:22:37Z</time>
      </trkpt>
      <trkpt lat="43.7141" lon="6.96705">
        <ele>782.05</ele>
        <time>2016-01-30T08:22:46Z</time>
      </trkpt>
      <trkpt lat="43.7142" lon="6.967">
        <ele>784.811</ele>
        <time>2016-01-30T08:22:53Z</time>
      </trkpt>
      <trkpt lat="43.7143" lon="6.96696">
        <ele>785.306</ele>
        <time>2016-01-30T08:22:59Z</time>
      </trkpt>
      <trkpt lat="43.71442" lon="6.96698">
        <ele>785.944</ele>
        <time>2016-01-30T08:23:06Z</time>
      </trkpt>
      <trkpt lat="43.71452" lon="6.96707">
        <ele>786.646</ele>
        <time>2016-01-30T08:23:13Z</time>
      </trkpt>
      <trkpt lat="43.71465" lon="6.96724">
        <ele>788.096</ele>
        <time>2016-01-30T08:23:21Z</time>
      </trkpt>
      <trkpt lat="43.71476" lon="6.9674">
        <ele>788.151</ele>
        <time>2016-01-30T08:23:28Z</time>
      </trkpt>
      <trkpt lat="43.71491" lon="6.96745">
        <ele>787.184</ele>
        <time>2016-01-30T08:23:35Z</time>
      </trkpt>
      <trkpt lat="43.71508" lon="6.96753">
        <ele>785.456</ele>
        <time>2016-01-30T08:23:41Z</time>
      </trkpt>
      <trkpt lat="43.71522" lon="6.96753">
        <ele>784.881</ele>
        <time>2016-01-30T08:23:46Z</time>
      </trkpt>
      <trkpt lat="43.7154" lon="6.96748">
        <ele>783.07</ele>
        <time>2016-01-30T08:23:52Z</time>
      </trkpt>
      <trkpt lat="43.7156" lon="6.96736">
        <ele>779.7</ele>
        <time>2016-01-30T08:23:58Z</time>
      </trkpt>
      <trkpt lat="43.71577" lon="6.96708">
        <ele>777.282</ele>
        <time>2016-01-30T08:24:05Z</time>
      </trkpt>
      <trkpt lat="43.71587" lon="6.9668">
        <ele>775.494</ele>
        <time>2016-01-30T08:24:11Z</time>
      </trkpt>
      <trkpt lat="43.71603" lon="6.96646">
        <ele>774.258</ele>
        <time>2016-01-30T08:24:17Z</time>
      </trkpt>
      <trkpt lat="43.71621" lon="6.96612">
        <ele>773.198</ele>
        <time>2016-01-30T08:24:23Z</time>
      </trkpt>
      <trkpt lat="43.7163" lon="6.96592">
        <ele>772.962</ele>
        <time>2016-01-30T08:24:27Z</time>
      </trkpt>
      <trkpt lat="43.71641" lon="6.96571">
        <ele>772.077</ele>
        <time>2016-01-30T08:24:31Z</time>
      </trkpt>
      <trkpt lat="43.71651" lon="6.96557">
        <ele>771.742</ele>
        <time>2016-01-30T08:24:34Z</time>
      </trkpt>
      <trkpt lat="43.71666" lon="6.96541">
        <ele>771.755</ele>
        <time>2016-01-30T08:24:38Z</time>
      </trkpt>
      <trkpt lat="43.71687" lon="6.96528">
        <ele>772.801</ele>
        <time>2016-01-30T08:24:44Z</time>
      </trkpt>
      <trkpt lat="43.71701" lon="6.96506">
        <ele>773.925</ele>
        <time>2016-01-30T08:24:50Z</time>
      </trkpt>
      <trkpt lat="43.7171" lon="6.96479">
        <ele>776.197</ele>
        <time>2016-01-30T08:24:56Z</time>
      </trkpt>
      <trkpt lat="43.71721" lon="6.96464">
        <ele>776.166</ele>
        <time>2016-01-30T08:25:00Z</time>
      </trkpt>
      <trkpt lat="43.71746" lon="6.9644">
        <ele>772.046</ele>
        <time>2016-01-30T08:25:07Z</time>
      </trkpt>
      <trkpt lat="43.71773" lon="6.96405">
        <ele>769.05</ele>
        <time>2016-01-30T08:25:14Z</time>
      </trkpt>
      <trkpt lat="43.71787" lon="6.96376">
        <ele>767.332</ele>
        <time>2016-01-30T08:25:18Z</time>
      </trkpt>
      <trkpt lat="43.718" lon="6.9632">
        <ele>764.842</ele>
        <time>2016-01-30T08:25:24Z</time>
      </trkpt>
      <trkpt lat="43.71811" lon="6.96263">
        <ele>764.245</ele>
        <time>2016-01-30T08:25:30Z</time>
      </trkpt>
      <trkpt lat="43.71823" lon="6.96238">
        <ele>763.633</ele>
        <time>2016-01-30T08:25:34Z</time>
      </trkpt>
      <trkpt lat="43.71836" lon="6.96225">
        <ele>762.927</ele>
        <time>2016-01-30T08:25:38Z</time>
      </trkpt>
      <trkpt lat="43.71844" lon="6.96209">
        <ele>762.516</ele>
        <time>2016-01-30T08:25:41Z</time>
      </trkpt>
      <trkpt lat="43.71861" lon="6.96192">
        <ele>763.209</ele>
        <time>2016-01-30T08:25:46Z</time>
      </trkpt>
      <trkpt lat="43.71862" lon="6.96191">
        <ele>762.98</ele>
        <time>2016-01-30T08:25:50Z</time>
      </trkpt>
      <trkpt lat="43.71862" lon="6.9619">
        <ele>762.719</ele>
        <time>2016-01-30T08:25:53Z</time>
      </trkpt>
      <trkpt lat="43.71872" lon="6.96188">
        <ele>762.429</ele>
        <time>2016-01-30T08:25:58Z</time>
      </trkpt>
      <trkpt lat="43.71901" lon="6.96182">
        <ele>761.732</ele>
        <time>2016-01-30T08:26:04Z</time>
      </trkpt>
      <trkpt lat="43.7191" lon="6.96179">
        <ele>761.288</ele>
        <time>2016-01-30T08:26:06Z</time>
      </trkpt>
      <trkpt lat="43.71926" lon="6.96175">
        <ele>761.293</ele>
        <time>2016-01-30T08:26:09Z</time>
      </trkpt>
      <trkpt lat="43.71943" lon="6.9617">
        <ele>759.895</ele>
        <time>2016-01-30T08:26:13Z</time>
      </trkpt>
      <trkpt lat="43.71966" lon="6.96176">
        <ele>760.873</ele>
        <time>2016-01-30T08:26:19Z</time>
      </trkpt>
      <trkpt lat="43.71982" lon="6.96189">
        <ele>765.133</ele>
        <time>2016-01-30T08:26:25Z</time>
      </trkpt>
      <trkpt lat="43.71998" lon="6.96195">
        <ele>769.368</ele>
        <time>2016-01-30T08:26:31Z</time>
      </trkpt>
      <trkpt lat="43.72002" lon="6.96197">
        <ele>770.032</ele>
        <time>2016-01-30T08:26:33Z</time>
      </trkpt>
      <trkpt lat="43.72005" lon="6.96214">
        <ele>774.467</ele>
        <time>2016-01-30T08:26:38Z</time>
      </trkpt>
      <trkpt lat="43.72007" lon="6.96242">
        <ele>775.642</ele>
        <time>2016-01-30T08:26:44Z</time>
      </trkpt>
      <trkpt lat="43.72007" lon="6.96245">
        <ele>776.21</ele>
        <time>2016-01-30T08:26:48Z</time>
      </trkpt>
      <trkpt lat="43.72008" lon="6.96254">
        <ele>775.604</ele>
        <time>2016-01-30T08:27:06Z</time>
      </trkpt>
      <trkpt lat="43.72013" lon="6.96271">
        <ele>775.403</ele>
        <time>2016-01-30T08:27:10Z</time>
      </trkpt>
      <trkpt lat="43.72015" lon="6.96277">
        <ele>775.656</ele>
        <time>2016-01-30T08:27:11Z</time>
      </trkpt>
      <trkpt lat="43.7202" lon="6.9629">
        <ele>775.746</ele>
        <time>2016-01-30T08:27:13Z</time>
      </trkpt>
      <trkpt lat="43.72024" lon="6.96332">
        <ele>773.71</ele>
        <time>2016-01-30T08:27:18Z</time>
      </trkpt>
      <trkpt lat="43.72033" lon="6.96369">
        <ele>770.977</ele>
        <time>2016-01-30T08:27:22Z</time>
      </trkpt>
      <trkpt lat="43.72036" lon="6.96378">
        <ele>770.361</ele>
        <time>2016-01-30T08:27:23Z</time>
      </trkpt>
      <trkpt lat="43.72049" lon="6.96425">
        <ele>767.744</ele>
        <time>2016-01-30T08:27:29Z</time>
      </trkpt>
      <trkpt lat="43.72054" lon="6.96484">
        <ele>767.876</ele>
        <time>2016-01-30T08:27:38Z</time>
      </trkpt>
      <trkpt lat="43.72059" lon="6.96523">
        <ele>770.013</ele>
        <time>2016-01-30T08:27:45Z</time>
      </trkpt>
      <trkpt lat="43.72066" lon="6.96541">
        <ele>771.235</ele>
        <time>2016-01-30T08:27:51Z</time>
      </trkpt>
      <trkpt lat="43.72079" lon="6.96552">
        <ele>766.812</ele>
        <time>2016-01-30T08:27:58Z</time>
      </trkpt>
      <trkpt lat="43.72095" lon="6.96552">
        <ele>764.759</ele>
        <time>2016-01-30T08:28:04Z</time>
      </trkpt>
      <trkpt lat="43.72113" lon="6.96548">
        <ele>764.831</ele>
        <time>2016-01-30T08:28:10Z</time>
      </trkpt>
      <trkpt lat="43.72131" lon="6.96539">
        <ele>764.578</ele>
        <time>2016-01-30T08:28:16Z</time>
      </trkpt>
      <trkpt lat="43.72151" lon="6.96521">
        <ele>765.291</ele>
        <time>2016-01-30T08:28:23Z</time>
      </trkpt>
      <trkpt lat="43.72175" lon="6.965">
        <ele>763.768</ele>
        <time>2016-01-30T08:28:30Z</time>
      </trkpt>
      <trkpt lat="43.72185" lon="6.96492">
        <ele>762.838</ele>
        <time>2016-01-30T08:28:33Z</time>
      </trkpt>
      <trkpt lat="43.72207" lon="6.96496">
        <ele>762.716</ele>
        <time>2016-01-30T08:28:39Z</time>
      </trkpt>
      <trkpt lat="43.7221" lon="6.965">
        <ele>762.828</ele>
        <time>2016-01-30T08:28:40Z</time>
      </trkpt>
      <trkpt lat="43.72222" lon="6.96536">
        <ele>764.38</ele>
        <time>2016-01-30T08:28:47Z</time>
      </trkpt>
      <trkpt lat="43.7223" lon="6.9657">
        <ele>767.824</ele>
        <time>2016-01-30T08:28:54Z</time>
      </trkpt>
      <trkpt lat="43.72235" lon="6.96596">
        <ele>769.53</ele>
        <time>2016-01-30T08:29:00Z</time>
      </trkpt>
      <trkpt lat="43.72234" lon="6.96618">
        <ele>773.032</ele>
        <time>2016-01-30T08:29:07Z</time>
      </trkpt>
      <trkpt lat="43.72225" lon="6.96638">
        <ele>781.66</ele>
        <time>2016-01-30T08:29:16Z</time>
      </trkpt>
      <trkpt lat="43.72223" lon="6.96658">
        <ele>785.196</ele>
        <time>2016-01-30T08:29:23Z</time>
      </trkpt>
      <trkpt lat="43.72227" lon="6.96681">
        <ele>781.516</ele>
        <time>2016-01-30T08:29:30Z</time>
      </trkpt>
      <trkpt lat="43.72232" lon="6.96703">
        <ele>783.812</ele>
        <time>2016-01-30T08:29:36Z</time>
      </trkpt>
      <trkpt lat="43.72235" lon="6.96725">
        <ele>784.22</ele>
        <time>2016-01-30T08:29:42Z</time>
      </trkpt>
      <trkpt lat="43.72241" lon="6.96748">
        <ele>782.167</ele>
        <time>2016-01-30T08:29:49Z</time>
      </trkpt>
      <trkpt lat="43.72246" lon="6.96778">
        <ele>781.275</ele>
        <time>2016-01-30T08:29:58Z</time>
      </trkpt>
      <trkpt lat="43.72246" lon="6.9678">
        <ele>781.395</ele>
        <time>2016-01-30T08:29:59Z</time>
      </trkpt>
      <trkpt lat="43.7225" lon="6.96779">
        <ele>779.935</ele>
        <time>2016-01-30T08:30:03Z</time>
      </trkpt>
      <trkpt lat="43.7225" lon="6.96777">
        <ele>780.419</ele>
        <time>2016-01-30T08:30:04Z</time>
      </trkpt>
      <trkpt lat="43.72249" lon="6.9676">
        <ele>782.475</ele>
        <time>2016-01-30T08:30:13Z</time>
      </trkpt>
      <trkpt lat="43.72249" lon="6.96742">
        <ele>783.937</ele>
        <time>2016-01-30T08:30:21Z</time>
      </trkpt>
      <trkpt lat="43.72253" lon="6.96725">
        <ele>784.197</ele>
        <time>2016-01-30T08:30:29Z</time>
      </trkpt>
      <trkpt lat="43.72261" lon="6.96722">
        <ele>785.027</ele>
        <time>2016-01-30T08:30:34Z</time>
      </trkpt>
      <trkpt lat="43.72275" lon="6.96717">
        <ele>784.942</ele>
        <time>2016-01-30T08:30:42Z</time>
      </trkpt>
      <trkpt lat="43.72293" lon="6.9671">
        <ele>783.675</ele>
        <time>2016-01-30T08:30:50Z</time>
      </trkpt>
      <trkpt lat="43.72308" lon="6.96706">
        <ele>783.508</ele>
        <time>2016-01-30T08:30:56Z</time>
      </trkpt>
      <trkpt lat="43.72326" lon="6.96706">
        <ele>782.166</ele>
        <time>2016-01-30T08:31:05Z</time>
      </trkpt>
      <trkpt lat="43.72342" lon="6.96708">
        <ele>782.306</ele>
        <time>2016-01-30T08:31:13Z</time>
      </trkpt>
      <trkpt lat="43.72354" lon="6.96706">
        <ele>784.721</ele>
        <time>2016-01-30T08:31:20Z</time>
      </trkpt>
      <trkpt lat="43.72358" lon="6.96694">
        <ele>788.661</ele>
        <time>2016-01-30T08:31:25Z</time>
      </trkpt>
      <trkpt lat="43.72362" lon="6.96686">
        <ele>783.758</ele>
        <time>2016-01-30T08:31:28Z</time>
      </trkpt>
      <trkpt lat="43.72366" lon="6.96679">
        <ele>782.803</ele>
        <time>2016-01-30T08:31:31Z</time>
      </trkpt>
      <trkpt lat="43.72373" lon="6.96661">
        <ele>784.373</ele>
        <time>2016-01-30T08:31:38Z</time>
      </trkpt>
      <trkpt lat="43.72377" lon="6.9664">
        <ele>785.724</ele>
        <time>2016-01-30T08:31:46Z</time>
      </trkpt>
      <trkpt lat="43.72379" lon="6.9662">
        <ele>786.312</ele>
        <time>2016-01-30T08:31:54Z</time>
      </trkpt>
      <trkpt lat="43.72381" lon="6.96615">
        <ele>787.664</ele>
        <time>2016-01-30T08:31:57Z</time>
      </trkpt>
      <trkpt lat="43.72392" lon="6.96609">
        <ele>789.138</ele>
        <time>2016-01-30T08:32:04Z</time>
      </trkpt>
      <trkpt lat="43.72396" lon="6.96608">
        <ele>788.302</ele>
        <time>2016-01-30T08:32:09Z</time>
      </trkpt>
      <trkpt lat="43.724" lon="6.96609">
        <ele>787.474</ele>
        <time>2016-01-30T08:32:15Z</time>
      </trkpt>
      <trkpt lat="43.72407" lon="6.96609">
        <ele>787.483</ele>
        <time>2016-01-30T08:32:24Z</time>
      </trkpt>
      <trkpt lat="43.72413" lon="6.96613">
        <ele>788.945</ele>
        <time>2016-01-30T08:32:32Z</time>
      </trkpt>
      <trkpt lat="43.72419" lon="6.96614">
        <ele>788.703</ele>
        <time>2016-01-30T08:32:37Z</time>
      </trkpt>
      <trkpt lat="43.72421" lon="6.96616">
        <ele>789.381</ele>
        <time>2016-01-30T08:32:43Z</time>
      </trkpt>
      <trkpt lat="43.72423" lon="6.96621">
        <ele>791.433</ele>
        <time>2016-01-30T08:32:58Z</time>
      </trkpt>
      <trkpt lat="43.72427" lon="6.96636">
        <ele>793.799</ele>
        <time>2016-01-30T08:33:05Z</time>
      </trkpt>
      <trkpt lat="43.7243" lon="6.96653">
        <ele>796.832</ele>
        <time>2016-01-30T08:33:12Z</time>
      </trkpt>
      <trkpt lat="43.72431" lon="6.96669">
        <ele>800.033</ele>
        <time>2016-01-30T08:33:20Z</time>
      </trkpt>
      <trkpt lat="43.72437" lon="6.9668">
        <ele>801.402</ele>
        <time>2016-01-30T08:33:27Z</time>
      </trkpt>
      <trkpt lat="43.72446" lon="6.96687">
        <ele>800.706</ele>
        <time>2016-01-30T08:33:34Z</time>
      </trkpt>
      <trkpt lat="43.72455" lon="6.96694">
        <ele>798.563</ele>
        <time>2016-01-30T08:33:41Z</time>
      </trkpt>
      <trkpt lat="43.72464" lon="6.96704">
        <ele>798.195</ele>
        <time>2016-01-30T08:33:49Z</time>
      </trkpt>
      <trkpt lat="43.72471" lon="6.96714">
        <ele>799.338</ele>
        <time>2016-01-30T08:33:56Z</time>
      </trkpt>
      <trkpt lat="43.72475" lon="6.96714">
        <ele>801.74</ele>
        <time>2016-01-30T08:34:01Z</time>
      </trkpt>
      <trkpt lat="43.72478" lon="6.96715">
        <ele>803.398</ele>
        <time>2016-01-30T08:34:06Z</time>
      </trkpt>
      <trkpt lat="43.72481" lon="6.96723">
        <ele>807.681</ele>
        <time>2016-01-30T08:34:15Z</time>
      </trkpt>
      <trkpt lat="43.72481" lon="6.96727">
        <ele>808.85</ele>
        <time>2016-01-30T08:34:19Z</time>
      </trkpt>
      <trkpt lat="43.72482" lon="6.96737">
        <ele>809.043</ele>
        <time>2016-01-30T08:34:28Z</time>
      </trkpt>
      <trkpt lat="43.72485" lon="6.96746">
        <ele>812.313</ele>
        <time>2016-01-30T08:34:48Z</time>
      </trkpt>
      <trkpt lat="43.72491" lon="6.96764">
        <ele>815.3</ele>
        <time>2016-01-30T08:34:57Z</time>
      </trkpt>
      <trkpt lat="43.72499" lon="6.96771">
        <ele>815.99</ele>
        <time>2016-01-30T08:35:03Z</time>
      </trkpt>
      <trkpt lat="43.72501" lon="6.96766">
        <ele>817.964</ele>
        <time>2016-01-30T08:35:08Z</time>
      </trkpt>
      <trkpt lat="43.72499" lon="6.96759">
        <ele>818.149</ele>
        <time>2016-01-30T08:35:12Z</time>
      </trkpt>
      <trkpt lat="43.72503" lon="6.96755">
        <ele>819.071</ele>
        <time>2016-01-30T08:35:16Z</time>
      </trkpt>
      <trkpt lat="43.72515" lon="6.96762">
        <ele>818.906</ele>
        <time>2016-01-30T08:35:25Z</time>
      </trkpt>
      <trkpt lat="43.72526" lon="6.96769">
        <ele>818.7</ele>
        <time>2016-01-30T08:35:34Z</time>
      </trkpt>
      <trkpt lat="43.72534" lon="6.96773">
        <ele>820.022</ele>
        <time>2016-01-30T08:35:40Z</time>
      </trkpt>
      <trkpt lat="43.7254" lon="6.96779">
        <ele>821.944</ele>
        <time>2016-01-30T08:35:46Z</time>
      </trkpt>
      <trkpt lat="43.72553" lon="6.96787">
        <ele>820.067</ele>
        <time>2016-01-30T08:35:56Z</time>
      </trkpt>
      <trkpt lat="43.72563" lon="6.96793">
        <ele>823.584</ele>
        <time>2016-01-30T08:36:06Z</time>
      </trkpt>
      <trkpt lat="43.72572" lon="6.96801">
        <ele>824.868</ele>
        <time>2016-01-30T08:36:14Z</time>
      </trkpt>
      <trkpt lat="43.7258" lon="6.96813">
        <ele>826.819</ele>
        <time>2016-01-30T08:36:22Z</time>
      </trkpt>
      <trkpt lat="43.7259" lon="6.96822">
        <ele>827.749</ele>
        <time>2016-01-30T08:36:30Z</time>
      </trkpt>
      <trkpt lat="43.72596" lon="6.96829">
        <ele>828.137</ele>
        <time>2016-01-30T08:36:36Z</time>
      </trkpt>
      <trkpt lat="43.72605" lon="6.96836">
        <ele>827.245</ele>
        <time>2016-01-30T08:36:44Z</time>
      </trkpt>
      <trkpt lat="43.72616" lon="6.96844">
        <ele>827.046</ele>
        <time>2016-01-30T08:36:53Z</time>
      </trkpt>
      <trkpt lat="43.72623" lon="6.96851">
        <ele>828.578</ele>
        <time>2016-01-30T08:37:00Z</time>
      </trkpt>
      <trkpt lat="43.72627" lon="6.96856">
        <ele>829.92</ele>
        <time>2016-01-30T08:37:04Z</time>
      </trkpt>
      <trkpt lat="43.72633" lon="6.96859">
        <ele>831.01</ele>
        <time>2016-01-30T08:37:09Z</time>
      </trkpt>
      <trkpt lat="43.72644" lon="6.96853">
        <ele>836.12</ele>
        <time>2016-01-30T08:37:17Z</time>
      </trkpt>
      <trkpt lat="43.72653" lon="6.96848">
        <ele>839.208</ele>
        <time>2016-01-30T08:37:25Z</time>
      </trkpt>
      <trkpt lat="43.72664" lon="6.96842">
        <ele>840.726</ele>
        <time>2016-01-30T08:37:33Z</time>
      </trkpt>
      <trkpt lat="43.72676" lon="6.96834">
        <ele>841.854</ele>
        <time>2016-01-30T08:37:41Z</time>
      </trkpt>
      <trkpt lat="43.72684" lon="6.96834">
        <ele>842.625</ele>
        <time>2016-01-30T08:37:48Z</time>
      </trkpt>
      <trkpt lat="43.72691" lon="6.96829">
        <ele>842.974</ele>
        <time>2016-01-30T08:37:53Z</time>
      </trkpt>
      <trkpt lat="43.72699" lon="6.96819">
        <ele>844.345</ele>
        <time>2016-01-30T08:38:01Z</time>
      </trkpt>
      <trkpt lat="43.72705" lon="6.96815">
        <ele>845.707</ele>
        <time>2016-01-30T08:38:06Z</time>
      </trkpt>
      <trkpt lat="43.72706" lon="6.96809">
        <ele>846.356</ele>
        <time>2016-01-30T08:38:09Z</time>
      </trkpt>
      <trkpt lat="43.72709" lon="6.96806">
        <ele>847.095</ele>
        <time>2016-01-30T08:38:12Z</time>
      </trkpt>
      <trkpt lat="43.72711" lon="6.968">
        <ele>848.113</ele>
        <time>2016-01-30T08:38:19Z</time>
      </trkpt>
      <trkpt lat="43.72704" lon="6.96798">
        <ele>857.472</ele>
        <time>2016-01-30T08:40:19Z</time>
      </trkpt>
      <trkpt lat="43.72704" lon="6.96796">
        <ele>865.187</ele>
        <time>2016-01-30T08:40:33Z</time>
      </trkpt>
      <trkpt lat="43.72701" lon="6.96787">
        <ele>864.343</ele>
        <time>2016-01-30T08:40:38Z</time>
      </trkpt>
      <trkpt lat="43.72702" lon="6.96784">
        <ele>863.812</ele>
        <time>2016-01-30T08:40:39Z</time>
      </trkpt>
      <trkpt lat="43.72709" lon="6.96766">
        <ele>862.543</ele>
        <time>2016-01-30T08:40:46Z</time>
      </trkpt>
      <trkpt lat="43.72713" lon="6.96742">
        <ele>862.235</ele>
        <time>2016-01-30T08:40:55Z</time>
      </trkpt>
      <trkpt lat="43.72716" lon="6.96716">
        <ele>862.635</ele>
        <time>2016-01-30T08:41:04Z</time>
      </trkpt>
      <trkpt lat="43.7272" lon="6.9669">
        <ele>863.475</ele>
        <time>2016-01-30T08:41:13Z</time>
      </trkpt>
      <trkpt lat="43.72724" lon="6.96664">
        <ele>864.335</ele>
        <time>2016-01-30T08:41:22Z</time>
      </trkpt>
      <trkpt lat="43.72726" lon="6.96636">
        <ele>866.216</ele>
        <time>2016-01-30T08:41:32Z</time>
      </trkpt>
      <trkpt lat="43.72728" lon="6.96616">
        <ele>867.997</ele>
        <time>2016-01-30T08:41:39Z</time>
      </trkpt>
      <trkpt lat="43.7273" lon="6.96593">
        <ele>868.786</ele>
        <time>2016-01-30T08:41:47Z</time>
      </trkpt>
      <trkpt lat="43.72731" lon="6.96563">
        <ele>869.855</ele>
        <time>2016-01-30T08:41:57Z</time>
      </trkpt>
      <trkpt lat="43.7273" lon="6.96527">
        <ele>872.476</ele>
        <time>2016-01-30T08:42:09Z</time>
      </trkpt>
      <trkpt lat="43.72729" lon="6.96498">
        <ele>875.56</ele>
        <time>2016-01-30T08:42:19Z</time>
      </trkpt>
      <trkpt lat="43.72728" lon="6.96471">
        <ele>876.114</ele>
        <time>2016-01-30T08:42:28Z</time>
      </trkpt>
      <trkpt lat="43.72727" lon="6.9644">
        <ele>876.623</ele>
        <time>2016-01-30T08:42:38Z</time>
      </trkpt>
      <trkpt lat="43.72726" lon="6.96414">
        <ele>878.425</ele>
        <time>2016-01-30T08:42:47Z</time>
      </trkpt>
      <trkpt lat="43.72726" lon="6.96381">
        <ele>881.955</ele>
        <time>2016-01-30T08:42:58Z</time>
      </trkpt>
      <trkpt lat="43.72725" lon="6.96346">
        <ele>884.404</ele>
        <time>2016-01-30T08:43:10Z</time>
      </trkpt>
      <trkpt lat="43.72723" lon="6.96314">
        <ele>885.104</ele>
        <time>2016-01-30T08:43:21Z</time>
      </trkpt>
      <trkpt lat="43.72723" lon="6.96286">
        <ele>885.964</ele>
        <time>2016-01-30T08:43:31Z</time>
      </trkpt>
      <trkpt lat="43.72723" lon="6.96262">
        <ele>886.955</ele>
        <time>2016-01-30T08:43:39Z</time>
      </trkpt>
      <trkpt lat="43.72725" lon="6.96239">
        <ele>887.853</ele>
        <time>2016-01-30T08:43:48Z</time>
      </trkpt>
      <trkpt lat="43.72731" lon="6.96222">
        <ele>887.943</ele>
        <time>2016-01-30T08:43:55Z</time>
      </trkpt>
      <trkpt lat="43.72739" lon="6.96198">
        <ele>888.745</ele>
        <time>2016-01-30T08:44:04Z</time>
      </trkpt>
      <trkpt lat="43.72752" lon="6.96172">
        <ele>888.323</ele>
        <time>2016-01-30T08:44:14Z</time>
      </trkpt>
      <trkpt lat="43.72762" lon="6.96155">
        <ele>887.679</ele>
        <time>2016-01-30T08:44:21Z</time>
      </trkpt>
      <trkpt lat="43.72778" lon="6.96132">
        <ele>887.495</ele>
        <time>2016-01-30T08:44:31Z</time>
      </trkpt>
      <trkpt lat="43.72797" lon="6.96111">
        <ele>887.944</ele>
        <time>2016-01-30T08:44:41Z</time>
      </trkpt>
      <trkpt lat="43.72815" lon="6.96095">
        <ele>891.185</ele>
        <time>2016-01-30T08:44:50Z</time>
      </trkpt>
      <trkpt lat="43.72831" lon="6.96084">
        <ele>893.654</ele>
        <time>2016-01-30T08:44:58Z</time>
      </trkpt>
      <trkpt lat="43.72849" lon="6.96074">
        <ele>894.382</ele>
        <time>2016-01-30T08:45:07Z</time>
      </trkpt>
      <trkpt lat="43.72868" lon="6.96062">
        <ele>896.594</ele>
        <time>2016-01-30T08:45:16Z</time>
      </trkpt>
      <trkpt lat="43.72889" lon="6.96052">
        <ele>900.175</ele>
        <time>2016-01-30T08:45:26Z</time>
      </trkpt>
      <trkpt lat="43.72897" lon="6.96048">
        <ele>901.575</ele>
        <time>2016-01-30T08:45:31Z</time>
      </trkpt>
      <trkpt lat="43.72895" lon="6.96047">
        <ele>901.98</ele>
        <time>2016-01-30T08:45:38Z</time>
      </trkpt>
      <trkpt lat="43.72897" lon="6.9605">
        <ele>898.517</ele>
        <time>2016-01-30T08:45:55Z</time>
      </trkpt>
      <trkpt lat="43.72896" lon="6.96045">
        <ele>900.997</ele>
        <time>2016-01-30T09:02:40Z</time>
      </trkpt>
      <trkpt lat="43.72897" lon="6.96044">
        <ele>901.164</ele>
        <time>2016-01-30T09:02:47Z</time>
      </trkpt>
      <trkpt lat="43.72904" lon="6.96041">
        <ele>899.602</ele>
        <time>2016-01-30T09:02:52Z</time>
      </trkpt>
      <trkpt lat="43.72931" lon="6.96029">
        <ele>896.842</ele>
        <time>2016-01-30T09:03:03Z</time>
      </trkpt>
      <trkpt lat="43.72952" lon="6.96018">
        <ele>896.253</ele>
        <time>2016-01-30T09:03:13Z</time>
      </trkpt>
      <trkpt lat="43.72965" lon="6.96011">
        <ele>896.353</ele>
        <time>2016-01-30T09:03:20Z</time>
      </trkpt>
      <trkpt lat="43.72976" lon="6.96006">
        <ele>896.775</ele>
        <time>2016-01-30T09:03:25Z</time>
      </trkpt>
      <trkpt lat="43.72996" lon="6.95993">
        <ele>898.876</ele>
        <time>2016-01-30T09:03:34Z</time>
      </trkpt>
      <trkpt lat="43.73016" lon="6.95982">
        <ele>900.316</ele>
        <time>2016-01-30T09:03:42Z</time>
      </trkpt>
      <trkpt lat="43.73038" lon="6.95978">
        <ele>900.495</ele>
        <time>2016-01-30T09:03:51Z</time>
      </trkpt>
      <trkpt lat="43.73059" lon="6.95973">
        <ele>901.295</ele>
        <time>2016-01-30T09:04:00Z</time>
      </trkpt>
      <trkpt lat="43.73081" lon="6.95964">
        <ele>902.724</ele>
        <time>2016-01-30T09:04:10Z</time>
      </trkpt>
      <trkpt lat="43.73096" lon="6.95954">
        <ele>904.586</ele>
        <time>2016-01-30T09:04:17Z</time>
      </trkpt>
      <trkpt lat="43.73115" lon="6.95938">
        <ele>910.457</ele>
        <time>2016-01-30T09:04:27Z</time>
      </trkpt>
      <trkpt lat="43.73133" lon="6.95925">
        <ele>914.525</ele>
        <time>2016-01-30T09:04:36Z</time>
      </trkpt>
      <trkpt lat="43.7315" lon="6.95914">
        <ele>914.755</ele>
        <time>2016-01-30T09:04:44Z</time>
      </trkpt>
      <trkpt lat="43.73167" lon="6.95903">
        <ele>915.266</ele>
        <time>2016-01-30T09:04:52Z</time>
      </trkpt>
      <trkpt lat="43.73187" lon="6.95886">
        <ele>919.056</ele>
        <time>2016-01-30T09:05:02Z</time>
      </trkpt>
      <trkpt lat="43.7321" lon="6.95861">
        <ele>921.756</ele>
        <time>2016-01-30T09:05:14Z</time>
      </trkpt>
      <trkpt lat="43.73225" lon="6.95845">
        <ele>922.315</ele>
        <time>2016-01-30T09:05:22Z</time>
      </trkpt>
      <trkpt lat="43.73237" lon="6.95831">
        <ele>922.736</ele>
        <time>2016-01-30T09:05:29Z</time>
      </trkpt>
      <trkpt lat="43.73253" lon="6.95813">
        <ele>924.386</ele>
        <time>2016-01-30T09:05:38Z</time>
      </trkpt>
      <trkpt lat="43.73266" lon="6.95803">
        <ele>925.466</ele>
        <time>2016-01-30T09:05:45Z</time>
      </trkpt>
      <trkpt lat="43.73285" lon="6.95798">
        <ele>926.597</ele>
        <time>2016-01-30T09:05:53Z</time>
      </trkpt>
      <trkpt lat="43.73304" lon="6.95801">
        <ele>926.845</ele>
        <time>2016-01-30T09:06:01Z</time>
      </trkpt>
      <trkpt lat="43.7332" lon="6.95803">
        <ele>927.565</ele>
        <time>2016-01-30T09:06:08Z</time>
      </trkpt>
      <trkpt lat="43.73343" lon="6.95808">
        <ele>929.666</ele>
        <time>2016-01-30T09:06:18Z</time>
      </trkpt>
      <trkpt lat="43.73362" lon="6.95811">
        <ele>931.232</ele>
        <time>2016-01-30T09:06:26Z</time>
      </trkpt>
      <trkpt lat="43.73376" lon="6.95811">
        <ele>931.933</ele>
        <time>2016-01-30T09:06:32Z</time>
      </trkpt>
      <trkpt lat="43.73388" lon="6.95802">
        <ele>933.084</ele>
        <time>2016-01-30T09:06:38Z</time>
      </trkpt>
      <trkpt lat="43.73397" lon="6.95784">
        <ele>933.396</ele>
        <time>2016-01-30T09:06:45Z</time>
      </trkpt>
      <trkpt lat="43.73397" lon="6.95765">
        <ele>935.267</ele>
        <time>2016-01-30T09:06:51Z</time>
      </trkpt>
      <trkpt lat="43.73389" lon="6.95743">
        <ele>937.509</ele>
        <time>2016-01-30T09:06:58Z</time>
      </trkpt>
      <trkpt lat="43.7338" lon="6.95722">
        <ele>940.378</ele>
        <time>2016-01-30T09:07:05Z</time>
      </trkpt>
      <trkpt lat="43.73379" lon="6.95702">
        <ele>941.31</ele>
        <time>2016-01-30T09:07:11Z</time>
      </trkpt>
      <trkpt lat="43.73384" lon="6.9568">
        <ele>943.228</ele>
        <time>2016-01-30T09:07:18Z</time>
      </trkpt>
      <trkpt lat="43.73394" lon="6.95654">
        <ele>945.246</ele>
        <time>2016-01-30T09:07:27Z</time>
      </trkpt>
      <trkpt lat="43.73407" lon="6.95628">
        <ele>948.268</ele>
        <time>2016-01-30T09:07:37Z</time>
      </trkpt>
      <trkpt lat="43.73426" lon="6.95603">
        <ele>951.367</ele>
        <time>2016-01-30T09:07:48Z</time>
      </trkpt>
      <trkpt lat="43.73439" lon="6.95588">
        <ele>952.817</ele>
        <time>2016-01-30T09:07:55Z</time>
      </trkpt>
      <trkpt lat="43.73452" lon="6.95569">
        <ele>953.986</ele>
        <time>2016-01-30T09:08:03Z</time>
      </trkpt>
      <trkpt lat="43.73457" lon="6.95546">
        <ele>955.315</ele>
        <time>2016-01-30T09:08:10Z</time>
      </trkpt>
      <trkpt lat="43.73455" lon="6.9552">
        <ele>959.128</ele>
        <time>2016-01-30T09:08:18Z</time>
      </trkpt>
      <trkpt lat="43.73457" lon="6.95501">
        <ele>960.548</ele>
        <time>2016-01-30T09:08:24Z</time>
      </trkpt>
      <trkpt lat="43.73457" lon="6.95474">
        <ele>962.6</ele>
        <time>2016-01-30T09:08:32Z</time>
      </trkpt>
      <trkpt lat="43.73457" lon="6.95449">
        <ele>964.797</ele>
        <time>2016-01-30T09:08:40Z</time>
      </trkpt>
      <trkpt lat="43.73458" lon="6.95409">
        <ele>967.868</ele>
        <time>2016-01-30T09:08:52Z</time>
      </trkpt>
      <trkpt lat="43.73458" lon="6.95386">
        <ele>970.368</ele>
        <time>2016-01-30T09:08:59Z</time>
      </trkpt>
      <trkpt lat="43.73462" lon="6.9536">
        <ele>970.748</ele>
        <time>2016-01-30T09:09:07Z</time>
      </trkpt>
      <trkpt lat="43.73469" lon="6.95337">
        <ele>971.036</ele>
        <time>2016-01-30T09:09:14Z</time>
      </trkpt>
      <trkpt lat="43.73477" lon="6.95319">
        <ele>971.796</ele>
        <time>2016-01-30T09:09:20Z</time>
      </trkpt>
      <trkpt lat="43.73489" lon="6.95297">
        <ele>972.555</ele>
        <time>2016-01-30T09:09:28Z</time>
      </trkpt>
      <trkpt lat="43.73503" lon="6.95275">
        <ele>973.236</ele>
        <time>2016-01-30T09:09:37Z</time>
      </trkpt>
      <trkpt lat="43.73518" lon="6.95253">
        <ele>973.796</ele>
        <time>2016-01-30T09:09:46Z</time>
      </trkpt>
      <trkpt lat="43.73529" lon="6.95236">
        <ele>974.597</ele>
        <time>2016-01-30T09:09:53Z</time>
      </trkpt>
      <trkpt lat="43.73539" lon="6.9522">
        <ele>975.758</ele>
        <time>2016-01-30T09:10:00Z</time>
      </trkpt>
      <trkpt lat="43.73556" lon="6.95197">
        <ele>976.585</ele>
        <time>2016-01-30T09:10:10Z</time>
      </trkpt>
      <trkpt lat="43.7357" lon="6.95183">
        <ele>977.475</ele>
        <time>2016-01-30T09:10:18Z</time>
      </trkpt>
      <trkpt lat="43.73587" lon="6.95168">
        <ele>978.174</ele>
        <time>2016-01-30T09:10:27Z</time>
      </trkpt>
      <trkpt lat="43.73601" lon="6.95154">
        <ele>979.185</ele>
        <time>2016-01-30T09:10:35Z</time>
      </trkpt>
      <trkpt lat="43.73611" lon="6.95135">
        <ele>980.095</ele>
        <time>2016-01-30T09:10:43Z</time>
      </trkpt>
      <trkpt lat="43.73609" lon="6.95116">
        <ele>983.166</ele>
        <time>2016-01-30T09:10:49Z</time>
      </trkpt>
      <trkpt lat="43.73601" lon="6.95107">
        <ele>984.237</ele>
        <time>2016-01-30T09:10:54Z</time>
      </trkpt>
      <trkpt lat="43.73589" lon="6.95107">
        <ele>985.658</ele>
        <time>2016-01-30T09:11:00Z</time>
      </trkpt>
      <trkpt lat="43.73572" lon="6.95108">
        <ele>987.047</ele>
        <time>2016-01-30T09:11:08Z</time>
      </trkpt>
      <trkpt lat="43.73547" lon="6.95106">
        <ele>991.389</ele>
        <time>2016-01-30T09:11:19Z</time>
      </trkpt>
      <trkpt lat="43.73524" lon="6.95107">
        <ele>992.256</ele>
        <time>2016-01-30T09:11:30Z</time>
      </trkpt>
      <trkpt lat="43.73503" lon="6.95107">
        <ele>994.286</ele>
        <time>2016-01-30T09:11:40Z</time>
      </trkpt>
      <trkpt lat="43.73486" lon="6.95107">
        <ele>996.237</ele>
        <time>2016-01-30T09:11:48Z</time>
      </trkpt>
      <trkpt lat="43.73468" lon="6.95108">
        <ele>998.396</ele>
        <time>2016-01-30T09:11:57Z</time>
      </trkpt>
      <trkpt lat="43.7345" lon="6.95103">
        <ele>1000.276</ele>
        <time>2016-01-30T09:12:06Z</time>
      </trkpt>
      <trkpt lat="43.73432" lon="6.95094">
        <ele>997.682</ele>
        <time>2016-01-30T09:12:14Z</time>
      </trkpt>
      <trkpt lat="43.73417" lon="6.95088">
        <ele>998.867</ele>
        <time>2016-01-30T09:12:21Z</time>
      </trkpt>
      <trkpt lat="43.734" lon="6.95089">
        <ele>997.373</ele>
        <time>2016-01-30T09:12:28Z</time>
      </trkpt>
      <trkpt lat="43.73389" lon="6.95098">
        <ele>998.466</ele>
        <time>2016-01-30T09:12:34Z</time>
      </trkpt>
      <trkpt lat="43.73375" lon="6.95114">
        <ele>998.594</ele>
        <time>2016-01-30T09:12:42Z</time>
      </trkpt>
      <trkpt lat="43.73363" lon="6.95132">
        <ele>999.013</ele>
        <time>2016-01-30T09:12:49Z</time>
      </trkpt>
      <trkpt lat="43.73348" lon="6.95151">
        <ele>1004.12</ele>
        <time>2016-01-30T09:12:58Z</time>
      </trkpt>
      <trkpt lat="43.73334" lon="6.95166">
        <ele>1006.235</ele>
        <time>2016-01-30T09:13:06Z</time>
      </trkpt>
      <trkpt lat="43.73319" lon="6.95177">
        <ele>1006.795</ele>
        <time>2016-01-30T09:13:14Z</time>
      </trkpt>
      <trkpt lat="43.73304" lon="6.95184">
        <ele>1009.451</ele>
        <time>2016-01-30T09:13:22Z</time>
      </trkpt>
      <trkpt lat="43.73292" lon="6.95186">
        <ele>1010.842</ele>
        <time>2016-01-30T09:13:28Z</time>
      </trkpt>
      <trkpt lat="43.73278" lon="6.95185">
        <ele>1012.778</ele>
        <time>2016-01-30T09:13:35Z</time>
      </trkpt>
      <trkpt lat="43.73261" lon="6.95182">
        <ele>1015.25</ele>
        <time>2016-01-30T09:13:43Z</time>
      </trkpt>
      <trkpt lat="43.73244" lon="6.9518">
        <ele>1016.97</ele>
        <time>2016-01-30T09:13:51Z</time>
      </trkpt>
      <trkpt lat="43.73229" lon="6.95178">
        <ele>1018.232</ele>
        <time>2016-01-30T09:13:58Z</time>
      </trkpt>
      <trkpt lat="43.73213" lon="6.95173">
        <ele>1019.329</ele>
        <time>2016-01-30T09:14:06Z</time>
      </trkpt>
      <trkpt lat="43.73193" lon="6.95174">
        <ele>1019.914</ele>
        <time>2016-01-30T09:14:15Z</time>
      </trkpt>
      <trkpt lat="43.7318" lon="6.95184">
        <ele>1020.557</ele>
        <time>2016-01-30T09:14:22Z</time>
      </trkpt>
      <trkpt lat="43.73174" lon="6.95201">
        <ele>1021.262</ele>
        <time>2016-01-30T09:14:28Z</time>
      </trkpt>
      <trkpt lat="43.73169" lon="6.9522">
        <ele>1022.727</ele>
        <time>2016-01-30T09:14:34Z</time>
      </trkpt>
      <trkpt lat="43.73166" lon="6.9525">
        <ele>1026.812</ele>
        <time>2016-01-30T09:14:44Z</time>
      </trkpt>
      <trkpt lat="43.73162" lon="6.95274">
        <ele>1031.216</ele>
        <time>2016-01-30T09:14:53Z</time>
      </trkpt>
      <trkpt lat="43.73156" lon="6.9529">
        <ele>1030.732</ele>
        <time>2016-01-30T09:14:59Z</time>
      </trkpt>
      <trkpt lat="43.73144" lon="6.95309">
        <ele>1029.856</ele>
        <time>2016-01-30T09:15:08Z</time>
      </trkpt>
      <trkpt lat="43.73132" lon="6.95327">
        <ele>1028.855</ele>
        <time>2016-01-30T09:15:16Z</time>
      </trkpt>
      <trkpt lat="43.73122" lon="6.9534">
        <ele>1027.425</ele>
        <time>2016-01-30T09:15:23Z</time>
      </trkpt>
      <trkpt lat="43.73111" lon="6.95336">
        <ele>1027.485</ele>
        <time>2016-01-30T09:15:29Z</time>
      </trkpt>
      <trkpt lat="43.73109" lon="6.95324">
        <ele>1027.152</ele>
        <time>2016-01-30T09:15:34Z</time>
      </trkpt>
      <trkpt lat="43.73114" lon="6.95312">
        <ele>1027.813</ele>
        <time>2016-01-30T09:15:39Z</time>
      </trkpt>
      <trkpt lat="43.73121" lon="6.95298">
        <ele>1027.723</ele>
        <time>2016-01-30T09:15:45Z</time>
      </trkpt>
      <trkpt lat="43.73127" lon="6.95278">
        <ele>1027.963</ele>
        <time>2016-01-30T09:15:53Z</time>
      </trkpt>
      <trkpt lat="43.73131" lon="6.95255">
        <ele>1027.762</ele>
        <time>2016-01-30T09:16:01Z</time>
      </trkpt>
      <trkpt lat="43.73132" lon="6.95246">
        <ele>1027.483</ele>
        <time>2016-01-30T09:16:04Z</time>
      </trkpt>
      <trkpt lat="43.73126" lon="6.95242">
        <ele>1027.665</ele>
        <time>2016-01-30T09:16:08Z</time>
      </trkpt>
      <trkpt lat="43.73116" lon="6.95247">
        <ele>1029.386</ele>
        <time>2016-01-30T09:16:15Z</time>
      </trkpt>
      <trkpt lat="43.73114" lon="6.95249">
        <ele>1029.837</ele>
        <time>2016-01-30T09:16:16Z</time>
      </trkpt>
      <trkpt lat="43.73103" lon="6.9526">
        <ele>1031.655</ele>
        <time>2016-01-30T09:16:24Z</time>
      </trkpt>
      <trkpt lat="43.73095" lon="6.95271">
        <ele>1031.161</ele>
        <time>2016-01-30T09:16:30Z</time>
      </trkpt>
      <trkpt lat="43.73084" lon="6.95287">
        <ele>1031.542</ele>
        <time>2016-01-30T09:16:38Z</time>
      </trkpt>
      <trkpt lat="43.73074" lon="6.95288">
        <ele>1031.593</ele>
        <time>2016-01-30T09:16:44Z</time>
      </trkpt>
      <trkpt lat="43.73062" lon="6.95284">
        <ele>1033.84</ele>
        <time>2016-01-30T09:16:51Z</time>
      </trkpt>
      <trkpt lat="43.73049" lon="6.95283">
        <ele>1034.364</ele>
        <time>2016-01-30T09:16:58Z</time>
      </trkpt>
      <trkpt lat="43.73038" lon="6.95277">
        <ele>1034.833</ele>
        <time>2016-01-30T09:17:05Z</time>
      </trkpt>
      <trkpt lat="43.73025" lon="6.95269">
        <ele>1035.561</ele>
        <time>2016-01-30T09:17:12Z</time>
      </trkpt>
      <trkpt lat="43.73019" lon="6.95267">
        <ele>1035.33</ele>
        <time>2016-01-30T09:17:15Z</time>
      </trkpt>
      <trkpt lat="43.73009" lon="6.95267">
        <ele>1035.473</ele>
        <time>2016-01-30T09:17:20Z</time>
      </trkpt>
      <trkpt lat="43.72994" lon="6.95269">
        <ele>1036.163</ele>
        <time>2016-01-30T09:17:28Z</time>
      </trkpt>
      <trkpt lat="43.72984" lon="6.95266">
        <ele>1038.339</ele>
        <time>2016-01-30T09:17:35Z</time>
      </trkpt>
      <trkpt lat="43.72974" lon="6.95261">
        <ele>1041.243</ele>
        <time>2016-01-30T09:17:42Z</time>
      </trkpt>
      <trkpt lat="43.72966" lon="6.95258">
        <ele>1044.253</ele>
        <time>2016-01-30T09:17:50Z</time>
      </trkpt>
      <trkpt lat="43.72962" lon="6.95256">
        <ele>1044.969</ele>
        <time>2016-01-30T09:17:53Z</time>
      </trkpt>
      <trkpt lat="43.7296" lon="6.95245">
        <ele>1044.743</ele>
        <time>2016-01-30T09:17:59Z</time>
      </trkpt>
      <trkpt lat="43.72964" lon="6.95234">
        <ele>1045.195</ele>
        <time>2016-01-30T09:18:06Z</time>
      </trkpt>
      <trkpt lat="43.72969" lon="6.95223">
        <ele>1046.555</ele>
        <time>2016-01-30T09:18:13Z</time>
      </trkpt>
      <trkpt lat="43.72974" lon="6.95209">
        <ele>1047.496</ele>
        <time>2016-01-30T09:18:21Z</time>
      </trkpt>
      <trkpt lat="43.72981" lon="6.95195">
        <ele>1048.522</ele>
        <time>2016-01-30T09:18:29Z</time>
      </trkpt>
      <trkpt lat="43.72991" lon="6.95182">
        <ele>1048.152</ele>
        <time>2016-01-30T09:18:38Z</time>
      </trkpt>
      <trkpt lat="43.72996" lon="6.95176">
        <ele>1048.024</ele>
        <time>2016-01-30T09:18:43Z</time>
      </trkpt>
      <trkpt lat="43.72996" lon="6.95158">
        <ele>1049.634</ele>
        <time>2016-01-30T09:18:51Z</time>
      </trkpt>
      <trkpt lat="43.72989" lon="6.95149">
        <ele>1051.529</ele>
        <time>2016-01-30T09:18:57Z</time>
      </trkpt>
      <trkpt lat="43.72977" lon="6.95145">
        <ele>1054.638</ele>
        <time>2016-01-30T09:19:06Z</time>
      </trkpt>
      <trkpt lat="43.72967" lon="6.95147">
        <ele>1057.8</ele>
        <time>2016-01-30T09:19:14Z</time>
      </trkpt>
      <trkpt lat="43.72954" lon="6.95142">
        <ele>1060.297</ele>
        <time>2016-01-30T09:19:24Z</time>
      </trkpt>
      <trkpt lat="43.72944" lon="6.9514">
        <ele>1061.394</ele>
        <time>2016-01-30T09:19:30Z</time>
      </trkpt>
      <trkpt lat="43.7293" lon="6.95138">
        <ele>1062.465</ele>
        <time>2016-01-30T09:19:39Z</time>
      </trkpt>
      <trkpt lat="43.72912" lon="6.95135">
        <ele>1063.087</ele>
        <time>2016-01-30T09:19:50Z</time>
      </trkpt>
      <trkpt lat="43.72903" lon="6.95135">
        <ele>1062.882</ele>
        <time>2016-01-30T09:19:55Z</time>
      </trkpt>
      <trkpt lat="43.72892" lon="6.95131">
        <ele>1063.125</ele>
        <time>2016-01-30T09:20:02Z</time>
      </trkpt>
      <trkpt lat="43.72884" lon="6.95122">
        <ele>1063.456</ele>
        <time>2016-01-30T09:20:09Z</time>
      </trkpt>
      <trkpt lat="43.72891" lon="6.95108">
        <ele>1063.604</ele>
        <time>2016-01-30T09:20:17Z</time>
      </trkpt>
      <trkpt lat="43.72899" lon="6.95094">
        <ele>1062.902</ele>
        <time>2016-01-30T09:20:25Z</time>
      </trkpt>
      <trkpt lat="43.72909" lon="6.95077">
        <ele>1062.882</ele>
        <time>2016-01-30T09:20:33Z</time>
      </trkpt>
      <trkpt lat="43.72924" lon="6.95061">
        <ele>1062.731</ele>
        <time>2016-01-30T09:20:43Z</time>
      </trkpt>
      <trkpt lat="43.72937" lon="6.95046">
        <ele>1064.725</ele>
        <time>2016-01-30T09:20:52Z</time>
      </trkpt>
      <trkpt lat="43.72945" lon="6.95037">
        <ele>1067.514</ele>
        <time>2016-01-30T09:20:59Z</time>
      </trkpt>
      <trkpt lat="43.72956" lon="6.95028">
        <ele>1069.523</ele>
        <time>2016-01-30T09:21:06Z</time>
      </trkpt>
      <trkpt lat="43.72963" lon="6.95019">
        <ele>1070.654</ele>
        <time>2016-01-30T09:21:13Z</time>
      </trkpt>
      <trkpt lat="43.72967" lon="6.9501">
        <ele>1071.632</ele>
        <time>2016-01-30T09:21:19Z</time>
      </trkpt>
      <trkpt lat="43.72974" lon="6.94995">
        <ele>1071.672</ele>
        <time>2016-01-30T09:21:27Z</time>
      </trkpt>
      <trkpt lat="43.72981" lon="6.94978">
        <ele>1074.104</ele>
        <time>2016-01-30T09:21:35Z</time>
      </trkpt>
      <trkpt lat="43.72987" lon="6.94965">
        <ele>1076.015</ele>
        <time>2016-01-30T09:21:42Z</time>
      </trkpt>
      <trkpt lat="43.72992" lon="6.94952">
        <ele>1077.896</ele>
        <time>2016-01-30T09:21:49Z</time>
      </trkpt>
      <trkpt lat="43.72992" lon="6.9495">
        <ele>1078.015</ele>
        <time>2016-01-30T09:21:50Z</time>
      </trkpt>
      <trkpt lat="43.72987" lon="6.94937">
        <ele>1080.722</ele>
        <time>2016-01-30T09:21:58Z</time>
      </trkpt>
      <trkpt lat="43.7298" lon="6.94934">
        <ele>1083.365</ele>
        <time>2016-01-30T09:22:05Z</time>
      </trkpt>
      <trkpt lat="43.72976" lon="6.94932">
        <ele>1084.452</ele>
        <time>2016-01-30T09:22:09Z</time>
      </trkpt>
      <trkpt lat="43.72962" lon="6.94929">
        <ele>1083.935</ele>
        <time>2016-01-30T09:22:18Z</time>
      </trkpt>
      <trkpt lat="43.72949" lon="6.94927">
        <ele>1084.115</ele>
        <time>2016-01-30T09:22:26Z</time>
      </trkpt>
      <trkpt lat="43.72934" lon="6.94928">
        <ele>1083.663</ele>
        <time>2016-01-30T09:22:35Z</time>
      </trkpt>
      <trkpt lat="43.72919" lon="6.94928">
        <ele>1084.675</ele>
        <time>2016-01-30T09:22:44Z</time>
      </trkpt>
      <trkpt lat="43.72905" lon="6.94925">
        <ele>1085.684</ele>
        <time>2016-01-30T09:22:53Z</time>
      </trkpt>
      <trkpt lat="43.72889" lon="6.94926">
        <ele>1086.204</ele>
        <time>2016-01-30T09:23:02Z</time>
      </trkpt>
      <trkpt lat="43.72877" lon="6.94918">
        <ele>1089.497</ele>
        <time>2016-01-30T09:23:11Z</time>
      </trkpt>
      <trkpt lat="43.72871" lon="6.9491">
        <ele>1090.705</ele>
        <time>2016-01-30T09:23:16Z</time>
      </trkpt>
      <trkpt lat="43.72865" lon="6.94907">
        <ele>1091.426</ele>
        <time>2016-01-30T09:23:20Z</time>
      </trkpt>
      <trkpt lat="43.72857" lon="6.94898">
        <ele>1093.167</ele>
        <time>2016-01-30T09:23:27Z</time>
      </trkpt>
      <trkpt lat="43.72855" lon="6.94888">
        <ele>1094.015</ele>
        <time>2016-01-30T09:23:33Z</time>
      </trkpt>
      <trkpt lat="43.72858" lon="6.94872">
        <ele>1095.635</ele>
        <time>2016-01-30T09:23:41Z</time>
      </trkpt>
      <trkpt lat="43.7286" lon="6.9486">
        <ele>1095.622</ele>
        <time>2016-01-30T09:23:47Z</time>
      </trkpt>
      <trkpt lat="43.7286" lon="6.94856">
        <ele>1096.014</ele>
        <time>2016-01-30T09:23:49Z</time>
      </trkpt>
      <trkpt lat="43.7285" lon="6.94847">
        <ele>1097.141</ele>
        <time>2016-01-30T09:23:57Z</time>
      </trkpt>
      <trkpt lat="43.72843" lon="6.94839">
        <ele>1098.382</ele>
        <time>2016-01-30T09:24:03Z</time>
      </trkpt>
      <trkpt lat="43.72834" lon="6.94818">
        <ele>1097.408</ele>
        <time>2016-01-30T09:24:12Z</time>
      </trkpt>
      <trkpt lat="43.72836" lon="6.94797">
        <ele>1097.663</ele>
        <time>2016-01-30T09:24:20Z</time>
      </trkpt>
      <trkpt lat="43.72839" lon="6.94784">
        <ele>1098.855</ele>
        <time>2016-01-30T09:24:26Z</time>
      </trkpt>
      <trkpt lat="43.72836" lon="6.94771">
        <ele>1100.384</ele>
        <time>2016-01-30T09:24:33Z</time>
      </trkpt>
      <trkpt lat="43.72831" lon="6.94759">
        <ele>1102.025</ele>
        <time>2016-01-30T09:24:40Z</time>
      </trkpt>
      <trkpt lat="43.72825" lon="6.94748">
        <ele>1103.953</ele>
        <time>2016-01-30T09:24:48Z</time>
      </trkpt>
      <trkpt lat="43.72819" lon="6.94738">
        <ele>1105.574</ele>
        <time>2016-01-30T09:24:55Z</time>
      </trkpt>
      <trkpt lat="43.7281" lon="6.94727">
        <ele>1106.852</ele>
        <time>2016-01-30T09:25:03Z</time>
      </trkpt>
      <trkpt lat="43.72802" lon="6.94716">
        <ele>1108.124</ele>
        <time>2016-01-30T09:25:10Z</time>
      </trkpt>
      <trkpt lat="43.72799" lon="6.947">
        <ele>1108.51</ele>
        <time>2016-01-30T09:25:17Z</time>
      </trkpt>
      <trkpt lat="43.72797" lon="6.94687">
        <ele>1109.011</ele>
        <time>2016-01-30T09:25:23Z</time>
      </trkpt>
      <trkpt lat="43.72792" lon="6.94671">
        <ele>1109.972</ele>
        <time>2016-01-30T09:25:31Z</time>
      </trkpt>
      <trkpt lat="43.72789" lon="6.94654">
        <ele>1110.342</ele>
        <time>2016-01-30T09:25:39Z</time>
      </trkpt>
      <trkpt lat="43.72788" lon="6.94652">
        <ele>1110.442</ele>
        <time>2016-01-30T09:25:40Z</time>
      </trkpt>
      <trkpt lat="43.72783" lon="6.94638">
        <ele>1111.322</ele>
        <time>2016-01-30T09:25:48Z</time>
      </trkpt>
      <trkpt lat="43.72781" lon="6.94632">
        <ele>1111.12</ele>
        <time>2016-01-30T09:25:54Z</time>
      </trkpt>
      <trkpt lat="43.72783" lon="6.94631">
        <ele>1106.614</ele>
        <time>2016-01-30T09:26:43Z</time>
      </trkpt>
      <trkpt lat="43.72787" lon="6.94626">
        <ele>1107.787</ele>
        <time>2016-01-30T09:27:17Z</time>
      </trkpt>
      <trkpt lat="43.72783" lon="6.94612">
        <ele>1110.223</ele>
        <time>2016-01-30T09:27:25Z</time>
      </trkpt>
      <trkpt lat="43.72782" lon="6.94604">
        <ele>1111.104</ele>
        <time>2016-01-30T09:27:30Z</time>
      </trkpt>
      <trkpt lat="43.72786" lon="6.94597">
        <ele>1111.167</ele>
        <time>2016-01-30T09:27:36Z</time>
      </trkpt>
      <trkpt lat="43.72787" lon="6.94596">
        <ele>1110.916</ele>
        <time>2016-01-30T09:27:37Z</time>
      </trkpt>
      <trkpt lat="43.728" lon="6.94586">
        <ele>1109.739</ele>
        <time>2016-01-30T09:27:45Z</time>
      </trkpt>
      <trkpt lat="43.7281" lon="6.94579">
        <ele>1109.922</ele>
        <time>2016-01-30T09:27:51Z</time>
      </trkpt>
      <trkpt lat="43.72819" lon="6.94572">
        <ele>1110.322</ele>
        <time>2016-01-30T09:27:57Z</time>
      </trkpt>
      <trkpt lat="43.72831" lon="6.94561">
        <ele>1110.429</ele>
        <time>2016-01-30T09:28:05Z</time>
      </trkpt>
      <trkpt lat="43.72845" lon="6.94548">
        <ele>1110.187</ele>
        <time>2016-01-30T09:28:13Z</time>
      </trkpt>
      <trkpt lat="43.72857" lon="6.94535">
        <ele>1110.336</ele>
        <time>2016-01-30T09:28:20Z</time>
      </trkpt>
      <trkpt lat="43.72867" lon="6.94526">
        <ele>1111.187</ele>
        <time>2016-01-30T09:28:25Z</time>
      </trkpt>
      <trkpt lat="43.72883" lon="6.94516">
        <ele>1111.877</ele>
        <time>2016-01-30T09:28:32Z</time>
      </trkpt>
      <trkpt lat="43.729" lon="6.94502">
        <ele>1112.357</ele>
        <time>2016-01-30T09:28:39Z</time>
      </trkpt>
      <trkpt lat="43.72922" lon="6.94486">
        <ele>1112.829</ele>
        <time>2016-01-30T09:28:48Z</time>
      </trkpt>
      <trkpt lat="43.72931" lon="6.94477">
        <ele>1114.154</ele>
        <time>2016-01-30T09:28:55Z</time>
      </trkpt>
      <trkpt lat="43.7293" lon="6.94478">
        <ele>1115.954</ele>
        <time>2016-01-30T09:29:00Z</time>
      </trkpt>
      <trkpt lat="43.72934" lon="6.94476">
        <ele>1116.764</ele>
        <time>2016-01-30T09:29:05Z</time>
      </trkpt>
      <trkpt lat="43.72938" lon="6.94474">
        <ele>1116.979</ele>
        <time>2016-01-30T09:29:10Z</time>
      </trkpt>
      <trkpt lat="43.72944" lon="6.94469">
        <ele>1116.969</ele>
        <time>2016-01-30T09:29:17Z</time>
      </trkpt>
      <trkpt lat="43.72953" lon="6.94466">
        <ele>1117.883</ele>
        <time>2016-01-30T09:29:24Z</time>
      </trkpt>
      <trkpt lat="43.72961" lon="6.9446">
        <ele>1118.323</ele>
        <time>2016-01-30T09:29:29Z</time>
      </trkpt>
      <trkpt lat="43.72969" lon="6.94456">
        <ele>1118.771</ele>
        <time>2016-01-30T09:29:34Z</time>
      </trkpt>
      <trkpt lat="43.72977" lon="6.94458">
        <ele>1118.256</ele>
        <time>2016-01-30T09:29:38Z</time>
      </trkpt>
      <trkpt lat="43.72986" lon="6.94451">
        <ele>1117.453</ele>
        <time>2016-01-30T09:29:42Z</time>
      </trkpt>
      <trkpt lat="43.73004" lon="6.94444">
        <ele>1115.911</ele>
        <time>2016-01-30T09:29:48Z</time>
      </trkpt>
      <trkpt lat="43.73023" lon="6.94439">
        <ele>1114.515</ele>
        <time>2016-01-30T09:29:54Z</time>
      </trkpt>
      <trkpt lat="43.73037" lon="6.94431">
        <ele>1113.99</ele>
        <time>2016-01-30T09:30:00Z</time>
      </trkpt>
      <trkpt lat="43.73049" lon="6.94427">
        <ele>1114.321</ele>
        <time>2016-01-30T09:30:07Z</time>
      </trkpt>
      <trkpt lat="43.73054" lon="6.94425">
        <ele>1114.67</ele>
        <time>2016-01-30T09:30:11Z</time>
      </trkpt>
      <trkpt lat="43.73066" lon="6.9442">
        <ele>1115.54</ele>
        <time>2016-01-30T09:30:18Z</time>
      </trkpt>
      <trkpt lat="43.73077" lon="6.94416">
        <ele>1116.443</ele>
        <time>2016-01-30T09:30:25Z</time>
      </trkpt>
      <trkpt lat="43.73079" lon="6.94415">
        <ele>1116.532</ele>
        <time>2016-01-30T09:30:26Z</time>
      </trkpt>
      <trkpt lat="43.73089" lon="6.94412">
        <ele>1116.207</ele>
        <time>2016-01-30T09:30:32Z</time>
      </trkpt>
      <trkpt lat="43.73096" lon="6.94406">
        <ele>1116.419</ele>
        <time>2016-01-30T09:30:37Z</time>
      </trkpt>
      <trkpt lat="43.73105" lon="6.94394">
        <ele>1116.006</ele>
        <time>2016-01-30T09:30:44Z</time>
      </trkpt>
      <trkpt lat="43.73117" lon="6.94383">
        <ele>1115.144</ele>
        <time>2016-01-30T09:30:50Z</time>
      </trkpt>
      <trkpt lat="43.7313" lon="6.94369">
        <ele>1114.806</ele>
        <time>2016-01-30T09:30:56Z</time>
      </trkpt>
      <trkpt lat="43.73132" lon="6.94367">
        <ele>1114.655</ele>
        <time>2016-01-30T09:30:57Z</time>
      </trkpt>
      <trkpt lat="43.73146" lon="6.94351">
        <ele>1115.359</ele>
        <time>2016-01-30T09:31:04Z</time>
      </trkpt>
      <trkpt lat="43.73155" lon="6.94342">
        <ele>1115.949</ele>
        <time>2016-01-30T09:31:09Z</time>
      </trkpt>
      <trkpt lat="43.73157" lon="6.94341">
        <ele>1116.069</ele>
        <time>2016-01-30T09:31:10Z</time>
      </trkpt>
      <trkpt lat="43.73166" lon="6.9433">
        <ele>1116.218</ele>
        <time>2016-01-30T09:31:16Z</time>
      </trkpt>
      <trkpt lat="43.73177" lon="6.94323">
        <ele>1116.446</ele>
        <time>2016-01-30T09:31:21Z</time>
      </trkpt>
      <trkpt lat="43.73189" lon="6.94311">
        <ele>1115</ele>
        <time>2016-01-30T09:31:27Z</time>
      </trkpt>
      <trkpt lat="43.73209" lon="6.94296">
        <ele>1114.011</ele>
        <time>2016-01-30T09:31:35Z</time>
      </trkpt>
      <trkpt lat="43.73227" lon="6.94288">
        <ele>1112.314</ele>
        <time>2016-01-30T09:31:42Z</time>
      </trkpt>
      <trkpt lat="43.73244" lon="6.94282">
        <ele>1113.021</ele>
        <time>2016-01-30T09:31:50Z</time>
      </trkpt>
      <trkpt lat="43.73253" lon="6.94278">
        <ele>1113.982</ele>
        <time>2016-01-30T09:31:55Z</time>
      </trkpt>
      <trkpt lat="43.73265" lon="6.94274">
        <ele>1115.703</ele>
        <time>2016-01-30T09:32:01Z</time>
      </trkpt>
      <trkpt lat="43.73276" lon="6.9427">
        <ele>1117.242</ele>
        <time>2016-01-30T09:32:07Z</time>
      </trkpt>
      <trkpt lat="43.7328" lon="6.94268">
        <ele>1117.611</ele>
        <time>2016-01-30T09:32:09Z</time>
      </trkpt>
      <trkpt lat="43.73285" lon="6.94256">
        <ele>1119.686</ele>
        <time>2016-01-30T09:32:14Z</time>
      </trkpt>
      <trkpt lat="43.73292" lon="6.94246">
        <ele>1120.048</ele>
        <time>2016-01-30T09:32:20Z</time>
      </trkpt>
      <trkpt lat="43.73303" lon="6.94242">
        <ele>1119.99</ele>
        <time>2016-01-30T09:32:28Z</time>
      </trkpt>
      <trkpt lat="43.73305" lon="6.94241">
        <ele>1120.05</ele>
        <time>2016-01-30T09:32:29Z</time>
      </trkpt>
      <trkpt lat="43.73312" lon="6.94235">
        <ele>1120.971</ele>
        <time>2016-01-30T09:32:34Z</time>
      </trkpt>
      <trkpt lat="43.73325" lon="6.9423">
        <ele>1121.54</ele>
        <time>2016-01-30T09:32:42Z</time>
      </trkpt>
      <trkpt lat="43.73339" lon="6.94225">
        <ele>1121.56</ele>
        <time>2016-01-30T09:32:49Z</time>
      </trkpt>
      <trkpt lat="43.7335" lon="6.9422">
        <ele>1122.037</ele>
        <time>2016-01-30T09:32:54Z</time>
      </trkpt>
      <trkpt lat="43.7337" lon="6.94214">
        <ele>1121.253</ele>
        <time>2016-01-30T09:33:01Z</time>
      </trkpt>
      <trkpt lat="43.73388" lon="6.94203">
        <ele>1121.736</ele>
        <time>2016-01-30T09:33:06Z</time>
      </trkpt>
      <trkpt lat="43.73401" lon="6.94195">
        <ele>1122.107</ele>
        <time>2016-01-30T09:33:09Z</time>
      </trkpt>
      <trkpt lat="43.73427" lon="6.94192">
        <ele>1123.34</ele>
        <time>2016-01-30T09:33:14Z</time>
      </trkpt>
      <trkpt lat="43.73433" lon="6.94208">
        <ele>1122.695</ele>
        <time>2016-01-30T09:33:17Z</time>
      </trkpt>
      <trkpt lat="43.73439" lon="6.9422">
        <ele>1122.548</ele>
        <time>2016-01-30T09:33:21Z</time>
      </trkpt>
      <trkpt lat="43.7344" lon="6.94221">
        <ele>1121.996</ele>
        <time>2016-01-30T09:33:22Z</time>
      </trkpt>
      <trkpt lat="43.73451" lon="6.94213">
        <ele>1120.843</ele>
        <time>2016-01-30T09:33:27Z</time>
      </trkpt>
      <trkpt lat="43.73455" lon="6.94208">
        <ele>1120.284</ele>
        <time>2016-01-30T09:33:29Z</time>
      </trkpt>
      <trkpt lat="43.73469" lon="6.94202">
        <ele>1119.051</ele>
        <time>2016-01-30T09:33:33Z</time>
      </trkpt>
      <trkpt lat="43.7349" lon="6.94187">
        <ele>1120.091</ele>
        <time>2016-01-30T09:33:40Z</time>
      </trkpt>
      <trkpt lat="43.73501" lon="6.94169">
        <ele>1120.551</ele>
        <time>2016-01-30T09:33:45Z</time>
      </trkpt>
      <trkpt lat="43.7352" lon="6.94145">
        <ele>1119.065</ele>
        <time>2016-01-30T09:33:53Z</time>
      </trkpt>
      <trkpt lat="43.73537" lon="6.94131">
        <ele>1118.407</ele>
        <time>2016-01-30T09:33:59Z</time>
      </trkpt>
      <trkpt lat="43.73548" lon="6.94114">
        <ele>1117.524</ele>
        <time>2016-01-30T09:34:04Z</time>
      </trkpt>
      <trkpt lat="43.73563" lon="6.94101">
        <ele>1116.266</ele>
        <time>2016-01-30T09:34:09Z</time>
      </trkpt>
      <trkpt lat="43.73579" lon="6.94094">
        <ele>1116.057</ele>
        <time>2016-01-30T09:34:14Z</time>
      </trkpt>
      <trkpt lat="43.7359" lon="6.94098">
        <ele>1115.969</ele>
        <time>2016-01-30T09:34:18Z</time>
      </trkpt>
      <trkpt lat="43.73596" lon="6.94099">
        <ele>1114.975</ele>
        <time>2016-01-30T09:34:21Z</time>
      </trkpt>
      <trkpt lat="43.73606" lon="6.94094">
        <ele>1113.506</ele>
        <time>2016-01-30T09:34:28Z</time>
      </trkpt>
      <trkpt lat="43.73613" lon="6.94084">
        <ele>1115.192</ele>
        <time>2016-01-30T09:34:33Z</time>
      </trkpt>
      <trkpt lat="43.73614" lon="6.94082">
        <ele>1115.341</ele>
        <time>2016-01-30T09:34:34Z</time>
      </trkpt>
      <trkpt lat="43.73625" lon="6.94066">
        <ele>1116.07</ele>
        <time>2016-01-30T09:34:42Z</time>
      </trkpt>
      <trkpt lat="43.73634" lon="6.94051">
        <ele>1116.468</ele>
        <time>2016-01-30T09:34:49Z</time>
      </trkpt>
      <trkpt lat="43.73638" lon="6.94046">
        <ele>1116.367</ele>
        <time>2016-01-30T09:34:51Z</time>
      </trkpt>
      <trkpt lat="43.7365" lon="6.94043">
        <ele>1116.59</ele>
        <time>2016-01-30T09:34:57Z</time>
      </trkpt>
      <trkpt lat="43.73663" lon="6.94039">
        <ele>1119.295</ele>
        <time>2016-01-30T09:35:05Z</time>
      </trkpt>
      <trkpt lat="43.73666" lon="6.94038">
        <ele>1120.516</ele>
        <time>2016-01-30T09:35:09Z</time>
      </trkpt>
      <trkpt lat="43.7367" lon="6.94036">
        <ele>1124.669</ele>
        <time>2016-01-30T09:35:16Z</time>
      </trkpt>
      <trkpt lat="43.73672" lon="6.94036">
        <ele>1127.533</ele>
        <time>2016-01-30T09:35:19Z</time>
      </trkpt>
      <trkpt lat="43.73678" lon="6.94034">
        <ele>1130.41</ele>
        <time>2016-01-30T09:35:26Z</time>
      </trkpt>
      <trkpt lat="43.73686" lon="6.94027">
        <ele>1131.113</ele>
        <time>2016-01-30T09:35:34Z</time>
      </trkpt>
      <trkpt lat="43.73694" lon="6.94022">
        <ele>1132.653</ele>
        <time>2016-01-30T09:35:42Z</time>
      </trkpt>
      <trkpt lat="43.73699" lon="6.94019">
        <ele>1133.834</ele>
        <time>2016-01-30T09:35:48Z</time>
      </trkpt>
      <trkpt lat="43.73705" lon="6.94017">
        <ele>1136.474</ele>
        <time>2016-01-30T09:35:55Z</time>
      </trkpt>
      <trkpt lat="43.73711" lon="6.94014">
        <ele>1134.891</ele>
        <time>2016-01-30T09:36:02Z</time>
      </trkpt>
      <trkpt lat="43.7372" lon="6.94013">
        <ele>1133.788</ele>
        <time>2016-01-30T09:36:12Z</time>
      </trkpt>
      <trkpt lat="43.73722" lon="6.94015">
        <ele>1133.89</ele>
        <time>2016-01-30T09:36:17Z</time>
      </trkpt>
      <trkpt lat="43.73723" lon="6.94016">
        <ele>1134.08</ele>
        <time>2016-01-30T09:36:18Z</time>
      </trkpt>
      <trkpt lat="43.73725" lon="6.94018">
        <ele>1133.899</ele>
        <time>2016-01-30T09:36:22Z</time>
      </trkpt>
      <trkpt lat="43.73729" lon="6.94018">
        <ele>1132.298</ele>
        <time>2016-01-30T09:36:28Z</time>
      </trkpt>
      <trkpt lat="43.73736" lon="6.94015">
        <ele>1132.312</ele>
        <time>2016-01-30T09:36:39Z</time>
      </trkpt>
      <trkpt lat="43.73745" lon="6.94009">
        <ele>1134.255</ele>
        <time>2016-01-30T09:36:47Z</time>
      </trkpt>
      <trkpt lat="43.73753" lon="6.94006">
        <ele>1137.437</ele>
        <time>2016-01-30T09:36:55Z</time>
      </trkpt>
      <trkpt lat="43.73762" lon="6.94007">
        <ele>1137.901</ele>
        <time>2016-01-30T09:37:02Z</time>
      </trkpt>
      <trkpt lat="43.73765" lon="6.94006">
        <ele>1136.927</ele>
        <time>2016-01-30T09:37:08Z</time>
      </trkpt>
      <trkpt lat="43.73766" lon="6.94006">
        <ele>1135.884</ele>
        <time>2016-01-30T09:37:17Z</time>
      </trkpt>
      <trkpt lat="43.73771" lon="6.94004">
        <ele>1136.014</ele>
        <time>2016-01-30T09:37:25Z</time>
      </trkpt>
      <trkpt lat="43.73781" lon="6.93994">
        <ele>1137.134</ele>
        <time>2016-01-30T09:37:32Z</time>
      </trkpt>
      <trkpt lat="43.73791" lon="6.93987">
        <ele>1136.042</ele>
        <time>2016-01-30T09:37:37Z</time>
      </trkpt>
      <trkpt lat="43.73805" lon="6.93977">
        <ele>1132.245</ele>
        <time>2016-01-30T09:37:43Z</time>
      </trkpt>
      <trkpt lat="43.73815" lon="6.93962">
        <ele>1130.767</ele>
        <time>2016-01-30T09:37:47Z</time>
      </trkpt>
      <trkpt lat="43.7382" lon="6.93947">
        <ele>1134.329</ele>
        <time>2016-01-30T09:37:52Z</time>
      </trkpt>
      <trkpt lat="43.7383" lon="6.93942">
        <ele>1135.619</ele>
        <time>2016-01-30T09:37:57Z</time>
      </trkpt>
      <trkpt lat="43.73835" lon="6.9394">
        <ele>1136.226</ele>
        <time>2016-01-30T09:38:02Z</time>
      </trkpt>
      <trkpt lat="43.73837" lon="6.9394">
        <ele>1136.488</ele>
        <time>2016-01-30T09:38:04Z</time>
      </trkpt>
      <trkpt lat="43.73841" lon="6.93938">
        <ele>1136.408</ele>
        <time>2016-01-30T09:38:06Z</time>
      </trkpt>
      <trkpt lat="43.73849" lon="6.93938">
        <ele>1137.42</ele>
        <time>2016-01-30T09:38:10Z</time>
      </trkpt>
      <trkpt lat="43.73868" lon="6.93939">
        <ele>1137.006</ele>
        <time>2016-01-30T09:38:16Z</time>
      </trkpt>
      <trkpt lat="43.73885" lon="6.93941">
        <ele>1134.615</ele>
        <time>2016-01-30T09:38:22Z</time>
      </trkpt>
      <trkpt lat="43.739" lon="6.93944">
        <ele>1135.281</ele>
        <time>2016-01-30T09:38:27Z</time>
      </trkpt>
      <trkpt lat="43.73921" lon="6.93947">
        <ele>1135.682</ele>
        <time>2016-01-30T09:38:33Z</time>
      </trkpt>
      <trkpt lat="43.73941" lon="6.93947">
        <ele>1134.127</ele>
        <time>2016-01-30T09:38:39Z</time>
      </trkpt>
      <trkpt lat="43.73964" lon="6.93938">
        <ele>1132.195</ele>
        <time>2016-01-30T09:38:46Z</time>
      </trkpt>
      <trkpt lat="43.73983" lon="6.93932">
        <ele>1131.074</ele>
        <time>2016-01-30T09:38:52Z</time>
      </trkpt>
      <trkpt lat="43.73997" lon="6.93928">
        <ele>1130.553</ele>
        <time>2016-01-30T09:38:56Z</time>
      </trkpt>
      <trkpt lat="43.74012" lon="6.93914">
        <ele>1129.664</ele>
        <time>2016-01-30T09:39:01Z</time>
      </trkpt>
      <trkpt lat="43.74025" lon="6.93911">
        <ele>1128.712</ele>
        <time>2016-01-30T09:39:04Z</time>
      </trkpt>
      <trkpt lat="43.74043" lon="6.93901">
        <ele>1126.347</ele>
        <time>2016-01-30T09:39:08Z</time>
      </trkpt>
      <trkpt lat="43.7406" lon="6.9389">
        <ele>1125.11</ele>
        <time>2016-01-30T09:39:13Z</time>
      </trkpt>
      <trkpt lat="43.74062" lon="6.93872">
        <ele>1125.875</ele>
        <time>2016-01-30T09:39:17Z</time>
      </trkpt>
      <trkpt lat="43.74066" lon="6.9385">
        <ele>1125.634</ele>
        <time>2016-01-30T09:39:22Z</time>
      </trkpt>
      <trkpt lat="43.74067" lon="6.93845">
        <ele>1124.732</ele>
        <time>2016-01-30T09:39:23Z</time>
      </trkpt>
      <trkpt lat="43.74075" lon="6.93834">
        <ele>1123.523</ele>
        <time>2016-01-30T09:39:27Z</time>
      </trkpt>
      <trkpt lat="43.74078" lon="6.93828">
        <ele>1121.424</ele>
        <time>2016-01-30T09:39:32Z</time>
      </trkpt>
      <trkpt lat="43.74081" lon="6.93827">
        <ele>1119.852</ele>
        <time>2016-01-30T09:39:38Z</time>
      </trkpt>
      <trkpt lat="43.74084" lon="6.93821">
        <ele>1119.558</ele>
        <time>2016-01-30T09:39:44Z</time>
      </trkpt>
      <trkpt lat="43.74083" lon="6.93814">
        <ele>1120.755</ele>
        <time>2016-01-30T09:39:49Z</time>
      </trkpt>
      <trkpt lat="43.74082" lon="6.93808">
        <ele>1122.136</ele>
        <time>2016-01-30T09:39:53Z</time>
      </trkpt>
      <trkpt lat="43.74081" lon="6.93797">
        <ele>1123.987</ele>
        <time>2016-01-30T09:40:00Z</time>
      </trkpt>
      <trkpt lat="43.74075" lon="6.9379">
        <ele>1124.352</ele>
        <time>2016-01-30T09:40:07Z</time>
      </trkpt>
      <trkpt lat="43.74076" lon="6.9379">
        <ele>1123.018</ele>
        <time>2016-01-30T09:40:12Z</time>
      </trkpt>
      <trkpt lat="43.74074" lon="6.9378">
        <ele>1124.701</ele>
        <time>2016-01-30T09:40:18Z</time>
      </trkpt>
      <trkpt lat="43.74074" lon="6.93778">
        <ele>1125.071</ele>
        <time>2016-01-30T09:40:19Z</time>
      </trkpt>
      <trkpt lat="43.74081" lon="6.9377">
        <ele>1125.911</ele>
        <time>2016-01-30T09:40:24Z</time>
      </trkpt>
      <trkpt lat="43.74093" lon="6.93763">
        <ele>1124.573</ele>
        <time>2016-01-30T09:40:29Z</time>
      </trkpt>
      <trkpt lat="43.74098" lon="6.93752">
        <ele>1123.374</ele>
        <time>2016-01-30T09:40:33Z</time>
      </trkpt>
      <trkpt lat="43.74091" lon="6.93721">
        <ele>1127.906</ele>
        <time>2016-01-30T09:40:42Z</time>
      </trkpt>
      <trkpt lat="43.74083" lon="6.93702">
        <ele>1130.759</ele>
        <time>2016-01-30T09:40:48Z</time>
      </trkpt>
      <trkpt lat="43.74074" lon="6.93677">
        <ele>1132.677</ele>
        <time>2016-01-30T09:40:55Z</time>
      </trkpt>
      <trkpt lat="43.74077" lon="6.93655">
        <ele>1134.126</ele>
        <time>2016-01-30T09:41:01Z</time>
      </trkpt>
      <trkpt lat="43.7408" lon="6.93628">
        <ele>1135.307</ele>
        <time>2016-01-30T09:41:08Z</time>
      </trkpt>
      <trkpt lat="43.7408" lon="6.93599">
        <ele>1136.826</ele>
        <time>2016-01-30T09:41:15Z</time>
      </trkpt>
      <trkpt lat="43.7408" lon="6.93573">
        <ele>1136.4</ele>
        <time>2016-01-30T09:41:21Z</time>
      </trkpt>
      <trkpt lat="43.74088" lon="6.93547">
        <ele>1131.53</ele>
        <time>2016-01-30T09:41:27Z</time>
      </trkpt>
      <trkpt lat="43.7409" lon="6.93534">
        <ele>1129.249</ele>
        <time>2016-01-30T09:41:30Z</time>
      </trkpt>
      <trkpt lat="43.74082" lon="6.93514">
        <ele>1131.418</ele>
        <time>2016-01-30T09:41:38Z</time>
      </trkpt>
      <trkpt lat="43.74073" lon="6.93499">
        <ele>1135.443</ele>
        <time>2016-01-30T09:41:45Z</time>
      </trkpt>
      <trkpt lat="43.74069" lon="6.93489">
        <ele>1136.177</ele>
        <time>2016-01-30T09:41:50Z</time>
      </trkpt>
      <trkpt lat="43.74065" lon="6.93474">
        <ele>1137.936</ele>
        <time>2016-01-30T09:41:56Z</time>
      </trkpt>
      <trkpt lat="43.74059" lon="6.93466">
        <ele>1138.476</ele>
        <time>2016-01-30T09:42:01Z</time>
      </trkpt>
      <trkpt lat="43.74054" lon="6.93454">
        <ele>1138.158</ele>
        <time>2016-01-30T09:42:06Z</time>
      </trkpt>
      <trkpt lat="43.74048" lon="6.93436">
        <ele>1141.05</ele>
        <time>2016-01-30T09:42:12Z</time>
      </trkpt>
      <trkpt lat="43.74043" lon="6.93418">
        <ele>1142.471</ele>
        <time>2016-01-30T09:42:19Z</time>
      </trkpt>
      <trkpt lat="43.74045" lon="6.93412">
        <ele>1140.844</ele>
        <time>2016-01-30T09:42:22Z</time>
      </trkpt>
      <trkpt lat="43.74046" lon="6.93406">
        <ele>1139.539</ele>
        <time>2016-01-30T09:42:27Z</time>
      </trkpt>
      <trkpt lat="43.74047" lon="6.93399">
        <ele>1138.377</ele>
        <time>2016-01-30T09:42:32Z</time>
      </trkpt>
      <trkpt lat="43.7405" lon="6.93391">
        <ele>1137.425</ele>
        <time>2016-01-30T09:42:36Z</time>
      </trkpt>
      <trkpt lat="43.74049" lon="6.93382">
        <ele>1136.267</ele>
        <time>2016-01-30T09:42:39Z</time>
      </trkpt>
      <trkpt lat="43.74047" lon="6.93372">
        <ele>1137.786</ele>
        <time>2016-01-30T09:42:43Z</time>
      </trkpt>
      <trkpt lat="43.74041" lon="6.9336">
        <ele>1139.385</ele>
        <time>2016-01-30T09:42:49Z</time>
      </trkpt>
      <trkpt lat="43.7404" lon="6.93355">
        <ele>1139.212</ele>
        <time>2016-01-30T09:42:51Z</time>
      </trkpt>
      <trkpt lat="43.74037" lon="6.93348">
        <ele>1140.302</ele>
        <time>2016-01-30T09:42:54Z</time>
      </trkpt>
      <trkpt lat="43.74036" lon="6.93337">
        <ele>1140.361</ele>
        <time>2016-01-30T09:42:58Z</time>
      </trkpt>
      <trkpt lat="43.7403" lon="6.93315">
        <ele>1138.518</ele>
        <time>2016-01-30T09:43:06Z</time>
      </trkpt>
      <trkpt lat="43.74022" lon="6.93305">
        <ele>1138.714</ele>
        <time>2016-01-30T09:43:11Z</time>
      </trkpt>
      <trkpt lat="43.74017" lon="6.93292">
        <ele>1137.941</ele>
        <time>2016-01-30T09:43:17Z</time>
      </trkpt>
      <trkpt lat="43.74011" lon="6.93282">
        <ele>1140.243</ele>
        <time>2016-01-30T09:43:22Z</time>
      </trkpt>
      <trkpt lat="43.74009" lon="6.93264">
        <ele>1141.414</ele>
        <time>2016-01-30T09:43:28Z</time>
      </trkpt>
      <trkpt lat="43.74008" lon="6.9326">
        <ele>1140.984</ele>
        <time>2016-01-30T09:43:29Z</time>
      </trkpt>
      <trkpt lat="43.74002" lon="6.93254">
        <ele>1139.52</ele>
        <time>2016-01-30T09:43:33Z</time>
      </trkpt>
      <trkpt lat="43.73992" lon="6.93232">
        <ele>1141.177</ele>
        <time>2016-01-30T09:43:40Z</time>
      </trkpt>
      <trkpt lat="43.73985" lon="6.93215">
        <ele>1139.898</ele>
        <time>2016-01-30T09:43:45Z</time>
      </trkpt>
      <trkpt lat="43.73978" lon="6.93202">
        <ele>1139.542</ele>
        <time>2016-01-30T09:43:52Z</time>
      </trkpt>
      <trkpt lat="43.73978" lon="6.93201">
        <ele>1138.209</ele>
        <time>2016-01-30T09:43:53Z</time>
      </trkpt>
      <trkpt lat="43.73981" lon="6.9319">
        <ele>1134.533</ele>
        <time>2016-01-30T09:43:59Z</time>
      </trkpt>
      <trkpt lat="43.73981" lon="6.93183">
        <ele>1133.546</ele>
        <time>2016-01-30T09:44:03Z</time>
      </trkpt>
      <trkpt lat="43.73981" lon="6.93174">
        <ele>1134.442</ele>
        <time>2016-01-30T09:44:07Z</time>
      </trkpt>
      <trkpt lat="43.73979" lon="6.93157">
        <ele>1134.104</ele>
        <time>2016-01-30T09:44:13Z</time>
      </trkpt>
      <trkpt lat="43.73976" lon="6.9314">
        <ele>1136.136</ele>
        <time>2016-01-30T09:44:19Z</time>
      </trkpt>
      <trkpt lat="43.73975" lon="6.93137">
        <ele>1136.064</ele>
        <time>2016-01-30T09:44:20Z</time>
      </trkpt>
      <trkpt lat="43.7397" lon="6.93132">
        <ele>1134.992</ele>
        <time>2016-01-30T09:44:24Z</time>
      </trkpt>
      <trkpt lat="43.73968" lon="6.93123">
        <ele>1135.381</ele>
        <time>2016-01-30T09:44:28Z</time>
      </trkpt>
      <trkpt lat="43.73961" lon="6.93116">
        <ele>1134.869</ele>
        <time>2016-01-30T09:44:34Z</time>
      </trkpt>
      <trkpt lat="43.73955" lon="6.93103">
        <ele>1135.3</ele>
        <time>2016-01-30T09:44:40Z</time>
      </trkpt>
      <trkpt lat="43.73954" lon="6.93092">
        <ele>1135.364</ele>
        <time>2016-01-30T09:44:45Z</time>
      </trkpt>
      <trkpt lat="43.7395" lon="6.93089">
        <ele>1135.734</ele>
        <time>2016-01-30T09:44:49Z</time>
      </trkpt>
      <trkpt lat="43.73945" lon="6.93087">
        <ele>1134.189</ele>
        <time>2016-01-30T09:44:53Z</time>
      </trkpt>
      <trkpt lat="43.73944" lon="6.93086">
        <ele>1133.475</ele>
        <time>2016-01-30T09:45:00Z</time>
      </trkpt>
      <trkpt lat="43.7394" lon="6.93071">
        <ele>1133.338</ele>
        <time>2016-01-30T09:45:07Z</time>
      </trkpt>
      <trkpt lat="43.73941" lon="6.93061">
        <ele>1132.967</ele>
        <time>2016-01-30T09:45:11Z</time>
      </trkpt>
      <trkpt lat="43.73935" lon="6.93042">
        <ele>1134.148</ele>
        <time>2016-01-30T09:45:18Z</time>
      </trkpt>
      <trkpt lat="43.7393" lon="6.93025">
        <ele>1137.143</ele>
        <time>2016-01-30T09:45:24Z</time>
      </trkpt>
      <trkpt lat="43.73923" lon="6.93004">
        <ele>1138.673</ele>
        <time>2016-01-30T09:45:32Z</time>
      </trkpt>
      <trkpt lat="43.73918" lon="6.92997">
        <ele>1136.651</ele>
        <time>2016-01-30T09:45:37Z</time>
      </trkpt>
      <trkpt lat="43.73915" lon="6.92983">
        <ele>1135.318</ele>
        <time>2016-01-30T09:45:42Z</time>
      </trkpt>
      <trkpt lat="43.73909" lon="6.92966">
        <ele>1137.061</ele>
        <time>2016-01-30T09:45:49Z</time>
      </trkpt>
      <trkpt lat="43.73902" lon="6.92947">
        <ele>1140.286</ele>
        <time>2016-01-30T09:45:56Z</time>
      </trkpt>
      <trkpt lat="43.739" lon="6.92942">
        <ele>1140.616</ele>
        <time>2016-01-30T09:45:58Z</time>
      </trkpt>
      <trkpt lat="43.73906" lon="6.92931">
        <ele>1139.439</ele>
        <time>2016-01-30T09:46:02Z</time>
      </trkpt>
      <trkpt lat="43.73904" lon="6.92914">
        <ele>1138.798</ele>
        <time>2016-01-30T09:46:07Z</time>
      </trkpt>
      <trkpt lat="43.73902" lon="6.92912">
        <ele>1139.622</ele>
        <time>2016-01-30T09:46:08Z</time>
      </trkpt>
      <trkpt lat="43.73891" lon="6.92894">
        <ele>1139.922</ele>
        <time>2016-01-30T09:46:15Z</time>
      </trkpt>
      <trkpt lat="43.73888" lon="6.92875">
        <ele>1141.202</ele>
        <time>2016-01-30T09:46:21Z</time>
      </trkpt>
      <trkpt lat="43.73883" lon="6.92853">
        <ele>1141.4</ele>
        <time>2016-01-30T09:46:27Z</time>
      </trkpt>
      <trkpt lat="43.73879" lon="6.92838">
        <ele>1141.599</ele>
        <time>2016-01-30T09:46:32Z</time>
      </trkpt>
      <trkpt lat="43.73879" lon="6.92837">
        <ele>1140.887</ele>
        <time>2016-01-30T09:46:33Z</time>
      </trkpt>
      <trkpt lat="43.73881" lon="6.9283">
        <ele>1138.894</ele>
        <time>2016-01-30T09:46:38Z</time>
      </trkpt>
      <trkpt lat="43.73882" lon="6.92829">
        <ele>1137.962</ele>
        <time>2016-01-30T09:46:40Z</time>
      </trkpt>
      <trkpt lat="43.73882" lon="6.92821">
        <ele>1135.862</ele>
        <time>2016-01-30T09:46:45Z</time>
      </trkpt>
      <trkpt lat="43.73876" lon="6.92803">
        <ele>1135.267</ele>
        <time>2016-01-30T09:46:50Z</time>
      </trkpt>
      <trkpt lat="43.73873" lon="6.92797">
        <ele>1136.892</ele>
        <time>2016-01-30T09:46:52Z</time>
      </trkpt>
      <trkpt lat="43.73868" lon="6.92781">
        <ele>1138.935</ele>
        <time>2016-01-30T09:46:56Z</time>
      </trkpt>
      <trkpt lat="43.73866" lon="6.92756">
        <ele>1136.948</ele>
        <time>2016-01-30T09:47:02Z</time>
      </trkpt>
      <trkpt lat="43.73865" lon="6.92745">
        <ele>1134.163</ele>
        <time>2016-01-30T09:47:06Z</time>
      </trkpt>
      <trkpt lat="43.73868" lon="6.92751">
        <ele>1133.276</ele>
        <time>2016-01-30T09:49:20Z</time>
      </trkpt>
      <trkpt lat="43.73868" lon="6.92742">
        <ele>1131.932</ele>
        <time>2016-01-30T09:49:24Z</time>
      </trkpt>
      <trkpt lat="43.73868" lon="6.92717">
        <ele>1129.857</ele>
        <time>2016-01-30T09:49:30Z</time>
      </trkpt>
      <trkpt lat="43.73866" lon="6.9269">
        <ele>1129.526</ele>
        <time>2016-01-30T09:49:36Z</time>
      </trkpt>
      <trkpt lat="43.73865" lon="6.92661">
        <ele>1133.194</ele>
        <time>2016-01-30T09:49:42Z</time>
      </trkpt>
      <trkpt lat="43.73863" lon="6.92636">
        <ele>1136.548</ele>
        <time>2016-01-30T09:49:48Z</time>
      </trkpt>
      <trkpt lat="43.7386" lon="6.92619">
        <ele>1135.7</ele>
        <time>2016-01-30T09:49:52Z</time>
      </trkpt>
      <trkpt lat="43.7386" lon="6.92612">
        <ele>1135.528</ele>
        <time>2016-01-30T09:49:54Z</time>
      </trkpt>
      <trkpt lat="43.73866" lon="6.92585">
        <ele>1133.294</ele>
        <time>2016-01-30T09:50:01Z</time>
      </trkpt>
      <trkpt lat="43.7387" lon="6.92571">
        <ele>1131.578</ele>
        <time>2016-01-30T09:50:04Z</time>
      </trkpt>
      <trkpt lat="43.73876" lon="6.92549">
        <ele>1129.117</ele>
        <time>2016-01-30T09:50:09Z</time>
      </trkpt>
      <trkpt lat="43.73877" lon="6.92535">
        <ele>1127.578</ele>
        <time>2016-01-30T09:50:13Z</time>
      </trkpt>
      <trkpt lat="43.73876" lon="6.92533">
        <ele>1127.729</ele>
        <time>2016-01-30T09:50:14Z</time>
      </trkpt>
      <trkpt lat="43.73873" lon="6.92521">
        <ele>1129.107</ele>
        <time>2016-01-30T09:50:21Z</time>
      </trkpt>
      <trkpt lat="43.73873" lon="6.92514">
        <ele>1129.554</ele>
        <time>2016-01-30T09:50:26Z</time>
      </trkpt>
      <trkpt lat="43.73874" lon="6.92507">
        <ele>1130.302</ele>
        <time>2016-01-30T09:50:31Z</time>
      </trkpt>
      <trkpt lat="43.73875" lon="6.92503">
        <ele>1129.94</ele>
        <time>2016-01-30T09:50:35Z</time>
      </trkpt>
      <trkpt lat="43.73874" lon="6.92487">
        <ele>1132.865</ele>
        <time>2016-01-30T09:50:41Z</time>
      </trkpt>
      <trkpt lat="43.73873" lon="6.92479">
        <ele>1134.686</ele>
        <time>2016-01-30T09:50:44Z</time>
      </trkpt>
      <trkpt lat="43.7387" lon="6.92465">
        <ele>1139.129</ele>
        <time>2016-01-30T09:50:51Z</time>
      </trkpt>
      <trkpt lat="43.7387" lon="6.92461">
        <ele>1138.353</ele>
        <time>2016-01-30T09:50:56Z</time>
      </trkpt>
      <trkpt lat="43.7387" lon="6.92457">
        <ele>1137.691</ele>
        <time>2016-01-30T09:51:01Z</time>
      </trkpt>
      <trkpt lat="43.7387" lon="6.92456">
        <ele>1136.747</ele>
        <time>2016-01-30T09:51:03Z</time>
      </trkpt>
      <trkpt lat="43.73873" lon="6.92445">
        <ele>1134.938</ele>
        <time>2016-01-30T09:51:10Z</time>
      </trkpt>
      <trkpt lat="43.73879" lon="6.9243">
        <ele>1134.068</ele>
        <time>2016-01-30T09:51:20Z</time>
      </trkpt>
      <trkpt lat="43.73882" lon="6.9242">
        <ele>1134.522</ele>
        <time>2016-01-30T09:51:27Z</time>
      </trkpt>
      <trkpt lat="43.73882" lon="6.9242">
        <ele>1134.708</ele>
        <time>2016-01-30T09:51:31Z</time>
      </trkpt>
      <trkpt lat="43.73885" lon="6.9241">
        <ele>1135.05</ele>
        <time>2016-01-30T09:51:36Z</time>
      </trkpt>
      <trkpt lat="43.73891" lon="6.92394">
        <ele>1133.987</ele>
        <time>2016-01-30T09:51:42Z</time>
      </trkpt>
      <trkpt lat="43.73893" lon="6.92382">
        <ele>1134.201</ele>
        <time>2016-01-30T09:51:47Z</time>
      </trkpt>
      <trkpt lat="43.73895" lon="6.92365">
        <ele>1134.458</ele>
        <time>2016-01-30T09:51:53Z</time>
      </trkpt>
      <trkpt lat="43.73894" lon="6.92347">
        <ele>1137.315</ele>
        <time>2016-01-30T09:51:59Z</time>
      </trkpt>
      <trkpt lat="43.73894" lon="6.92325">
        <ele>1137.59</ele>
        <time>2016-01-30T09:52:06Z</time>
      </trkpt>
      <trkpt lat="43.739" lon="6.92303">
        <ele>1136.374</ele>
        <time>2016-01-30T09:52:12Z</time>
      </trkpt>
      <trkpt lat="43.73895" lon="6.92286">
        <ele>1137.8</ele>
        <time>2016-01-30T09:52:17Z</time>
      </trkpt>
      <trkpt lat="43.73894" lon="6.92264">
        <ele>1137.738</ele>
        <time>2016-01-30T09:52:23Z</time>
      </trkpt>
      <trkpt lat="43.73895" lon="6.92245">
        <ele>1135.183</ele>
        <time>2016-01-30T09:52:28Z</time>
      </trkpt>
      <trkpt lat="43.73895" lon="6.92227">
        <ele>1135.681</ele>
        <time>2016-01-30T09:52:33Z</time>
      </trkpt>
      <trkpt lat="43.73891" lon="6.92208">
        <ele>1136.57</ele>
        <time>2016-01-30T09:52:38Z</time>
      </trkpt>
      <trkpt lat="43.73889" lon="6.92184">
        <ele>1134.889</ele>
        <time>2016-01-30T09:52:44Z</time>
      </trkpt>
      <trkpt lat="43.73888" lon="6.92158">
        <ele>1134.373</ele>
        <time>2016-01-30T09:52:50Z</time>
      </trkpt>
      <trkpt lat="43.73887" lon="6.92135">
        <ele>1132.601</ele>
        <time>2016-01-30T09:52:55Z</time>
      </trkpt>
      <trkpt lat="43.73889" lon="6.92109">
        <ele>1129.507</ele>
        <time>2016-01-30T09:53:01Z</time>
      </trkpt>
      <trkpt lat="43.73888" lon="6.92091">
        <ele>1128.562</ele>
        <time>2016-01-30T09:53:05Z</time>
      </trkpt>
      <trkpt lat="43.73884" lon="6.9206">
        <ele>1130.668</ele>
        <time>2016-01-30T09:53:11Z</time>
      </trkpt>
      <trkpt lat="43.73884" lon="6.92035">
        <ele>1131.399</ele>
        <time>2016-01-30T09:53:16Z</time>
      </trkpt>
      <trkpt lat="43.73881" lon="6.92013">
        <ele>1131.22</ele>
        <time>2016-01-30T09:53:21Z</time>
      </trkpt>
      <trkpt lat="43.7388" lon="6.91989">
        <ele>1131.265</ele>
        <time>2016-01-30T09:53:27Z</time>
      </trkpt>
      <trkpt lat="43.73883" lon="6.91979">
        <ele>1128.936</ele>
        <time>2016-01-30T09:53:29Z</time>
      </trkpt>
      <trkpt lat="43.73888" lon="6.91943">
        <ele>1128.131</ele>
        <time>2016-01-30T09:53:36Z</time>
      </trkpt>
      <trkpt lat="43.7389" lon="6.91923">
        <ele>1126.72</ele>
        <time>2016-01-30T09:53:40Z</time>
      </trkpt>
      <trkpt lat="43.73896" lon="6.91905">
        <ele>1126.099</ele>
        <time>2016-01-30T09:53:45Z</time>
      </trkpt>
      <trkpt lat="43.73898" lon="6.91891">
        <ele>1126.563</ele>
        <time>2016-01-30T09:53:48Z</time>
      </trkpt>
      <trkpt lat="43.73897" lon="6.91863">
        <ele>1127.545</ele>
        <time>2016-01-30T09:53:54Z</time>
      </trkpt>
      <trkpt lat="43.73895" lon="6.91834">
        <ele>1125.152</ele>
        <time>2016-01-30T09:54:00Z</time>
      </trkpt>
      <trkpt lat="43.73894" lon="6.9182">
        <ele>1127.701</ele>
        <time>2016-01-30T09:54:04Z</time>
      </trkpt>
      <trkpt lat="43.73888" lon="6.91801">
        <ele>1130.743</ele>
        <time>2016-01-30T09:54:11Z</time>
      </trkpt>
      <trkpt lat="43.73881" lon="6.91779">
        <ele>1131.992</ele>
        <time>2016-01-30T09:54:20Z</time>
      </trkpt>
      <trkpt lat="43.73874" lon="6.91753">
        <ele>1132.708</ele>
        <time>2016-01-30T09:54:29Z</time>
      </trkpt>
      <trkpt lat="43.73875" lon="6.91729">
        <ele>1129.769</ele>
        <time>2016-01-30T09:54:36Z</time>
      </trkpt>
      <trkpt lat="43.73879" lon="6.91705">
        <ele>1125.212</ele>
        <time>2016-01-30T09:54:41Z</time>
      </trkpt>
      <trkpt lat="43.7388" lon="6.91699">
        <ele>1124.451</ele>
        <time>2016-01-30T09:54:42Z</time>
      </trkpt>
      <trkpt lat="43.73877" lon="6.91669">
        <ele>1125.227</ele>
        <time>2016-01-30T09:54:47Z</time>
      </trkpt>
      <trkpt lat="43.73874" lon="6.91635">
        <ele>1128.068</ele>
        <time>2016-01-30T09:54:54Z</time>
      </trkpt>
      <trkpt lat="43.73872" lon="6.91613">
        <ele>1129.569</ele>
        <time>2016-01-30T09:54:59Z</time>
      </trkpt>
      <trkpt lat="43.73872" lon="6.91589">
        <ele>1129.147</ele>
        <time>2016-01-30T09:55:05Z</time>
      </trkpt>
      <trkpt lat="43.73871" lon="6.91571">
        <ele>1128.779</ele>
        <time>2016-01-30T09:55:09Z</time>
      </trkpt>
      <trkpt lat="43.73874" lon="6.91547">
        <ele>1126.31</ele>
        <time>2016-01-30T09:55:14Z</time>
      </trkpt>
      <trkpt lat="43.73874" lon="6.91526">
        <ele>1124.977</ele>
        <time>2016-01-30T09:55:18Z</time>
      </trkpt>
      <trkpt lat="43.7387" lon="6.915">
        <ele>1124.842</ele>
        <time>2016-01-30T09:55:23Z</time>
      </trkpt>
      <trkpt lat="43.73868" lon="6.91482">
        <ele>1127.164</ele>
        <time>2016-01-30T09:55:29Z</time>
      </trkpt>
      <trkpt lat="43.73864" lon="6.91463">
        <ele>1130.555</ele>
        <time>2016-01-30T09:55:36Z</time>
      </trkpt>
      <trkpt lat="43.73859" lon="6.91451">
        <ele>1130.109</ele>
        <time>2016-01-30T09:55:41Z</time>
      </trkpt>
      <trkpt lat="43.73855" lon="6.91439">
        <ele>1131.263</ele>
        <time>2016-01-30T09:55:45Z</time>
      </trkpt>
      <trkpt lat="43.7385" lon="6.91428">
        <ele>1133.877</ele>
        <time>2016-01-30T09:55:50Z</time>
      </trkpt>
      <trkpt lat="43.73845" lon="6.91419">
        <ele>1134.356</ele>
        <time>2016-01-30T09:55:54Z</time>
      </trkpt>
      <trkpt lat="43.73841" lon="6.91397">
        <ele>1137.38</ele>
        <time>2016-01-30T09:56:02Z</time>
      </trkpt>
      <trkpt lat="43.7384" lon="6.91395">
        <ele>1137.109</ele>
        <time>2016-01-30T09:56:03Z</time>
      </trkpt>
      <trkpt lat="43.73839" lon="6.9139">
        <ele>1136.587</ele>
        <time>2016-01-30T09:56:05Z</time>
      </trkpt>
      <trkpt lat="43.73836" lon="6.91378">
        <ele>1135.522</ele>
        <time>2016-01-30T09:56:09Z</time>
      </trkpt>
      <trkpt lat="43.73833" lon="6.9136">
        <ele>1135.584</ele>
        <time>2016-01-30T09:56:15Z</time>
      </trkpt>
      <trkpt lat="43.73827" lon="6.91343">
        <ele>1135.614</ele>
        <time>2016-01-30T09:56:22Z</time>
      </trkpt>
      <trkpt lat="43.7383" lon="6.9133">
        <ele>1132.983</ele>
        <time>2016-01-30T09:56:26Z</time>
      </trkpt>
      <trkpt lat="43.73829" lon="6.91323">
        <ele>1133.073</ele>
        <time>2016-01-30T09:56:28Z</time>
      </trkpt>
      <trkpt lat="43.73828" lon="6.91306">
        <ele>1130.921</ele>
        <time>2016-01-30T09:56:34Z</time>
      </trkpt>
      <trkpt lat="43.73824" lon="6.9129">
        <ele>1131.669</ele>
        <time>2016-01-30T09:56:39Z</time>
      </trkpt>
      <trkpt lat="43.7382" lon="6.91274">
        <ele>1133.301</ele>
        <time>2016-01-30T09:56:44Z</time>
      </trkpt>
      <trkpt lat="43.73819" lon="6.91267">
        <ele>1134.802</ele>
        <time>2016-01-30T09:56:46Z</time>
      </trkpt>
      <trkpt lat="43.73812" lon="6.91248">
        <ele>1133.257</ele>
        <time>2016-01-30T09:56:53Z</time>
      </trkpt>
      <trkpt lat="43.73806" lon="6.91231">
        <ele>1134.527</ele>
        <time>2016-01-30T09:56:59Z</time>
      </trkpt>
      <trkpt lat="43.73804" lon="6.91204">
        <ele>1129.383</ele>
        <time>2016-01-30T09:57:07Z</time>
      </trkpt>
      <trkpt lat="43.73809" lon="6.91189">
        <ele>1124.257</ele>
        <time>2016-01-30T09:57:12Z</time>
      </trkpt>
      <trkpt lat="43.73814" lon="6.91179">
        <ele>1121.029</ele>
        <time>2016-01-30T09:57:16Z</time>
      </trkpt>
      <trkpt lat="43.73825" lon="6.91182">
        <ele>1117.819</ele>
        <time>2016-01-30T09:57:21Z</time>
      </trkpt>
      <trkpt lat="43.73835" lon="6.91182">
        <ele>1116.072</ele>
        <time>2016-01-30T09:57:25Z</time>
      </trkpt>
      <trkpt lat="43.7384" lon="6.91168">
        <ele>1112.187</ele>
        <time>2016-01-30T09:57:31Z</time>
      </trkpt>
      <trkpt lat="43.73843" lon="6.91162">
        <ele>1110.217</ele>
        <time>2016-01-30T09:57:34Z</time>
      </trkpt>
      <trkpt lat="43.73858" lon="6.9115">
        <ele>1105.775</ele>
        <time>2016-01-30T09:57:40Z</time>
      </trkpt>
      <trkpt lat="43.73874" lon="6.91139">
        <ele>1101.792</ele>
        <time>2016-01-30T09:57:45Z</time>
      </trkpt>
      <trkpt lat="43.73887" lon="6.9113">
        <ele>1098.972</ele>
        <time>2016-01-30T09:57:49Z</time>
      </trkpt>
      <trkpt lat="43.73891" lon="6.91128">
        <ele>1098.391</ele>
        <time>2016-01-30T09:57:50Z</time>
      </trkpt>
      <trkpt lat="43.73911" lon="6.91127">
        <ele>1095.317</ele>
        <time>2016-01-30T09:57:56Z</time>
      </trkpt>
      <trkpt lat="43.73914" lon="6.91128">
        <ele>1095.058</ele>
        <time>2016-01-30T09:57:57Z</time>
      </trkpt>
      <trkpt lat="43.73924" lon="6.91123">
        <ele>1093.129</ele>
        <time>2016-01-30T09:58:02Z</time>
      </trkpt>
      <trkpt lat="43.73932" lon="6.91118">
        <ele>1091.803</ele>
        <time>2016-01-30T09:58:07Z</time>
      </trkpt>
      <trkpt lat="43.73949" lon="6.91115">
        <ele>1091.105</ele>
        <time>2016-01-30T09:58:14Z</time>
      </trkpt>
      <trkpt lat="43.73955" lon="6.91115">
        <ele>1090.544</ele>
        <time>2016-01-30T09:58:16Z</time>
      </trkpt>
      <trkpt lat="43.73969" lon="6.91117">
        <ele>1088.858</ele>
        <time>2016-01-30T09:58:19Z</time>
      </trkpt>
      <trkpt lat="43.73992" lon="6.91126">
        <ele>1087.975</ele>
        <time>2016-01-30T09:58:24Z</time>
      </trkpt>
      <trkpt lat="43.74003" lon="6.91126">
        <ele>1087.355</ele>
        <time>2016-01-30T09:58:28Z</time>
      </trkpt>
      <trkpt lat="43.74025" lon="6.91119">
        <ele>1086.186</ele>
        <time>2016-01-30T09:58:35Z</time>
      </trkpt>
      <trkpt lat="43.74042" lon="6.91109">
        <ele>1086.522</ele>
        <time>2016-01-30T09:58:41Z</time>
      </trkpt>
      <trkpt lat="43.74061" lon="6.91102">
        <ele>1088.52</ele>
        <time>2016-01-30T09:58:48Z</time>
      </trkpt>
      <trkpt lat="43.74071" lon="6.91104">
        <ele>1089.178</ele>
        <time>2016-01-30T09:58:52Z</time>
      </trkpt>
      <trkpt lat="43.74082" lon="6.91108">
        <ele>1088.21</ele>
        <time>2016-01-30T09:58:55Z</time>
      </trkpt>
      <trkpt lat="43.74108" lon="6.91115">
        <ele>1083.805</ele>
        <time>2016-01-30T09:59:01Z</time>
      </trkpt>
      <trkpt lat="43.74118" lon="6.91127">
        <ele>1081.976</ele>
        <time>2016-01-30T09:59:04Z</time>
      </trkpt>
      <trkpt lat="43.74124" lon="6.91137">
        <ele>1080.877</ele>
        <time>2016-01-30T09:59:06Z</time>
      </trkpt>
      <trkpt lat="43.74131" lon="6.91166">
        <ele>1078.45</ele>
        <time>2016-01-30T09:59:12Z</time>
      </trkpt>
      <trkpt lat="43.74136" lon="6.91191">
        <ele>1076.482</ele>
        <time>2016-01-30T09:59:17Z</time>
      </trkpt>
      <trkpt lat="43.7414" lon="6.91229">
        <ele>1075.274</ele>
        <time>2016-01-30T09:59:24Z</time>
      </trkpt>
      <trkpt lat="43.74143" lon="6.91264">
        <ele>1073.556</ele>
        <time>2016-01-30T09:59:31Z</time>
      </trkpt>
      <trkpt lat="43.74143" lon="6.91294">
        <ele>1071.166</ele>
        <time>2016-01-30T09:59:37Z</time>
      </trkpt>
      <trkpt lat="43.7414" lon="6.91315">
        <ele>1069.615</ele>
        <time>2016-01-30T09:59:42Z</time>
      </trkpt>
      <trkpt lat="43.74131" lon="6.91343">
        <ele>1070.241</ele>
        <time>2016-01-30T09:59:49Z</time>
      </trkpt>
      <trkpt lat="43.74116" lon="6.91366">
        <ele>1069.641</ele>
        <time>2016-01-30T09:59:57Z</time>
      </trkpt>
      <trkpt lat="43.74101" lon="6.91394">
        <ele>1070.41</ele>
        <time>2016-01-30T10:00:06Z</time>
      </trkpt>
      <trkpt lat="43.74088" lon="6.91412">
        <ele>1070.26</ele>
        <time>2016-01-30T10:00:12Z</time>
      </trkpt>
      <trkpt lat="43.74077" lon="6.91424">
        <ele>1070.082</ele>
        <time>2016-01-30T10:00:19Z</time>
      </trkpt>
      <trkpt lat="43.74072" lon="6.91432">
        <ele>1071.354</ele>
        <time>2016-01-30T10:00:24Z</time>
      </trkpt>
      <trkpt lat="43.7407" lon="6.91435">
        <ele>1072.162</ele>
        <time>2016-01-30T10:00:29Z</time>
      </trkpt>
      <trkpt lat="43.74077" lon="6.91438">
        <ele>1073.022</ele>
        <time>2016-01-30T10:00:35Z</time>
      </trkpt>
      <trkpt lat="43.74083" lon="6.91441">
        <ele>1072.719</ele>
        <time>2016-01-30T10:00:39Z</time>
      </trkpt>
      <trkpt lat="43.74091" lon="6.91441">
        <ele>1073.08</ele>
        <time>2016-01-30T10:00:42Z</time>
      </trkpt>
      <trkpt lat="43.74098" lon="6.91458">
        <ele>1073.074</ele>
        <time>2016-01-30T10:00:48Z</time>
      </trkpt>
      <trkpt lat="43.74103" lon="6.91474">
        <ele>1072.112</ele>
        <time>2016-01-30T10:00:54Z</time>
      </trkpt>
      <trkpt lat="43.74104" lon="6.91485">
        <ele>1070.754</ele>
        <time>2016-01-30T10:00:57Z</time>
      </trkpt>
      <trkpt lat="43.74112" lon="6.91507">
        <ele>1069.195</ele>
        <time>2016-01-30T10:01:01Z</time>
      </trkpt>
      <trkpt lat="43.74115" lon="6.9151">
        <ele>1069.446</ele>
        <time>2016-01-30T10:01:02Z</time>
      </trkpt>
      <trkpt lat="43.74121" lon="6.91515">
        <ele>1070.62</ele>
        <time>2016-01-30T10:01:07Z</time>
      </trkpt>
      <trkpt lat="43.74124" lon="6.91519">
        <ele>1070.863</ele>
        <time>2016-01-30T10:01:13Z</time>
      </trkpt>
      <trkpt lat="43.74124" lon="6.91519">
        <ele>1070.823</ele>
        <time>2016-01-30T10:01:14Z</time>
      </trkpt>
      <trkpt lat="43.7412" lon="6.91527">
        <ele>1068.493</ele>
        <time>2016-01-30T10:01:20Z</time>
      </trkpt>
      <trkpt lat="43.74119" lon="6.91536">
        <ele>1068.694</ele>
        <time>2016-01-30T10:01:23Z</time>
      </trkpt>
      <trkpt lat="43.74124" lon="6.91542">
        <ele>1067.283</ele>
        <time>2016-01-30T10:01:25Z</time>
      </trkpt>
      <trkpt lat="43.74128" lon="6.91547">
        <ele>1066.443</ele>
        <time>2016-01-30T10:01:27Z</time>
      </trkpt>
      <trkpt lat="43.7414" lon="6.91548">
        <ele>1068.126</ele>
        <time>2016-01-30T10:01:34Z</time>
      </trkpt>
      <trkpt lat="43.74147" lon="6.91554">
        <ele>1069.066</ele>
        <time>2016-01-30T10:01:38Z</time>
      </trkpt>
      <trkpt lat="43.74154" lon="6.91557">
        <ele>1069.626</ele>
        <time>2016-01-30T10:01:42Z</time>
      </trkpt>
      <trkpt lat="43.74159" lon="6.9155">
        <ele>1070.486</ele>
        <time>2016-01-30T10:01:45Z</time>
      </trkpt>
      <trkpt lat="43.74174" lon="6.91532">
        <ele>1073.431</ele>
        <time>2016-01-30T10:01:54Z</time>
      </trkpt>
      <trkpt lat="43.74184" lon="6.91526">
        <ele>1074.204</ele>
        <time>2016-01-30T10:02:00Z</time>
      </trkpt>
      <trkpt lat="43.74195" lon="6.91509">
        <ele>1074.844</ele>
        <time>2016-01-30T10:02:06Z</time>
      </trkpt>
      <trkpt lat="43.7421" lon="6.91474">
        <ele>1076.016</ele>
        <time>2016-01-30T10:02:14Z</time>
      </trkpt>
      <trkpt lat="43.74229" lon="6.91438">
        <ele>1076.975</ele>
        <time>2016-01-30T10:02:23Z</time>
      </trkpt>
      <trkpt lat="43.74245" lon="6.9141">
        <ele>1076.596</ele>
        <time>2016-01-30T10:02:30Z</time>
      </trkpt>
      <trkpt lat="43.7426" lon="6.91384">
        <ele>1077.058</ele>
        <time>2016-01-30T10:02:37Z</time>
      </trkpt>
      <trkpt lat="43.74277" lon="6.91361">
        <ele>1077.639</ele>
        <time>2016-01-30T10:02:44Z</time>
      </trkpt>
      <trkpt lat="43.743" lon="6.91332">
        <ele>1077.957</ele>
        <time>2016-01-30T10:02:53Z</time>
      </trkpt>
      <trkpt lat="43.74328" lon="6.91298">
        <ele>1077.676</ele>
        <time>2016-01-30T10:03:03Z</time>
      </trkpt>
      <trkpt lat="43.74362" lon="6.91258">
        <ele>1077.197</ele>
        <time>2016-01-30T10:03:15Z</time>
      </trkpt>
      <trkpt lat="43.7439" lon="6.91224">
        <ele>1077.909</ele>
        <time>2016-01-30T10:03:26Z</time>
      </trkpt>
      <trkpt lat="43.74418" lon="6.91194">
        <ele>1079.519</ele>
        <time>2016-01-30T10:03:37Z</time>
      </trkpt>
      <trkpt lat="43.74442" lon="6.91174">
        <ele>1081.309</ele>
        <time>2016-01-30T10:03:46Z</time>
      </trkpt>
      <trkpt lat="43.74474" lon="6.91153">
        <ele>1084.142</ele>
        <time>2016-01-30T10:03:57Z</time>
      </trkpt>
      <trkpt lat="43.74495" lon="6.91138">
        <ele>1086.284</ele>
        <time>2016-01-30T10:04:05Z</time>
      </trkpt>
      <trkpt lat="43.74513" lon="6.91123">
        <ele>1088.774</ele>
        <time>2016-01-30T10:04:13Z</time>
      </trkpt>
      <trkpt lat="43.74531" lon="6.91113">
        <ele>1090.063</ele>
        <time>2016-01-30T10:04:20Z</time>
      </trkpt>
      <trkpt lat="43.74542" lon="6.91104">
        <ele>1091.483</ele>
        <time>2016-01-30T10:04:26Z</time>
      </trkpt>
      <trkpt lat="43.74552" lon="6.91096">
        <ele>1092.28</ele>
        <time>2016-01-30T10:04:32Z</time>
      </trkpt>
      <trkpt lat="43.74564" lon="6.91089">
        <ele>1092.73</ele>
        <time>2016-01-30T10:04:38Z</time>
      </trkpt>
      <trkpt lat="43.74579" lon="6.91082">
        <ele>1093.449</ele>
        <time>2016-01-30T10:04:46Z</time>
      </trkpt>
      <trkpt lat="43.7459" lon="6.91076">
        <ele>1094.08</ele>
        <time>2016-01-30T10:04:52Z</time>
      </trkpt>
      <trkpt lat="43.74601" lon="6.9107">
        <ele>1094.789</ele>
        <time>2016-01-30T10:04:58Z</time>
      </trkpt>
      <trkpt lat="43.74617" lon="6.91061">
        <ele>1096.051</ele>
        <time>2016-01-30T10:05:07Z</time>
      </trkpt>
      <trkpt lat="43.7463" lon="6.91055">
        <ele>1097.36</ele>
        <time>2016-01-30T10:05:14Z</time>
      </trkpt>
      <trkpt lat="43.74649" lon="6.91048">
        <ele>1097.827</ele>
        <time>2016-01-30T10:05:24Z</time>
      </trkpt>
      <trkpt lat="43.74666" lon="6.91047">
        <ele>1098.198</ele>
        <time>2016-01-30T10:05:32Z</time>
      </trkpt>
      <trkpt lat="43.74676" lon="6.91049">
        <ele>1098.686</ele>
        <time>2016-01-30T10:05:37Z</time>
      </trkpt>
      <trkpt lat="43.74694" lon="6.91052">
        <ele>1100.5</ele>
        <time>2016-01-30T10:05:46Z</time>
      </trkpt>
      <trkpt lat="43.74713" lon="6.9105">
        <ele>1102.653</ele>
        <time>2016-01-30T10:05:55Z</time>
      </trkpt>
      <trkpt lat="43.74726" lon="6.91044">
        <ele>1105.202</ele>
        <time>2016-01-30T10:06:02Z</time>
      </trkpt>
      <trkpt lat="43.74729" lon="6.91042">
        <ele>1104.878</ele>
        <time>2016-01-30T10:06:04Z</time>
      </trkpt>
      <trkpt lat="43.74739" lon="6.91035">
        <ele>1107.705</ele>
        <time>2016-01-30T10:06:10Z</time>
      </trkpt>
      <trkpt lat="43.74747" lon="6.91028">
        <ele>1111.511</ele>
        <time>2016-01-30T10:06:16Z</time>
      </trkpt>
      <trkpt lat="43.74759" lon="6.9103">
        <ele>1113.696</ele>
        <time>2016-01-30T10:06:23Z</time>
      </trkpt>
      <trkpt lat="43.74771" lon="6.91031">
        <ele>1117.608</ele>
        <time>2016-01-30T10:06:31Z</time>
      </trkpt>
      <trkpt lat="43.74784" lon="6.9104">
        <ele>1117.913</ele>
        <time>2016-01-30T10:06:39Z</time>
      </trkpt>
      <trkpt lat="43.74789" lon="6.91046">
        <ele>1118.804</ele>
        <time>2016-01-30T10:06:43Z</time>
      </trkpt>
      <trkpt lat="43.74794" lon="6.9105">
        <ele>1118.74</ele>
        <time>2016-01-30T10:06:47Z</time>
      </trkpt>
      <trkpt lat="43.74801" lon="6.91061">
        <ele>1119.107</ele>
        <time>2016-01-30T10:06:54Z</time>
      </trkpt>
      <trkpt lat="43.74807" lon="6.91073">
        <ele>1118.379</ele>
        <time>2016-01-30T10:07:00Z</time>
      </trkpt>
      <trkpt lat="43.74809" lon="6.91077">
        <ele>1118.6</ele>
        <time>2016-01-30T10:07:02Z</time>
      </trkpt>
      <trkpt lat="43.74814" lon="6.91085">
        <ele>1119.1</ele>
        <time>2016-01-30T10:07:07Z</time>
      </trkpt>
      <trkpt lat="43.74814" lon="6.91092">
        <ele>1119.169</ele>
        <time>2016-01-30T10:07:10Z</time>
      </trkpt>
      <trkpt lat="43.74821" lon="6.91099">
        <ele>1120.109</ele>
        <time>2016-01-30T10:07:15Z</time>
      </trkpt>
      <trkpt lat="43.74822" lon="6.91109">
        <ele>1121.122</ele>
        <time>2016-01-30T10:07:20Z</time>
      </trkpt>
      <trkpt lat="43.74825" lon="6.91117">
        <ele>1121.35</ele>
        <time>2016-01-30T10:07:24Z</time>
      </trkpt>
      <trkpt lat="43.74834" lon="6.91128">
        <ele>1121.646</ele>
        <time>2016-01-30T10:07:31Z</time>
      </trkpt>
      <trkpt lat="43.74834" lon="6.91137">
        <ele>1121.942</ele>
        <time>2016-01-30T10:07:36Z</time>
      </trkpt>
      <trkpt lat="43.7484" lon="6.91143">
        <ele>1122.402</ele>
        <time>2016-01-30T10:07:41Z</time>
      </trkpt>
      <trkpt lat="43.74841" lon="6.91151">
        <ele>1123.842</ele>
        <time>2016-01-30T10:07:46Z</time>
      </trkpt>
      <trkpt lat="43.74842" lon="6.91157">
        <ele>1124.441</ele>
        <time>2016-01-30T10:07:50Z</time>
      </trkpt>
      <trkpt lat="43.74851" lon="6.91171">
        <ele>1126.901</ele>
        <time>2016-01-30T10:07:59Z</time>
      </trkpt>
      <trkpt lat="43.74851" lon="6.91174">
        <ele>1126.97</ele>
        <time>2016-01-30T10:08:00Z</time>
      </trkpt>
      <trkpt lat="43.7485" lon="6.91178">
        <ele>1127.922</ele>
        <time>2016-01-30T10:08:03Z</time>
      </trkpt>
      <trkpt lat="43.74853" lon="6.91185">
        <ele>1128.553</ele>
        <time>2016-01-30T10:08:07Z</time>
      </trkpt>
      <trkpt lat="43.74852" lon="6.91195">
        <ele>1129.603</ele>
        <time>2016-01-30T10:08:13Z</time>
      </trkpt>
      <trkpt lat="43.74842" lon="6.91203">
        <ele>1130.754</ele>
        <time>2016-01-30T10:08:21Z</time>
      </trkpt>
      <trkpt lat="43.74835" lon="6.9121">
        <ele>1131.311</ele>
        <time>2016-01-30T10:08:27Z</time>
      </trkpt>
      <trkpt lat="43.74825" lon="6.91222">
        <ele>1132.823</ele>
        <time>2016-01-30T10:08:36Z</time>
      </trkpt>
      <trkpt lat="43.74819" lon="6.91233">
        <ele>1134.5</ele>
        <time>2016-01-30T10:08:44Z</time>
      </trkpt>
      <trkpt lat="43.74819" lon="6.91239">
        <ele>1135.05</ele>
        <time>2016-01-30T10:08:47Z</time>
      </trkpt>
      <trkpt lat="43.74813" lon="6.91247">
        <ele>1136.41</ele>
        <time>2016-01-30T10:08:54Z</time>
      </trkpt>
      <trkpt lat="43.74812" lon="6.91254">
        <ele>1135.83</ele>
        <time>2016-01-30T10:08:57Z</time>
      </trkpt>
      <trkpt lat="43.7481" lon="6.91259">
        <ele>1136.049</ele>
        <time>2016-01-30T10:09:00Z</time>
      </trkpt>
      <trkpt lat="43.74803" lon="6.9127">
        <ele>1136.99</ele>
        <time>2016-01-30T10:09:08Z</time>
      </trkpt>
      <trkpt lat="43.74799" lon="6.9128">
        <ele>1137.099</ele>
        <time>2016-01-30T10:09:14Z</time>
      </trkpt>
      <trkpt lat="43.74793" lon="6.9129">
        <ele>1139.674</ele>
        <time>2016-01-30T10:09:20Z</time>
      </trkpt>
      <trkpt lat="43.74788" lon="6.91304">
        <ele>1140.117</ele>
        <time>2016-01-30T10:09:27Z</time>
      </trkpt>
      <trkpt lat="43.74779" lon="6.91319">
        <ele>1142.401</ele>
        <time>2016-01-30T10:09:35Z</time>
      </trkpt>
      <trkpt lat="43.74772" lon="6.91337">
        <ele>1145.303</ele>
        <time>2016-01-30T10:09:44Z</time>
      </trkpt>
      <trkpt lat="43.74771" lon="6.91355">
        <ele>1146.152</ele>
        <time>2016-01-30T10:09:52Z</time>
      </trkpt>
      <trkpt lat="43.74775" lon="6.91369">
        <ele>1147.913</ele>
        <time>2016-01-30T10:09:59Z</time>
      </trkpt>
      <trkpt lat="43.74782" lon="6.91384">
        <ele>1149.321</ele>
        <time>2016-01-30T10:10:07Z</time>
      </trkpt>
      <trkpt lat="43.7478" lon="6.91401">
        <ele>1150.305</ele>
        <time>2016-01-30T10:10:14Z</time>
      </trkpt>
      <trkpt lat="43.74775" lon="6.9142">
        <ele>1151.542</ele>
        <time>2016-01-30T10:10:22Z</time>
      </trkpt>
      <trkpt lat="43.7477" lon="6.91441">
        <ele>1151.839</ele>
        <time>2016-01-30T10:10:29Z</time>
      </trkpt>
      <trkpt lat="43.74765" lon="6.9147">
        <ele>1151.418</ele>
        <time>2016-01-30T10:10:38Z</time>
      </trkpt>
      <trkpt lat="43.74763" lon="6.91496">
        <ele>1150.986</ele>
        <time>2016-01-30T10:10:46Z</time>
      </trkpt>
      <trkpt lat="43.74763" lon="6.9152">
        <ele>1150.664</ele>
        <time>2016-01-30T10:10:53Z</time>
      </trkpt>
      <trkpt lat="43.74767" lon="6.91547">
        <ele>1151.285</ele>
        <time>2016-01-30T10:11:01Z</time>
      </trkpt>
      <trkpt lat="43.74773" lon="6.9157">
        <ele>1151.569</ele>
        <time>2016-01-30T10:11:08Z</time>
      </trkpt>
      <trkpt lat="43.74784" lon="6.91585">
        <ele>1150.888</ele>
        <time>2016-01-30T10:11:14Z</time>
      </trkpt>
      <trkpt lat="43.74797" lon="6.91595">
        <ele>1151.429</ele>
        <time>2016-01-30T10:11:21Z</time>
      </trkpt>
      <trkpt lat="43.7481" lon="6.916">
        <ele>1153.822</ele>
        <time>2016-01-30T10:11:28Z</time>
      </trkpt>
      <trkpt lat="43.74825" lon="6.91604">
        <ele>1157.704</ele>
        <time>2016-01-30T10:11:37Z</time>
      </trkpt>
      <trkpt lat="43.74842" lon="6.9161">
        <ele>1160.742</ele>
        <time>2016-01-30T10:11:47Z</time>
      </trkpt>
      <trkpt lat="43.74856" lon="6.91621">
        <ele>1161.858</ele>
        <time>2016-01-30T10:11:57Z</time>
      </trkpt>
      <trkpt lat="43.74868" lon="6.91633">
        <ele>1163.211</ele>
        <time>2016-01-30T10:12:06Z</time>
      </trkpt>
      <trkpt lat="43.7488" lon="6.91646">
        <ele>1165.303</ele>
        <time>2016-01-30T10:12:15Z</time>
      </trkpt>
      <trkpt lat="43.74888" lon="6.91658">
        <ele>1165.961</ele>
        <time>2016-01-30T10:12:22Z</time>
      </trkpt>
      <trkpt lat="43.74902" lon="6.91673">
        <ele>1165.837</ele>
        <time>2016-01-30T10:12:32Z</time>
      </trkpt>
      <trkpt lat="43.74913" lon="6.91679">
        <ele>1167.18</ele>
        <time>2016-01-30T10:12:40Z</time>
      </trkpt>
      <trkpt lat="43.74926" lon="6.91678">
        <ele>1172.637</ele>
        <time>2016-01-30T10:12:49Z</time>
      </trkpt>
      <trkpt lat="43.7494" lon="6.91671">
        <ele>1175.551</ele>
        <time>2016-01-30T10:12:58Z</time>
      </trkpt>
      <trkpt lat="43.74952" lon="6.91673">
        <ele>1176.331</ele>
        <time>2016-01-30T10:13:05Z</time>
      </trkpt>
      <trkpt lat="43.74957" lon="6.91685">
        <ele>1177.162</ele>
        <time>2016-01-30T10:13:11Z</time>
      </trkpt>
      <trkpt lat="43.74953" lon="6.91699">
        <ele>1178.626</ele>
        <time>2016-01-30T10:13:18Z</time>
      </trkpt>
      <trkpt lat="43.74945" lon="6.9171">
        <ele>1179.711</ele>
        <time>2016-01-30T10:13:25Z</time>
      </trkpt>
      <trkpt lat="43.74937" lon="6.91724">
        <ele>1179.16</ele>
        <time>2016-01-30T10:13:33Z</time>
      </trkpt>
      <trkpt lat="43.74936" lon="6.91725">
        <ele>1179.13</ele>
        <time>2016-01-30T10:13:34Z</time>
      </trkpt>
      <trkpt lat="43.74933" lon="6.91732">
        <ele>1179.862</ele>
        <time>2016-01-30T10:13:38Z</time>
      </trkpt>
      <trkpt lat="43.7493" lon="6.91752">
        <ele>1179.991</ele>
        <time>2016-01-30T10:13:47Z</time>
      </trkpt>
      <trkpt lat="43.7493" lon="6.91774">
        <ele>1180.724</ele>
        <time>2016-01-30T10:13:56Z</time>
      </trkpt>
      <trkpt lat="43.74931" lon="6.91799">
        <ele>1180.651</ele>
        <time>2016-01-30T10:14:06Z</time>
      </trkpt>
      <trkpt lat="43.74933" lon="6.91818">
        <ele>1180.903</ele>
        <time>2016-01-30T10:14:14Z</time>
      </trkpt>
      <trkpt lat="43.74938" lon="6.91839">
        <ele>1181.382</ele>
        <time>2016-01-30T10:14:23Z</time>
      </trkpt>
      <trkpt lat="43.74942" lon="6.91857">
        <ele>1182.793</ele>
        <time>2016-01-30T10:14:31Z</time>
      </trkpt>
      <trkpt lat="43.74943" lon="6.91861">
        <ele>1183.292</ele>
        <time>2016-01-30T10:14:33Z</time>
      </trkpt>
      <trkpt lat="43.7495" lon="6.91883">
        <ele>1184.68</ele>
        <time>2016-01-30T10:14:43Z</time>
      </trkpt>
      <trkpt lat="43.74956" lon="6.91897">
        <ele>1185.951</ele>
        <time>2016-01-30T10:14:50Z</time>
      </trkpt>
      <trkpt lat="43.74962" lon="6.91912">
        <ele>1187.168</ele>
        <time>2016-01-30T10:14:58Z</time>
      </trkpt>
      <trkpt lat="43.74968" lon="6.91929">
        <ele>1186.51</ele>
        <time>2016-01-30T10:15:06Z</time>
      </trkpt>
      <trkpt lat="43.74974" lon="6.91948">
        <ele>1186.41</ele>
        <time>2016-01-30T10:15:15Z</time>
      </trkpt>
      <trkpt lat="43.74976" lon="6.91972">
        <ele>1185.977</ele>
        <time>2016-01-30T10:15:25Z</time>
      </trkpt>
      <trkpt lat="43.74975" lon="6.91996">
        <ele>1185.247</ele>
        <time>2016-01-30T10:15:35Z</time>
      </trkpt>
      <trkpt lat="43.74973" lon="6.92017">
        <ele>1189.842</ele>
        <time>2016-01-30T10:15:45Z</time>
      </trkpt>
      <trkpt lat="43.74973" lon="6.92041">
        <ele>1188.226</ele>
        <time>2016-01-30T10:15:55Z</time>
      </trkpt>
      <trkpt lat="43.74974" lon="6.92058">
        <ele>1186.916</ele>
        <time>2016-01-30T10:16:02Z</time>
      </trkpt>
      <trkpt lat="43.7498" lon="6.92071">
        <ele>1187.146</ele>
        <time>2016-01-30T10:16:08Z</time>
      </trkpt>
      <trkpt lat="43.74991" lon="6.92072">
        <ele>1191.329</ele>
        <time>2016-01-30T10:16:15Z</time>
      </trkpt>
      <trkpt lat="43.74997" lon="6.92062">
        <ele>1193.999</ele>
        <time>2016-01-30T10:16:21Z</time>
      </trkpt>
      <trkpt lat="43.74999" lon="6.92042">
        <ele>1197.014</ele>
        <time>2016-01-30T10:16:30Z</time>
      </trkpt>
      <trkpt lat="43.74997" lon="6.92016">
        <ele>1206.319</ele>
        <time>2016-01-30T10:16:40Z</time>
      </trkpt>
      <trkpt lat="43.74994" lon="6.91991">
        <ele>1216.76</ele>
        <time>2016-01-30T10:16:51Z</time>
      </trkpt>
      <trkpt lat="43.74994" lon="6.9197">
        <ele>1221.966</ele>
        <time>2016-01-30T10:17:00Z</time>
      </trkpt>
      <trkpt lat="43.74994" lon="6.9195">
        <ele>1226.716</ele>
        <time>2016-01-30T10:17:09Z</time>
      </trkpt>
      <trkpt lat="43.74996" lon="6.91929">
        <ele>1229.352</ele>
        <time>2016-01-30T10:17:18Z</time>
      </trkpt>
      <trkpt lat="43.74997" lon="6.91908">
        <ele>1230.952</ele>
        <time>2016-01-30T10:17:27Z</time>
      </trkpt>
      <trkpt lat="43.74996" lon="6.91888">
        <ele>1230.684</ele>
        <time>2016-01-30T10:17:35Z</time>
      </trkpt>
      <trkpt lat="43.74999" lon="6.91871">
        <ele>1225.665</ele>
        <time>2016-01-30T10:17:42Z</time>
      </trkpt>
      <trkpt lat="43.75002" lon="6.91855">
        <ele>1222.779</ele>
        <time>2016-01-30T10:17:48Z</time>
      </trkpt>
      <trkpt lat="43.75007" lon="6.91847">
        <ele>1223.51</ele>
        <time>2016-01-30T10:17:53Z</time>
      </trkpt>
      <trkpt lat="43.75016" lon="6.91852">
        <ele>1223.709</ele>
        <time>2016-01-30T10:17:59Z</time>
      </trkpt>
      <trkpt lat="43.75019" lon="6.91864">
        <ele>1224.571</ele>
        <time>2016-01-30T10:18:05Z</time>
      </trkpt>
      <trkpt lat="43.7502" lon="6.91871">
        <ele>1224.49</ele>
        <time>2016-01-30T10:18:08Z</time>
      </trkpt>
      <trkpt lat="43.75023" lon="6.91887">
        <ele>1223.065</ele>
        <time>2016-01-30T10:18:15Z</time>
      </trkpt>
      <trkpt lat="43.75025" lon="6.91893">
        <ele>1222.785</ele>
        <time>2016-01-30T10:18:18Z</time>
      </trkpt>
      <trkpt lat="43.75023" lon="6.91908">
        <ele>1221.835</ele>
        <time>2016-01-30T10:18:25Z</time>
      </trkpt>
      <trkpt lat="43.75025" lon="6.91925">
        <ele>1218.303</ele>
        <time>2016-01-30T10:18:32Z</time>
      </trkpt>
      <trkpt lat="43.75028" lon="6.91945">
        <ele>1214.434</ele>
        <time>2016-01-30T10:18:40Z</time>
      </trkpt>
      <trkpt lat="43.75029" lon="6.9195">
        <ele>1215.715</ele>
        <time>2016-01-30T10:18:43Z</time>
      </trkpt>
      <trkpt lat="43.75029" lon="6.91961">
        <ele>1218.308</ele>
        <time>2016-01-30T10:18:49Z</time>
      </trkpt>
      <trkpt lat="43.75032" lon="6.91973">
        <ele>1218.399</ele>
        <time>2016-01-30T10:18:55Z</time>
      </trkpt>
      <trkpt lat="43.75033" lon="6.91984">
        <ele>1219.009</ele>
        <time>2016-01-30T10:19:00Z</time>
      </trkpt>
      <trkpt lat="43.75036" lon="6.91998">
        <ele>1219.459</ele>
        <time>2016-01-30T10:19:07Z</time>
      </trkpt>
      <trkpt lat="43.75036" lon="6.9201">
        <ele>1220.799</ele>
        <time>2016-01-30T10:19:13Z</time>
      </trkpt>
      <trkpt lat="43.75038" lon="6.92029">
        <ele>1219.98</ele>
        <time>2016-01-30T10:19:21Z</time>
      </trkpt>
      <trkpt lat="43.75041" lon="6.92046">
        <ele>1221.321</ele>
        <time>2016-01-30T10:19:29Z</time>
      </trkpt>
      <trkpt lat="43.75043" lon="6.92061">
        <ele>1224.805</ele>
        <time>2016-01-30T10:19:37Z</time>
      </trkpt>
      <trkpt lat="43.75047" lon="6.92076">
        <ele>1229.742</ele>
        <time>2016-01-30T10:19:45Z</time>
      </trkpt>
      <trkpt lat="43.75047" lon="6.92084">
        <ele>1231.462</ele>
        <time>2016-01-30T10:19:49Z</time>
      </trkpt>
      <trkpt lat="43.75051" lon="6.92098">
        <ele>1232.428</ele>
        <time>2016-01-30T10:19:56Z</time>
      </trkpt>
      <trkpt lat="43.75052" lon="6.92106">
        <ele>1232.829</ele>
        <time>2016-01-30T10:19:59Z</time>
      </trkpt>
      <trkpt lat="43.75056" lon="6.92112">
        <ele>1233.809</ele>
        <time>2016-01-30T10:20:03Z</time>
      </trkpt>
      <trkpt lat="43.75057" lon="6.92128">
        <ele>1234.389</ele>
        <time>2016-01-30T10:20:10Z</time>
      </trkpt>
      <trkpt lat="43.75061" lon="6.9214">
        <ele>1236.891</ele>
        <time>2016-01-30T10:20:17Z</time>
      </trkpt>
      <trkpt lat="43.75062" lon="6.92153">
        <ele>1237.258</ele>
        <time>2016-01-30T10:20:23Z</time>
      </trkpt>
      <trkpt lat="43.75063" lon="6.92155">
        <ele>1237.107</ele>
        <time>2016-01-30T10:20:24Z</time>
      </trkpt>
      <trkpt lat="43.75063" lon="6.92168">
        <ele>1237.138</ele>
        <time>2016-01-30T10:20:30Z</time>
      </trkpt>
      <trkpt lat="43.75067" lon="6.92193">
        <ele>1235.287</ele>
        <time>2016-01-30T10:20:40Z</time>
      </trkpt>
      <trkpt lat="43.75067" lon="6.92202">
        <ele>1236.579</ele>
        <time>2016-01-30T10:20:45Z</time>
      </trkpt>
      <trkpt lat="43.75069" lon="6.92217">
        <ele>1236.76</ele>
        <time>2016-01-30T10:20:52Z</time>
      </trkpt>
      <trkpt lat="43.75071" lon="6.92232">
        <ele>1235.681</ele>
        <time>2016-01-30T10:20:59Z</time>
      </trkpt>
      <trkpt lat="43.75072" lon="6.92243">
        <ele>1236.729</ele>
        <time>2016-01-30T10:21:05Z</time>
      </trkpt>
      <trkpt lat="43.75073" lon="6.92256">
        <ele>1237.065</ele>
        <time>2016-01-30T10:21:12Z</time>
      </trkpt>
      <trkpt lat="43.75074" lon="6.9226">
        <ele>1237.096</ele>
        <time>2016-01-30T10:21:14Z</time>
      </trkpt>
      <trkpt lat="43.75073" lon="6.92272">
        <ele>1237.279</ele>
        <time>2016-01-30T10:21:20Z</time>
      </trkpt>
      <trkpt lat="43.75073" lon="6.92274">
        <ele>1237.571</ele>
        <time>2016-01-30T10:21:21Z</time>
      </trkpt>
      <trkpt lat="43.75075" lon="6.92283">
        <ele>1238.081</ele>
        <time>2016-01-30T10:21:25Z</time>
      </trkpt>
      <trkpt lat="43.75073" lon="6.92297">
        <ele>1241.022</ele>
        <time>2016-01-30T10:21:32Z</time>
      </trkpt>
      <trkpt lat="43.75073" lon="6.92306">
        <ele>1242.473</ele>
        <time>2016-01-30T10:21:36Z</time>
      </trkpt>
      <trkpt lat="43.75077" lon="6.9232">
        <ele>1244.021</ele>
        <time>2016-01-30T10:21:43Z</time>
      </trkpt>
      <trkpt lat="43.75074" lon="6.92332">
        <ele>1247.043</ele>
        <time>2016-01-30T10:21:49Z</time>
      </trkpt>
      <trkpt lat="43.75076" lon="6.92354">
        <ele>1250.213</ele>
        <time>2016-01-30T10:21:59Z</time>
      </trkpt>
      <trkpt lat="43.75077" lon="6.9237">
        <ele>1251.524</ele>
        <time>2016-01-30T10:22:06Z</time>
      </trkpt>
      <trkpt lat="43.75079" lon="6.92382">
        <ele>1253.213</ele>
        <time>2016-01-30T10:22:12Z</time>
      </trkpt>
      <trkpt lat="43.75079" lon="6.92395">
        <ele>1253.611</ele>
        <time>2016-01-30T10:22:18Z</time>
      </trkpt>
      <trkpt lat="43.75081" lon="6.92412">
        <ele>1255.383</ele>
        <time>2016-01-30T10:22:26Z</time>
      </trkpt>
      <trkpt lat="43.75087" lon="6.92429">
        <ele>1257.852</ele>
        <time>2016-01-30T10:22:34Z</time>
      </trkpt>
      <trkpt lat="43.75094" lon="6.92442">
        <ele>1259.904</ele>
        <time>2016-01-30T10:22:41Z</time>
      </trkpt>
      <trkpt lat="43.75103" lon="6.9245">
        <ele>1263.162</ele>
        <time>2016-01-30T10:22:48Z</time>
      </trkpt>
      <trkpt lat="43.75119" lon="6.92455">
        <ele>1264.912</ele>
        <time>2016-01-30T10:22:57Z</time>
      </trkpt>
      <trkpt lat="43.75133" lon="6.9245">
        <ele>1266.079</ele>
        <time>2016-01-30T10:23:05Z</time>
      </trkpt>
      <trkpt lat="43.75145" lon="6.92435">
        <ele>1266.327</ele>
        <time>2016-01-30T10:23:13Z</time>
      </trkpt>
      <trkpt lat="43.7515" lon="6.92437">
        <ele>1267.161</ele>
        <time>2016-01-30T10:23:17Z</time>
      </trkpt>
      <trkpt lat="43.75155" lon="6.92437">
        <ele>1268.132</ele>
        <time>2016-01-30T10:23:23Z</time>
      </trkpt>
      <trkpt lat="43.75155" lon="6.92437">
        <ele>1268.631</ele>
        <time>2016-01-30T10:23:27Z</time>
      </trkpt>
      <trkpt lat="43.75156" lon="6.92439">
        <ele>1268.62</ele>
        <time>2016-01-30T10:23:30Z</time>
      </trkpt>
      <trkpt lat="43.75154" lon="6.9245">
        <ele>1267.987</ele>
        <time>2016-01-30T10:23:35Z</time>
      </trkpt>
      <trkpt lat="43.75156" lon="6.92461">
        <ele>1267.207</ele>
        <time>2016-01-30T10:23:39Z</time>
      </trkpt>
      <trkpt lat="43.75155" lon="6.92467">
        <ele>1266.499</ele>
        <time>2016-01-30T10:23:44Z</time>
      </trkpt>
      <trkpt lat="43.75155" lon="6.92464">
        <ele>1267.526</ele>
        <time>2016-01-30T10:32:12Z</time>
      </trkpt>
      <trkpt lat="43.75155" lon="6.92464">
        <ele>1267.517</ele>
        <time>2016-01-30T10:32:13Z</time>
      </trkpt>
      <trkpt lat="43.75155" lon="6.92477">
        <ele>1268.491</ele>
        <time>2016-01-30T10:32:19Z</time>
      </trkpt>
      <trkpt lat="43.75151" lon="6.92498">
        <ele>1267.806</ele>
        <time>2016-01-30T10:32:26Z</time>
      </trkpt>
      <trkpt lat="43.75146" lon="6.92525">
        <ele>1266.207</ele>
        <time>2016-01-30T10:32:33Z</time>
      </trkpt>
      <trkpt lat="43.75144" lon="6.92563">
        <ele>1264.294</ele>
        <time>2016-01-30T10:32:41Z</time>
      </trkpt>
      <trkpt lat="43.75149" lon="6.9259">
        <ele>1264.402</ele>
        <time>2016-01-30T10:32:47Z</time>
      </trkpt>
      <trkpt lat="43.75159" lon="6.92608">
        <ele>1264.631</ele>
        <time>2016-01-30T10:32:52Z</time>
      </trkpt>
      <trkpt lat="43.75177" lon="6.92614">
        <ele>1267.074</ele>
        <time>2016-01-30T10:32:58Z</time>
      </trkpt>
      <trkpt lat="43.75199" lon="6.92622">
        <ele>1268.966</ele>
        <time>2016-01-30T10:33:06Z</time>
      </trkpt>
      <trkpt lat="43.75218" lon="6.92636">
        <ele>1269.067</ele>
        <time>2016-01-30T10:33:12Z</time>
      </trkpt>
      <trkpt lat="43.75233" lon="6.92655">
        <ele>1269.481</ele>
        <time>2016-01-30T10:33:18Z</time>
      </trkpt>
      <trkpt lat="43.75247" lon="6.92681">
        <ele>1270.14</ele>
        <time>2016-01-30T10:33:25Z</time>
      </trkpt>
      <trkpt lat="43.75259" lon="6.92705">
        <ele>1270.844</ele>
        <time>2016-01-30T10:33:32Z</time>
      </trkpt>
      <trkpt lat="43.75268" lon="6.92723">
        <ele>1271.53</ele>
        <time>2016-01-30T10:33:38Z</time>
      </trkpt>
      <trkpt lat="43.75282" lon="6.92754">
        <ele>1271.46</ele>
        <time>2016-01-30T10:33:47Z</time>
      </trkpt>
      <trkpt lat="43.75286" lon="6.92784">
        <ele>1271.093</ele>
        <time>2016-01-30T10:33:54Z</time>
      </trkpt>
      <trkpt lat="43.75293" lon="6.92809">
        <ele>1271.039</ele>
        <time>2016-01-30T10:34:00Z</time>
      </trkpt>
      <trkpt lat="43.75303" lon="6.92832">
        <ele>1270.87</ele>
        <time>2016-01-30T10:34:06Z</time>
      </trkpt>
      <trkpt lat="43.75314" lon="6.92863">
        <ele>1270.931</ele>
        <time>2016-01-30T10:34:14Z</time>
      </trkpt>
      <trkpt lat="43.7532" lon="6.92885">
        <ele>1270.949</ele>
        <time>2016-01-30T10:34:20Z</time>
      </trkpt>
      <trkpt lat="43.75329" lon="6.9291">
        <ele>1271.363</ele>
        <time>2016-01-30T10:34:28Z</time>
      </trkpt>
      <trkpt lat="43.7533" lon="6.92913">
        <ele>1271.555</ele>
        <time>2016-01-30T10:34:29Z</time>
      </trkpt>
      <trkpt lat="43.75338" lon="6.92923">
        <ele>1273.496</ele>
        <time>2016-01-30T10:34:34Z</time>
      </trkpt>
      <trkpt lat="43.75339" lon="6.92929">
        <ele>1273.704</ele>
        <time>2016-01-30T10:34:36Z</time>
      </trkpt>
      <trkpt lat="43.75347" lon="6.92929">
        <ele>1275.072</ele>
        <time>2016-01-30T10:34:41Z</time>
      </trkpt>
      <trkpt lat="43.75367" lon="6.92932">
        <ele>1276.784</ele>
        <time>2016-01-30T10:34:52Z</time>
      </trkpt>
      <trkpt lat="43.75373" lon="6.9294">
        <ele>1278.225</ele>
        <time>2016-01-30T10:34:58Z</time>
      </trkpt>
      <trkpt lat="43.75374" lon="6.92954">
        <ele>1279.706</ele>
        <time>2016-01-30T10:35:06Z</time>
      </trkpt>
      <trkpt lat="43.75375" lon="6.92968">
        <ele>1280.605</ele>
        <time>2016-01-30T10:35:14Z</time>
      </trkpt>
      <trkpt lat="43.75375" lon="6.9297">
        <ele>1280.776</ele>
        <time>2016-01-30T10:35:15Z</time>
      </trkpt>
      <trkpt lat="43.75379" lon="6.92975">
        <ele>1281.066</ele>
        <time>2016-01-30T10:35:20Z</time>
      </trkpt>
      <trkpt lat="43.75381" lon="6.92974">
        <ele>1280.61</ele>
        <time>2016-01-30T10:35:21Z</time>
      </trkpt>
      <trkpt lat="43.75393" lon="6.92965">
        <ele>1278.823</ele>
        <time>2016-01-30T10:35:25Z</time>
      </trkpt>
      <trkpt lat="43.75401" lon="6.92959">
        <ele>1277.633</ele>
        <time>2016-01-30T10:35:27Z</time>
      </trkpt>
      <trkpt lat="43.75431" lon="6.92946">
        <ele>1273.6</ele>
        <time>2016-01-30T10:35:33Z</time>
      </trkpt>
      <trkpt lat="43.75463" lon="6.92932">
        <ele>1272.134</ele>
        <time>2016-01-30T10:35:40Z</time>
      </trkpt>
      <trkpt lat="43.75485" lon="6.92921">
        <ele>1271.19</ele>
        <time>2016-01-30T10:35:46Z</time>
      </trkpt>
      <trkpt lat="43.75489" lon="6.92921">
        <ele>1270.808</ele>
        <time>2016-01-30T10:35:47Z</time>
      </trkpt>
      <trkpt lat="43.75497" lon="6.92917">
        <ele>1269.553</ele>
        <time>2016-01-30T10:35:49Z</time>
      </trkpt>
      <trkpt lat="43.75514" lon="6.92906">
        <ele>1267.151</ele>
        <time>2016-01-30T10:35:53Z</time>
      </trkpt>
      <trkpt lat="43.75523" lon="6.92902">
        <ele>1266.204</ele>
        <time>2016-01-30T10:35:55Z</time>
      </trkpt>
      <trkpt lat="43.75553" lon="6.92887">
        <ele>1264.147</ele>
        <time>2016-01-30T10:36:03Z</time>
      </trkpt>
      <trkpt lat="43.75571" lon="6.92891">
        <ele>1263.361</ele>
        <time>2016-01-30T10:36:08Z</time>
      </trkpt>
      <trkpt lat="43.7558" lon="6.92895">
        <ele>1262.801</ele>
        <time>2016-01-30T10:36:10Z</time>
      </trkpt>
      <trkpt lat="43.7561" lon="6.92905">
        <ele>1260.992</ele>
        <time>2016-01-30T10:36:17Z</time>
      </trkpt>
      <trkpt lat="43.75637" lon="6.92913">
        <ele>1260.216</ele>
        <time>2016-01-30T10:36:23Z</time>
      </trkpt>
      <trkpt lat="43.75654" lon="6.9292">
        <ele>1259.805</ele>
        <time>2016-01-30T10:36:27Z</time>
      </trkpt>
      <trkpt lat="43.75686" lon="6.9293">
        <ele>1257.656</ele>
        <time>2016-01-30T10:36:35Z</time>
      </trkpt>
      <trkpt lat="43.75715" lon="6.9294">
        <ele>1255.341</ele>
        <time>2016-01-30T10:36:41Z</time>
      </trkpt>
      <trkpt lat="43.75724" lon="6.92943">
        <ele>1255.177</ele>
        <time>2016-01-30T10:36:43Z</time>
      </trkpt>
      <trkpt lat="43.75739" lon="6.92954">
        <ele>1255.568</ele>
        <time>2016-01-30T10:36:47Z</time>
      </trkpt>
      <trkpt lat="43.75753" lon="6.9298">
        <ele>1256.239</ele>
        <time>2016-01-30T10:36:52Z</time>
      </trkpt>
      <trkpt lat="43.75768" lon="6.92997">
        <ele>1255.396</ele>
        <time>2016-01-30T10:36:57Z</time>
      </trkpt>
      <trkpt lat="43.75777" lon="6.93009">
        <ele>1254.944</ele>
        <time>2016-01-30T10:37:01Z</time>
      </trkpt>
      <trkpt lat="43.75782" lon="6.93031">
        <ele>1253.557</ele>
        <time>2016-01-30T10:37:05Z</time>
      </trkpt>
      <trkpt lat="43.75787" lon="6.93045">
        <ele>1252.559</ele>
        <time>2016-01-30T10:37:07Z</time>
      </trkpt>
      <trkpt lat="43.75797" lon="6.93063">
        <ele>1251.198</ele>
        <time>2016-01-30T10:37:10Z</time>
      </trkpt>
      <trkpt lat="43.75825" lon="6.93116">
        <ele>1246.469</ele>
        <time>2016-01-30T10:37:18Z</time>
      </trkpt>
      <trkpt lat="43.7583" lon="6.93124">
        <ele>1245.583</ele>
        <time>2016-01-30T10:37:19Z</time>
      </trkpt>
      <trkpt lat="43.75849" lon="6.93153">
        <ele>1241.026</ele>
        <time>2016-01-30T10:37:23Z</time>
      </trkpt>
      <trkpt lat="43.7587" lon="6.9318">
        <ele>1236.065</ele>
        <time>2016-01-30T10:37:27Z</time>
      </trkpt>
      <trkpt lat="43.759" lon="6.93204">
        <ele>1229.602</ele>
        <time>2016-01-30T10:37:32Z</time>
      </trkpt>
      <trkpt lat="43.75906" lon="6.93208">
        <ele>1227.969</ele>
        <time>2016-01-30T10:37:33Z</time>
      </trkpt>
      <trkpt lat="43.75927" lon="6.9322">
        <ele>1223.025</ele>
        <time>2016-01-30T10:37:36Z</time>
      </trkpt>
      <trkpt lat="43.7595" lon="6.93242">
        <ele>1217.321</ele>
        <time>2016-01-30T10:37:40Z</time>
      </trkpt>
      <trkpt lat="43.75963" lon="6.93262">
        <ele>1213.394</ele>
        <time>2016-01-30T10:37:43Z</time>
      </trkpt>
      <trkpt lat="43.75977" lon="6.93276">
        <ele>1209.636</ele>
        <time>2016-01-30T10:37:46Z</time>
      </trkpt>
      <trkpt lat="43.75993" lon="6.93289">
        <ele>1204.988</ele>
        <time>2016-01-30T10:37:49Z</time>
      </trkpt>
      <trkpt lat="43.76013" lon="6.93298">
        <ele>1200.882</ele>
        <time>2016-01-30T10:37:52Z</time>
      </trkpt>
      <trkpt lat="43.7603" lon="6.93314">
        <ele>1196.107</ele>
        <time>2016-01-30T10:37:56Z</time>
      </trkpt>
      <trkpt lat="43.76029" lon="6.93319">
        <ele>1193.799</ele>
        <time>2016-01-30T10:37:58Z</time>
      </trkpt>
      <trkpt lat="43.76024" lon="6.9333">
        <ele>1192.05</ele>
        <time>2016-01-30T10:38:01Z</time>
      </trkpt>
      <trkpt lat="43.76025" lon="6.9335">
        <ele>1191.244</ele>
        <time>2016-01-30T10:38:06Z</time>
      </trkpt>
      <trkpt lat="43.76029" lon="6.93372">
        <ele>1190.154</ele>
        <time>2016-01-30T10:38:10Z</time>
      </trkpt>
      <trkpt lat="43.76028" lon="6.93386">
        <ele>1188.963</ele>
        <time>2016-01-30T10:38:13Z</time>
      </trkpt>
      <trkpt lat="43.76032" lon="6.93401">
        <ele>1187.168</ele>
        <time>2016-01-30T10:38:16Z</time>
      </trkpt>
      <trkpt lat="43.76043" lon="6.93424">
        <ele>1184.385</ele>
        <time>2016-01-30T10:38:21Z</time>
      </trkpt>
      <trkpt lat="43.76047" lon="6.93422">
        <ele>1183.794</ele>
        <time>2016-01-30T10:38:22Z</time>
      </trkpt>
      <trkpt lat="43.76068" lon="6.93415">
        <ele>1180.729</ele>
        <time>2016-01-30T10:38:27Z</time>
      </trkpt>
      <trkpt lat="43.76071" lon="6.93426">
        <ele>1179.531</ele>
        <time>2016-01-30T10:38:29Z</time>
      </trkpt>
      <trkpt lat="43.76071" lon="6.93459">
        <ele>1176.212</ele>
        <time>2016-01-30T10:38:34Z</time>
      </trkpt>
      <trkpt lat="43.76071" lon="6.93466">
        <ele>1175.773</ele>
        <time>2016-01-30T10:38:35Z</time>
      </trkpt>
      <trkpt lat="43.76071" lon="6.9348">
        <ele>1174.845</ele>
        <time>2016-01-30T10:38:37Z</time>
      </trkpt>
      <trkpt lat="43.76066" lon="6.93517">
        <ele>1172.319</ele>
        <time>2016-01-30T10:38:42Z</time>
      </trkpt>
      <trkpt lat="43.76067" lon="6.93522">
        <ele>1171.85</ele>
        <time>2016-01-30T10:38:43Z</time>
      </trkpt>
      <trkpt lat="43.76071" lon="6.93533">
        <ele>1170.569</ele>
        <time>2016-01-30T10:38:45Z</time>
      </trkpt>
      <trkpt lat="43.76079" lon="6.93562">
        <ele>1167.959</ele>
        <time>2016-01-30T10:38:50Z</time>
      </trkpt>
      <trkpt lat="43.76078" lon="6.93582">
        <ele>1166.931</ele>
        <time>2016-01-30T10:38:53Z</time>
      </trkpt>
      <trkpt lat="43.76082" lon="6.93599">
        <ele>1166.396</ele>
        <time>2016-01-30T10:38:56Z</time>
      </trkpt>
      <trkpt lat="43.76087" lon="6.93608">
        <ele>1166.205</ele>
        <time>2016-01-30T10:38:58Z</time>
      </trkpt>
      <trkpt lat="43.76094" lon="6.93615">
        <ele>1165.932</ele>
        <time>2016-01-30T10:39:00Z</time>
      </trkpt>
      <trkpt lat="43.76106" lon="6.93636">
        <ele>1164.497</ele>
        <time>2016-01-30T10:39:04Z</time>
      </trkpt>
      <trkpt lat="43.76108" lon="6.93643">
        <ele>1164.008</ele>
        <time>2016-01-30T10:39:05Z</time>
      </trkpt>
      <trkpt lat="43.76114" lon="6.9367">
        <ele>1161.703</ele>
        <time>2016-01-30T10:39:09Z</time>
      </trkpt>
      <trkpt lat="43.76118" lon="6.93682">
        <ele>1160.632</ele>
        <time>2016-01-30T10:39:11Z</time>
      </trkpt>
      <trkpt lat="43.76126" lon="6.93706">
        <ele>1157.523</ele>
        <time>2016-01-30T10:39:15Z</time>
      </trkpt>
      <trkpt lat="43.76124" lon="6.93725">
        <ele>1156.136</ele>
        <time>2016-01-30T10:39:18Z</time>
      </trkpt>
      <trkpt lat="43.76128" lon="6.93738">
        <ele>1155.297</ele>
        <time>2016-01-30T10:39:20Z</time>
      </trkpt>
      <trkpt lat="43.76149" lon="6.93784">
        <ele>1150.758</ele>
        <time>2016-01-30T10:39:26Z</time>
      </trkpt>
      <trkpt lat="43.76162" lon="6.93807">
        <ele>1148.4</ele>
        <time>2016-01-30T10:39:29Z</time>
      </trkpt>
      <trkpt lat="43.76168" lon="6.93811">
        <ele>1147.73</ele>
        <time>2016-01-30T10:39:30Z</time>
      </trkpt>
      <trkpt lat="43.76189" lon="6.93823">
        <ele>1145.083</ele>
        <time>2016-01-30T10:39:35Z</time>
      </trkpt>
      <trkpt lat="43.76195" lon="6.9384">
        <ele>1143.131</ele>
        <time>2016-01-30T10:39:38Z</time>
      </trkpt>
      <trkpt lat="43.76208" lon="6.93854">
        <ele>1140.465</ele>
        <time>2016-01-30T10:39:41Z</time>
      </trkpt>
      <trkpt lat="43.7622" lon="6.93881">
        <ele>1136.064</ele>
        <time>2016-01-30T10:39:46Z</time>
      </trkpt>
      <trkpt lat="43.76221" lon="6.93884">
        <ele>1135.225</ele>
        <time>2016-01-30T10:39:49Z</time>
      </trkpt>
      <trkpt lat="43.76221" lon="6.9388">
        <ele>1134.97</ele>
        <time>2016-01-30T10:40:02Z</time>
      </trkpt>
      <trkpt lat="43.76221" lon="6.9389">
        <ele>1131.331</ele>
        <time>2016-01-30T10:40:13Z</time>
      </trkpt>
      <trkpt lat="43.76221" lon="6.93903">
        <ele>1129.037</ele>
        <time>2016-01-30T10:40:16Z</time>
      </trkpt>
      <trkpt lat="43.76217" lon="6.93913">
        <ele>1128.264</ele>
        <time>2016-01-30T10:40:20Z</time>
      </trkpt>
      <trkpt lat="43.76205" lon="6.93924">
        <ele>1127.335</ele>
        <time>2016-01-30T10:40:26Z</time>
      </trkpt>
      <trkpt lat="43.76204" lon="6.93926">
        <ele>1127.328</ele>
        <time>2016-01-30T10:40:28Z</time>
      </trkpt>
      <trkpt lat="43.76196" lon="6.93921">
        <ele>1126.581</ele>
        <time>2016-01-30T10:40:33Z</time>
      </trkpt>
      <trkpt lat="43.76195" lon="6.9392">
        <ele>1126.702</ele>
        <time>2016-01-30T10:40:35Z</time>
      </trkpt>
      <trkpt lat="43.76194" lon="6.93912">
        <ele>1128.266</ele>
        <time>2016-01-30T10:40:40Z</time>
      </trkpt>
      <trkpt lat="43.76191" lon="6.93911">
        <ele>1128.405</ele>
        <time>2016-01-30T10:40:42Z</time>
      </trkpt>
      <trkpt lat="43.76185" lon="6.93913">
        <ele>1129.61</ele>
        <time>2016-01-30T10:40:48Z</time>
      </trkpt>
      <trkpt lat="43.7618" lon="6.93915">
        <ele>1129.668</ele>
        <time>2016-01-30T10:40:54Z</time>
      </trkpt>
      <trkpt lat="43.76179" lon="6.93914">
        <ele>1129.158</ele>
        <time>2016-01-30T10:40:55Z</time>
      </trkpt>
      <trkpt lat="43.76176" lon="6.93913">
        <ele>1127.981</ele>
        <time>2016-01-30T10:40:59Z</time>
      </trkpt>
      <trkpt lat="43.76173" lon="6.93914">
        <ele>1127.208</ele>
        <time>2016-01-30T10:41:03Z</time>
      </trkpt>
      <trkpt lat="43.76168" lon="6.93915">
        <ele>1126.206</ele>
        <time>2016-01-30T10:41:08Z</time>
      </trkpt>
      <trkpt lat="43.76167" lon="6.93919">
        <ele>1125.224</ele>
        <time>2016-01-30T10:41:11Z</time>
      </trkpt>
      <trkpt lat="43.76157" lon="6.93919">
        <ele>1124.284</ele>
        <time>2016-01-30T10:41:19Z</time>
      </trkpt>
      <trkpt lat="43.76154" lon="6.93921">
        <ele>1124.404</ele>
        <time>2016-01-30T10:41:23Z</time>
      </trkpt>
      <trkpt lat="43.76152" lon="6.93936">
        <ele>1124.262</ele>
        <time>2016-01-30T10:41:28Z</time>
      </trkpt>
      <trkpt lat="43.76149" lon="6.93945">
        <ele>1123.769</ele>
        <time>2016-01-30T10:41:30Z</time>
      </trkpt>
      <trkpt lat="43.76148" lon="6.93956">
        <ele>1124.274</ele>
        <time>2016-01-30T10:41:35Z</time>
      </trkpt>
      <trkpt lat="43.76148" lon="6.93964">
        <ele>1125.871</ele>
        <time>2016-01-30T10:41:40Z</time>
      </trkpt>
      <trkpt lat="43.7615" lon="6.93972">
        <ele>1127.012</ele>
        <time>2016-01-30T10:41:46Z</time>
      </trkpt>
      <trkpt lat="43.76154" lon="6.93984">
        <ele>1125.612</ele>
        <time>2016-01-30T10:41:54Z</time>
      </trkpt>
      <trkpt lat="43.76156" lon="6.93985">
        <ele>1125.22</ele>
        <time>2016-01-30T10:41:57Z</time>
      </trkpt>
      <trkpt lat="43.76164" lon="6.93997">
        <ele>1124.403</ele>
        <time>2016-01-30T10:42:03Z</time>
      </trkpt>
      <trkpt lat="43.76175" lon="6.94018">
        <ele>1122.89</ele>
        <time>2016-01-30T10:42:09Z</time>
      </trkpt>
      <trkpt lat="43.76181" lon="6.94043">
        <ele>1121.921</ele>
        <time>2016-01-30T10:42:14Z</time>
      </trkpt>
      <trkpt lat="43.76194" lon="6.94068">
        <ele>1122.728</ele>
        <time>2016-01-30T10:42:19Z</time>
      </trkpt>
      <trkpt lat="43.76206" lon="6.9408">
        <ele>1119.646</ele>
        <time>2016-01-30T10:42:23Z</time>
      </trkpt>
      <trkpt lat="43.7621" lon="6.94084">
        <ele>1118.944</ele>
        <time>2016-01-30T10:42:24Z</time>
      </trkpt>
      <trkpt lat="43.76217" lon="6.94095">
        <ele>1117.91</ele>
        <time>2016-01-30T10:42:26Z</time>
      </trkpt>
      <trkpt lat="43.76232" lon="6.94115">
        <ele>1116.302</ele>
        <time>2016-01-30T10:42:30Z</time>
      </trkpt>
      <trkpt lat="43.76248" lon="6.94133">
        <ele>1115.009</ele>
        <time>2016-01-30T10:42:34Z</time>
      </trkpt>
      <trkpt lat="43.76259" lon="6.94147">
        <ele>1114.331</ele>
        <time>2016-01-30T10:42:37Z</time>
      </trkpt>
      <trkpt lat="43.76287" lon="6.94183">
        <ele>1111.064</ele>
        <time>2016-01-30T10:42:43Z</time>
      </trkpt>
      <trkpt lat="43.76301" lon="6.94205">
        <ele>1108.895</ele>
        <time>2016-01-30T10:42:46Z</time>
      </trkpt>
      <trkpt lat="43.76321" lon="6.94226">
        <ele>1107.545</ele>
        <time>2016-01-30T10:42:50Z</time>
      </trkpt>
      <trkpt lat="43.76355" lon="6.9424">
        <ele>1106.862</ele>
        <time>2016-01-30T10:42:57Z</time>
      </trkpt>
      <trkpt lat="43.7636" lon="6.94242">
        <ele>1106.893</ele>
        <time>2016-01-30T10:42:58Z</time>
      </trkpt>
      <trkpt lat="43.76385" lon="6.94245">
        <ele>1107.449</ele>
        <time>2016-01-30T10:43:04Z</time>
      </trkpt>
      <trkpt lat="43.76396" lon="6.94243">
        <ele>1106.913</ele>
        <time>2016-01-30T10:43:07Z</time>
      </trkpt>
      <trkpt lat="43.7641" lon="6.94252">
        <ele>1105.785</ele>
        <time>2016-01-30T10:43:11Z</time>
      </trkpt>
      <trkpt lat="43.76412" lon="6.94266">
        <ele>1105.024</ele>
        <time>2016-01-30T10:43:14Z</time>
      </trkpt>
      <trkpt lat="43.76409" lon="6.94285">
        <ele>1103.783</ele>
        <time>2016-01-30T10:43:19Z</time>
      </trkpt>
      <trkpt lat="43.76404" lon="6.94294">
        <ele>1102.641</ele>
        <time>2016-01-30T10:43:22Z</time>
      </trkpt>
      <trkpt lat="43.76402" lon="6.94316">
        <ele>1102.92</ele>
        <time>2016-01-30T10:43:27Z</time>
      </trkpt>
      <trkpt lat="43.76405" lon="6.94337">
        <ele>1102.566</ele>
        <time>2016-01-30T10:43:30Z</time>
      </trkpt>
      <trkpt lat="43.76404" lon="6.94363">
        <ele>1102.149</ele>
        <time>2016-01-30T10:43:35Z</time>
      </trkpt>
      <trkpt lat="43.76407" lon="6.94386">
        <ele>1102.221</ele>
        <time>2016-01-30T10:43:39Z</time>
      </trkpt>
      <trkpt lat="43.76409" lon="6.94398">
        <ele>1102.191</ele>
        <time>2016-01-30T10:43:41Z</time>
      </trkpt>
      <trkpt lat="43.76408" lon="6.94426">
        <ele>1101.852</ele>
        <time>2016-01-30T10:43:46Z</time>
      </trkpt>
      <trkpt lat="43.76411" lon="6.94437">
        <ele>1102.095</ele>
        <time>2016-01-30T10:43:49Z</time>
      </trkpt>
      <trkpt lat="43.76416" lon="6.94446">
        <ele>1103.014</ele>
        <time>2016-01-30T10:43:54Z</time>
      </trkpt>
      <trkpt lat="43.7642" lon="6.94453">
        <ele>1103.091</ele>
        <time>2016-01-30T10:43:57Z</time>
      </trkpt>
      <trkpt lat="43.76439" lon="6.94478">
        <ele>1100.518</ele>
        <time>2016-01-30T10:44:06Z</time>
      </trkpt>
      <trkpt lat="43.76447" lon="6.94494">
        <ele>1099.127</ele>
        <time>2016-01-30T10:44:10Z</time>
      </trkpt>
      <trkpt lat="43.76464" lon="6.94515">
        <ele>1097.547</ele>
        <time>2016-01-30T10:44:16Z</time>
      </trkpt>
      <trkpt lat="43.76476" lon="6.94537">
        <ele>1096.871</ele>
        <time>2016-01-30T10:44:22Z</time>
      </trkpt>
      <trkpt lat="43.76479" lon="6.94562">
        <ele>1096.813</ele>
        <time>2016-01-30T10:44:27Z</time>
      </trkpt>
      <trkpt lat="43.76475" lon="6.94583">
        <ele>1096.804</ele>
        <time>2016-01-30T10:44:32Z</time>
      </trkpt>
      <trkpt lat="43.76467" lon="6.94598">
        <ele>1097.364</ele>
        <time>2016-01-30T10:44:38Z</time>
      </trkpt>
      <trkpt lat="43.76466" lon="6.94601">
        <ele>1096.274</ele>
        <time>2016-01-30T10:44:42Z</time>
      </trkpt>
      <trkpt lat="43.76466" lon="6.94605">
        <ele>1094.715</ele>
        <time>2016-01-30T10:45:14Z</time>
      </trkpt>
      <trkpt lat="43.76471" lon="6.94606">
        <ele>1094.531</ele>
        <time>2016-01-30T10:45:19Z</time>
      </trkpt>
      <trkpt lat="43.76483" lon="6.94599">
        <ele>1093.697</ele>
        <time>2016-01-30T10:45:23Z</time>
      </trkpt>
      <trkpt lat="43.76489" lon="6.94607">
        <ele>1093.83</ele>
        <time>2016-01-30T10:45:25Z</time>
      </trkpt>
      <trkpt lat="43.76501" lon="6.94627">
        <ele>1093.314</ele>
        <time>2016-01-30T10:45:30Z</time>
      </trkpt>
      <trkpt lat="43.7652" lon="6.94638">
        <ele>1092.01</ele>
        <time>2016-01-30T10:45:35Z</time>
      </trkpt>
      <trkpt lat="43.76523" lon="6.94639">
        <ele>1091.77</ele>
        <time>2016-01-30T10:45:36Z</time>
      </trkpt>
      <trkpt lat="43.76536" lon="6.94651">
        <ele>1090.728</ele>
        <time>2016-01-30T10:45:40Z</time>
      </trkpt>
      <trkpt lat="43.76545" lon="6.94653">
        <ele>1090.093</ele>
        <time>2016-01-30T10:45:42Z</time>
      </trkpt>
      <trkpt lat="43.76567" lon="6.94641">
        <ele>1087.88</ele>
        <time>2016-01-30T10:45:48Z</time>
      </trkpt>
      <trkpt lat="43.76586" lon="6.94636">
        <ele>1085.279</ele>
        <time>2016-01-30T10:45:53Z</time>
      </trkpt>
      <trkpt lat="43.76595" lon="6.94635">
        <ele>1084.329</ele>
        <time>2016-01-30T10:45:55Z</time>
      </trkpt>
      <trkpt lat="43.76612" lon="6.94637">
        <ele>1082.48</ele>
        <time>2016-01-30T10:45:59Z</time>
      </trkpt>
      <trkpt lat="43.76624" lon="6.94642">
        <ele>1080.668</ele>
        <time>2016-01-30T10:46:02Z</time>
      </trkpt>
      <trkpt lat="43.76643" lon="6.94646">
        <ele>1076.859</ele>
        <time>2016-01-30T10:46:07Z</time>
      </trkpt>
      <trkpt lat="43.76642" lon="6.94651">
        <ele>1076.35</ele>
        <time>2016-01-30T10:46:09Z</time>
      </trkpt>
      <trkpt lat="43.76639" lon="6.94659">
        <ele>1076.582</ele>
        <time>2016-01-30T10:46:11Z</time>
      </trkpt>
      <trkpt lat="43.76646" lon="6.94659">
        <ele>1074.83</ele>
        <time>2016-01-30T10:46:15Z</time>
      </trkpt>
      <trkpt lat="43.76652" lon="6.94655">
        <ele>1073.238</ele>
        <time>2016-01-30T10:46:17Z</time>
      </trkpt>
      <trkpt lat="43.76655" lon="6.94662">
        <ele>1070.919</ele>
        <time>2016-01-30T10:46:21Z</time>
      </trkpt>
      <trkpt lat="43.76657" lon="6.94663">
        <ele>1070.215</ele>
        <time>2016-01-30T10:46:23Z</time>
      </trkpt>
      <trkpt lat="43.76665" lon="6.94652">
        <ele>1068.313</ele>
        <time>2016-01-30T10:46:27Z</time>
      </trkpt>
      <trkpt lat="43.76667" lon="6.94648">
        <ele>1067.812</ele>
        <time>2016-01-30T10:46:28Z</time>
      </trkpt>
      <trkpt lat="43.76669" lon="6.94641">
        <ele>1067.173</ele>
        <time>2016-01-30T10:46:30Z</time>
      </trkpt>
      <trkpt lat="43.76673" lon="6.94648">
        <ele>1066.403</ele>
        <time>2016-01-30T10:46:34Z</time>
      </trkpt>
      <trkpt lat="43.76677" lon="6.9465">
        <ele>1064.941</ele>
        <time>2016-01-30T10:46:37Z</time>
      </trkpt>
      <trkpt lat="43.76691" lon="6.94638">
        <ele>1060.553</ele>
        <time>2016-01-30T10:46:43Z</time>
      </trkpt>
      <trkpt lat="43.76701" lon="6.94626">
        <ele>1057.543</ele>
        <time>2016-01-30T10:46:47Z</time>
      </trkpt>
      <trkpt lat="43.76707" lon="6.94621">
        <ele>1056.134</ele>
        <time>2016-01-30T10:46:49Z</time>
      </trkpt>
      <trkpt lat="43.76722" lon="6.94607">
        <ele>1052.372</ele>
        <time>2016-01-30T10:46:53Z</time>
      </trkpt>
      <trkpt lat="43.76739" lon="6.94592">
        <ele>1047.157</ele>
        <time>2016-01-30T10:46:59Z</time>
      </trkpt>
      <trkpt lat="43.76756" lon="6.94577">
        <ele>1042.994</ele>
        <time>2016-01-30T10:47:05Z</time>
      </trkpt>
      <trkpt lat="43.76766" lon="6.94569">
        <ele>1040.052</ele>
        <time>2016-01-30T10:47:09Z</time>
      </trkpt>
      <trkpt lat="43.76767" lon="6.94575">
        <ele>1037.836</ele>
        <time>2016-01-30T10:47:13Z</time>
      </trkpt>
      <trkpt lat="43.76763" lon="6.94591">
        <ele>1036.398</ele>
        <time>2016-01-30T10:47:17Z</time>
      </trkpt>
      <trkpt lat="43.76764" lon="6.94594">
        <ele>1036.29</ele>
        <time>2016-01-30T10:47:21Z</time>
      </trkpt>
      <trkpt lat="43.76775" lon="6.94588">
        <ele>1033.097</ele>
        <time>2016-01-30T10:47:26Z</time>
      </trkpt>
      <trkpt lat="43.76781" lon="6.94583">
        <ele>1031.454</ele>
        <time>2016-01-30T10:47:28Z</time>
      </trkpt>
      <trkpt lat="43.76799" lon="6.94566">
        <ele>1026.5</ele>
        <time>2016-01-30T10:47:35Z</time>
      </trkpt>
      <trkpt lat="43.76813" lon="6.94556">
        <ele>1022.817</ele>
        <time>2016-01-30T10:47:39Z</time>
      </trkpt>
      <trkpt lat="43.76817" lon="6.94552">
        <ele>1021.928</ele>
        <time>2016-01-30T10:47:40Z</time>
      </trkpt>
      <trkpt lat="43.7683" lon="6.94538">
        <ele>1018.792</ele>
        <time>2016-01-30T10:47:44Z</time>
      </trkpt>
      <trkpt lat="43.76842" lon="6.94527">
        <ele>1016.141</ele>
        <time>2016-01-30T10:47:48Z</time>
      </trkpt>
      <trkpt lat="43.76855" lon="6.94518">
        <ele>1012.608</ele>
        <time>2016-01-30T10:47:52Z</time>
      </trkpt>
      <trkpt lat="43.76873" lon="6.94513">
        <ele>1007.143</ele>
        <time>2016-01-30T10:47:57Z</time>
      </trkpt>
      <trkpt lat="43.76886" lon="6.94504">
        <ele>1003.781</ele>
        <time>2016-01-30T10:48:01Z</time>
      </trkpt>
      <trkpt lat="43.76908" lon="6.94503">
        <ele>997.847</ele>
        <time>2016-01-30T10:48:07Z</time>
      </trkpt>
      <trkpt lat="43.76919" lon="6.94501">
        <ele>994.948</ele>
        <time>2016-01-30T10:48:10Z</time>
      </trkpt>
      <trkpt lat="43.76939" lon="6.94491">
        <ele>992.138</ele>
        <time>2016-01-30T10:48:15Z</time>
      </trkpt>
      <trkpt lat="43.76945" lon="6.94487">
        <ele>990.723</ele>
        <time>2016-01-30T10:48:17Z</time>
      </trkpt>
      <trkpt lat="43.7696" lon="6.94475">
        <ele>988.79</ele>
        <time>2016-01-30T10:48:21Z</time>
      </trkpt>
      <trkpt lat="43.76982" lon="6.94457">
        <ele>985.016</ele>
        <time>2016-01-30T10:48:27Z</time>
      </trkpt>
      <trkpt lat="43.76997" lon="6.94449">
        <ele>981.838</ele>
        <time>2016-01-30T10:48:32Z</time>
      </trkpt>
      <trkpt lat="43.77011" lon="6.94444">
        <ele>978.622</ele>
        <time>2016-01-30T10:48:37Z</time>
      </trkpt>
      <trkpt lat="43.77015" lon="6.94444">
        <ele>977.811</ele>
        <time>2016-01-30T10:48:38Z</time>
      </trkpt>
      <trkpt lat="43.77032" lon="6.94436">
        <ele>975.718</ele>
        <time>2016-01-30T10:48:42Z</time>
      </trkpt>
      <trkpt lat="43.77055" lon="6.94429">
        <ele>973.588</ele>
        <time>2016-01-30T10:48:47Z</time>
      </trkpt>
      <trkpt lat="43.77085" lon="6.9442">
        <ele>972.015</ele>
        <time>2016-01-30T10:48:53Z</time>
      </trkpt>
      <trkpt lat="43.77115" lon="6.94421">
        <ele>969.579</ele>
        <time>2016-01-30T10:48:58Z</time>
      </trkpt>
      <trkpt lat="43.77137" lon="6.94417">
        <ele>967.743</ele>
        <time>2016-01-30T10:49:02Z</time>
      </trkpt>
      <trkpt lat="43.77161" lon="6.94408">
        <ele>965.93</ele>
        <time>2016-01-30T10:49:06Z</time>
      </trkpt>
      <trkpt lat="43.7718" lon="6.94403">
        <ele>964.24</ele>
        <time>2016-01-30T10:49:09Z</time>
      </trkpt>
      <trkpt lat="43.77196" lon="6.94407">
        <ele>963.393</ele>
        <time>2016-01-30T10:49:12Z</time>
      </trkpt>
      <trkpt lat="43.77203" lon="6.94424">
        <ele>963.535</ele>
        <time>2016-01-30T10:49:15Z</time>
      </trkpt>
      <trkpt lat="43.77215" lon="6.94436">
        <ele>961.7</ele>
        <time>2016-01-30T10:49:18Z</time>
      </trkpt>
      <trkpt lat="43.77226" lon="6.94446">
        <ele>959.787</ele>
        <time>2016-01-30T10:49:21Z</time>
      </trkpt>
      <trkpt lat="43.77229" lon="6.94461">
        <ele>958.411</ele>
        <time>2016-01-30T10:49:25Z</time>
      </trkpt>
      <trkpt lat="43.77244" lon="6.94463">
        <ele>956.218</ele>
        <time>2016-01-30T10:49:28Z</time>
      </trkpt>
      <trkpt lat="43.77259" lon="6.94462">
        <ele>954.523</ele>
        <time>2016-01-30T10:49:31Z</time>
      </trkpt>
      <trkpt lat="43.77283" lon="6.94456">
        <ele>951.669</ele>
        <time>2016-01-30T10:49:36Z</time>
      </trkpt>
      <trkpt lat="43.77284" lon="6.94465">
        <ele>950.779</ele>
        <time>2016-01-30T10:49:38Z</time>
      </trkpt>
      <trkpt lat="43.77284" lon="6.94477">
        <ele>949.859</ele>
        <time>2016-01-30T10:49:40Z</time>
      </trkpt>
      <trkpt lat="43.77282" lon="6.94499">
        <ele>946.756</ele>
        <time>2016-01-30T10:49:44Z</time>
      </trkpt>
      <trkpt lat="43.7728" lon="6.94502">
        <ele>946.097</ele>
        <time>2016-01-30T10:49:45Z</time>
      </trkpt>
      <trkpt lat="43.77287" lon="6.9451">
        <ele>944.206</ele>
        <time>2016-01-30T10:49:49Z</time>
      </trkpt>
      <trkpt lat="43.77295" lon="6.94517">
        <ele>941.58</ele>
        <time>2016-01-30T10:49:52Z</time>
      </trkpt>
      <trkpt lat="43.77302" lon="6.94522">
        <ele>940.152</ele>
        <time>2016-01-30T10:49:54Z</time>
      </trkpt>
      <trkpt lat="43.77317" lon="6.94526">
        <ele>937.079</ele>
        <time>2016-01-30T10:49:58Z</time>
      </trkpt>
      <trkpt lat="43.77339" lon="6.94527">
        <ele>933.657</ele>
        <time>2016-01-30T10:50:02Z</time>
      </trkpt>
      <trkpt lat="43.77352" lon="6.94521">
        <ele>931.473</ele>
        <time>2016-01-30T10:50:05Z</time>
      </trkpt>
      <trkpt lat="43.77375" lon="6.94511">
        <ele>927.401</ele>
        <time>2016-01-30T10:50:10Z</time>
      </trkpt>
      <trkpt lat="43.77388" lon="6.945">
        <ele>924.845</ele>
        <time>2016-01-30T10:50:14Z</time>
      </trkpt>
      <trkpt lat="43.77392" lon="6.945">
        <ele>923.81</ele>
        <time>2016-01-30T10:50:17Z</time>
      </trkpt>
      <trkpt lat="43.7739" lon="6.94518">
        <ele>921.216</ele>
        <time>2016-01-30T10:50:21Z</time>
      </trkpt>
      <trkpt lat="43.77392" lon="6.94527">
        <ele>919.89</ele>
        <time>2016-01-30T10:50:24Z</time>
      </trkpt>
      <trkpt lat="43.774" lon="6.94526">
        <ele>918.557</ele>
        <time>2016-01-30T10:50:26Z</time>
      </trkpt>
      <trkpt lat="43.77401" lon="6.94539">
        <ele>916.93</ele>
        <time>2016-01-30T10:50:30Z</time>
      </trkpt>
      <trkpt lat="43.77393" lon="6.94553">
        <ele>915.017</ele>
        <time>2016-01-30T10:50:34Z</time>
      </trkpt>
      <trkpt lat="43.77397" lon="6.94559">
        <ele>913.268</ele>
        <time>2016-01-30T10:50:38Z</time>
      </trkpt>
      <trkpt lat="43.77409" lon="6.94561">
        <ele>910.775</ele>
        <time>2016-01-30T10:50:42Z</time>
      </trkpt>
      <trkpt lat="43.77424" lon="6.94562">
        <ele>907.18</ele>
        <time>2016-01-30T10:50:46Z</time>
      </trkpt>
      <trkpt lat="43.77432" lon="6.94559">
        <ele>905.342</ele>
        <time>2016-01-30T10:50:48Z</time>
      </trkpt>
      <trkpt lat="43.77447" lon="6.94554">
        <ele>902.413</ele>
        <time>2016-01-30T10:50:52Z</time>
      </trkpt>
      <trkpt lat="43.77469" lon="6.94542">
        <ele>897.692</ele>
        <time>2016-01-30T10:50:58Z</time>
      </trkpt>
      <trkpt lat="43.77478" lon="6.94542">
        <ele>895.836</ele>
        <time>2016-01-30T10:51:02Z</time>
      </trkpt>
      <trkpt lat="43.77476" lon="6.94545">
        <ele>895.537</ele>
        <time>2016-01-30T10:51:03Z</time>
      </trkpt>
      <trkpt lat="43.7748" lon="6.94548">
        <ele>894.393</ele>
        <time>2016-01-30T10:51:09Z</time>
      </trkpt>
      <trkpt lat="43.77483" lon="6.94546">
        <ele>893.65</ele>
        <time>2016-01-30T10:51:10Z</time>
      </trkpt>
      <trkpt lat="43.77492" lon="6.94538">
        <ele>891.786</ele>
        <time>2016-01-30T10:51:13Z</time>
      </trkpt>
      <trkpt lat="43.77505" lon="6.94542">
        <ele>888.467</ele>
        <time>2016-01-30T10:51:18Z</time>
      </trkpt>
      <trkpt lat="43.77511" lon="6.94547">
        <ele>886.361</ele>
        <time>2016-01-30T10:51:21Z</time>
      </trkpt>
      <trkpt lat="43.77513" lon="6.94553">
        <ele>884.903</ele>
        <time>2016-01-30T10:51:23Z</time>
      </trkpt>
      <trkpt lat="43.77523" lon="6.94563">
        <ele>882.686</ele>
        <time>2016-01-30T10:51:27Z</time>
      </trkpt>
      <trkpt lat="43.77542" lon="6.94577">
        <ele>878.611</ele>
        <time>2016-01-30T10:51:32Z</time>
      </trkpt>
      <trkpt lat="43.77553" lon="6.94588">
        <ele>875.401</ele>
        <time>2016-01-30T10:51:36Z</time>
      </trkpt>
      <trkpt lat="43.77562" lon="6.94602">
        <ele>872.271</ele>
        <time>2016-01-30T10:51:40Z</time>
      </trkpt>
      <trkpt lat="43.77573" lon="6.94623">
        <ele>866.702</ele>
        <time>2016-01-30T10:51:45Z</time>
      </trkpt>
      <trkpt lat="43.7759" lon="6.94641">
        <ele>860.786</ele>
        <time>2016-01-30T10:51:50Z</time>
      </trkpt>
      <trkpt lat="43.77606" lon="6.94651">
        <ele>856.678</ele>
        <time>2016-01-30T10:51:54Z</time>
      </trkpt>
      <trkpt lat="43.77606" lon="6.94665">
        <ele>856.012</ele>
        <time>2016-01-30T10:51:57Z</time>
      </trkpt>
      <trkpt lat="43.77607" lon="6.94676">
        <ele>856.516</ele>
        <time>2016-01-30T10:52:01Z</time>
      </trkpt>
      <trkpt lat="43.77617" lon="6.94689">
        <ele>857.407</ele>
        <time>2016-01-30T10:52:09Z</time>
      </trkpt>
      <trkpt lat="43.77619" lon="6.94694">
        <ele>857.719</ele>
        <time>2016-01-30T10:52:11Z</time>
      </trkpt>
      <trkpt lat="43.77622" lon="6.947">
        <ele>858.281</ele>
        <time>2016-01-30T10:52:15Z</time>
      </trkpt>
      <trkpt lat="43.77625" lon="6.94696">
        <ele>859.05</ele>
        <time>2016-01-30T10:52:20Z</time>
      </trkpt>
      <trkpt lat="43.77625" lon="6.94694">
        <ele>859.43</ele>
        <time>2016-01-30T10:52:21Z</time>
      </trkpt>
      <trkpt lat="43.77625" lon="6.94678">
        <ele>862.741</ele>
        <time>2016-01-30T10:52:30Z</time>
      </trkpt>
      <trkpt lat="43.77628" lon="6.94661">
        <ele>863.99</ele>
        <time>2016-01-30T10:52:38Z</time>
      </trkpt>
      <trkpt lat="43.77635" lon="6.9465">
        <ele>865.973</ele>
        <time>2016-01-30T10:52:45Z</time>
      </trkpt>
      <trkpt lat="43.77646" lon="6.94638">
        <ele>866.548</ele>
        <time>2016-01-30T10:52:53Z</time>
      </trkpt>
      <trkpt lat="43.77658" lon="6.94631">
        <ele>869.012</ele>
        <time>2016-01-30T10:53:01Z</time>
      </trkpt>
      <trkpt lat="43.7766" lon="6.94633">
        <ele>870.103</ele>
        <time>2016-01-30T10:53:03Z</time>
      </trkpt>
      <trkpt lat="43.77666" lon="6.94647">
        <ele>871.602</ele>
        <time>2016-01-30T10:53:11Z</time>
      </trkpt>
      <trkpt lat="43.77673" lon="6.94663">
        <ele>871.892</ele>
        <time>2016-01-30T10:53:20Z</time>
      </trkpt>
      <trkpt lat="43.77683" lon="6.94679">
        <ele>872.681</ele>
        <time>2016-01-30T10:53:29Z</time>
      </trkpt>
      <trkpt lat="43.77692" lon="6.94692">
        <ele>873.372</ele>
        <time>2016-01-30T10:53:37Z</time>
      </trkpt>
      <trkpt lat="43.777" lon="6.94702">
        <ele>873.931</ele>
        <time>2016-01-30T10:53:43Z</time>
      </trkpt>
      <trkpt lat="43.77712" lon="6.94716">
        <ele>875.543</ele>
        <time>2016-01-30T10:53:52Z</time>
      </trkpt>
      <trkpt lat="43.77722" lon="6.94723">
        <ele>876.733</ele>
        <time>2016-01-30T10:53:58Z</time>
      </trkpt>
      <trkpt lat="43.77724" lon="6.94724">
        <ele>876.296</ele>
        <time>2016-01-30T10:54:02Z</time>
      </trkpt>
      <trkpt lat="43.77723" lon="6.94721">
        <ele>872.379</ele>
        <time>2016-01-30T10:58:40Z</time>
      </trkpt>
      <trkpt lat="43.77723" lon="6.94722">
        <ele>872.677</ele>
        <time>2016-01-30T10:58:45Z</time>
      </trkpt>
      <trkpt lat="43.77725" lon="6.94724">
        <ele>873.898</ele>
        <time>2016-01-30T10:59:06Z</time>
      </trkpt>
      <trkpt lat="43.77726" lon="6.94722">
        <ele>874.108</ele>
        <time>2016-01-30T10:59:08Z</time>
      </trkpt>
      <trkpt lat="43.77723" lon="6.9471">
        <ele>874.99</ele>
        <time>2016-01-30T10:59:14Z</time>
      </trkpt>
      <trkpt lat="43.77719" lon="6.94696">
        <ele>875.711</ele>
        <time>2016-01-30T10:59:21Z</time>
      </trkpt>
      <trkpt lat="43.77716" lon="6.94679">
        <ele>877.883</ele>
        <time>2016-01-30T10:59:29Z</time>
      </trkpt>
      <trkpt lat="43.77715" lon="6.94664">
        <ele>878.81</ele>
        <time>2016-01-30T10:59:36Z</time>
      </trkpt>
      <trkpt lat="43.77713" lon="6.94647">
        <ele>880.36</ele>
        <time>2016-01-30T10:59:44Z</time>
      </trkpt>
      <trkpt lat="43.77711" lon="6.94625">
        <ele>882.25</ele>
        <time>2016-01-30T10:59:54Z</time>
      </trkpt>
      <trkpt lat="43.7771" lon="6.94603">
        <ele>883.722</ele>
        <time>2016-01-30T11:00:03Z</time>
      </trkpt>
      <trkpt lat="43.77708" lon="6.94585">
        <ele>885.191</ele>
        <time>2016-01-30T11:00:12Z</time>
      </trkpt>
      <trkpt lat="43.77706" lon="6.94569">
        <ele>887.514</ele>
        <time>2016-01-30T11:00:20Z</time>
      </trkpt>
      <trkpt lat="43.77705" lon="6.94561">
        <ele>887.79</ele>
        <time>2016-01-30T11:00:24Z</time>
      </trkpt>
      <trkpt lat="43.77706" lon="6.9454">
        <ele>888.961</ele>
        <time>2016-01-30T11:00:34Z</time>
      </trkpt>
      <trkpt lat="43.77709" lon="6.9452">
        <ele>891.992</ele>
        <time>2016-01-30T11:00:45Z</time>
      </trkpt>
      <trkpt lat="43.77713" lon="6.945">
        <ele>895.424</ele>
        <time>2016-01-30T11:00:56Z</time>
      </trkpt>
      <trkpt lat="43.7772" lon="6.94482">
        <ele>899.242</ele>
        <time>2016-01-30T11:01:06Z</time>
      </trkpt>
      <trkpt lat="43.77724" lon="6.94469">
        <ele>898.29</ele>
        <time>2016-01-30T11:01:13Z</time>
      </trkpt>
      <trkpt lat="43.77726" lon="6.94456">
        <ele>901.009</ele>
        <time>2016-01-30T11:01:20Z</time>
      </trkpt>
      <trkpt lat="43.77726" lon="6.94439">
        <ele>904.774</ele>
        <time>2016-01-30T11:01:29Z</time>
      </trkpt>
      <trkpt lat="43.77726" lon="6.94421">
        <ele>901.614</ele>
        <time>2016-01-30T11:01:38Z</time>
      </trkpt>
      <trkpt lat="43.77723" lon="6.94404">
        <ele>902.462</ele>
        <time>2016-01-30T11:01:47Z</time>
      </trkpt>
      <trkpt lat="43.77718" lon="6.94389">
        <ele>904.096</ele>
        <time>2016-01-30T11:01:55Z</time>
      </trkpt>
      <trkpt lat="43.77712" lon="6.94379">
        <ele>903.926</ele>
        <time>2016-01-30T11:02:01Z</time>
      </trkpt>
      <trkpt lat="43.77702" lon="6.94366">
        <ele>903.853</ele>
        <time>2016-01-30T11:02:10Z</time>
      </trkpt>
      <trkpt lat="43.77689" lon="6.94355">
        <ele>904.263</ele>
        <time>2016-01-30T11:02:20Z</time>
      </trkpt>
      <trkpt lat="43.77679" lon="6.94345">
        <ele>904.926</ele>
        <time>2016-01-30T11:02:28Z</time>
      </trkpt>
      <trkpt lat="43.77671" lon="6.94335">
        <ele>906.355</ele>
        <time>2016-01-30T11:02:36Z</time>
      </trkpt>
      <trkpt lat="43.77661" lon="6.94322">
        <ele>907.657</ele>
        <time>2016-01-30T11:02:45Z</time>
      </trkpt>
      <trkpt lat="43.77653" lon="6.94311">
        <ele>908.751</ele>
        <time>2016-01-30T11:02:53Z</time>
      </trkpt>
      <trkpt lat="43.7764" lon="6.94298">
        <ele>910.038</ele>
        <time>2016-01-30T11:03:04Z</time>
      </trkpt>
      <trkpt lat="43.77631" lon="6.94288">
        <ele>911.399</ele>
        <time>2016-01-30T11:03:12Z</time>
      </trkpt>
      <trkpt lat="43.77628" lon="6.94281">
        <ele>912.205</ele>
        <time>2016-01-30T11:03:16Z</time>
      </trkpt>
      <trkpt lat="43.77626" lon="6.94274">
        <ele>913.398</ele>
        <time>2016-01-30T11:03:20Z</time>
      </trkpt>
      <trkpt lat="43.77618" lon="6.94257">
        <ele>914.447</ele>
        <time>2016-01-30T11:03:30Z</time>
      </trkpt>
      <trkpt lat="43.7761" lon="6.94244">
        <ele>915.414</ele>
        <time>2016-01-30T11:03:38Z</time>
      </trkpt>
      <trkpt lat="43.77601" lon="6.94233">
        <ele>916.201</ele>
        <time>2016-01-30T11:03:46Z</time>
      </trkpt>
      <trkpt lat="43.77591" lon="6.94224">
        <ele>917.055</ele>
        <time>2016-01-30T11:03:54Z</time>
      </trkpt>
      <trkpt lat="43.77578" lon="6.94214">
        <ele>918.404</ele>
        <time>2016-01-30T11:04:05Z</time>
      </trkpt>
      <trkpt lat="43.77575" lon="6.94212">
        <ele>918.805</ele>
        <time>2016-01-30T11:04:07Z</time>
      </trkpt>
      <trkpt lat="43.77575" lon="6.94201">
        <ele>920.415</ele>
        <time>2016-01-30T11:04:13Z</time>
      </trkpt>
      <trkpt lat="43.7758" lon="6.94199">
        <ele>921.819</ele>
        <time>2016-01-30T11:04:17Z</time>
      </trkpt>
      <trkpt lat="43.77594" lon="6.94202">
        <ele>924.61</ele>
        <time>2016-01-30T11:04:25Z</time>
      </trkpt>
      <trkpt lat="43.77609" lon="6.94201">
        <ele>925.837</ele>
        <time>2016-01-30T11:04:33Z</time>
      </trkpt>
      <trkpt lat="43.77621" lon="6.94201">
        <ele>927.125</ele>
        <time>2016-01-30T11:04:40Z</time>
      </trkpt>
      <trkpt lat="43.77632" lon="6.94207">
        <ele>928.24</ele>
        <time>2016-01-30T11:04:47Z</time>
      </trkpt>
      <trkpt lat="43.77646" lon="6.94218">
        <ele>929.988</ele>
        <time>2016-01-30T11:04:56Z</time>
      </trkpt>
      <trkpt lat="43.77659" lon="6.9423">
        <ele>932.086</ele>
        <time>2016-01-30T11:05:05Z</time>
      </trkpt>
      <trkpt lat="43.7767" lon="6.94241">
        <ele>933.316</ele>
        <time>2016-01-30T11:05:13Z</time>
      </trkpt>
      <trkpt lat="43.77682" lon="6.94252">
        <ele>934.177</ele>
        <time>2016-01-30T11:05:21Z</time>
      </trkpt>
      <trkpt lat="43.77693" lon="6.94263">
        <ele>935.092</ele>
        <time>2016-01-30T11:05:29Z</time>
      </trkpt>
      <trkpt lat="43.77703" lon="6.94271">
        <ele>936.37</ele>
        <time>2016-01-30T11:05:36Z</time>
      </trkpt>
      <trkpt lat="43.77705" lon="6.94271">
        <ele>936.492</ele>
        <time>2016-01-30T11:05:37Z</time>
      </trkpt>
      <trkpt lat="43.77709" lon="6.94262">
        <ele>938.422</ele>
        <time>2016-01-30T11:05:43Z</time>
      </trkpt>
      <trkpt lat="43.77708" lon="6.9426">
        <ele>938.708</ele>
        <time>2016-01-30T11:05:44Z</time>
      </trkpt>
      <trkpt lat="43.77704" lon="6.94247">
        <ele>940.484</ele>
        <time>2016-01-30T11:05:52Z</time>
      </trkpt>
      <trkpt lat="43.77701" lon="6.94234">
        <ele>942.359</ele>
        <time>2016-01-30T11:06:00Z</time>
      </trkpt>
      <trkpt lat="43.77696" lon="6.94218">
        <ele>943.213</ele>
        <time>2016-01-30T11:06:09Z</time>
      </trkpt>
      <trkpt lat="43.77688" lon="6.94201">
        <ele>942.765</ele>
        <time>2016-01-30T11:06:18Z</time>
      </trkpt>
      <trkpt lat="43.77682" lon="6.94188">
        <ele>943.079</ele>
        <time>2016-01-30T11:06:25Z</time>
      </trkpt>
      <trkpt lat="43.77674" lon="6.94175">
        <ele>942.952</ele>
        <time>2016-01-30T11:06:33Z</time>
      </trkpt>
      <trkpt lat="43.7767" lon="6.94161">
        <ele>942.999</ele>
        <time>2016-01-30T11:06:40Z</time>
      </trkpt>
      <trkpt lat="43.77665" lon="6.94137">
        <ele>945.008</ele>
        <time>2016-01-30T11:06:51Z</time>
      </trkpt>
      <trkpt lat="43.77665" lon="6.94128">
        <ele>946.031</ele>
        <time>2016-01-30T11:06:56Z</time>
      </trkpt>
      <trkpt lat="43.77666" lon="6.94109">
        <ele>948.185</ele>
        <time>2016-01-30T11:07:06Z</time>
      </trkpt>
      <trkpt lat="43.77669" lon="6.94093">
        <ele>949.927</ele>
        <time>2016-01-30T11:07:15Z</time>
      </trkpt>
      <trkpt lat="43.77669" lon="6.94089">
        <ele>951.181</ele>
        <time>2016-01-30T11:07:18Z</time>
      </trkpt>
      <trkpt lat="43.77668" lon="6.94083">
        <ele>952.41</ele>
        <time>2016-01-30T11:07:22Z</time>
      </trkpt>
      <trkpt lat="43.77668" lon="6.94078">
        <ele>951.616</ele>
        <time>2016-01-30T11:07:28Z</time>
      </trkpt>
      <trkpt lat="43.77668" lon="6.94078">
        <ele>951.383</ele>
        <time>2016-01-30T11:07:31Z</time>
      </trkpt>
      <trkpt lat="43.7767" lon="6.94067">
        <ele>950.476</ele>
        <time>2016-01-30T11:07:39Z</time>
      </trkpt>
      <trkpt lat="43.77672" lon="6.94056">
        <ele>949.463</ele>
        <time>2016-01-30T11:07:47Z</time>
      </trkpt>
      <trkpt lat="43.77674" lon="6.94044">
        <ele>948.42</ele>
        <time>2016-01-30T11:07:56Z</time>
      </trkpt>
      <trkpt lat="43.77676" lon="6.94029">
        <ele>949.368</ele>
        <time>2016-01-30T11:08:06Z</time>
      </trkpt>
      <trkpt lat="43.77675" lon="6.94018">
        <ele>950.676</ele>
        <time>2016-01-30T11:08:15Z</time>
      </trkpt>
      <trkpt lat="43.77672" lon="6.94013">
        <ele>952.764</ele>
        <time>2016-01-30T11:08:24Z</time>
      </trkpt>
      <trkpt lat="43.77671" lon="6.93995">
        <ele>955.952</ele>
        <time>2016-01-30T11:08:33Z</time>
      </trkpt>
      <trkpt lat="43.7767" lon="6.93992">
        <ele>956.818</ele>
        <time>2016-01-30T11:08:35Z</time>
      </trkpt>
      <trkpt lat="43.7767" lon="6.93979">
        <ele>960.191</ele>
        <time>2016-01-30T11:08:42Z</time>
      </trkpt>
      <trkpt lat="43.77669" lon="6.93963">
        <ele>963.99</ele>
        <time>2016-01-30T11:08:51Z</time>
      </trkpt>
      <trkpt lat="43.77668" lon="6.9395">
        <ele>964.804</ele>
        <time>2016-01-30T11:08:58Z</time>
      </trkpt>
      <trkpt lat="43.77666" lon="6.93931">
        <ele>964.428</ele>
        <time>2016-01-30T11:09:08Z</time>
      </trkpt>
      <trkpt lat="43.77663" lon="6.93916">
        <ele>966.658</ele>
        <time>2016-01-30T11:09:17Z</time>
      </trkpt>
      <trkpt lat="43.77659" lon="6.93899">
        <ele>966.811</ele>
        <time>2016-01-30T11:09:26Z</time>
      </trkpt>
      <trkpt lat="43.77653" lon="6.93879">
        <ele>966.845</ele>
        <time>2016-01-30T11:09:37Z</time>
      </trkpt>
      <trkpt lat="43.7765" lon="6.9386">
        <ele>967.691</ele>
        <time>2016-01-30T11:09:47Z</time>
      </trkpt>
      <trkpt lat="43.77649" lon="6.93845">
        <ele>969.659</ele>
        <time>2016-01-30T11:09:56Z</time>
      </trkpt>
      <trkpt lat="43.77649" lon="6.9383">
        <ele>971.64</ele>
        <time>2016-01-30T11:10:05Z</time>
      </trkpt>
      <trkpt lat="43.77649" lon="6.93812">
        <ele>973.045</ele>
        <time>2016-01-30T11:10:15Z</time>
      </trkpt>
      <trkpt lat="43.77648" lon="6.93802">
        <ele>974.44</ele>
        <time>2016-01-30T11:10:21Z</time>
      </trkpt>
      <trkpt lat="43.77646" lon="6.93785">
        <ele>977.228</ele>
        <time>2016-01-30T11:10:31Z</time>
      </trkpt>
      <trkpt lat="43.77643" lon="6.93769">
        <ele>978.377</ele>
        <time>2016-01-30T11:10:40Z</time>
      </trkpt>
      <trkpt lat="43.77641" lon="6.93755">
        <ele>978.333</ele>
        <time>2016-01-30T11:10:48Z</time>
      </trkpt>
      <trkpt lat="43.77637" lon="6.9374">
        <ele>977.914</ele>
        <time>2016-01-30T11:10:57Z</time>
      </trkpt>
      <trkpt lat="43.77633" lon="6.93728">
        <ele>978.879</ele>
        <time>2016-01-30T11:11:05Z</time>
      </trkpt>
      <trkpt lat="43.77631" lon="6.9372">
        <ele>980.23</ele>
        <time>2016-01-30T11:11:13Z</time>
      </trkpt>
      <trkpt lat="43.7763" lon="6.93715">
        <ele>980.665</ele>
        <time>2016-01-30T11:11:22Z</time>
      </trkpt>
      <trkpt lat="43.77629" lon="6.93705">
        <ele>980.646</ele>
        <time>2016-01-30T11:11:30Z</time>
      </trkpt>
      <trkpt lat="43.77629" lon="6.93697">
        <ele>981.346</ele>
        <time>2016-01-30T11:11:38Z</time>
      </trkpt>
      <trkpt lat="43.7763" lon="6.93691">
        <ele>980.468</ele>
        <time>2016-01-30T11:11:45Z</time>
      </trkpt>
      <trkpt lat="43.77632" lon="6.93679">
        <ele>981.278</ele>
        <time>2016-01-30T11:11:54Z</time>
      </trkpt>
      <trkpt lat="43.77632" lon="6.93668">
        <ele>983.885</ele>
        <time>2016-01-30T11:12:04Z</time>
      </trkpt>
      <trkpt lat="43.77636" lon="6.93656">
        <ele>985.616</ele>
        <time>2016-01-30T11:12:14Z</time>
      </trkpt>
      <trkpt lat="43.77638" lon="6.93652">
        <ele>987.74</ele>
        <time>2016-01-30T11:12:21Z</time>
      </trkpt>
      <trkpt lat="43.7764" lon="6.93642">
        <ele>991.14</ele>
        <time>2016-01-30T11:12:32Z</time>
      </trkpt>
      <trkpt lat="43.77642" lon="6.93635">
        <ele>991.029</ele>
        <time>2016-01-30T11:12:39Z</time>
      </trkpt>
      <trkpt lat="43.77645" lon="6.93625">
        <ele>989.617</ele>
        <time>2016-01-30T11:12:48Z</time>
      </trkpt>
      <trkpt lat="43.77649" lon="6.93613">
        <ele>987.057</ele>
        <time>2016-01-30T11:12:58Z</time>
      </trkpt>
      <trkpt lat="43.77649" lon="6.93605">
        <ele>990.808</ele>
        <time>2016-01-30T11:13:07Z</time>
      </trkpt>
      <trkpt lat="43.77651" lon="6.93597">
        <ele>993.336</ele>
        <time>2016-01-30T11:13:16Z</time>
      </trkpt>
      <trkpt lat="43.77652" lon="6.93589">
        <ele>994.238</ele>
        <time>2016-01-30T11:13:26Z</time>
      </trkpt>
      <trkpt lat="43.77654" lon="6.93579">
        <ele>996.183</ele>
        <time>2016-01-30T11:13:35Z</time>
      </trkpt>
      <trkpt lat="43.77656" lon="6.93571">
        <ele>995.159</ele>
        <time>2016-01-30T11:13:42Z</time>
      </trkpt>
      <trkpt lat="43.77657" lon="6.93561">
        <ele>997.524</ele>
        <time>2016-01-30T11:13:52Z</time>
      </trkpt>
      <trkpt lat="43.77657" lon="6.93558">
        <ele>998.599</ele>
        <time>2016-01-30T11:13:59Z</time>
      </trkpt>
      <trkpt lat="43.77658" lon="6.93551">
        <ele>998.232</ele>
        <time>2016-01-30T11:14:07Z</time>
      </trkpt>
      <trkpt lat="43.77659" lon="6.9354">
        <ele>998.099</ele>
        <time>2016-01-30T11:14:15Z</time>
      </trkpt>
      <trkpt lat="43.7766" lon="6.93533">
        <ele>998.153</ele>
        <time>2016-01-30T11:14:20Z</time>
      </trkpt>
      <trkpt lat="43.77658" lon="6.93524">
        <ele>999.208</ele>
        <time>2016-01-30T11:14:28Z</time>
      </trkpt>
      <trkpt lat="43.77655" lon="6.93517">
        <ele>1003.15</ele>
        <time>2016-01-30T11:14:37Z</time>
      </trkpt>
      <trkpt lat="43.77652" lon="6.93508">
        <ele>1005.203</ele>
        <time>2016-01-30T11:14:42Z</time>
      </trkpt>
      <trkpt lat="43.77646" lon="6.93504">
        <ele>1006.523</ele>
        <time>2016-01-30T11:14:46Z</time>
      </trkpt>
      <trkpt lat="43.77634" lon="6.93502">
        <ele>1008.817</ele>
        <time>2016-01-30T11:14:55Z</time>
      </trkpt>
      <trkpt lat="43.77632" lon="6.93501">
        <ele>1009.36</ele>
        <time>2016-01-30T11:14:57Z</time>
      </trkpt>
      <trkpt lat="43.77631" lon="6.93489">
        <ele>1012.286</ele>
        <time>2016-01-30T11:15:04Z</time>
      </trkpt>
      <trkpt lat="43.77632" lon="6.93488">
        <ele>1012.485</ele>
        <time>2016-01-30T11:15:05Z</time>
      </trkpt>
      <trkpt lat="43.7764" lon="6.93475">
        <ele>1015.806</ele>
        <time>2016-01-30T11:15:15Z</time>
      </trkpt>
      <trkpt lat="43.7764" lon="6.93474">
        <ele>1016.179</ele>
        <time>2016-01-30T11:15:16Z</time>
      </trkpt>
      <trkpt lat="43.77639" lon="6.93463">
        <ele>1017.774</ele>
        <time>2016-01-30T11:15:24Z</time>
      </trkpt>
      <trkpt lat="43.77637" lon="6.93461">
        <ele>1017.548</ele>
        <time>2016-01-30T11:15:29Z</time>
      </trkpt>
      <trkpt lat="43.77637" lon="6.9346">
        <ele>1017.453</ele>
        <time>2016-01-30T11:15:30Z</time>
      </trkpt>
      <trkpt lat="43.77632" lon="6.93454">
        <ele>1017.649</ele>
        <time>2016-01-30T11:15:38Z</time>
      </trkpt>
      <trkpt lat="43.77627" lon="6.9345">
        <ele>1018.319</ele>
        <time>2016-01-30T11:15:45Z</time>
      </trkpt>
      <trkpt lat="43.77619" lon="6.93445">
        <ele>1019.783</ele>
        <time>2016-01-30T11:15:54Z</time>
      </trkpt>
      <trkpt lat="43.77614" lon="6.9344">
        <ele>1020.417</ele>
        <time>2016-01-30T11:16:01Z</time>
      </trkpt>
      <trkpt lat="43.77608" lon="6.93437">
        <ele>1021.196</ele>
        <time>2016-01-30T11:16:08Z</time>
      </trkpt>
      <trkpt lat="43.77606" lon="6.93426">
        <ele>1022.06</ele>
        <time>2016-01-30T11:16:17Z</time>
      </trkpt>
      <trkpt lat="43.77603" lon="6.93421">
        <ele>1023.07</ele>
        <time>2016-01-30T11:16:25Z</time>
      </trkpt>
      <trkpt lat="43.77596" lon="6.93425">
        <ele>1024.544</ele>
        <time>2016-01-30T11:17:25Z</time>
      </trkpt>
      <trkpt lat="43.77596" lon="6.93424">
        <ele>1024.133</ele>
        <time>2016-01-30T11:17:35Z</time>
      </trkpt>
      <trkpt lat="43.77595" lon="6.93419">
        <ele>1024.45</ele>
        <time>2016-01-30T11:17:40Z</time>
      </trkpt>
      <trkpt lat="43.77591" lon="6.93411">
        <ele>1025.19</ele>
        <time>2016-01-30T11:17:47Z</time>
      </trkpt>
      <trkpt lat="43.77588" lon="6.93408">
        <ele>1023.818</ele>
        <time>2016-01-30T11:17:54Z</time>
      </trkpt>
      <trkpt lat="43.77584" lon="6.93403">
        <ele>1023.949</ele>
        <time>2016-01-30T11:17:58Z</time>
      </trkpt>
      <trkpt lat="43.77577" lon="6.93396">
        <ele>1025.856</ele>
        <time>2016-01-30T11:18:04Z</time>
      </trkpt>
      <trkpt lat="43.7757" lon="6.93383">
        <ele>1028.987</ele>
        <time>2016-01-30T11:18:12Z</time>
      </trkpt>
      <trkpt lat="43.77564" lon="6.93377">
        <ele>1030.318</ele>
        <time>2016-01-30T11:18:18Z</time>
      </trkpt>
      <trkpt lat="43.77558" lon="6.93367">
        <ele>1033.081</ele>
        <time>2016-01-30T11:18:26Z</time>
      </trkpt>
      <trkpt lat="43.77557" lon="6.93364">
        <ele>1034.282</ele>
        <time>2016-01-30T11:18:30Z</time>
      </trkpt>
      <trkpt lat="43.77555" lon="6.9336">
        <ele>1034.9</ele>
        <time>2016-01-30T11:18:35Z</time>
      </trkpt>
      <trkpt lat="43.77551" lon="6.93355">
        <ele>1037.05</ele>
        <time>2016-01-30T11:18:41Z</time>
      </trkpt>
      <trkpt lat="43.77548" lon="6.93351">
        <ele>1039.014</ele>
        <time>2016-01-30T11:18:47Z</time>
      </trkpt>
      <trkpt lat="43.77546" lon="6.93345">
        <ele>1040.879</ele>
        <time>2016-01-30T11:18:52Z</time>
      </trkpt>
      <trkpt lat="43.7754" lon="6.93334">
        <ele>1042.319</ele>
        <time>2016-01-30T11:19:04Z</time>
      </trkpt>
      <trkpt lat="43.77539" lon="6.9333">
        <ele>1041.358</ele>
        <time>2016-01-30T11:19:09Z</time>
      </trkpt>
      <trkpt lat="43.77539" lon="6.93327">
        <ele>1040.992</ele>
        <time>2016-01-30T11:19:12Z</time>
      </trkpt>
      <trkpt lat="43.77539" lon="6.93317">
        <ele>1040.441</ele>
        <time>2016-01-30T11:19:22Z</time>
      </trkpt>
      <trkpt lat="43.77538" lon="6.93308">
        <ele>1040.763</ele>
        <time>2016-01-30T11:19:30Z</time>
      </trkpt>
      <trkpt lat="43.77535" lon="6.93298">
        <ele>1041.228</ele>
        <time>2016-01-30T11:19:39Z</time>
      </trkpt>
      <trkpt lat="43.77531" lon="6.93293">
        <ele>1042.297</ele>
        <time>2016-01-30T11:19:46Z</time>
      </trkpt>
      <trkpt lat="43.77531" lon="6.93291">
        <ele>1042.529</ele>
        <time>2016-01-30T11:19:49Z</time>
      </trkpt>
      <trkpt lat="43.77529" lon="6.9328">
        <ele>1043.502</ele>
        <time>2016-01-30T11:19:57Z</time>
      </trkpt>
      <trkpt lat="43.77528" lon="6.93273">
        <ele>1044.475</ele>
        <time>2016-01-30T11:20:03Z</time>
      </trkpt>
      <trkpt lat="43.77524" lon="6.93262">
        <ele>1047.582</ele>
        <time>2016-01-30T11:20:12Z</time>
      </trkpt>
      <trkpt lat="43.77522" lon="6.93261">
        <ele>1049.512</ele>
        <time>2016-01-30T11:20:18Z</time>
      </trkpt>
      <trkpt lat="43.77521" lon="6.9326">
        <ele>1050.053</ele>
        <time>2016-01-30T11:20:20Z</time>
      </trkpt>
      <trkpt lat="43.77515" lon="6.9325">
        <ele>1051.374</ele>
        <time>2016-01-30T11:20:26Z</time>
      </trkpt>
      <trkpt lat="43.77509" lon="6.9324">
        <ele>1052.688</ele>
        <time>2016-01-30T11:20:32Z</time>
      </trkpt>
      <trkpt lat="43.77502" lon="6.93234">
        <ele>1054.136</ele>
        <time>2016-01-30T11:20:38Z</time>
      </trkpt>
      <trkpt lat="43.77497" lon="6.93235">
        <ele>1054.852</ele>
        <time>2016-01-30T11:20:42Z</time>
      </trkpt>
      <trkpt lat="43.77495" lon="6.93238">
        <ele>1055.555</ele>
        <time>2016-01-30T11:20:45Z</time>
      </trkpt>
      <trkpt lat="43.77489" lon="6.93249">
        <ele>1055.705</ele>
        <time>2016-01-30T11:20:53Z</time>
      </trkpt>
      <trkpt lat="43.77484" lon="6.9326">
        <ele>1057.082</ele>
        <time>2016-01-30T11:21:00Z</time>
      </trkpt>
      <trkpt lat="43.77479" lon="6.93269">
        <ele>1057.982</ele>
        <time>2016-01-30T11:21:07Z</time>
      </trkpt>
      <trkpt lat="43.77475" lon="6.93275">
        <ele>1058.407</ele>
        <time>2016-01-30T11:21:11Z</time>
      </trkpt>
      <trkpt lat="43.7747" lon="6.93271">
        <ele>1059.837</ele>
        <time>2016-01-30T11:21:17Z</time>
      </trkpt>
      <trkpt lat="43.77468" lon="6.93263">
        <ele>1060.985</ele>
        <time>2016-01-30T11:21:23Z</time>
      </trkpt>
      <trkpt lat="43.77468" lon="6.93262">
        <ele>1061.4</ele>
        <time>2016-01-30T11:21:29Z</time>
      </trkpt>
      <trkpt lat="43.77467" lon="6.93261">
        <ele>1060.993</ele>
        <time>2016-01-30T11:21:38Z</time>
      </trkpt>
      <trkpt lat="43.77466" lon="6.93259">
        <ele>1058.904</ele>
        <time>2016-01-30T11:21:57Z</time>
      </trkpt>
      <trkpt lat="43.77464" lon="6.93253">
        <ele>1058.567</ele>
        <time>2016-01-30T11:22:03Z</time>
      </trkpt>
      <trkpt lat="43.77461" lon="6.93243">
        <ele>1060.084</ele>
        <time>2016-01-30T11:22:12Z</time>
      </trkpt>
      <trkpt lat="43.77459" lon="6.93228">
        <ele>1062.164</ele>
        <time>2016-01-30T11:22:22Z</time>
      </trkpt>
      <trkpt lat="43.77457" lon="6.93216">
        <ele>1062.671</ele>
        <time>2016-01-30T11:22:31Z</time>
      </trkpt>
      <trkpt lat="43.77456" lon="6.93205">
        <ele>1061.435</ele>
        <time>2016-01-30T11:22:39Z</time>
      </trkpt>
      <trkpt lat="43.77454" lon="6.93201">
        <ele>1062.726</ele>
        <time>2016-01-30T11:22:43Z</time>
      </trkpt>
      <trkpt lat="43.77454" lon="6.93191">
        <ele>1064.618</ele>
        <time>2016-01-30T11:22:51Z</time>
      </trkpt>
      <trkpt lat="43.77452" lon="6.93183">
        <ele>1066.538</ele>
        <time>2016-01-30T11:22:58Z</time>
      </trkpt>
      <trkpt lat="43.77451" lon="6.93176">
        <ele>1068.23</ele>
        <time>2016-01-30T11:23:06Z</time>
      </trkpt>
      <trkpt lat="43.77451" lon="6.93168">
        <ele>1069.612</ele>
        <time>2016-01-30T11:23:13Z</time>
      </trkpt>
      <trkpt lat="43.77452" lon="6.93155">
        <ele>1070.644</ele>
        <time>2016-01-30T11:23:23Z</time>
      </trkpt>
      <trkpt lat="43.77452" lon="6.93147">
        <ele>1070.953</ele>
        <time>2016-01-30T11:23:30Z</time>
      </trkpt>
      <trkpt lat="43.77452" lon="6.93135">
        <ele>1071.578</ele>
        <time>2016-01-30T11:23:41Z</time>
      </trkpt>
      <trkpt lat="43.77452" lon="6.93131">
        <ele>1072.436</ele>
        <time>2016-01-30T11:23:48Z</time>
      </trkpt>
      <trkpt lat="43.77454" lon="6.9312">
        <ele>1072.443</ele>
        <time>2016-01-30T11:23:56Z</time>
      </trkpt>
      <trkpt lat="43.77453" lon="6.93109">
        <ele>1072.889</ele>
        <time>2016-01-30T11:24:05Z</time>
      </trkpt>
      <trkpt lat="43.77454" lon="6.93102">
        <ele>1077.12</ele>
        <time>2016-01-30T11:24:12Z</time>
      </trkpt>
      <trkpt lat="43.77454" lon="6.93095">
        <ele>1082.129</ele>
        <time>2016-01-30T11:24:28Z</time>
      </trkpt>
      <trkpt lat="43.77453" lon="6.93081">
        <ele>1083.684</ele>
        <time>2016-01-30T11:24:35Z</time>
      </trkpt>
      <trkpt lat="43.77452" lon="6.93066">
        <ele>1085.366</ele>
        <time>2016-01-30T11:24:42Z</time>
      </trkpt>
      <trkpt lat="43.77451" lon="6.93062">
        <ele>1086.18</ele>
        <time>2016-01-30T11:24:47Z</time>
      </trkpt>
      <trkpt lat="43.77451" lon="6.93061">
        <ele>1086.018</ele>
        <time>2016-01-30T11:24:48Z</time>
      </trkpt>
      <trkpt lat="43.77448" lon="6.93052">
        <ele>1085.896</ele>
        <time>2016-01-30T11:24:58Z</time>
      </trkpt>
      <trkpt lat="43.77446" lon="6.93043">
        <ele>1086.39</ele>
        <time>2016-01-30T11:25:05Z</time>
      </trkpt>
      <trkpt lat="43.77444" lon="6.93034">
        <ele>1087.161</ele>
        <time>2016-01-30T11:25:13Z</time>
      </trkpt>
      <trkpt lat="43.77442" lon="6.93027">
        <ele>1089.107</ele>
        <time>2016-01-30T11:25:20Z</time>
      </trkpt>
      <trkpt lat="43.77442" lon="6.9302">
        <ele>1088.366</ele>
        <time>2016-01-30T11:25:26Z</time>
      </trkpt>
      <trkpt lat="43.77442" lon="6.93013">
        <ele>1088.905</ele>
        <time>2016-01-30T11:25:33Z</time>
      </trkpt>
      <trkpt lat="43.77439" lon="6.93004">
        <ele>1089.501</ele>
        <time>2016-01-30T11:25:41Z</time>
      </trkpt>
      <trkpt lat="43.77436" lon="6.93001">
        <ele>1090.015</ele>
        <time>2016-01-30T11:25:46Z</time>
      </trkpt>
      <trkpt lat="43.77432" lon="6.92993">
        <ele>1090.196</ele>
        <time>2016-01-30T11:25:55Z</time>
      </trkpt>
      <trkpt lat="43.77432" lon="6.9299">
        <ele>1089.91</ele>
        <time>2016-01-30T11:25:58Z</time>
      </trkpt>
      <trkpt lat="43.77435" lon="6.9298">
        <ele>1091.223</ele>
        <time>2016-01-30T11:26:07Z</time>
      </trkpt>
      <trkpt lat="43.77434" lon="6.92973">
        <ele>1092.613</ele>
        <time>2016-01-30T11:26:16Z</time>
      </trkpt>
      <trkpt lat="43.77433" lon="6.92964">
        <ele>1092.314</ele>
        <time>2016-01-30T11:26:25Z</time>
      </trkpt>
      <trkpt lat="43.77432" lon="6.92951">
        <ele>1091.411</ele>
        <time>2016-01-30T11:26:35Z</time>
      </trkpt>
      <trkpt lat="43.77431" lon="6.9294">
        <ele>1092.913</ele>
        <time>2016-01-30T11:26:43Z</time>
      </trkpt>
      <trkpt lat="43.7743" lon="6.9293">
        <ele>1094.495</ele>
        <time>2016-01-30T11:26:51Z</time>
      </trkpt>
      <trkpt lat="43.77429" lon="6.92918">
        <ele>1095.851</ele>
        <time>2016-01-30T11:27:00Z</time>
      </trkpt>
      <trkpt lat="43.77425" lon="6.92907">
        <ele>1095.997</ele>
        <time>2016-01-30T11:27:09Z</time>
      </trkpt>
      <trkpt lat="43.77423" lon="6.92899">
        <ele>1096.156</ele>
        <time>2016-01-30T11:27:17Z</time>
      </trkpt>
      <trkpt lat="43.77424" lon="6.92892">
        <ele>1097.213</ele>
        <time>2016-01-30T11:27:22Z</time>
      </trkpt>
      <trkpt lat="43.77423" lon="6.92885">
        <ele>1098.804</ele>
        <time>2016-01-30T11:27:29Z</time>
      </trkpt>
      <trkpt lat="43.77423" lon="6.92876">
        <ele>1100.064</ele>
        <time>2016-01-30T11:27:37Z</time>
      </trkpt>
      <trkpt lat="43.77422" lon="6.92872">
        <ele>1101.497</ele>
        <time>2016-01-30T11:27:42Z</time>
      </trkpt>
      <trkpt lat="43.7742" lon="6.92863">
        <ele>1104.289</ele>
        <time>2016-01-30T11:27:50Z</time>
      </trkpt>
      <trkpt lat="43.77419" lon="6.92863">
        <ele>1104.551</ele>
        <time>2016-01-30T11:27:52Z</time>
      </trkpt>
      <trkpt lat="43.77414" lon="6.92868">
        <ele>1106.279</ele>
        <time>2016-01-30T11:28:01Z</time>
      </trkpt>
      <trkpt lat="43.77412" lon="6.92869">
        <ele>1107.161</ele>
        <time>2016-01-30T11:28:04Z</time>
      </trkpt>
      <trkpt lat="43.77407" lon="6.9288">
        <ele>1108.821</ele>
        <time>2016-01-30T11:28:13Z</time>
      </trkpt>
      <trkpt lat="43.77406" lon="6.92883">
        <ele>1109.107</ele>
        <time>2016-01-30T11:28:16Z</time>
      </trkpt>
      <trkpt lat="43.77401" lon="6.92889">
        <ele>1111.048</ele>
        <time>2016-01-30T11:28:24Z</time>
      </trkpt>
      <trkpt lat="43.77399" lon="6.92893">
        <ele>1112.16</ele>
        <time>2016-01-30T11:28:30Z</time>
      </trkpt>
      <trkpt lat="43.77397" lon="6.92898">
        <ele>1112.786</ele>
        <time>2016-01-30T11:28:34Z</time>
      </trkpt>
      <trkpt lat="43.77391" lon="6.92909">
        <ele>1115.609</ele>
        <time>2016-01-30T11:28:44Z</time>
      </trkpt>
      <trkpt lat="43.77391" lon="6.92911">
        <ele>1118.231</ele>
        <time>2016-01-30T11:28:51Z</time>
      </trkpt>
      <trkpt lat="43.77387" lon="6.9292">
        <ele>1119.537</ele>
        <time>2016-01-30T11:28:59Z</time>
      </trkpt>
      <trkpt lat="43.77383" lon="6.92926">
        <ele>1121.843</ele>
        <time>2016-01-30T11:29:05Z</time>
      </trkpt>
      <trkpt lat="43.77381" lon="6.9293">
        <ele>1123.243</ele>
        <time>2016-01-30T11:29:09Z</time>
      </trkpt>
      <trkpt lat="43.77376" lon="6.92938">
        <ele>1124.322</ele>
        <time>2016-01-30T11:29:17Z</time>
      </trkpt>
      <trkpt lat="43.77374" lon="6.92949">
        <ele>1124.79</ele>
        <time>2016-01-30T11:29:24Z</time>
      </trkpt>
      <trkpt lat="43.77371" lon="6.92956">
        <ele>1125.698</ele>
        <time>2016-01-30T11:29:31Z</time>
      </trkpt>
      <trkpt lat="43.77365" lon="6.92963">
        <ele>1125.216</ele>
        <time>2016-01-30T11:29:39Z</time>
      </trkpt>
      <trkpt lat="43.77361" lon="6.92969">
        <ele>1127.419</ele>
        <time>2016-01-30T11:29:46Z</time>
      </trkpt>
      <trkpt lat="43.77355" lon="6.92976">
        <ele>1127.458</ele>
        <time>2016-01-30T11:29:54Z</time>
      </trkpt>
      <trkpt lat="43.77354" lon="6.92981">
        <ele>1128.183</ele>
        <time>2016-01-30T11:29:58Z</time>
      </trkpt>
      <trkpt lat="43.77352" lon="6.92983">
        <ele>1128.469</ele>
        <time>2016-01-30T11:30:02Z</time>
      </trkpt>
      <trkpt lat="43.7735" lon="6.92977">
        <ele>1127.948</ele>
        <time>2016-01-30T11:30:09Z</time>
      </trkpt>
      <trkpt lat="43.77349" lon="6.92968">
        <ele>1128.527</ele>
        <time>2016-01-30T11:30:16Z</time>
      </trkpt>
      <trkpt lat="43.7735" lon="6.92957">
        <ele>1128.245</ele>
        <time>2016-01-30T11:30:24Z</time>
      </trkpt>
      <trkpt lat="43.7735" lon="6.92943">
        <ele>1128.699</ele>
        <time>2016-01-30T11:30:35Z</time>
      </trkpt>
      <trkpt lat="43.77348" lon="6.92931">
        <ele>1128.673</ele>
        <time>2016-01-30T11:30:45Z</time>
      </trkpt>
      <trkpt lat="43.77347" lon="6.92924">
        <ele>1128.161</ele>
        <time>2016-01-30T11:30:52Z</time>
      </trkpt>
      <trkpt lat="43.77345" lon="6.92913">
        <ele>1126.697</ele>
        <time>2016-01-30T11:31:02Z</time>
      </trkpt>
      <trkpt lat="43.77344" lon="6.92907">
        <ele>1126.874</ele>
        <time>2016-01-30T11:31:08Z</time>
      </trkpt>
      <trkpt lat="43.77345" lon="6.92899">
        <ele>1128.844</ele>
        <time>2016-01-30T11:31:16Z</time>
      </trkpt>
      <trkpt lat="43.77344" lon="6.92892">
        <ele>1129.225</ele>
        <time>2016-01-30T11:31:24Z</time>
      </trkpt>
      <trkpt lat="43.77344" lon="6.92881">
        <ele>1130.262</ele>
        <time>2016-01-30T11:31:32Z</time>
      </trkpt>
      <trkpt lat="43.77341" lon="6.92875">
        <ele>1130.95</ele>
        <time>2016-01-30T11:31:39Z</time>
      </trkpt>
      <trkpt lat="43.77337" lon="6.92864">
        <ele>1133.509</ele>
        <time>2016-01-30T11:31:48Z</time>
      </trkpt>
      <trkpt lat="43.77335" lon="6.92854">
        <ele>1135.647</ele>
        <time>2016-01-30T11:31:56Z</time>
      </trkpt>
      <trkpt lat="43.77332" lon="6.92845">
        <ele>1137.603</ele>
        <time>2016-01-30T11:32:04Z</time>
      </trkpt>
      <trkpt lat="43.7733" lon="6.92839">
        <ele>1139.035</ele>
        <time>2016-01-30T11:32:10Z</time>
      </trkpt>
      <trkpt lat="43.77328" lon="6.92827">
        <ele>1140.735</ele>
        <time>2016-01-30T11:32:20Z</time>
      </trkpt>
      <trkpt lat="43.77325" lon="6.92815">
        <ele>1143.124</ele>
        <time>2016-01-30T11:32:30Z</time>
      </trkpt>
      <trkpt lat="43.77324" lon="6.92806">
        <ele>1145.283</ele>
        <time>2016-01-30T11:32:37Z</time>
      </trkpt>
      <trkpt lat="43.77319" lon="6.92796">
        <ele>1146.392</ele>
        <time>2016-01-30T11:32:46Z</time>
      </trkpt>
      <trkpt lat="43.77312" lon="6.92784">
        <ele>1148.135</ele>
        <time>2016-01-30T11:32:56Z</time>
      </trkpt>
      <trkpt lat="43.77311" lon="6.92776">
        <ele>1149.795</ele>
        <time>2016-01-30T11:33:02Z</time>
      </trkpt>
      <trkpt lat="43.77308" lon="6.92766">
        <ele>1150.493</ele>
        <time>2016-01-30T11:33:09Z</time>
      </trkpt>
      <trkpt lat="43.77303" lon="6.92756">
        <ele>1151.06</ele>
        <time>2016-01-30T11:33:17Z</time>
      </trkpt>
      <trkpt lat="43.77301" lon="6.92749">
        <ele>1152.275</ele>
        <time>2016-01-30T11:33:22Z</time>
      </trkpt>
      <trkpt lat="43.77297" lon="6.92749">
        <ele>1153.044</ele>
        <time>2016-01-30T11:33:27Z</time>
      </trkpt>
      <trkpt lat="43.77294" lon="6.92754">
        <ele>1153.062</ele>
        <time>2016-01-30T11:33:32Z</time>
      </trkpt>
      <trkpt lat="43.77292" lon="6.92759">
        <ele>1153.482</ele>
        <time>2016-01-30T11:33:37Z</time>
      </trkpt>
      <trkpt lat="43.77286" lon="6.9277">
        <ele>1155.281</ele>
        <time>2016-01-30T11:33:47Z</time>
      </trkpt>
      <trkpt lat="43.77282" lon="6.92779">
        <ele>1158.473</ele>
        <time>2016-01-30T11:33:54Z</time>
      </trkpt>
      <trkpt lat="43.77278" lon="6.92779">
        <ele>1158.718</ele>
        <time>2016-01-30T11:34:01Z</time>
      </trkpt>
      <trkpt lat="43.77277" lon="6.92775">
        <ele>1160.575</ele>
        <time>2016-01-30T11:34:08Z</time>
      </trkpt>
      <trkpt lat="43.77273" lon="6.92771">
        <ele>1162.203</ele>
        <time>2016-01-30T11:34:30Z</time>
      </trkpt>
      <trkpt lat="43.77269" lon="6.92758">
        <ele>1163.055</ele>
        <time>2016-01-30T11:34:37Z</time>
      </trkpt>
      <trkpt lat="43.77264" lon="6.92751">
        <ele>1163.854</ele>
        <time>2016-01-30T11:34:41Z</time>
      </trkpt>
      <trkpt lat="43.77257" lon="6.92738">
        <ele>1163.232</ele>
        <time>2016-01-30T11:34:48Z</time>
      </trkpt>
      <trkpt lat="43.77253" lon="6.92729">
        <ele>1162.942</ele>
        <time>2016-01-30T11:34:53Z</time>
      </trkpt>
      <trkpt lat="43.77245" lon="6.92716">
        <ele>1163.104</ele>
        <time>2016-01-30T11:35:02Z</time>
      </trkpt>
      <trkpt lat="43.77238" lon="6.92703">
        <ele>1164.357</ele>
        <time>2016-01-30T11:35:10Z</time>
      </trkpt>
      <trkpt lat="43.77233" lon="6.92693">
        <ele>1167.177</ele>
        <time>2016-01-30T11:35:17Z</time>
      </trkpt>
      <trkpt lat="43.7723" lon="6.92685">
        <ele>1169.496</ele>
        <time>2016-01-30T11:35:23Z</time>
      </trkpt>
      <trkpt lat="43.77224" lon="6.92673">
        <ele>1169.841</ele>
        <time>2016-01-30T11:35:31Z</time>
      </trkpt>
      <trkpt lat="43.77218" lon="6.9266">
        <ele>1170.062</ele>
        <time>2016-01-30T11:35:38Z</time>
      </trkpt>
      <trkpt lat="43.77213" lon="6.92655">
        <ele>1170.158</ele>
        <time>2016-01-30T11:35:42Z</time>
      </trkpt>
      <trkpt lat="43.77208" lon="6.92651">
        <ele>1170.406</ele>
        <time>2016-01-30T11:35:46Z</time>
      </trkpt>
      <trkpt lat="43.772" lon="6.92643">
        <ele>1170.785</ele>
        <time>2016-01-30T11:35:53Z</time>
      </trkpt>
      <trkpt lat="43.77195" lon="6.92635">
        <ele>1171.675</ele>
        <time>2016-01-30T11:35:59Z</time>
      </trkpt>
      <trkpt lat="43.77187" lon="6.92627">
        <ele>1172.164</ele>
        <time>2016-01-30T11:36:06Z</time>
      </trkpt>
      <trkpt lat="43.77179" lon="6.9262">
        <ele>1172.775</ele>
        <time>2016-01-30T11:36:13Z</time>
      </trkpt>
      <trkpt lat="43.77168" lon="6.9261">
        <ele>1172.524</ele>
        <time>2016-01-30T11:36:21Z</time>
      </trkpt>
      <trkpt lat="43.77157" lon="6.92604">
        <ele>1172.183</ele>
        <time>2016-01-30T11:36:27Z</time>
      </trkpt>
      <trkpt lat="43.77143" lon="6.92593">
        <ele>1170.73</ele>
        <time>2016-01-30T11:36:34Z</time>
      </trkpt>
      <trkpt lat="43.7713" lon="6.92588">
        <ele>1170.721</ele>
        <time>2016-01-30T11:36:40Z</time>
      </trkpt>
      <trkpt lat="43.7712" lon="6.92584">
        <ele>1170.141</ele>
        <time>2016-01-30T11:36:45Z</time>
      </trkpt>
      <trkpt lat="43.77108" lon="6.92577">
        <ele>1170.372</ele>
        <time>2016-01-30T11:36:52Z</time>
      </trkpt>
      <trkpt lat="43.771" lon="6.92574">
        <ele>1170.645</ele>
        <time>2016-01-30T11:36:57Z</time>
      </trkpt>
      <trkpt lat="43.7709" lon="6.92573">
        <ele>1172.435</ele>
        <time>2016-01-30T11:37:04Z</time>
      </trkpt>
      <trkpt lat="43.77075" lon="6.9257">
        <ele>1173.436</ele>
        <time>2016-01-30T11:37:13Z</time>
      </trkpt>
      <trkpt lat="43.77063" lon="6.92571">
        <ele>1173.831</ele>
        <time>2016-01-30T11:37:21Z</time>
      </trkpt>
      <trkpt lat="43.77058" lon="6.92578">
        <ele>1176.29</ele>
        <time>2016-01-30T11:37:27Z</time>
      </trkpt>
      <trkpt lat="43.77052" lon="6.92583">
        <ele>1177.053</ele>
        <time>2016-01-30T11:37:32Z</time>
      </trkpt>
      <trkpt lat="43.7705" lon="6.92585">
        <ele>1177.108</ele>
        <time>2016-01-30T11:37:34Z</time>
      </trkpt>
      <trkpt lat="43.77043" lon="6.92591">
        <ele>1177.9</ele>
        <time>2016-01-30T11:37:41Z</time>
      </trkpt>
      <trkpt lat="43.77041" lon="6.92593">
        <ele>1177.736</ele>
        <time>2016-01-30T11:37:45Z</time>
      </trkpt>
      <trkpt lat="43.77037" lon="6.92596">
        <ele>1180.338</ele>
        <time>2016-01-30T11:37:52Z</time>
      </trkpt>
      <trkpt lat="43.77036" lon="6.92591">
        <ele>1180.632</ele>
        <time>2016-01-30T11:37:59Z</time>
      </trkpt>
      <trkpt lat="43.77037" lon="6.92581">
        <ele>1180.933</ele>
        <time>2016-01-30T11:38:07Z</time>
      </trkpt>
      <trkpt lat="43.77039" lon="6.9257">
        <ele>1181.262</ele>
        <time>2016-01-30T11:38:16Z</time>
      </trkpt>
      <trkpt lat="43.77042" lon="6.9256">
        <ele>1181.193</ele>
        <time>2016-01-30T11:38:25Z</time>
      </trkpt>
      <trkpt lat="43.77042" lon="6.92556">
        <ele>1181.544</ele>
        <time>2016-01-30T11:38:28Z</time>
      </trkpt>
      <trkpt lat="43.77039" lon="6.92556">
        <ele>1182.51</ele>
        <time>2016-01-30T11:38:32Z</time>
      </trkpt>
      <trkpt lat="43.77031" lon="6.92554">
        <ele>1185.048</ele>
        <time>2016-01-30T11:38:41Z</time>
      </trkpt>
      <trkpt lat="43.7703" lon="6.92553">
        <ele>1185.608</ele>
        <time>2016-01-30T11:38:43Z</time>
      </trkpt>
      <trkpt lat="43.77024" lon="6.92545">
        <ele>1190.859</ele>
        <time>2016-01-30T11:38:52Z</time>
      </trkpt>
      <trkpt lat="43.77018" lon="6.92538">
        <ele>1193.325</ele>
        <time>2016-01-30T11:39:01Z</time>
      </trkpt>
      <trkpt lat="43.77017" lon="6.92538">
        <ele>1193.015</ele>
        <time>2016-01-30T11:39:02Z</time>
      </trkpt>
      <trkpt lat="43.7701" lon="6.92534">
        <ele>1192.942</ele>
        <time>2016-01-30T11:39:11Z</time>
      </trkpt>
      <trkpt lat="43.77005" lon="6.92528">
        <ele>1195.976</ele>
        <time>2016-01-30T11:39:19Z</time>
      </trkpt>
      <trkpt lat="43.77" lon="6.92524">
        <ele>1197.295</ele>
        <time>2016-01-30T11:39:26Z</time>
      </trkpt>
      <trkpt lat="43.76993" lon="6.92517">
        <ele>1196.876</ele>
        <time>2016-01-30T11:39:35Z</time>
      </trkpt>
      <trkpt lat="43.76992" lon="6.92515">
        <ele>1197.457</ele>
        <time>2016-01-30T11:39:37Z</time>
      </trkpt>
      <trkpt lat="43.76987" lon="6.92504">
        <ele>1200.115</ele>
        <time>2016-01-30T11:39:46Z</time>
      </trkpt>
      <trkpt lat="43.76985" lon="6.925">
        <ele>1199.772</ele>
        <time>2016-01-30T11:39:50Z</time>
      </trkpt>
      <trkpt lat="43.76981" lon="6.92493">
        <ele>1199.063</ele>
        <time>2016-01-30T11:39:58Z</time>
      </trkpt>
      <trkpt lat="43.76978" lon="6.92482">
        <ele>1201.735</ele>
        <time>2016-01-30T11:40:06Z</time>
      </trkpt>
      <trkpt lat="43.76977" lon="6.92478">
        <ele>1202.104</ele>
        <time>2016-01-30T11:40:09Z</time>
      </trkpt>
      <trkpt lat="43.76975" lon="6.92473">
        <ele>1201.602</ele>
        <time>2016-01-30T11:40:13Z</time>
      </trkpt>
      <trkpt lat="43.76968" lon="6.9246">
        <ele>1202.894</ele>
        <time>2016-01-30T11:40:23Z</time>
      </trkpt>
      <trkpt lat="43.76965" lon="6.92453">
        <ele>1204.555</ele>
        <time>2016-01-30T11:40:30Z</time>
      </trkpt>
      <trkpt lat="43.76963" lon="6.92445">
        <ele>1205.864</ele>
        <time>2016-01-30T11:40:36Z</time>
      </trkpt>
      <trkpt lat="43.76961" lon="6.92441">
        <ele>1206.415</ele>
        <time>2016-01-30T11:40:39Z</time>
      </trkpt>
      <trkpt lat="43.76958" lon="6.92433">
        <ele>1205.642</ele>
        <time>2016-01-30T11:40:45Z</time>
      </trkpt>
      <trkpt lat="43.76954" lon="6.92431">
        <ele>1204.45</ele>
        <time>2016-01-30T11:40:50Z</time>
      </trkpt>
      <trkpt lat="43.7695" lon="6.92425">
        <ele>1203.668</ele>
        <time>2016-01-30T11:40:56Z</time>
      </trkpt>
      <trkpt lat="43.76944" lon="6.92416">
        <ele>1202.346</ele>
        <time>2016-01-30T11:41:01Z</time>
      </trkpt>
      <trkpt lat="43.76935" lon="6.92401">
        <ele>1202.069</ele>
        <time>2016-01-30T11:41:09Z</time>
      </trkpt>
      <trkpt lat="43.76927" lon="6.92387">
        <ele>1203.462</ele>
        <time>2016-01-30T11:41:16Z</time>
      </trkpt>
      <trkpt lat="43.76919" lon="6.9237">
        <ele>1205.674</ele>
        <time>2016-01-30T11:41:25Z</time>
      </trkpt>
      <trkpt lat="43.76912" lon="6.9236">
        <ele>1206.761</ele>
        <time>2016-01-30T11:41:31Z</time>
      </trkpt>
      <trkpt lat="43.76907" lon="6.92348">
        <ele>1209.273</ele>
        <time>2016-01-30T11:41:39Z</time>
      </trkpt>
      <trkpt lat="43.76904" lon="6.92342">
        <ele>1208.1</ele>
        <time>2016-01-30T11:41:42Z</time>
      </trkpt>
      <trkpt lat="43.76898" lon="6.92326">
        <ele>1205.585</ele>
        <time>2016-01-30T11:41:50Z</time>
      </trkpt>
      <trkpt lat="43.76893" lon="6.92314">
        <ele>1203.458</ele>
        <time>2016-01-30T11:41:57Z</time>
      </trkpt>
      <trkpt lat="43.76886" lon="6.923">
        <ele>1204.611</ele>
        <time>2016-01-30T11:42:05Z</time>
      </trkpt>
      <trkpt lat="43.76878" lon="6.92289">
        <ele>1205.403</ele>
        <time>2016-01-30T11:42:12Z</time>
      </trkpt>
      <trkpt lat="43.76875" lon="6.92283">
        <ele>1206.526</ele>
        <time>2016-01-30T11:42:17Z</time>
      </trkpt>
      <trkpt lat="43.76874" lon="6.92278">
        <ele>1208.215</ele>
        <time>2016-01-30T11:42:21Z</time>
      </trkpt>
      <trkpt lat="43.7687" lon="6.92267">
        <ele>1211.524</ele>
        <time>2016-01-30T11:42:28Z</time>
      </trkpt>
      <trkpt lat="43.76865" lon="6.9226">
        <ele>1210.029</ele>
        <time>2016-01-30T11:42:34Z</time>
      </trkpt>
      <trkpt lat="43.76863" lon="6.92254">
        <ele>1211.185</ele>
        <time>2016-01-30T11:42:40Z</time>
      </trkpt>
      <trkpt lat="43.76862" lon="6.92241">
        <ele>1213.904</ele>
        <time>2016-01-30T11:42:50Z</time>
      </trkpt>
      <trkpt lat="43.7686" lon="6.92234">
        <ele>1217.685</ele>
        <time>2016-01-30T11:42:58Z</time>
      </trkpt>
      <trkpt lat="43.7686" lon="6.92231">
        <ele>1220.203</ele>
        <time>2016-01-30T11:43:05Z</time>
      </trkpt>
      <trkpt lat="43.76857" lon="6.92222">
        <ele>1218.288</ele>
        <time>2016-01-30T11:43:11Z</time>
      </trkpt>
      <trkpt lat="43.76856" lon="6.92211">
        <ele>1215.957</ele>
        <time>2016-01-30T11:43:17Z</time>
      </trkpt>
      <trkpt lat="43.76855" lon="6.92199">
        <ele>1214.491</ele>
        <time>2016-01-30T11:43:22Z</time>
      </trkpt>
      <trkpt lat="43.76854" lon="6.92187">
        <ele>1214.01</ele>
        <time>2016-01-30T11:43:28Z</time>
      </trkpt>
      <trkpt lat="43.76851" lon="6.92169">
        <ele>1213.211</ele>
        <time>2016-01-30T11:43:35Z</time>
      </trkpt>
      <trkpt lat="43.76849" lon="6.92146">
        <ele>1216.293</ele>
        <time>2016-01-30T11:43:44Z</time>
      </trkpt>
      <trkpt lat="43.76845" lon="6.92129">
        <ele>1217.792</ele>
        <time>2016-01-30T11:43:51Z</time>
      </trkpt>
      <trkpt lat="43.76839" lon="6.92117">
        <ele>1214.486</ele>
        <time>2016-01-30T11:43:58Z</time>
      </trkpt>
      <trkpt lat="43.76833" lon="6.92107">
        <ele>1213.037</ele>
        <time>2016-01-30T11:44:04Z</time>
      </trkpt>
      <trkpt lat="43.76828" lon="6.921">
        <ele>1214.9</ele>
        <time>2016-01-30T11:44:09Z</time>
      </trkpt>
      <trkpt lat="43.76827" lon="6.92093">
        <ele>1218.233</ele>
        <time>2016-01-30T11:44:17Z</time>
      </trkpt>
      <trkpt lat="43.76826" lon="6.9209">
        <ele>1223.252</ele>
        <time>2016-01-30T11:44:28Z</time>
      </trkpt>
      <trkpt lat="43.76823" lon="6.92076">
        <ele>1223.52</ele>
        <time>2016-01-30T11:44:34Z</time>
      </trkpt>
      <trkpt lat="43.76822" lon="6.92073">
        <ele>1223.5</ele>
        <time>2016-01-30T11:44:36Z</time>
      </trkpt>
      <trkpt lat="43.76816" lon="6.92062">
        <ele>1221.495</ele>
        <time>2016-01-30T11:44:43Z</time>
      </trkpt>
      <trkpt lat="43.76813" lon="6.92047">
        <ele>1224.032</ele>
        <time>2016-01-30T11:44:51Z</time>
      </trkpt>
      <trkpt lat="43.76807" lon="6.92035">
        <ele>1224.5</ele>
        <time>2016-01-30T11:44:58Z</time>
      </trkpt>
      <trkpt lat="43.768" lon="6.92025">
        <ele>1222.509</ele>
        <time>2016-01-30T11:45:05Z</time>
      </trkpt>
      <trkpt lat="43.768" lon="6.92024">
        <ele>1221.949</ele>
        <time>2016-01-30T11:45:06Z</time>
      </trkpt>
      <trkpt lat="43.76796" lon="6.92011">
        <ele>1222.519</ele>
        <time>2016-01-30T11:45:13Z</time>
      </trkpt>
      <trkpt lat="43.76793" lon="6.92006">
        <ele>1224.041</ele>
        <time>2016-01-30T11:45:16Z</time>
      </trkpt>
      <trkpt lat="43.76787" lon="6.91997">
        <ele>1222.927</ele>
        <time>2016-01-30T11:45:22Z</time>
      </trkpt>
      <trkpt lat="43.76785" lon="6.91986">
        <ele>1226.588</ele>
        <time>2016-01-30T11:45:29Z</time>
      </trkpt>
      <trkpt lat="43.76782" lon="6.91978">
        <ele>1227.777</ele>
        <time>2016-01-30T11:45:34Z</time>
      </trkpt>
      <trkpt lat="43.7678" lon="6.91968">
        <ele>1226.492</ele>
        <time>2016-01-30T11:45:40Z</time>
      </trkpt>
      <trkpt lat="43.76779" lon="6.91955">
        <ele>1227.979</ele>
        <time>2016-01-30T11:45:47Z</time>
      </trkpt>
      <trkpt lat="43.7678" lon="6.91945">
        <ele>1230.932</ele>
        <time>2016-01-30T11:45:55Z</time>
      </trkpt>
      <trkpt lat="43.76781" lon="6.91939">
        <ele>1232.321</ele>
        <time>2016-01-30T11:46:03Z</time>
      </trkpt>
      <trkpt lat="43.7678" lon="6.91926">
        <ele>1234.039</ele>
        <time>2016-01-30T11:46:22Z</time>
      </trkpt>
      <trkpt lat="43.76779" lon="6.91918">
        <ele>1231.746</ele>
        <time>2016-01-30T11:46:27Z</time>
      </trkpt>
      <trkpt lat="43.7678" lon="6.91908">
        <ele>1230.586</ele>
        <time>2016-01-30T11:46:32Z</time>
      </trkpt>
      <trkpt lat="43.76776" lon="6.91893">
        <ele>1227.514</ele>
        <time>2016-01-30T11:46:38Z</time>
      </trkpt>
      <trkpt lat="43.76773" lon="6.91887">
        <ele>1227.699</ele>
        <time>2016-01-30T11:46:42Z</time>
      </trkpt>
      <trkpt lat="43.76772" lon="6.91874">
        <ele>1232.566</ele>
        <time>2016-01-30T11:46:48Z</time>
      </trkpt>
      <trkpt lat="43.76769" lon="6.91857">
        <ele>1235.686</ele>
        <time>2016-01-30T11:46:57Z</time>
      </trkpt>
      <trkpt lat="43.76769" lon="6.91846">
        <ele>1235.771</ele>
        <time>2016-01-30T11:47:03Z</time>
      </trkpt>
      <trkpt lat="43.76769" lon="6.91845">
        <ele>1233.518</ele>
        <time>2016-01-30T11:47:09Z</time>
      </trkpt>
      <trkpt lat="43.7677" lon="6.91844">
        <ele>1232.339</ele>
        <time>2016-01-30T11:47:15Z</time>
      </trkpt>
      <trkpt lat="43.76771" lon="6.9184">
        <ele>1233.326</ele>
        <time>2016-01-30T11:47:18Z</time>
      </trkpt>
      <trkpt lat="43.76773" lon="6.91837">
        <ele>1234.405</ele>
        <time>2016-01-30T11:47:20Z</time>
      </trkpt>
      <trkpt lat="43.76772" lon="6.91824">
        <ele>1234.852</ele>
        <time>2016-01-30T11:47:29Z</time>
      </trkpt>
      <trkpt lat="43.76772" lon="6.91822">
        <ele>1234.039</ele>
        <time>2016-01-30T11:47:31Z</time>
      </trkpt>
      <trkpt lat="43.76771" lon="6.91814">
        <ele>1234.56</ele>
        <time>2016-01-30T11:47:35Z</time>
      </trkpt>
      <trkpt lat="43.7677" lon="6.91802">
        <ele>1234.446</ele>
        <time>2016-01-30T11:47:41Z</time>
      </trkpt>
      <trkpt lat="43.7677" lon="6.918">
        <ele>1245.868</ele>
        <time>2016-01-30T12:05:54Z</time>
      </trkpt>
      <trkpt lat="43.7677" lon="6.91794">
        <ele>1245.7</ele>
        <time>2016-01-30T12:05:58Z</time>
      </trkpt>
      <trkpt lat="43.76767" lon="6.91778">
        <ele>1246.234</ele>
        <time>2016-01-30T12:06:05Z</time>
      </trkpt>
      <trkpt lat="43.76762" lon="6.9176">
        <ele>1247.224</ele>
        <time>2016-01-30T12:06:14Z</time>
      </trkpt>
      <trkpt lat="43.76759" lon="6.91746">
        <ele>1248.763</ele>
        <time>2016-01-30T12:06:22Z</time>
      </trkpt>
      <trkpt lat="43.76754" lon="6.91732">
        <ele>1252.165</ele>
        <time>2016-01-30T12:06:30Z</time>
      </trkpt>
      <trkpt lat="43.76755" lon="6.9173">
        <ele>1253.05</ele>
        <time>2016-01-30T12:06:34Z</time>
      </trkpt>
      <trkpt lat="43.76753" lon="6.91722">
        <ele>1253.028</ele>
        <time>2016-01-30T12:06:45Z</time>
      </trkpt>
      <trkpt lat="43.76753" lon="6.9172">
        <ele>1252.878</ele>
        <time>2016-01-30T12:06:46Z</time>
      </trkpt>
      <trkpt lat="43.76743" lon="6.917">
        <ele>1252.81</ele>
        <time>2016-01-30T12:06:57Z</time>
      </trkpt>
      <trkpt lat="43.76734" lon="6.91692">
        <ele>1254.514</ele>
        <time>2016-01-30T12:07:05Z</time>
      </trkpt>
      <trkpt lat="43.76722" lon="6.91689">
        <ele>1255.281</ele>
        <time>2016-01-30T12:07:13Z</time>
      </trkpt>
      <trkpt lat="43.7671" lon="6.91689">
        <ele>1254.629</ele>
        <time>2016-01-30T12:07:20Z</time>
      </trkpt>
      <trkpt lat="43.76695" lon="6.91689">
        <ele>1254.585</ele>
        <time>2016-01-30T12:07:27Z</time>
      </trkpt>
      <trkpt lat="43.7668" lon="6.91688">
        <ele>1254.797</ele>
        <time>2016-01-30T12:07:33Z</time>
      </trkpt>
      <trkpt lat="43.76662" lon="6.91682">
        <ele>1253.422</ele>
        <time>2016-01-30T12:07:38Z</time>
      </trkpt>
      <trkpt lat="43.76652" lon="6.91669">
        <ele>1253.093</ele>
        <time>2016-01-30T12:07:42Z</time>
      </trkpt>
      <trkpt lat="43.76644" lon="6.9165">
        <ele>1253.255</ele>
        <time>2016-01-30T12:07:47Z</time>
      </trkpt>
      <trkpt lat="43.76632" lon="6.91648">
        <ele>1252.998</ele>
        <time>2016-01-30T12:07:51Z</time>
      </trkpt>
      <trkpt lat="43.76613" lon="6.91655">
        <ele>1252.125</ele>
        <time>2016-01-30T12:07:57Z</time>
      </trkpt>
      <trkpt lat="43.76592" lon="6.9166">
        <ele>1253.104</ele>
        <time>2016-01-30T12:08:03Z</time>
      </trkpt>
      <trkpt lat="43.76563" lon="6.91658">
        <ele>1250.761</ele>
        <time>2016-01-30T12:08:10Z</time>
      </trkpt>
      <trkpt lat="43.76538" lon="6.91657">
        <ele>1249.266</ele>
        <time>2016-01-30T12:08:17Z</time>
      </trkpt>
      <trkpt lat="43.76519" lon="6.9165">
        <ele>1250.344</ele>
        <time>2016-01-30T12:08:23Z</time>
      </trkpt>
      <trkpt lat="43.76498" lon="6.91644">
        <ele>1251.241</ele>
        <time>2016-01-30T12:08:31Z</time>
      </trkpt>
      <trkpt lat="43.76474" lon="6.91641">
        <ele>1251.338</ele>
        <time>2016-01-30T12:08:39Z</time>
      </trkpt>
      <trkpt lat="43.76453" lon="6.91638">
        <ele>1250.858</ele>
        <time>2016-01-30T12:08:46Z</time>
      </trkpt>
      <trkpt lat="43.76433" lon="6.91631">
        <ele>1250.326</ele>
        <time>2016-01-30T12:08:53Z</time>
      </trkpt>
      <trkpt lat="43.76405" lon="6.91623">
        <ele>1249.487</ele>
        <time>2016-01-30T12:09:02Z</time>
      </trkpt>
      <trkpt lat="43.76386" lon="6.91616">
        <ele>1248.213</ele>
        <time>2016-01-30T12:09:08Z</time>
      </trkpt>
      <trkpt lat="43.76374" lon="6.91613">
        <ele>1247.912</ele>
        <time>2016-01-30T12:09:12Z</time>
      </trkpt>
      <trkpt lat="43.76367" lon="6.9161">
        <ele>1247.553</ele>
        <time>2016-01-30T12:09:14Z</time>
      </trkpt>
      <trkpt lat="43.7635" lon="6.91594">
        <ele>1246.241</ele>
        <time>2016-01-30T12:09:21Z</time>
      </trkpt>
      <trkpt lat="43.76335" lon="6.91586">
        <ele>1244.351</ele>
        <time>2016-01-30T12:09:26Z</time>
      </trkpt>
      <trkpt lat="43.76325" lon="6.91575">
        <ele>1244.976</ele>
        <time>2016-01-30T12:09:30Z</time>
      </trkpt>
      <trkpt lat="43.76317" lon="6.91569">
        <ele>1244.551</ele>
        <time>2016-01-30T12:09:34Z</time>
      </trkpt>
      <trkpt lat="43.76311" lon="6.91565">
        <ele>1244.049</ele>
        <time>2016-01-30T12:09:37Z</time>
      </trkpt>
      <trkpt lat="43.76304" lon="6.91553">
        <ele>1244.231</ele>
        <time>2016-01-30T12:09:43Z</time>
      </trkpt>
      <trkpt lat="43.76298" lon="6.9155">
        <ele>1244.07</ele>
        <time>2016-01-30T12:09:47Z</time>
      </trkpt>
      <trkpt lat="43.76287" lon="6.91544">
        <ele>1243.837</ele>
        <time>2016-01-30T12:09:53Z</time>
      </trkpt>
      <trkpt lat="43.76276" lon="6.91544">
        <ele>1244.199</ele>
        <time>2016-01-30T12:09:58Z</time>
      </trkpt>
      <trkpt lat="43.76264" lon="6.91545">
        <ele>1245.55</ele>
        <time>2016-01-30T12:10:04Z</time>
      </trkpt>
      <trkpt lat="43.76253" lon="6.91544">
        <ele>1246.032</ele>
        <time>2016-01-30T12:10:10Z</time>
      </trkpt>
      <trkpt lat="43.76242" lon="6.91537">
        <ele>1246.992</ele>
        <time>2016-01-30T12:10:17Z</time>
      </trkpt>
      <trkpt lat="43.76228" lon="6.91531">
        <ele>1247.179</ele>
        <time>2016-01-30T12:10:24Z</time>
      </trkpt>
      <trkpt lat="43.76212" lon="6.91522">
        <ele>1246.248</ele>
        <time>2016-01-30T12:10:32Z</time>
      </trkpt>
      <trkpt lat="43.76197" lon="6.91519">
        <ele>1247.372</ele>
        <time>2016-01-30T12:10:40Z</time>
      </trkpt>
      <trkpt lat="43.76189" lon="6.91515">
        <ele>1248.771</ele>
        <time>2016-01-30T12:10:46Z</time>
      </trkpt>
      <trkpt lat="43.7618" lon="6.91505">
        <ele>1249.738</ele>
        <time>2016-01-30T12:10:53Z</time>
      </trkpt>
      <trkpt lat="43.76171" lon="6.91496">
        <ele>1249.783</ele>
        <time>2016-01-30T12:11:00Z</time>
      </trkpt>
      <trkpt lat="43.76166" lon="6.91495">
        <ele>1249.822</ele>
        <time>2016-01-30T12:11:03Z</time>
      </trkpt>
      <trkpt lat="43.76157" lon="6.91488">
        <ele>1251.133</ele>
        <time>2016-01-30T12:11:10Z</time>
      </trkpt>
      <trkpt lat="43.76149" lon="6.91486">
        <ele>1252.994</ele>
        <time>2016-01-30T12:11:17Z</time>
      </trkpt>
      <trkpt lat="43.76143" lon="6.91487">
        <ele>1254.021</ele>
        <time>2016-01-30T12:11:21Z</time>
      </trkpt>
      <trkpt lat="43.76141" lon="6.91487">
        <ele>1254.29</ele>
        <time>2016-01-30T12:11:23Z</time>
      </trkpt>
      <trkpt lat="43.76128" lon="6.91486">
        <ele>1255.276</ele>
        <time>2016-01-30T12:11:31Z</time>
      </trkpt>
      <trkpt lat="43.76118" lon="6.91483">
        <ele>1255.636</ele>
        <time>2016-01-30T12:11:37Z</time>
      </trkpt>
      <trkpt lat="43.76106" lon="6.91475">
        <ele>1255.122</ele>
        <time>2016-01-30T12:11:42Z</time>
      </trkpt>
      <trkpt lat="43.76089" lon="6.91465">
        <ele>1253.942</ele>
        <time>2016-01-30T12:11:48Z</time>
      </trkpt>
      <trkpt lat="43.76073" lon="6.91463">
        <ele>1253.02</ele>
        <time>2016-01-30T12:11:53Z</time>
      </trkpt>
      <trkpt lat="43.76055" lon="6.91455">
        <ele>1252.666</ele>
        <time>2016-01-30T12:11:58Z</time>
      </trkpt>
      <trkpt lat="43.76046" lon="6.91456">
        <ele>1252.668</ele>
        <time>2016-01-30T12:12:02Z</time>
      </trkpt>
      <trkpt lat="43.7604" lon="6.91457">
        <ele>1252.89</ele>
        <time>2016-01-30T12:12:04Z</time>
      </trkpt>
      <trkpt lat="43.76021" lon="6.91457">
        <ele>1253.139</ele>
        <time>2016-01-30T12:12:11Z</time>
      </trkpt>
      <trkpt lat="43.76001" lon="6.91462">
        <ele>1252.908</ele>
        <time>2016-01-30T12:12:19Z</time>
      </trkpt>
      <trkpt lat="43.75981" lon="6.91463">
        <ele>1253.588</ele>
        <time>2016-01-30T12:12:27Z</time>
      </trkpt>
      <trkpt lat="43.75965" lon="6.91464">
        <ele>1253.505</ele>
        <time>2016-01-30T12:12:33Z</time>
      </trkpt>
      <trkpt lat="43.75944" lon="6.91468">
        <ele>1253.326</ele>
        <time>2016-01-30T12:12:41Z</time>
      </trkpt>
      <trkpt lat="43.75939" lon="6.9147">
        <ele>1253.417</ele>
        <time>2016-01-30T12:12:44Z</time>
      </trkpt>
      <trkpt lat="43.75933" lon="6.91478">
        <ele>1254.161</ele>
        <time>2016-01-30T12:12:49Z</time>
      </trkpt>
      <trkpt lat="43.75932" lon="6.91479">
        <ele>1253.987</ele>
        <time>2016-01-30T12:12:50Z</time>
      </trkpt>
      <trkpt lat="43.75915" lon="6.91476">
        <ele>1252.338</ele>
        <time>2016-01-30T12:12:56Z</time>
      </trkpt>
      <trkpt lat="43.75897" lon="6.91475">
        <ele>1252.164</ele>
        <time>2016-01-30T12:13:02Z</time>
      </trkpt>
      <trkpt lat="43.75876" lon="6.91473">
        <ele>1252.085</ele>
        <time>2016-01-30T12:13:10Z</time>
      </trkpt>
      <trkpt lat="43.75864" lon="6.91473">
        <ele>1251.557</ele>
        <time>2016-01-30T12:13:16Z</time>
      </trkpt>
      <trkpt lat="43.7586" lon="6.91475">
        <ele>1251.721</ele>
        <time>2016-01-30T12:13:18Z</time>
      </trkpt>
      <trkpt lat="43.75849" lon="6.91477">
        <ele>1253.031</ele>
        <time>2016-01-30T12:13:25Z</time>
      </trkpt>
      <trkpt lat="43.75837" lon="6.91472">
        <ele>1253.25</ele>
        <time>2016-01-30T12:13:32Z</time>
      </trkpt>
      <trkpt lat="43.75824" lon="6.91469">
        <ele>1253.951</ele>
        <time>2016-01-30T12:13:40Z</time>
      </trkpt>
      <trkpt lat="43.75819" lon="6.9147">
        <ele>1254.745</ele>
        <time>2016-01-30T12:13:43Z</time>
      </trkpt>
      <trkpt lat="43.7581" lon="6.9147">
        <ele>1256.355</ele>
        <time>2016-01-30T12:13:49Z</time>
      </trkpt>
      <trkpt lat="43.75806" lon="6.91469">
        <ele>1256.912</ele>
        <time>2016-01-30T12:13:53Z</time>
      </trkpt>
      <trkpt lat="43.75802" lon="6.91468">
        <ele>1257.221</ele>
        <time>2016-01-30T12:13:56Z</time>
      </trkpt>
      <trkpt lat="43.75799" lon="6.91466">
        <ele>1257.138</ele>
        <time>2016-01-30T12:13:59Z</time>
      </trkpt>
      <trkpt lat="43.75796" lon="6.91467">
        <ele>1257.521</ele>
        <time>2016-01-30T12:14:02Z</time>
      </trkpt>
      <trkpt lat="43.75793" lon="6.91466">
        <ele>1257.417</ele>
        <time>2016-01-30T12:14:09Z</time>
      </trkpt>
      <trkpt lat="43.7579" lon="6.91465">
        <ele>1256.349</ele>
        <time>2016-01-30T12:14:33Z</time>
      </trkpt>
      <trkpt lat="43.75781" lon="6.91459">
        <ele>1255.446</ele>
        <time>2016-01-30T12:14:39Z</time>
      </trkpt>
      <trkpt lat="43.75775" lon="6.91454">
        <ele>1254.754</ele>
        <time>2016-01-30T12:14:44Z</time>
      </trkpt>
      <trkpt lat="43.75769" lon="6.91452">
        <ele>1253.964</ele>
        <time>2016-01-30T12:14:49Z</time>
      </trkpt>
      <trkpt lat="43.75762" lon="6.91446">
        <ele>1253.383</ele>
        <time>2016-01-30T12:14:53Z</time>
      </trkpt>
      <trkpt lat="43.75758" lon="6.91447">
        <ele>1253.465</ele>
        <time>2016-01-30T12:14:55Z</time>
      </trkpt>
      <trkpt lat="43.75746" lon="6.91456">
        <ele>1254.355</ele>
        <time>2016-01-30T12:15:03Z</time>
      </trkpt>
      <trkpt lat="43.75738" lon="6.91467">
        <ele>1256.053</ele>
        <time>2016-01-30T12:15:10Z</time>
      </trkpt>
      <trkpt lat="43.75736" lon="6.91474">
        <ele>1256.953</ele>
        <time>2016-01-30T12:15:13Z</time>
      </trkpt>
      <trkpt lat="43.75729" lon="6.91478">
        <ele>1258.528</ele>
        <time>2016-01-30T12:15:20Z</time>
      </trkpt>
      <trkpt lat="43.75721" lon="6.91482">
        <ele>1259.613</ele>
        <time>2016-01-30T12:15:25Z</time>
      </trkpt>
      <trkpt lat="43.75717" lon="6.91486">
        <ele>1260.362</ele>
        <time>2016-01-30T12:15:29Z</time>
      </trkpt>
      <trkpt lat="43.7571" lon="6.91493">
        <ele>1261.645</ele>
        <time>2016-01-30T12:15:35Z</time>
      </trkpt>
      <trkpt lat="43.75706" lon="6.91501">
        <ele>1262.472</ele>
        <time>2016-01-30T12:15:40Z</time>
      </trkpt>
      <trkpt lat="43.75695" lon="6.91504">
        <ele>1263.057</ele>
        <time>2016-01-30T12:15:47Z</time>
      </trkpt>
      <trkpt lat="43.7569" lon="6.91503">
        <ele>1263.388</ele>
        <time>2016-01-30T12:15:52Z</time>
      </trkpt>
      <trkpt lat="43.75681" lon="6.91507">
        <ele>1262.968</ele>
        <time>2016-01-30T12:15:58Z</time>
      </trkpt>
      <trkpt lat="43.75671" lon="6.91514">
        <ele>1263.349</ele>
        <time>2016-01-30T12:16:05Z</time>
      </trkpt>
      <trkpt lat="43.75662" lon="6.91517">
        <ele>1263.78</ele>
        <time>2016-01-30T12:16:11Z</time>
      </trkpt>
      <trkpt lat="43.75654" lon="6.91518">
        <ele>1264.639</ele>
        <time>2016-01-30T12:16:17Z</time>
      </trkpt>
      <trkpt lat="43.7564" lon="6.91516">
        <ele>1265.039</ele>
        <time>2016-01-30T12:16:26Z</time>
      </trkpt>
      <trkpt lat="43.75631" lon="6.91513">
        <ele>1265.99</ele>
        <time>2016-01-30T12:16:33Z</time>
      </trkpt>
      <trkpt lat="43.75623" lon="6.91511">
        <ele>1266.521</ele>
        <time>2016-01-30T12:16:39Z</time>
      </trkpt>
      <trkpt lat="43.75611" lon="6.91509">
        <ele>1267.689</ele>
        <time>2016-01-30T12:16:48Z</time>
      </trkpt>
      <trkpt lat="43.75601" lon="6.91503">
        <ele>1268.559</ele>
        <time>2016-01-30T12:16:56Z</time>
      </trkpt>
      <trkpt lat="43.75598" lon="6.91497">
        <ele>1268.487</ele>
        <time>2016-01-30T12:17:00Z</time>
      </trkpt>
      <trkpt lat="43.75594" lon="6.91475">
        <ele>1267.516</ele>
        <time>2016-01-30T12:17:09Z</time>
      </trkpt>
      <trkpt lat="43.75591" lon="6.91463">
        <ele>1266.816</ele>
        <time>2016-01-30T12:17:16Z</time>
      </trkpt>
      <trkpt lat="43.7559" lon="6.91461">
        <ele>1266.635</ele>
        <time>2016-01-30T12:17:17Z</time>
      </trkpt>
      <trkpt lat="43.75594" lon="6.91452">
        <ele>1267.182</ele>
        <time>2016-01-30T12:17:22Z</time>
      </trkpt>
      <trkpt lat="43.75595" lon="6.91448">
        <ele>1267.562</ele>
        <time>2016-01-30T12:17:24Z</time>
      </trkpt>
      <trkpt lat="43.75594" lon="6.91439">
        <ele>1268.012</ele>
        <time>2016-01-30T12:17:29Z</time>
      </trkpt>
      <trkpt lat="43.7559" lon="6.91433">
        <ele>1268.481</ele>
        <time>2016-01-30T12:17:33Z</time>
      </trkpt>
      <trkpt lat="43.75585" lon="6.91431">
        <ele>1268.436</ele>
        <time>2016-01-30T12:17:37Z</time>
      </trkpt>
      <trkpt lat="43.75578" lon="6.9142">
        <ele>1267.822</ele>
        <time>2016-01-30T12:17:42Z</time>
      </trkpt>
      <trkpt lat="43.75579" lon="6.91404">
        <ele>1267.686</ele>
        <time>2016-01-30T12:17:49Z</time>
      </trkpt>
      <trkpt lat="43.75577" lon="6.91391">
        <ele>1267.486</ele>
        <time>2016-01-30T12:17:55Z</time>
      </trkpt>
      <trkpt lat="43.7557" lon="6.91374">
        <ele>1267.249</ele>
        <time>2016-01-30T12:18:03Z</time>
      </trkpt>
      <trkpt lat="43.75564" lon="6.91358">
        <ele>1267.259</ele>
        <time>2016-01-30T12:18:10Z</time>
      </trkpt>
      <trkpt lat="43.75562" lon="6.9135">
        <ele>1267.409</ele>
        <time>2016-01-30T12:18:14Z</time>
      </trkpt>
      <trkpt lat="43.75552" lon="6.91336">
        <ele>1267.549</ele>
        <time>2016-01-30T12:18:23Z</time>
      </trkpt>
      <trkpt lat="43.75546" lon="6.91318">
        <ele>1268.09</ele>
        <time>2016-01-30T12:18:32Z</time>
      </trkpt>
      <trkpt lat="43.75542" lon="6.91306">
        <ele>1268.228</ele>
        <time>2016-01-30T12:18:39Z</time>
      </trkpt>
      <trkpt lat="43.7554" lon="6.9129">
        <ele>1268.588</ele>
        <time>2016-01-30T12:18:47Z</time>
      </trkpt>
      <trkpt lat="43.75538" lon="6.91278">
        <ele>1268.536</ele>
        <time>2016-01-30T12:18:53Z</time>
      </trkpt>
      <trkpt lat="43.75537" lon="6.91265">
        <ele>1269.446</ele>
        <time>2016-01-30T12:18:59Z</time>
      </trkpt>
      <trkpt lat="43.75533" lon="6.91251">
        <ele>1268.674</ele>
        <time>2016-01-30T12:19:05Z</time>
      </trkpt>
      <trkpt lat="43.75533" lon="6.91249">
        <ele>1268.735</ele>
        <time>2016-01-30T12:19:06Z</time>
      </trkpt>
      <trkpt lat="43.75532" lon="6.9123">
        <ele>1267.994</ele>
        <time>2016-01-30T12:19:14Z</time>
      </trkpt>
      <trkpt lat="43.7553" lon="6.91213">
        <ele>1267.993</ele>
        <time>2016-01-30T12:19:21Z</time>
      </trkpt>
      <trkpt lat="43.75528" lon="6.91197">
        <ele>1267.463</ele>
        <time>2016-01-30T12:19:25Z</time>
      </trkpt>
      <trkpt lat="43.75526" lon="6.91184">
        <ele>1267.777</ele>
        <time>2016-01-30T12:19:30Z</time>
      </trkpt>
      <trkpt lat="43.75524" lon="6.91179">
        <ele>1268.308</ele>
        <time>2016-01-30T12:19:36Z</time>
      </trkpt>
      <trkpt lat="43.75523" lon="6.91177">
        <ele>1269.409</ele>
        <time>2016-01-30T12:19:41Z</time>
      </trkpt>
      <trkpt lat="43.75524" lon="6.91174">
        <ele>1269.557</ele>
        <time>2016-01-30T12:19:43Z</time>
      </trkpt>
      <trkpt lat="43.75521" lon="6.91159">
        <ele>1270.631</ele>
        <time>2016-01-30T12:19:53Z</time>
      </trkpt>
      <trkpt lat="43.75521" lon="6.91156">
        <ele>1271.252</ele>
        <time>2016-01-30T12:19:55Z</time>
      </trkpt>
      <trkpt lat="43.75521" lon="6.91153">
        <ele>1270.525</ele>
        <time>2016-01-30T12:20:02Z</time>
      </trkpt>
      <trkpt lat="43.75521" lon="6.91152">
        <ele>1270.475</ele>
        <time>2016-01-30T12:20:03Z</time>
      </trkpt>
      <trkpt lat="43.75522" lon="6.91136">
        <ele>1270.974</ele>
        <time>2016-01-30T12:20:10Z</time>
      </trkpt>
      <trkpt lat="43.75523" lon="6.9113">
        <ele>1270.621</ele>
        <time>2016-01-30T12:20:12Z</time>
      </trkpt>
      <trkpt lat="43.75517" lon="6.91122">
        <ele>1270.724</ele>
        <time>2016-01-30T12:20:16Z</time>
      </trkpt>
      <trkpt lat="43.75512" lon="6.91123">
        <ele>1271.467</ele>
        <time>2016-01-30T12:20:19Z</time>
      </trkpt>
      <trkpt lat="43.75505" lon="6.91116">
        <ele>1272.235</ele>
        <time>2016-01-30T12:20:23Z</time>
      </trkpt>
      <trkpt lat="43.75495" lon="6.91106">
        <ele>1272.153</ele>
        <time>2016-01-30T12:20:29Z</time>
      </trkpt>
      <trkpt lat="43.7549" lon="6.91094">
        <ele>1271.984</ele>
        <time>2016-01-30T12:20:33Z</time>
      </trkpt>
      <trkpt lat="43.75484" lon="6.91083">
        <ele>1271.784</ele>
        <time>2016-01-30T12:20:38Z</time>
      </trkpt>
      <trkpt lat="43.75483" lon="6.9107">
        <ele>1271.907</ele>
        <time>2016-01-30T12:20:44Z</time>
      </trkpt>
      <trkpt lat="43.75481" lon="6.91066">
        <ele>1272.138</ele>
        <time>2016-01-30T12:20:46Z</time>
      </trkpt>
      <trkpt lat="43.75476" lon="6.91062">
        <ele>1272.579</ele>
        <time>2016-01-30T12:20:49Z</time>
      </trkpt>
      <trkpt lat="43.7547" lon="6.91054">
        <ele>1273.19</ele>
        <time>2016-01-30T12:20:54Z</time>
      </trkpt>
      <trkpt lat="43.75466" lon="6.91046">
        <ele>1273.659</ele>
        <time>2016-01-30T12:20:59Z</time>
      </trkpt>
      <trkpt lat="43.75462" lon="6.9104">
        <ele>1273.917</ele>
        <time>2016-01-30T12:21:03Z</time>
      </trkpt>
      <trkpt lat="43.75459" lon="6.91026">
        <ele>1273.936</ele>
        <time>2016-01-30T12:21:11Z</time>
      </trkpt>
      <trkpt lat="43.75457" lon="6.9102">
        <ele>1273.433</ele>
        <time>2016-01-30T12:21:14Z</time>
      </trkpt>
      <trkpt lat="43.75453" lon="6.91013">
        <ele>1272.901</ele>
        <time>2016-01-30T12:21:18Z</time>
      </trkpt>
      <trkpt lat="43.75448" lon="6.91005">
        <ele>1272.398</ele>
        <time>2016-01-30T12:21:21Z</time>
      </trkpt>
      <trkpt lat="43.75441" lon="6.9099">
        <ele>1271.832</ele>
        <time>2016-01-30T12:21:28Z</time>
      </trkpt>
      <trkpt lat="43.75437" lon="6.90978">
        <ele>1271.496</ele>
        <time>2016-01-30T12:21:33Z</time>
      </trkpt>
      <trkpt lat="43.75433" lon="6.90968">
        <ele>1271.646</ele>
        <time>2016-01-30T12:21:38Z</time>
      </trkpt>
      <trkpt lat="43.75428" lon="6.90948">
        <ele>1271.095</ele>
        <time>2016-01-30T12:21:46Z</time>
      </trkpt>
      <trkpt lat="43.7542" lon="6.90939">
        <ele>1271.387</ele>
        <time>2016-01-30T12:21:51Z</time>
      </trkpt>
      <trkpt lat="43.75408" lon="6.90921">
        <ele>1271.033</ele>
        <time>2016-01-30T12:21:59Z</time>
      </trkpt>
      <trkpt lat="43.75398" lon="6.90895">
        <ele>1270.474</ele>
        <time>2016-01-30T12:22:08Z</time>
      </trkpt>
      <trkpt lat="43.75387" lon="6.9087">
        <ele>1269.926</ele>
        <time>2016-01-30T12:22:17Z</time>
      </trkpt>
      <trkpt lat="43.75383" lon="6.90854">
        <ele>1270.68</ele>
        <time>2016-01-30T12:22:23Z</time>
      </trkpt>
      <trkpt lat="43.75379" lon="6.90846">
        <ele>1271.491</ele>
        <time>2016-01-30T12:22:27Z</time>
      </trkpt>
      <trkpt lat="43.75372" lon="6.90833">
        <ele>1272.561</ele>
        <time>2016-01-30T12:22:34Z</time>
      </trkpt>
      <trkpt lat="43.75359" lon="6.90821">
        <ele>1274.03</ele>
        <time>2016-01-30T12:22:43Z</time>
      </trkpt>
      <trkpt lat="43.75348" lon="6.90813">
        <ele>1275.239</ele>
        <time>2016-01-30T12:22:50Z</time>
      </trkpt>
      <trkpt lat="43.75335" lon="6.90801">
        <ele>1276.144</ele>
        <time>2016-01-30T12:22:59Z</time>
      </trkpt>
      <trkpt lat="43.75327" lon="6.90786">
        <ele>1275.164</ele>
        <time>2016-01-30T12:23:04Z</time>
      </trkpt>
      <trkpt lat="43.75307" lon="6.90767">
        <ele>1273.306</ele>
        <time>2016-01-30T12:23:10Z</time>
      </trkpt>
      <trkpt lat="43.75294" lon="6.90753">
        <ele>1272.147</ele>
        <time>2016-01-30T12:23:15Z</time>
      </trkpt>
      <trkpt lat="43.75285" lon="6.90742">
        <ele>1271.366</ele>
        <time>2016-01-30T12:23:19Z</time>
      </trkpt>
      <trkpt lat="43.75284" lon="6.90739">
        <ele>1271.226</ele>
        <time>2016-01-30T12:23:20Z</time>
      </trkpt>
      <trkpt lat="43.75281" lon="6.90732">
        <ele>1271.29</ele>
        <time>2016-01-30T12:23:22Z</time>
      </trkpt>
      <trkpt lat="43.75273" lon="6.90725">
        <ele>1270.86</ele>
        <time>2016-01-30T12:23:27Z</time>
      </trkpt>
      <trkpt lat="43.75271" lon="6.90719">
        <ele>1270.56</ele>
        <time>2016-01-30T12:23:29Z</time>
      </trkpt>
      <trkpt lat="43.75262" lon="6.90706">
        <ele>1269.926</ele>
        <time>2016-01-30T12:23:36Z</time>
      </trkpt>
      <trkpt lat="43.75256" lon="6.90694">
        <ele>1270.098</ele>
        <time>2016-01-30T12:23:42Z</time>
      </trkpt>
      <trkpt lat="43.75257" lon="6.90682">
        <ele>1271.029</ele>
        <time>2016-01-30T12:23:48Z</time>
      </trkpt>
      <trkpt lat="43.75258" lon="6.90678">
        <ele>1271.728</ele>
        <time>2016-01-30T12:23:54Z</time>
      </trkpt>
      <trkpt lat="43.75256" lon="6.90678">
        <ele>1268.375</ele>
        <time>2016-01-30T12:24:30Z</time>
      </trkpt>
      <trkpt lat="43.75256" lon="6.90678">
        <ele>1268.794</ele>
        <time>2016-01-30T12:24:34Z</time>
      </trkpt>
      <trkpt lat="43.75254" lon="6.90677">
        <ele>1269.144</ele>
        <time>2016-01-30T12:24:39Z</time>
      </trkpt>
      <trkpt lat="43.75252" lon="6.90668">
        <ele>1269.557</ele>
        <time>2016-01-30T12:24:44Z</time>
      </trkpt>
      <trkpt lat="43.75246" lon="6.90654">
        <ele>1270.599</ele>
        <time>2016-01-30T12:24:51Z</time>
      </trkpt>
      <trkpt lat="43.75239" lon="6.90635">
        <ele>1272.649</ele>
        <time>2016-01-30T12:24:59Z</time>
      </trkpt>
      <trkpt lat="43.75232" lon="6.90615">
        <ele>1274.497</ele>
        <time>2016-01-30T12:25:09Z</time>
      </trkpt>
      <trkpt lat="43.7523" lon="6.90605">
        <ele>1276.098</ele>
        <time>2016-01-30T12:25:15Z</time>
      </trkpt>
      <trkpt lat="43.75228" lon="6.90591">
        <ele>1277.378</ele>
        <time>2016-01-30T12:25:22Z</time>
      </trkpt>
      <trkpt lat="43.75225" lon="6.90576">
        <ele>1277.727</ele>
        <time>2016-01-30T12:25:29Z</time>
      </trkpt>
      <trkpt lat="43.75223" lon="6.90563">
        <ele>1279.49</ele>
        <time>2016-01-30T12:25:36Z</time>
      </trkpt>
      <trkpt lat="43.7522" lon="6.90549">
        <ele>1281.138</ele>
        <time>2016-01-30T12:25:44Z</time>
      </trkpt>
      <trkpt lat="43.75216" lon="6.90537">
        <ele>1282.288</ele>
        <time>2016-01-30T12:25:51Z</time>
      </trkpt>
      <trkpt lat="43.75214" lon="6.9052">
        <ele>1283.079</ele>
        <time>2016-01-30T12:26:00Z</time>
      </trkpt>
      <trkpt lat="43.75211" lon="6.90504">
        <ele>1283.957</ele>
        <time>2016-01-30T12:26:07Z</time>
      </trkpt>
      <trkpt lat="43.75209" lon="6.90487">
        <ele>1285.017</ele>
        <time>2016-01-30T12:26:15Z</time>
      </trkpt>
      <trkpt lat="43.75208" lon="6.90466">
        <ele>1285.657</ele>
        <time>2016-01-30T12:26:23Z</time>
      </trkpt>
      <trkpt lat="43.75208" lon="6.90463">
        <ele>1285.336</ele>
        <time>2016-01-30T12:26:26Z</time>
      </trkpt>
      <trkpt lat="43.75206" lon="6.90453">
        <ele>1284.506</ele>
        <time>2016-01-30T12:26:30Z</time>
      </trkpt>
      <trkpt lat="43.75198" lon="6.90443">
        <ele>1283.252</ele>
        <time>2016-01-30T12:26:34Z</time>
      </trkpt>
      <trkpt lat="43.75186" lon="6.90442">
        <ele>1280.699</ele>
        <time>2016-01-30T12:26:39Z</time>
      </trkpt>
      <trkpt lat="43.75176" lon="6.9043">
        <ele>1279.444</ele>
        <time>2016-01-30T12:26:43Z</time>
      </trkpt>
      <trkpt lat="43.75157" lon="6.90411">
        <ele>1278.351</ele>
        <time>2016-01-30T12:26:50Z</time>
      </trkpt>
      <trkpt lat="43.75147" lon="6.90388">
        <ele>1278.825</ele>
        <time>2016-01-30T12:26:57Z</time>
      </trkpt>
      <trkpt lat="43.75141" lon="6.90372">
        <ele>1277.457</ele>
        <time>2016-01-30T12:27:02Z</time>
      </trkpt>
      <trkpt lat="43.75136" lon="6.90353">
        <ele>1275.482</ele>
        <time>2016-01-30T12:27:07Z</time>
      </trkpt>
      <trkpt lat="43.75134" lon="6.90348">
        <ele>1274.961</ele>
        <time>2016-01-30T12:27:08Z</time>
      </trkpt>
      <trkpt lat="43.75127" lon="6.90326">
        <ele>1273.748</ele>
        <time>2016-01-30T12:27:13Z</time>
      </trkpt>
      <trkpt lat="43.75125" lon="6.90309">
        <ele>1275.649</ele>
        <time>2016-01-30T12:27:19Z</time>
      </trkpt>
      <trkpt lat="43.75119" lon="6.90293">
        <ele>1276.024</ele>
        <time>2016-01-30T12:27:25Z</time>
      </trkpt>
      <trkpt lat="43.75114" lon="6.9028">
        <ele>1274.636</ele>
        <time>2016-01-30T12:27:30Z</time>
      </trkpt>
      <trkpt lat="43.75107" lon="6.90267">
        <ele>1272.982</ele>
        <time>2016-01-30T12:27:35Z</time>
      </trkpt>
      <trkpt lat="43.75104" lon="6.90261">
        <ele>1272.279</ele>
        <time>2016-01-30T12:27:37Z</time>
      </trkpt>
      <trkpt lat="43.75096" lon="6.90247">
        <ele>1270.736</ele>
        <time>2016-01-30T12:27:42Z</time>
      </trkpt>
      <trkpt lat="43.75093" lon="6.90245">
        <ele>1270.075</ele>
        <time>2016-01-30T12:27:43Z</time>
      </trkpt>
      <trkpt lat="43.75083" lon="6.90228">
        <ele>1268.581</ele>
        <time>2016-01-30T12:27:47Z</time>
      </trkpt>
      <trkpt lat="43.75075" lon="6.90209">
        <ele>1266.818</ele>
        <time>2016-01-30T12:27:53Z</time>
      </trkpt>
      <trkpt lat="43.75068" lon="6.90201">
        <ele>1265.737</ele>
        <time>2016-01-30T12:27:55Z</time>
      </trkpt>
      <trkpt lat="43.75054" lon="6.90181">
        <ele>1263.531</ele>
        <time>2016-01-30T12:28:00Z</time>
      </trkpt>
      <trkpt lat="43.75042" lon="6.9016">
        <ele>1265.236</ele>
        <time>2016-01-30T12:28:06Z</time>
      </trkpt>
      <trkpt lat="43.75034" lon="6.90149">
        <ele>1265.482</ele>
        <time>2016-01-30T12:28:11Z</time>
      </trkpt>
      <trkpt lat="43.75031" lon="6.90146">
        <ele>1265.049</ele>
        <time>2016-01-30T12:28:12Z</time>
      </trkpt>
      <trkpt lat="43.75021" lon="6.90132">
        <ele>1263.706</ele>
        <time>2016-01-30T12:28:15Z</time>
      </trkpt>
      <trkpt lat="43.75011" lon="6.90107">
        <ele>1262.342</ele>
        <time>2016-01-30T12:28:20Z</time>
      </trkpt>
      <trkpt lat="43.74995" lon="6.90081">
        <ele>1260.753</ele>
        <time>2016-01-30T12:28:25Z</time>
      </trkpt>
      <trkpt lat="43.74977" lon="6.90065">
        <ele>1258.288</ele>
        <time>2016-01-30T12:28:30Z</time>
      </trkpt>
      <trkpt lat="43.74961" lon="6.90047">
        <ele>1255.085</ele>
        <time>2016-01-30T12:28:34Z</time>
      </trkpt>
      <trkpt lat="43.74948" lon="6.90031">
        <ele>1252.837</ele>
        <time>2016-01-30T12:28:38Z</time>
      </trkpt>
      <trkpt lat="43.74939" lon="6.90019">
        <ele>1250.609</ele>
        <time>2016-01-30T12:28:42Z</time>
      </trkpt>
      <trkpt lat="43.74937" lon="6.89998">
        <ele>1248.078</ele>
        <time>2016-01-30T12:28:47Z</time>
      </trkpt>
      <trkpt lat="43.74938" lon="6.89991">
        <ele>1247.922</ele>
        <time>2016-01-30T12:28:51Z</time>
      </trkpt>
      <trkpt lat="43.74937" lon="6.8999">
        <ele>1247.714</ele>
        <time>2016-01-30T12:28:54Z</time>
      </trkpt>
      <trkpt lat="43.74934" lon="6.89981">
        <ele>1245.843</ele>
        <time>2016-01-30T12:29:00Z</time>
      </trkpt>
      <trkpt lat="43.74933" lon="6.89979">
        <ele>1244.82</ele>
        <time>2016-01-30T12:29:01Z</time>
      </trkpt>
      <trkpt lat="43.74926" lon="6.89966">
        <ele>1242.88</ele>
        <time>2016-01-30T12:29:06Z</time>
      </trkpt>
      <trkpt lat="43.74919" lon="6.89967">
        <ele>1240.435</ele>
        <time>2016-01-30T12:29:11Z</time>
      </trkpt>
      <trkpt lat="43.74915" lon="6.89971">
        <ele>1237.679</ele>
        <time>2016-01-30T12:29:14Z</time>
      </trkpt>
      <trkpt lat="43.74912" lon="6.89976">
        <ele>1236.382</ele>
        <time>2016-01-30T12:29:17Z</time>
      </trkpt>
      <trkpt lat="43.74907" lon="6.89996">
        <ele>1232.776</ele>
        <time>2016-01-30T12:29:22Z</time>
      </trkpt>
      <trkpt lat="43.74897" lon="6.90009">
        <ele>1229.948</ele>
        <time>2016-01-30T12:29:26Z</time>
      </trkpt>
      <trkpt lat="43.74896" lon="6.90021">
        <ele>1227.717</ele>
        <time>2016-01-30T12:29:30Z</time>
      </trkpt>
      <trkpt lat="43.74896" lon="6.90031">
        <ele>1226.871</ele>
        <time>2016-01-30T12:29:34Z</time>
      </trkpt>
      <trkpt lat="43.74891" lon="6.90037">
        <ele>1225.587</ele>
        <time>2016-01-30T12:29:36Z</time>
      </trkpt>
      <trkpt lat="43.74878" lon="6.90059">
        <ele>1220.369</ele>
        <time>2016-01-30T12:29:42Z</time>
      </trkpt>
      <trkpt lat="43.74869" lon="6.9006">
        <ele>1219.708</ele>
        <time>2016-01-30T12:29:45Z</time>
      </trkpt>
      <trkpt lat="43.74867" lon="6.9006">
        <ele>1219.736</ele>
        <time>2016-01-30T12:29:48Z</time>
      </trkpt>
      <trkpt lat="43.74861" lon="6.90061">
        <ele>1219.97</ele>
        <time>2016-01-30T12:29:52Z</time>
      </trkpt>
      <trkpt lat="43.74848" lon="6.90062">
        <ele>1220.725</ele>
        <time>2016-01-30T12:29:56Z</time>
      </trkpt>
      <trkpt lat="43.74833" lon="6.9006">
        <ele>1221.112</ele>
        <time>2016-01-30T12:30:01Z</time>
      </trkpt>
      <trkpt lat="43.74823" lon="6.9006">
        <ele>1220.254</ele>
        <time>2016-01-30T12:30:04Z</time>
      </trkpt>
      <trkpt lat="43.74828" lon="6.90069">
        <ele>1218.129</ele>
        <time>2016-01-30T12:30:08Z</time>
      </trkpt>
      <trkpt lat="43.74834" lon="6.90075">
        <ele>1216.326</ele>
        <time>2016-01-30T12:30:10Z</time>
      </trkpt>
      <trkpt lat="43.74831" lon="6.90081">
        <ele>1214.928</ele>
        <time>2016-01-30T12:30:14Z</time>
      </trkpt>
      <trkpt lat="43.74825" lon="6.90083">
        <ele>1214.229</ele>
        <time>2016-01-30T12:30:16Z</time>
      </trkpt>
      <trkpt lat="43.7481" lon="6.9008">
        <ele>1212.41</ele>
        <time>2016-01-30T12:30:21Z</time>
      </trkpt>
      <trkpt lat="43.7481" lon="6.90089">
        <ele>1209.64</ele>
        <time>2016-01-30T12:30:26Z</time>
      </trkpt>
      <trkpt lat="43.74811" lon="6.90092">
        <ele>1209.28</ele>
        <time>2016-01-30T12:30:27Z</time>
      </trkpt>
      <trkpt lat="43.74806" lon="6.90103">
        <ele>1208.029</ele>
        <time>2016-01-30T12:30:32Z</time>
      </trkpt>
      <trkpt lat="43.74792" lon="6.90098">
        <ele>1207.142</ele>
        <time>2016-01-30T12:30:36Z</time>
      </trkpt>
      <trkpt lat="43.74784" lon="6.90082">
        <ele>1204.935</ele>
        <time>2016-01-30T12:30:39Z</time>
      </trkpt>
      <trkpt lat="43.74768" lon="6.9006">
        <ele>1202.665</ele>
        <time>2016-01-30T12:30:43Z</time>
      </trkpt>
      <trkpt lat="43.74754" lon="6.90043">
        <ele>1200.057</ele>
        <time>2016-01-30T12:30:47Z</time>
      </trkpt>
      <trkpt lat="43.74731" lon="6.90023">
        <ele>1196.927</ele>
        <time>2016-01-30T12:30:52Z</time>
      </trkpt>
      <trkpt lat="43.74727" lon="6.9002">
        <ele>1196.498</ele>
        <time>2016-01-30T12:30:53Z</time>
      </trkpt>
      <trkpt lat="43.74717" lon="6.90015">
        <ele>1195.329</ele>
        <time>2016-01-30T12:30:55Z</time>
      </trkpt>
      <trkpt lat="43.74707" lon="6.89995">
        <ele>1194.016</ele>
        <time>2016-01-30T12:30:59Z</time>
      </trkpt>
      <trkpt lat="43.74705" lon="6.89984">
        <ele>1193.898</ele>
        <time>2016-01-30T12:31:01Z</time>
      </trkpt>
      <trkpt lat="43.74692" lon="6.89958">
        <ele>1192.201</ele>
        <time>2016-01-30T12:31:06Z</time>
      </trkpt>
      <trkpt lat="43.74686" lon="6.89944">
        <ele>1191.461</ele>
        <time>2016-01-30T12:31:08Z</time>
      </trkpt>
      <trkpt lat="43.74679" lon="6.899">
        <ele>1186.907</ele>
        <time>2016-01-30T12:31:13Z</time>
      </trkpt>
      <trkpt lat="43.74679" lon="6.89865">
        <ele>1185.91</ele>
        <time>2016-01-30T12:31:17Z</time>
      </trkpt>
      <trkpt lat="43.74679" lon="6.89859">
        <ele>1185.594</ele>
        <time>2016-01-30T12:31:18Z</time>
      </trkpt>
      <trkpt lat="43.74671" lon="6.89826">
        <ele>1185.836</ele>
        <time>2016-01-30T12:31:24Z</time>
      </trkpt>
      <trkpt lat="43.74655" lon="6.89808">
        <ele>1186.458</ele>
        <time>2016-01-30T12:31:31Z</time>
      </trkpt>
      <trkpt lat="43.74647" lon="6.89799">
        <ele>1187.601</ele>
        <time>2016-01-30T12:31:37Z</time>
      </trkpt>
      <trkpt lat="43.74639" lon="6.89788">
        <ele>1188.526</ele>
        <time>2016-01-30T12:31:44Z</time>
      </trkpt>
      <trkpt lat="43.74628" lon="6.89771">
        <ele>1190.006</ele>
        <time>2016-01-30T12:31:55Z</time>
      </trkpt>
      <trkpt lat="43.74621" lon="6.89756">
        <ele>1191.678</ele>
        <time>2016-01-30T12:32:04Z</time>
      </trkpt>
      <trkpt lat="43.74617" lon="6.8974">
        <ele>1193.376</ele>
        <time>2016-01-30T12:32:11Z</time>
      </trkpt>
      <trkpt lat="43.74611" lon="6.89726">
        <ele>1194.417</ele>
        <time>2016-01-30T12:32:20Z</time>
      </trkpt>
      <trkpt lat="43.74605" lon="6.89716">
        <ele>1196.2</ele>
        <time>2016-01-30T12:32:26Z</time>
      </trkpt>
      <trkpt lat="43.746" lon="6.897">
        <ele>1197.685</ele>
        <time>2016-01-30T12:32:35Z</time>
      </trkpt>
      <trkpt lat="43.74599" lon="6.89698">
        <ele>1197.816</ele>
        <time>2016-01-30T12:32:36Z</time>
      </trkpt>
      <trkpt lat="43.74594" lon="6.89689">
        <ele>1199.437</ele>
        <time>2016-01-30T12:32:42Z</time>
      </trkpt>
      <trkpt lat="43.74587" lon="6.89683">
        <ele>1200.728</ele>
        <time>2016-01-30T12:32:48Z</time>
      </trkpt>
      <trkpt lat="43.74578" lon="6.89676">
        <ele>1202.71</ele>
        <time>2016-01-30T12:32:55Z</time>
      </trkpt>
      <trkpt lat="43.7457" lon="6.89669">
        <ele>1202.964</ele>
        <time>2016-01-30T12:33:01Z</time>
      </trkpt>
      <trkpt lat="43.74558" lon="6.8966">
        <ele>1203.086</ele>
        <time>2016-01-30T12:33:09Z</time>
      </trkpt>
      <trkpt lat="43.74551" lon="6.89654">
        <ele>1203.252</ele>
        <time>2016-01-30T12:33:16Z</time>
      </trkpt>
      <trkpt lat="43.74544" lon="6.89651">
        <ele>1198.818</ele>
        <time>2016-01-30T12:34:45Z</time>
      </trkpt>
      <trkpt lat="43.74534" lon="6.89646">
        <ele>1197.883</ele>
        <time>2016-01-30T12:34:49Z</time>
      </trkpt>
      <trkpt lat="43.74528" lon="6.89648">
        <ele>1196.391</ele>
        <time>2016-01-30T12:34:54Z</time>
      </trkpt>
      <trkpt lat="43.74525" lon="6.89639">
        <ele>1194.286</ele>
        <time>2016-01-30T12:34:58Z</time>
      </trkpt>
      <trkpt lat="43.74524" lon="6.89637">
        <ele>1193.956</ele>
        <time>2016-01-30T12:34:59Z</time>
      </trkpt>
      <trkpt lat="43.74523" lon="6.89635">
        <ele>1194.156</ele>
        <time>2016-01-30T12:35:03Z</time>
      </trkpt>
      <trkpt lat="43.74524" lon="6.89633">
        <ele>1193.135</ele>
        <time>2016-01-30T12:35:08Z</time>
      </trkpt>
      <trkpt lat="43.74524" lon="6.89633">
        <ele>1192.915</ele>
        <time>2016-01-30T12:35:09Z</time>
      </trkpt>
      <trkpt lat="43.74522" lon="6.89631">
        <ele>1191.832</ele>
        <time>2016-01-30T12:35:12Z</time>
      </trkpt>
      <trkpt lat="43.74517" lon="6.89623">
        <ele>1189.32</ele>
        <time>2016-01-30T12:35:20Z</time>
      </trkpt>
      <trkpt lat="43.74515" lon="6.89615">
        <ele>1188.267</ele>
        <time>2016-01-30T12:35:24Z</time>
      </trkpt>
      <trkpt lat="43.7451" lon="6.89597">
        <ele>1186.117</ele>
        <time>2016-01-30T12:35:28Z</time>
      </trkpt>
      <trkpt lat="43.745" lon="6.8957">
        <ele>1184.127</ele>
        <time>2016-01-30T12:35:33Z</time>
      </trkpt>
      <trkpt lat="43.74491" lon="6.89536">
        <ele>1181.794</ele>
        <time>2016-01-30T12:35:39Z</time>
      </trkpt>
      <trkpt lat="43.74485" lon="6.89529">
        <ele>1180.184</ele>
        <time>2016-01-30T12:35:42Z</time>
      </trkpt>
      <trkpt lat="43.74481" lon="6.89542">
        <ele>1177.707</ele>
        <time>2016-01-30T12:35:45Z</time>
      </trkpt>
      <trkpt lat="43.74476" lon="6.89557">
        <ele>1175.452</ele>
        <time>2016-01-30T12:35:47Z</time>
      </trkpt>
      <trkpt lat="43.74467" lon="6.89591">
        <ele>1168.588</ele>
        <time>2016-01-30T12:35:53Z</time>
      </trkpt>
      <trkpt lat="43.74462" lon="6.89604">
        <ele>1166.077</ele>
        <time>2016-01-30T12:35:55Z</time>
      </trkpt>
      <trkpt lat="43.74455" lon="6.89629">
        <ele>1160.602</ele>
        <time>2016-01-30T12:35:59Z</time>
      </trkpt>
      <trkpt lat="43.74444" lon="6.89661">
        <ele>1153.723</ele>
        <time>2016-01-30T12:36:04Z</time>
      </trkpt>
      <trkpt lat="43.74439" lon="6.89694">
        <ele>1148.473</ele>
        <time>2016-01-30T12:36:08Z</time>
      </trkpt>
      <trkpt lat="43.7443" lon="6.89731">
        <ele>1144.004</ele>
        <time>2016-01-30T12:36:12Z</time>
      </trkpt>
      <trkpt lat="43.74413" lon="6.89759">
        <ele>1138.692</ele>
        <time>2016-01-30T12:36:16Z</time>
      </trkpt>
      <trkpt lat="43.74402" lon="6.89784">
        <ele>1134.112</ele>
        <time>2016-01-30T12:36:20Z</time>
      </trkpt>
      <trkpt lat="43.74389" lon="6.89795">
        <ele>1130.956</ele>
        <time>2016-01-30T12:36:23Z</time>
      </trkpt>
      <trkpt lat="43.74373" lon="6.89814">
        <ele>1127.02</ele>
        <time>2016-01-30T12:36:27Z</time>
      </trkpt>
      <trkpt lat="43.74352" lon="6.89849">
        <ele>1120.115</ele>
        <time>2016-01-30T12:36:32Z</time>
      </trkpt>
      <trkpt lat="43.74328" lon="6.89895">
        <ele>1113.567</ele>
        <time>2016-01-30T12:36:37Z</time>
      </trkpt>
      <trkpt lat="43.74296" lon="6.89936">
        <ele>1107.891</ele>
        <time>2016-01-30T12:36:42Z</time>
      </trkpt>
      <trkpt lat="43.74269" lon="6.89954">
        <ele>1107.61</ele>
        <time>2016-01-30T12:36:46Z</time>
      </trkpt>
      <trkpt lat="43.74214" lon="6.89973">
        <ele>1106.248</ele>
        <time>2016-01-30T12:36:53Z</time>
      </trkpt>
      <trkpt lat="43.74189" lon="6.89984">
        <ele>1105.531</ele>
        <time>2016-01-30T12:36:56Z</time>
      </trkpt>
      <trkpt lat="43.7417" lon="6.90003">
        <ele>1104.518</ele>
        <time>2016-01-30T12:37:00Z</time>
      </trkpt>
      <trkpt lat="43.74173" lon="6.90006">
        <ele>1104.145</ele>
        <time>2016-01-30T12:37:03Z</time>
      </trkpt>
      <trkpt lat="43.7417" lon="6.9">
        <ele>1103.986</ele>
        <time>2016-01-30T12:37:05Z</time>
      </trkpt>
      <trkpt lat="43.74168" lon="6.90006">
        <ele>1103.86</ele>
        <time>2016-01-30T12:37:07Z</time>
      </trkpt>
      <trkpt lat="43.74171" lon="6.90019">
        <ele>1104.44</ele>
        <time>2016-01-30T12:37:10Z</time>
      </trkpt>
      <trkpt lat="43.74174" lon="6.90058">
        <ele>1104.443</ele>
        <time>2016-01-30T12:37:16Z</time>
      </trkpt>
      <trkpt lat="43.74178" lon="6.90085">
        <ele>1102.827</ele>
        <time>2016-01-30T12:37:21Z</time>
      </trkpt>
      <trkpt lat="43.74186" lon="6.90095">
        <ele>1100.615</ele>
        <time>2016-01-30T12:37:25Z</time>
      </trkpt>
      <trkpt lat="43.74186" lon="6.90091">
        <ele>1100.679</ele>
        <time>2016-01-30T12:37:28Z</time>
      </trkpt>
      <trkpt lat="43.74186" lon="6.90091">
        <ele>1100.606</ele>
        <time>2016-01-30T12:37:30Z</time>
      </trkpt>
      <trkpt lat="43.74182" lon="6.90089">
        <ele>1099.922</ele>
        <time>2016-01-30T12:37:38Z</time>
      </trkpt>
      <trkpt lat="43.74179" lon="6.90092">
        <ele>1093.719</ele>
        <time>2016-01-30T12:37:56Z</time>
      </trkpt>
      <trkpt lat="43.74176" lon="6.90091">
        <ele>1092.569</ele>
        <time>2016-01-30T12:38:01Z</time>
      </trkpt>
      <trkpt lat="43.74174" lon="6.9011">
        <ele>1091.988</ele>
        <time>2016-01-30T12:38:07Z</time>
      </trkpt>
      <trkpt lat="43.74171" lon="6.90135">
        <ele>1094.947</ele>
        <time>2016-01-30T12:38:12Z</time>
      </trkpt>
      <trkpt lat="43.74165" lon="6.9015">
        <ele>1097.176</ele>
        <time>2016-01-30T12:38:16Z</time>
      </trkpt>
      <trkpt lat="43.7416" lon="6.90167">
        <ele>1096.875</ele>
        <time>2016-01-30T12:38:20Z</time>
      </trkpt>
      <trkpt lat="43.7414" lon="6.90204">
        <ele>1097.824</ele>
        <time>2016-01-30T12:38:27Z</time>
      </trkpt>
      <trkpt lat="43.74134" lon="6.90212">
        <ele>1098.693</ele>
        <time>2016-01-30T12:38:30Z</time>
      </trkpt>
      <trkpt lat="43.74123" lon="6.90223">
        <ele>1100.223</ele>
        <time>2016-01-30T12:38:37Z</time>
      </trkpt>
      <trkpt lat="43.74112" lon="6.90216">
        <ele>1101.345</ele>
        <time>2016-01-30T12:38:44Z</time>
      </trkpt>
      <trkpt lat="43.74098" lon="6.90206">
        <ele>1102.606</ele>
        <time>2016-01-30T12:38:52Z</time>
      </trkpt>
      <trkpt lat="43.74085" lon="6.90196">
        <ele>1106.099</ele>
        <time>2016-01-30T12:39:01Z</time>
      </trkpt>
      <trkpt lat="43.74071" lon="6.90187">
        <ele>1108.076</ele>
        <time>2016-01-30T12:39:09Z</time>
      </trkpt>
      <trkpt lat="43.74061" lon="6.90178">
        <ele>1110.138</ele>
        <time>2016-01-30T12:39:16Z</time>
      </trkpt>
      <trkpt lat="43.7405" lon="6.90169">
        <ele>1111.656</ele>
        <time>2016-01-30T12:39:23Z</time>
      </trkpt>
      <trkpt lat="43.74039" lon="6.9016">
        <ele>1113.276</ele>
        <time>2016-01-30T12:39:30Z</time>
      </trkpt>
      <trkpt lat="43.74027" lon="6.90148">
        <ele>1114.506</ele>
        <time>2016-01-30T12:39:39Z</time>
      </trkpt>
      <trkpt lat="43.74012" lon="6.90138">
        <ele>1117.519</ele>
        <time>2016-01-30T12:39:48Z</time>
      </trkpt>
      <trkpt lat="43.74002" lon="6.90131">
        <ele>1121.02</ele>
        <time>2016-01-30T12:39:55Z</time>
      </trkpt>
      <trkpt lat="43.73991" lon="6.90125">
        <ele>1122.769</ele>
        <time>2016-01-30T12:40:02Z</time>
      </trkpt>
      <trkpt lat="43.73976" lon="6.90118">
        <ele>1123.817</ele>
        <time>2016-01-30T12:40:11Z</time>
      </trkpt>
      <trkpt lat="43.73956" lon="6.90116">
        <ele>1124.538</ele>
        <time>2016-01-30T12:40:22Z</time>
      </trkpt>
      <trkpt lat="43.73945" lon="6.90118">
        <ele>1124.665</ele>
        <time>2016-01-30T12:40:29Z</time>
      </trkpt>
      <trkpt lat="43.73933" lon="6.90119">
        <ele>1125.125</ele>
        <time>2016-01-30T12:40:37Z</time>
      </trkpt>
      <trkpt lat="43.7392" lon="6.90122">
        <ele>1124.786</ele>
        <time>2016-01-30T12:40:44Z</time>
      </trkpt>
      <trkpt lat="43.73908" lon="6.90125">
        <ele>1127.325</ele>
        <time>2016-01-30T12:40:51Z</time>
      </trkpt>
      <trkpt lat="43.73894" lon="6.90129">
        <ele>1131.375</ele>
        <time>2016-01-30T12:40:59Z</time>
      </trkpt>
      <trkpt lat="43.73882" lon="6.90131">
        <ele>1132.096</ele>
        <time>2016-01-30T12:41:04Z</time>
      </trkpt>
      <trkpt lat="43.73866" lon="6.90133">
        <ele>1131.343</ele>
        <time>2016-01-30T12:41:10Z</time>
      </trkpt>
      <trkpt lat="43.73842" lon="6.90137">
        <ele>1130.382</ele>
        <time>2016-01-30T12:41:19Z</time>
      </trkpt>
      <trkpt lat="43.73814" lon="6.90137">
        <ele>1130.15</ele>
        <time>2016-01-30T12:41:30Z</time>
      </trkpt>
      <trkpt lat="43.73795" lon="6.90139">
        <ele>1129.178</ele>
        <time>2016-01-30T12:41:38Z</time>
      </trkpt>
      <trkpt lat="43.73778" lon="6.90141">
        <ele>1128.476</ele>
        <time>2016-01-30T12:41:45Z</time>
      </trkpt>
      <trkpt lat="43.73756" lon="6.90144">
        <ele>1127.803</ele>
        <time>2016-01-30T12:41:54Z</time>
      </trkpt>
      <trkpt lat="43.73732" lon="6.90149">
        <ele>1127.96</ele>
        <time>2016-01-30T12:42:04Z</time>
      </trkpt>
      <trkpt lat="43.7371" lon="6.90151">
        <ele>1129.47</ele>
        <time>2016-01-30T12:42:13Z</time>
      </trkpt>
      <trkpt lat="43.73693" lon="6.90147">
        <ele>1130.118</ele>
        <time>2016-01-30T12:42:20Z</time>
      </trkpt>
      <trkpt lat="43.73677" lon="6.90138">
        <ele>1132.203</ele>
        <time>2016-01-30T12:42:27Z</time>
      </trkpt>
      <trkpt lat="43.73664" lon="6.90135">
        <ele>1132.976</ele>
        <time>2016-01-30T12:42:33Z</time>
      </trkpt>
      <trkpt lat="43.73646" lon="6.9014">
        <ele>1130.883</ele>
        <time>2016-01-30T12:42:40Z</time>
      </trkpt>
      <trkpt lat="43.73627" lon="6.90147">
        <ele>1128.876</ele>
        <time>2016-01-30T12:42:44Z</time>
      </trkpt>
      <trkpt lat="43.73602" lon="6.90155">
        <ele>1126.541</ele>
        <time>2016-01-30T12:42:48Z</time>
      </trkpt>
      <trkpt lat="43.73566" lon="6.90151">
        <ele>1124.776</ele>
        <time>2016-01-30T12:42:53Z</time>
      </trkpt>
      <trkpt lat="43.7354" lon="6.90155">
        <ele>1124.471</ele>
        <time>2016-01-30T12:42:58Z</time>
      </trkpt>
      <trkpt lat="43.73525" lon="6.90157">
        <ele>1125.882</ele>
        <time>2016-01-30T12:43:03Z</time>
      </trkpt>
      <trkpt lat="43.73503" lon="6.90164">
        <ele>1128.474</ele>
        <time>2016-01-30T12:43:11Z</time>
      </trkpt>
      <trkpt lat="43.73492" lon="6.90173">
        <ele>1130.59</ele>
        <time>2016-01-30T12:43:17Z</time>
      </trkpt>
      <trkpt lat="43.73477" lon="6.90186">
        <ele>1132.234</ele>
        <time>2016-01-30T12:43:25Z</time>
      </trkpt>
      <trkpt lat="43.73461" lon="6.90195">
        <ele>1133.391</ele>
        <time>2016-01-30T12:43:33Z</time>
      </trkpt>
      <trkpt lat="43.73449" lon="6.90191">
        <ele>1135.354</ele>
        <time>2016-01-30T12:43:39Z</time>
      </trkpt>
      <trkpt lat="43.73439" lon="6.90185">
        <ele>1136.706</ele>
        <time>2016-01-30T12:43:44Z</time>
      </trkpt>
      <trkpt lat="43.73427" lon="6.90178">
        <ele>1138.968</ele>
        <time>2016-01-30T12:43:51Z</time>
      </trkpt>
      <trkpt lat="43.7341" lon="6.90172">
        <ele>1139.209</ele>
        <time>2016-01-30T12:43:59Z</time>
      </trkpt>
      <trkpt lat="43.73395" lon="6.90187">
        <ele>1137.197</ele>
        <time>2016-01-30T12:44:03Z</time>
      </trkpt>
      <trkpt lat="43.73393" lon="6.90192">
        <ele>1137.13</ele>
        <time>2016-01-30T12:44:04Z</time>
      </trkpt>
      <trkpt lat="43.73386" lon="6.90211">
        <ele>1135.666</ele>
        <time>2016-01-30T12:44:07Z</time>
      </trkpt>
      <trkpt lat="43.73373" lon="6.90234">
        <ele>1134.108</ele>
        <time>2016-01-30T12:44:13Z</time>
      </trkpt>
      <trkpt lat="43.73354" lon="6.90253">
        <ele>1131.699</ele>
        <time>2016-01-30T12:44:20Z</time>
      </trkpt>
      <trkpt lat="43.73345" lon="6.90259">
        <ele>1131.338</ele>
        <time>2016-01-30T12:44:22Z</time>
      </trkpt>
      <trkpt lat="43.73305" lon="6.90275">
        <ele>1130.075</ele>
        <time>2016-01-30T12:44:29Z</time>
      </trkpt>
      <trkpt lat="43.73269" lon="6.90289">
        <ele>1130.625</ele>
        <time>2016-01-30T12:44:36Z</time>
      </trkpt>
      <trkpt lat="43.73251" lon="6.90294">
        <ele>1132.233</ele>
        <time>2016-01-30T12:44:40Z</time>
      </trkpt>
      <trkpt lat="43.73224" lon="6.90304">
        <ele>1135.188</ele>
        <time>2016-01-30T12:44:47Z</time>
      </trkpt>
      <trkpt lat="43.7319" lon="6.90319">
        <ele>1135.294</ele>
        <time>2016-01-30T12:44:55Z</time>
      </trkpt>
      <trkpt lat="43.73166" lon="6.90333">
        <ele>1135.287</ele>
        <time>2016-01-30T12:45:01Z</time>
      </trkpt>
      <trkpt lat="43.7315" lon="6.90341">
        <ele>1134.537</ele>
        <time>2016-01-30T12:45:05Z</time>
      </trkpt>
      <trkpt lat="43.73121" lon="6.90337">
        <ele>1133.051</ele>
        <time>2016-01-30T12:45:10Z</time>
      </trkpt>
      <trkpt lat="43.73087" lon="6.90332">
        <ele>1131.891</ele>
        <time>2016-01-30T12:45:14Z</time>
      </trkpt>
      <trkpt lat="43.73053" lon="6.90334">
        <ele>1128.441</ele>
        <time>2016-01-30T12:45:18Z</time>
      </trkpt>
      <trkpt lat="43.7302" lon="6.90345">
        <ele>1126.24</ele>
        <time>2016-01-30T12:45:23Z</time>
      </trkpt>
      <trkpt lat="43.72994" lon="6.90355">
        <ele>1124.603</ele>
        <time>2016-01-30T12:45:28Z</time>
      </trkpt>
      <trkpt lat="43.72957" lon="6.90368">
        <ele>1125.114</ele>
        <time>2016-01-30T12:45:36Z</time>
      </trkpt>
      <trkpt lat="43.72927" lon="6.90378">
        <ele>1127.145</ele>
        <time>2016-01-30T12:45:43Z</time>
      </trkpt>
      <trkpt lat="43.729" lon="6.90387">
        <ele>1128.415</ele>
        <time>2016-01-30T12:45:50Z</time>
      </trkpt>
      <trkpt lat="43.7288" lon="6.90402">
        <ele>1128.698</ele>
        <time>2016-01-30T12:45:56Z</time>
      </trkpt>
      <trkpt lat="43.7287" lon="6.90418">
        <ele>1127.661</ele>
        <time>2016-01-30T12:46:01Z</time>
      </trkpt>
      <trkpt lat="43.72855" lon="6.90442">
        <ele>1128.646</ele>
        <time>2016-01-30T12:46:09Z</time>
      </trkpt>
      <trkpt lat="43.7284" lon="6.90462">
        <ele>1130.63</ele>
        <time>2016-01-30T12:46:16Z</time>
      </trkpt>
      <trkpt lat="43.72828" lon="6.90473">
        <ele>1131.005</ele>
        <time>2016-01-30T12:46:22Z</time>
      </trkpt>
      <trkpt lat="43.72815" lon="6.90478">
        <ele>1129.432</ele>
        <time>2016-01-30T12:46:28Z</time>
      </trkpt>
      <trkpt lat="43.72788" lon="6.90493">
        <ele>1128.903</ele>
        <time>2016-01-30T12:46:39Z</time>
      </trkpt>
      <trkpt lat="43.72766" lon="6.90503">
        <ele>1130.095</ele>
        <time>2016-01-30T12:46:45Z</time>
      </trkpt>
      <trkpt lat="43.72748" lon="6.90509">
        <ele>1133.555</ele>
        <time>2016-01-30T12:46:51Z</time>
      </trkpt>
      <trkpt lat="43.72734" lon="6.90516">
        <ele>1136.693</ele>
        <time>2016-01-30T12:46:56Z</time>
      </trkpt>
      <trkpt lat="43.72719" lon="6.90528">
        <ele>1136.809</ele>
        <time>2016-01-30T12:47:02Z</time>
      </trkpt>
      <trkpt lat="43.72707" lon="6.90536">
        <ele>1141.217</ele>
        <time>2016-01-30T12:47:07Z</time>
      </trkpt>
      <trkpt lat="43.72691" lon="6.90544">
        <ele>1146.397</ele>
        <time>2016-01-30T12:47:14Z</time>
      </trkpt>
      <trkpt lat="43.72675" lon="6.90547">
        <ele>1149.865</ele>
        <time>2016-01-30T12:47:20Z</time>
      </trkpt>
      <trkpt lat="43.72659" lon="6.90542">
        <ele>1154.03</ele>
        <time>2016-01-30T12:47:26Z</time>
      </trkpt>
      <trkpt lat="43.72645" lon="6.90534">
        <ele>1158.427</ele>
        <time>2016-01-30T12:47:33Z</time>
      </trkpt>
      <trkpt lat="43.72628" lon="6.90527">
        <ele>1160.88</ele>
        <time>2016-01-30T12:47:40Z</time>
      </trkpt>
      <trkpt lat="43.7261" lon="6.90521">
        <ele>1160.37</ele>
        <time>2016-01-30T12:47:47Z</time>
      </trkpt>
      <trkpt lat="43.72591" lon="6.90514">
        <ele>1156.374</ele>
        <time>2016-01-30T12:47:54Z</time>
      </trkpt>
      <trkpt lat="43.72575" lon="6.90508">
        <ele>1154.036</ele>
        <time>2016-01-30T12:48:00Z</time>
      </trkpt>
      <trkpt lat="43.72562" lon="6.90502">
        <ele>1151.51</ele>
        <time>2016-01-30T12:48:05Z</time>
      </trkpt>
      <trkpt lat="43.72544" lon="6.90496">
        <ele>1150.334</ele>
        <time>2016-01-30T12:48:12Z</time>
      </trkpt>
      <trkpt lat="43.72529" lon="6.90493">
        <ele>1148.862</ele>
        <time>2016-01-30T12:48:18Z</time>
      </trkpt>
      <trkpt lat="43.72512" lon="6.90491">
        <ele>1146.611</ele>
        <time>2016-01-30T12:48:24Z</time>
      </trkpt>
      <trkpt lat="43.72492" lon="6.90493">
        <ele>1144.141</ele>
        <time>2016-01-30T12:48:32Z</time>
      </trkpt>
      <trkpt lat="43.72478" lon="6.90499">
        <ele>1141.995</ele>
        <time>2016-01-30T12:48:38Z</time>
      </trkpt>
      <trkpt lat="43.72461" lon="6.90504">
        <ele>1140.655</ele>
        <time>2016-01-30T12:48:43Z</time>
      </trkpt>
      <trkpt lat="43.72437" lon="6.90499">
        <ele>1138.066</ele>
        <time>2016-01-30T12:48:49Z</time>
      </trkpt>
      <trkpt lat="43.72424" lon="6.90493">
        <ele>1137.026</ele>
        <time>2016-01-30T12:48:52Z</time>
      </trkpt>
      <trkpt lat="43.72416" lon="6.90487">
        <ele>1136.314</ele>
        <time>2016-01-30T12:48:54Z</time>
      </trkpt>
      <trkpt lat="43.72397" lon="6.90483">
        <ele>1135.305</ele>
        <time>2016-01-30T12:48:58Z</time>
      </trkpt>
      <trkpt lat="43.72379" lon="6.90474">
        <ele>1134.206</ele>
        <time>2016-01-30T12:49:02Z</time>
      </trkpt>
      <trkpt lat="43.72347" lon="6.90463">
        <ele>1132.327</ele>
        <time>2016-01-30T12:49:09Z</time>
      </trkpt>
      <trkpt lat="43.72322" lon="6.90461">
        <ele>1132.088</ele>
        <time>2016-01-30T12:49:15Z</time>
      </trkpt>
      <trkpt lat="43.72299" lon="6.90454">
        <ele>1131.897</ele>
        <time>2016-01-30T12:49:22Z</time>
      </trkpt>
      <trkpt lat="43.72285" lon="6.9045">
        <ele>1132.166</ele>
        <time>2016-01-30T12:49:27Z</time>
      </trkpt>
      <trkpt lat="43.7227" lon="6.90444">
        <ele>1132.68</ele>
        <time>2016-01-30T12:49:33Z</time>
      </trkpt>
      <trkpt lat="43.72258" lon="6.90445">
        <ele>1133.539</ele>
        <time>2016-01-30T12:49:38Z</time>
      </trkpt>
      <trkpt lat="43.72241" lon="6.90443">
        <ele>1134.275</ele>
        <time>2016-01-30T12:49:46Z</time>
      </trkpt>
      <trkpt lat="43.72226" lon="6.90441">
        <ele>1134.454</ele>
        <time>2016-01-30T12:49:52Z</time>
      </trkpt>
      <trkpt lat="43.72208" lon="6.90439">
        <ele>1135.126</ele>
        <time>2016-01-30T12:50:00Z</time>
      </trkpt>
      <trkpt lat="43.72195" lon="6.9044">
        <ele>1135.627</ele>
        <time>2016-01-30T12:50:07Z</time>
      </trkpt>
      <trkpt lat="43.72183" lon="6.90436">
        <ele>1136.695</ele>
        <time>2016-01-30T12:50:13Z</time>
      </trkpt>
      <trkpt lat="43.72173" lon="6.90428">
        <ele>1137.739</ele>
        <time>2016-01-30T12:50:19Z</time>
      </trkpt>
      <trkpt lat="43.72166" lon="6.90421">
        <ele>1138.497</ele>
        <time>2016-01-30T12:50:23Z</time>
      </trkpt>
      <trkpt lat="43.72161" lon="6.9042">
        <ele>1138.039</ele>
        <time>2016-01-30T12:50:29Z</time>
      </trkpt>
      <trkpt lat="43.72162" lon="6.9042">
        <ele>1136.581</ele>
        <time>2016-01-30T12:52:55Z</time>
      </trkpt>
      <trkpt lat="43.72157" lon="6.90415">
        <ele>1137.074</ele>
        <time>2016-01-30T12:52:59Z</time>
      </trkpt>
      <trkpt lat="43.72139" lon="6.90406">
        <ele>1137.322</ele>
        <time>2016-01-30T12:53:07Z</time>
      </trkpt>
      <trkpt lat="43.72124" lon="6.90397">
        <ele>1138.296</ele>
        <time>2016-01-30T12:53:15Z</time>
      </trkpt>
      <trkpt lat="43.72109" lon="6.90388">
        <ele>1139.671</ele>
        <time>2016-01-30T12:53:23Z</time>
      </trkpt>
      <trkpt lat="43.72098" lon="6.90379">
        <ele>1140.446</ele>
        <time>2016-01-30T12:53:30Z</time>
      </trkpt>
      <trkpt lat="43.72087" lon="6.90368">
        <ele>1142.078</ele>
        <time>2016-01-30T12:53:38Z</time>
      </trkpt>
      <trkpt lat="43.72079" lon="6.90363">
        <ele>1143.246</ele>
        <time>2016-01-30T12:53:44Z</time>
      </trkpt>
      <trkpt lat="43.72071" lon="6.90359">
        <ele>1144.122</ele>
        <time>2016-01-30T12:53:51Z</time>
      </trkpt>
      <trkpt lat="43.72066" lon="6.9036">
        <ele>1143.759</ele>
        <time>2016-01-30T12:53:55Z</time>
      </trkpt>
      <trkpt lat="43.72058" lon="6.90356">
        <ele>1144.945</ele>
        <time>2016-01-30T12:54:02Z</time>
      </trkpt>
      <trkpt lat="43.72049" lon="6.90356">
        <ele>1145.449</ele>
        <time>2016-01-30T12:54:09Z</time>
      </trkpt>
      <trkpt lat="43.72048" lon="6.90356">
        <ele>1145.521</ele>
        <time>2016-01-30T12:54:10Z</time>
      </trkpt>
      <trkpt lat="43.72044" lon="6.90352">
        <ele>1146.255</ele>
        <time>2016-01-30T12:54:14Z</time>
      </trkpt>
      <trkpt lat="43.72033" lon="6.90352">
        <ele>1147.568</ele>
        <time>2016-01-30T12:54:23Z</time>
      </trkpt>
      <trkpt lat="43.7203" lon="6.90352">
        <ele>1147.819</ele>
        <time>2016-01-30T12:54:26Z</time>
      </trkpt>
      <trkpt lat="43.72019" lon="6.90353">
        <ele>1148.117</ele>
        <time>2016-01-30T12:54:34Z</time>
      </trkpt>
      <trkpt lat="43.72012" lon="6.90349">
        <ele>1149.423</ele>
        <time>2016-01-30T12:54:40Z</time>
      </trkpt>
      <trkpt lat="43.72006" lon="6.90346">
        <ele>1150.65</ele>
        <time>2016-01-30T12:54:46Z</time>
      </trkpt>
      <trkpt lat="43.71998" lon="6.90334">
        <ele>1152.241</ele>
        <time>2016-01-30T12:54:56Z</time>
      </trkpt>
      <trkpt lat="43.71995" lon="6.9033">
        <ele>1153.009</ele>
        <time>2016-01-30T12:54:59Z</time>
      </trkpt>
      <trkpt lat="43.71986" lon="6.9032">
        <ele>1155.382</ele>
        <time>2016-01-30T12:55:08Z</time>
      </trkpt>
      <trkpt lat="43.7198" lon="6.90315">
        <ele>1156.644</ele>
        <time>2016-01-30T12:55:14Z</time>
      </trkpt>
      <trkpt lat="43.71971" lon="6.90315">
        <ele>1157.505</ele>
        <time>2016-01-30T12:55:20Z</time>
      </trkpt>
      <trkpt lat="43.71962" lon="6.9031">
        <ele>1158.366</ele>
        <time>2016-01-30T12:55:28Z</time>
      </trkpt>
      <trkpt lat="43.71959" lon="6.90308">
        <ele>1159.375</ele>
        <time>2016-01-30T12:55:32Z</time>
      </trkpt>
      <trkpt lat="43.71956" lon="6.90306">
        <ele>1159.604</ele>
        <time>2016-01-30T12:55:34Z</time>
      </trkpt>
      <trkpt lat="43.71944" lon="6.90303">
        <ele>1159.824</ele>
        <time>2016-01-30T12:55:43Z</time>
      </trkpt>
      <trkpt lat="43.71934" lon="6.90301">
        <ele>1159.931</ele>
        <time>2016-01-30T12:55:50Z</time>
      </trkpt>
      <trkpt lat="43.71926" lon="6.90296">
        <ele>1159.966</ele>
        <time>2016-01-30T12:55:56Z</time>
      </trkpt>
      <trkpt lat="43.71919" lon="6.90291">
        <ele>1160.278</ele>
        <time>2016-01-30T12:56:01Z</time>
      </trkpt>
      <trkpt lat="43.71918" lon="6.90287">
        <ele>1160.589</ele>
        <time>2016-01-30T12:56:03Z</time>
      </trkpt>
      <trkpt lat="43.71911" lon="6.90286">
        <ele>1160.581</ele>
        <time>2016-01-30T12:56:08Z</time>
      </trkpt>
      <trkpt lat="43.71908" lon="6.90281">
        <ele>1163.563</ele>
        <time>2016-01-30T12:56:15Z</time>
      </trkpt>
      <trkpt lat="43.71906" lon="6.90274">
        <ele>1166.763</ele>
        <time>2016-01-30T12:56:24Z</time>
      </trkpt>
      <trkpt lat="43.71902" lon="6.90266">
        <ele>1167.488</ele>
        <time>2016-01-30T12:56:31Z</time>
      </trkpt>
      <trkpt lat="43.71899" lon="6.9026">
        <ele>1167.14</ele>
        <time>2016-01-30T12:56:38Z</time>
      </trkpt>
      <trkpt lat="43.71891" lon="6.90249">
        <ele>1167.155</ele>
        <time>2016-01-30T12:56:48Z</time>
      </trkpt>
      <trkpt lat="43.71888" lon="6.90246">
        <ele>1166.138</ele>
        <time>2016-01-30T12:56:55Z</time>
      </trkpt>
      <trkpt lat="43.71885" lon="6.90243">
        <ele>1164.926</ele>
        <time>2016-01-30T12:57:00Z</time>
      </trkpt>
      <trkpt lat="43.71877" lon="6.90235">
        <ele>1163.766</ele>
        <time>2016-01-30T12:57:09Z</time>
      </trkpt>
      <trkpt lat="43.7187" lon="6.90227">
        <ele>1165.395</ele>
        <time>2016-01-30T12:57:18Z</time>
      </trkpt>
      <trkpt lat="43.71862" lon="6.90222">
        <ele>1168.749</ele>
        <time>2016-01-30T12:57:28Z</time>
      </trkpt>
      <trkpt lat="43.71853" lon="6.90216">
        <ele>1169.797</ele>
        <time>2016-01-30T12:57:38Z</time>
      </trkpt>
      <trkpt lat="43.71846" lon="6.90213">
        <ele>1169.295</ele>
        <time>2016-01-30T12:57:46Z</time>
      </trkpt>
      <trkpt lat="43.71839" lon="6.90209">
        <ele>1168.575</ele>
        <time>2016-01-30T12:57:55Z</time>
      </trkpt>
      <trkpt lat="43.71832" lon="6.90205">
        <ele>1169.859</ele>
        <time>2016-01-30T12:58:04Z</time>
      </trkpt>
      <trkpt lat="43.71825" lon="6.902">
        <ele>1172.523</ele>
        <time>2016-01-30T12:58:11Z</time>
      </trkpt>
      <trkpt lat="43.71817" lon="6.90194">
        <ele>1174.114</ele>
        <time>2016-01-30T12:58:20Z</time>
      </trkpt>
      <trkpt lat="43.71815" lon="6.90195">
        <ele>1174.491</ele>
        <time>2016-01-30T12:58:22Z</time>
      </trkpt>
      <trkpt lat="43.71812" lon="6.902">
        <ele>1174.716</ele>
        <time>2016-01-30T12:58:32Z</time>
      </trkpt>
      <trkpt lat="43.71809" lon="6.90199">
        <ele>1176.124</ele>
        <time>2016-01-30T12:58:37Z</time>
      </trkpt>
      <trkpt lat="43.71805" lon="6.90201">
        <ele>1174.334</ele>
        <time>2016-01-30T12:58:43Z</time>
      </trkpt>
      <trkpt lat="43.71797" lon="6.90203">
        <ele>1175.788</ele>
        <time>2016-01-30T12:58:53Z</time>
      </trkpt>
      <trkpt lat="43.71796" lon="6.90203">
        <ele>1176.613</ele>
        <time>2016-01-30T12:58:54Z</time>
      </trkpt>
      <trkpt lat="43.71789" lon="6.90204">
        <ele>1179.094</ele>
        <time>2016-01-30T12:59:04Z</time>
      </trkpt>
      <trkpt lat="43.71783" lon="6.90199">
        <ele>1182.14</ele>
        <time>2016-01-30T12:59:14Z</time>
      </trkpt>
      <trkpt lat="43.71784" lon="6.902">
        <ele>1179.875</ele>
        <time>2016-01-30T12:59:23Z</time>
      </trkpt>
      <trkpt lat="43.71782" lon="6.902">
        <ele>1180.24</ele>
        <time>2016-01-30T12:59:29Z</time>
      </trkpt>
      <trkpt lat="43.71776" lon="6.90192">
        <ele>1181.12</ele>
        <time>2016-01-30T12:59:38Z</time>
      </trkpt>
      <trkpt lat="43.7177" lon="6.90186">
        <ele>1184.245</ele>
        <time>2016-01-30T12:59:45Z</time>
      </trkpt>
      <trkpt lat="43.71764" lon="6.90182">
        <ele>1183.568</ele>
        <time>2016-01-30T12:59:53Z</time>
      </trkpt>
      <trkpt lat="43.7176" lon="6.90181">
        <ele>1184.18</ele>
        <time>2016-01-30T12:59:57Z</time>
      </trkpt>
      <trkpt lat="43.71755" lon="6.90175">
        <ele>1186.694</ele>
        <time>2016-01-30T13:00:05Z</time>
      </trkpt>
      <trkpt lat="43.71753" lon="6.90174">
        <ele>1187.503</ele>
        <time>2016-01-30T13:00:07Z</time>
      </trkpt>
      <trkpt lat="43.71749" lon="6.9017">
        <ele>1189.243</ele>
        <time>2016-01-30T13:00:14Z</time>
      </trkpt>
      <trkpt lat="43.71741" lon="6.90163">
        <ele>1192.774</ele>
        <time>2016-01-30T13:00:24Z</time>
      </trkpt>
      <trkpt lat="43.71736" lon="6.90159">
        <ele>1192.153</ele>
        <time>2016-01-30T13:00:32Z</time>
      </trkpt>
      <trkpt lat="43.71729" lon="6.90153">
        <ele>1194.586</ele>
        <time>2016-01-30T13:00:41Z</time>
      </trkpt>
      <trkpt lat="43.71726" lon="6.90148">
        <ele>1199.618</ele>
        <time>2016-01-30T13:00:47Z</time>
      </trkpt>
      <trkpt lat="43.71726" lon="6.90149">
        <ele>1199.146</ele>
        <time>2016-01-30T13:00:53Z</time>
      </trkpt>
      <trkpt lat="43.71726" lon="6.90149">
        <ele>1200.793</ele>
        <time>2016-01-30T13:01:11Z</time>
      </trkpt>
      <trkpt lat="43.71722" lon="6.90151">
        <ele>1200.204</ele>
        <time>2016-01-30T13:01:15Z</time>
      </trkpt>
      <trkpt lat="43.71718" lon="6.90158">
        <ele>1201.275</ele>
        <time>2016-01-30T13:01:20Z</time>
      </trkpt>
      <trkpt lat="43.71715" lon="6.9016">
        <ele>1201.053</ele>
        <time>2016-01-30T13:01:23Z</time>
      </trkpt>
      <trkpt lat="43.71706" lon="6.90153">
        <ele>1201.333</ele>
        <time>2016-01-30T13:01:33Z</time>
      </trkpt>
      <trkpt lat="43.71694" lon="6.90148">
        <ele>1202.963</ele>
        <time>2016-01-30T13:01:43Z</time>
      </trkpt>
      <trkpt lat="43.71688" lon="6.90146">
        <ele>1206.718</ele>
        <time>2016-01-30T13:01:51Z</time>
      </trkpt>
      <trkpt lat="43.71682" lon="6.90143">
        <ele>1207.429</ele>
        <time>2016-01-30T13:01:58Z</time>
      </trkpt>
      <trkpt lat="43.71677" lon="6.9014">
        <ele>1206.359</ele>
        <time>2016-01-30T13:02:04Z</time>
      </trkpt>
      <trkpt lat="43.71671" lon="6.90136">
        <ele>1206.48</ele>
        <time>2016-01-30T13:02:10Z</time>
      </trkpt>
      <trkpt lat="43.71665" lon="6.90134">
        <ele>1203.401</ele>
        <time>2016-01-30T13:02:17Z</time>
      </trkpt>
      <trkpt lat="43.71663" lon="6.90131">
        <ele>1203.317</ele>
        <time>2016-01-30T13:02:23Z</time>
      </trkpt>
      <trkpt lat="43.71658" lon="6.90131">
        <ele>1205.119</ele>
        <time>2016-01-30T13:02:28Z</time>
      </trkpt>
      <trkpt lat="43.71648" lon="6.90126">
        <ele>1209.229</ele>
        <time>2016-01-30T13:02:37Z</time>
      </trkpt>
      <trkpt lat="43.71642" lon="6.90123">
        <ele>1208.583</ele>
        <time>2016-01-30T13:02:46Z</time>
      </trkpt>
      <trkpt lat="43.71636" lon="6.9012">
        <ele>1207.576</ele>
        <time>2016-01-30T13:02:53Z</time>
      </trkpt>
      <trkpt lat="43.71631" lon="6.90112">
        <ele>1209.703</ele>
        <time>2016-01-30T13:03:01Z</time>
      </trkpt>
      <trkpt lat="43.71629" lon="6.90109">
        <ele>1211.796</ele>
        <time>2016-01-30T13:03:03Z</time>
      </trkpt>
      <trkpt lat="43.7162" lon="6.90107">
        <ele>1211.128</ele>
        <time>2016-01-30T13:03:11Z</time>
      </trkpt>
      <trkpt lat="43.71615" lon="6.90106">
        <ele>1213.674</ele>
        <time>2016-01-30T13:03:18Z</time>
      </trkpt>
      <trkpt lat="43.71613" lon="6.90105">
        <ele>1213.834</ele>
        <time>2016-01-30T13:03:20Z</time>
      </trkpt>
      <trkpt lat="43.71607" lon="6.901">
        <ele>1211.717</ele>
        <time>2016-01-30T13:03:27Z</time>
      </trkpt>
      <trkpt lat="43.71605" lon="6.90098">
        <ele>1211.312</ele>
        <time>2016-01-30T13:03:30Z</time>
      </trkpt>
      <trkpt lat="43.71599" lon="6.90094">
        <ele>1209.508</ele>
        <time>2016-01-30T13:03:39Z</time>
      </trkpt>
      <trkpt lat="43.71595" lon="6.9009">
        <ele>1210.891</ele>
        <time>2016-01-30T13:03:45Z</time>
      </trkpt>
      <trkpt lat="43.7159" lon="6.90085">
        <ele>1212.089</ele>
        <time>2016-01-30T13:03:52Z</time>
      </trkpt>
      <trkpt lat="43.71582" lon="6.90078">
        <ele>1214.323</ele>
        <time>2016-01-30T13:04:02Z</time>
      </trkpt>
      <trkpt lat="43.71574" lon="6.90072">
        <ele>1215.672</ele>
        <time>2016-01-30T13:04:10Z</time>
      </trkpt>
      <trkpt lat="43.71568" lon="6.90072">
        <ele>1214.897</ele>
        <time>2016-01-30T13:04:18Z</time>
      </trkpt>
      <trkpt lat="43.71564" lon="6.9007">
        <ele>1228.15</ele>
        <time>2016-01-30T13:05:23Z</time>
      </trkpt>
      <trkpt lat="43.71557" lon="6.90065">
        <ele>1226.023</ele>
        <time>2016-01-30T13:05:31Z</time>
      </trkpt>
      <trkpt lat="43.71555" lon="6.90061">
        <ele>1225.241</ele>
        <time>2016-01-30T13:05:35Z</time>
      </trkpt>
      <trkpt lat="43.71546" lon="6.9006">
        <ele>1225.163</ele>
        <time>2016-01-30T13:05:44Z</time>
      </trkpt>
      <trkpt lat="43.71542" lon="6.90052">
        <ele>1225.933</ele>
        <time>2016-01-30T13:05:52Z</time>
      </trkpt>
      <trkpt lat="43.71541" lon="6.90049">
        <ele>1225.99</ele>
        <time>2016-01-30T13:05:59Z</time>
      </trkpt>
      <trkpt lat="43.7154" lon="6.90049">
        <ele>1226.022</ele>
        <time>2016-01-30T13:06:08Z</time>
      </trkpt>
      <trkpt lat="43.71538" lon="6.90045">
        <ele>1226.455</ele>
        <time>2016-01-30T13:06:12Z</time>
      </trkpt>
      <trkpt lat="43.71535" lon="6.9004">
        <ele>1226.702</ele>
        <time>2016-01-30T13:06:16Z</time>
      </trkpt>
      <trkpt lat="43.71529" lon="6.90025">
        <ele>1230.178</ele>
        <time>2016-01-30T13:06:26Z</time>
      </trkpt>
      <trkpt lat="43.71526" lon="6.90018">
        <ele>1231.363</ele>
        <time>2016-01-30T13:06:32Z</time>
      </trkpt>
      <trkpt lat="43.7152" lon="6.90009">
        <ele>1231.616</ele>
        <time>2016-01-30T13:06:40Z</time>
      </trkpt>
      <trkpt lat="43.71517" lon="6.90003">
        <ele>1231.102</ele>
        <time>2016-01-30T13:06:47Z</time>
      </trkpt>
      <trkpt lat="43.71514" lon="6.89993">
        <ele>1233.543</ele>
        <time>2016-01-30T13:06:55Z</time>
      </trkpt>
      <trkpt lat="43.71512" lon="6.8999">
        <ele>1233.854</ele>
        <time>2016-01-30T13:06:57Z</time>
      </trkpt>
      <trkpt lat="43.7151" lon="6.89989">
        <ele>1234.223</ele>
        <time>2016-01-30T13:06:59Z</time>
      </trkpt>
      <trkpt lat="43.71505" lon="6.8999">
        <ele>1233.245</ele>
        <time>2016-01-30T13:07:06Z</time>
      </trkpt>
      <trkpt lat="43.71504" lon="6.89989">
        <ele>1233.85</ele>
        <time>2016-01-30T13:07:15Z</time>
      </trkpt>
      <trkpt lat="43.71505" lon="6.8999">
        <ele>1235.309</ele>
        <time>2016-01-30T13:07:31Z</time>
      </trkpt>
      <trkpt lat="43.71505" lon="6.89985">
        <ele>1235.596</ele>
        <time>2016-01-30T13:07:36Z</time>
      </trkpt>
      <trkpt lat="43.71503" lon="6.89981">
        <ele>1235.985</ele>
        <time>2016-01-30T13:07:43Z</time>
      </trkpt>
      <trkpt lat="43.715" lon="6.89976">
        <ele>1235.269</ele>
        <time>2016-01-30T13:07:47Z</time>
      </trkpt>
      <trkpt lat="43.71497" lon="6.89964">
        <ele>1236.852</ele>
        <time>2016-01-30T13:07:56Z</time>
      </trkpt>
      <trkpt lat="43.71495" lon="6.89953">
        <ele>1238.884</ele>
        <time>2016-01-30T13:08:03Z</time>
      </trkpt>
      <trkpt lat="43.71493" lon="6.89941">
        <ele>1241.392</ele>
        <time>2016-01-30T13:08:11Z</time>
      </trkpt>
      <trkpt lat="43.71489" lon="6.89929">
        <ele>1242.726</ele>
        <time>2016-01-30T13:08:20Z</time>
      </trkpt>
      <trkpt lat="43.71488" lon="6.89918">
        <ele>1245.481</ele>
        <time>2016-01-30T13:08:28Z</time>
      </trkpt>
      <trkpt lat="43.71487" lon="6.89909">
        <ele>1247.299</ele>
        <time>2016-01-30T13:08:34Z</time>
      </trkpt>
      <trkpt lat="43.71482" lon="6.89909">
        <ele>1248.705</ele>
        <time>2016-01-30T13:08:41Z</time>
      </trkpt>
      <trkpt lat="43.71475" lon="6.89916">
        <ele>1246.19</ele>
        <time>2016-01-30T13:08:49Z</time>
      </trkpt>
      <trkpt lat="43.71467" lon="6.89923">
        <ele>1246.483</ele>
        <time>2016-01-30T13:09:00Z</time>
      </trkpt>
      <trkpt lat="43.71459" lon="6.89935">
        <ele>1244.198</ele>
        <time>2016-01-30T13:09:10Z</time>
      </trkpt>
      <trkpt lat="43.71452" lon="6.89947">
        <ele>1241.919</ele>
        <time>2016-01-30T13:09:20Z</time>
      </trkpt>
      <trkpt lat="43.71447" lon="6.89954">
        <ele>1243.824</ele>
        <time>2016-01-30T13:09:28Z</time>
      </trkpt>
      <trkpt lat="43.71442" lon="6.89961">
        <ele>1245.558</ele>
        <time>2016-01-30T13:09:36Z</time>
      </trkpt>
      <trkpt lat="43.71437" lon="6.89973">
        <ele>1246.597</ele>
        <time>2016-01-30T13:09:45Z</time>
      </trkpt>
      <trkpt lat="43.71432" lon="6.89979">
        <ele>1248.3</ele>
        <time>2016-01-30T13:09:53Z</time>
      </trkpt>
      <trkpt lat="43.71431" lon="6.8998">
        <ele>1247.434</ele>
        <time>2016-01-30T13:09:54Z</time>
      </trkpt>
      <trkpt lat="43.71427" lon="6.89974">
        <ele>1248.281</ele>
        <time>2016-01-30T13:10:02Z</time>
      </trkpt>
      <trkpt lat="43.71419" lon="6.89971">
        <ele>1250.176</ele>
        <time>2016-01-30T13:10:10Z</time>
      </trkpt>
      <trkpt lat="43.71409" lon="6.89971">
        <ele>1251.698</ele>
        <time>2016-01-30T13:10:19Z</time>
      </trkpt>
      <trkpt lat="43.714" lon="6.89971">
        <ele>1253.639</ele>
        <time>2016-01-30T13:10:28Z</time>
      </trkpt>
      <trkpt lat="43.71394" lon="6.89969">
        <ele>1254.952</ele>
        <time>2016-01-30T13:10:36Z</time>
      </trkpt>
      <trkpt lat="43.71392" lon="6.89965">
        <ele>1255.688</ele>
        <time>2016-01-30T13:10:44Z</time>
      </trkpt>
      <trkpt lat="43.71384" lon="6.89952">
        <ele>1258.113</ele>
        <time>2016-01-30T13:10:52Z</time>
      </trkpt>
      <trkpt lat="43.71378" lon="6.89942">
        <ele>1259.734</ele>
        <time>2016-01-30T13:10:59Z</time>
      </trkpt>
      <trkpt lat="43.7137" lon="6.89931">
        <ele>1261.133</ele>
        <time>2016-01-30T13:11:06Z</time>
      </trkpt>
      <trkpt lat="43.71361" lon="6.89927">
        <ele>1261.516</ele>
        <time>2016-01-30T13:11:13Z</time>
      </trkpt>
      <trkpt lat="43.71352" lon="6.8993">
        <ele>1261.058</ele>
        <time>2016-01-30T13:11:19Z</time>
      </trkpt>
      <trkpt lat="43.71343" lon="6.89934">
        <ele>1260.118</ele>
        <time>2016-01-30T13:11:26Z</time>
      </trkpt>
      <trkpt lat="43.71334" lon="6.89937">
        <ele>1259.161</ele>
        <time>2016-01-30T13:11:31Z</time>
      </trkpt>
      <trkpt lat="43.7133" lon="6.89938">
        <ele>1258.696</ele>
        <time>2016-01-30T13:11:36Z</time>
      </trkpt>
      <trkpt lat="43.71329" lon="6.89938">
        <ele>1257.769</ele>
        <time>2016-01-30T13:11:52Z</time>
      </trkpt>
      <trkpt lat="43.71331" lon="6.89942">
        <ele>1254.021</ele>
        <time>2016-01-30T13:12:45Z</time>
      </trkpt>
      <trkpt lat="43.71333" lon="6.89951">
        <ele>1255.463</ele>
        <time>2016-01-30T13:12:53Z</time>
      </trkpt>
      <trkpt lat="43.71334" lon="6.89956">
        <ele>1257.02</ele>
        <time>2016-01-30T13:12:59Z</time>
      </trkpt>
      <trkpt lat="43.71336" lon="6.89963">
        <ele>1258.454</ele>
        <time>2016-01-30T13:13:05Z</time>
      </trkpt>
      <trkpt lat="43.71331" lon="6.89976">
        <ele>1258.699</ele>
        <time>2016-01-30T13:13:14Z</time>
      </trkpt>
      <trkpt lat="43.71327" lon="6.89982">
        <ele>1258.362</ele>
        <time>2016-01-30T13:13:19Z</time>
      </trkpt>
      <trkpt lat="43.71319" lon="6.89999">
        <ele>1257.885</ele>
        <time>2016-01-30T13:13:25Z</time>
      </trkpt>
      <trkpt lat="43.71311" lon="6.90015">
        <ele>1258.004</ele>
        <time>2016-01-30T13:13:32Z</time>
      </trkpt>
      <trkpt lat="43.71305" lon="6.90029">
        <ele>1258.874</ele>
        <time>2016-01-30T13:13:39Z</time>
      </trkpt>
      <trkpt lat="43.71303" lon="6.90034">
        <ele>1259.674</ele>
        <time>2016-01-30T13:13:44Z</time>
      </trkpt>
      <trkpt lat="43.713" lon="6.90041">
        <ele>1260.76</ele>
        <time>2016-01-30T13:13:50Z</time>
      </trkpt>
      <trkpt lat="43.71299" lon="6.90052">
        <ele>1261.327</ele>
        <time>2016-01-30T13:13:58Z</time>
      </trkpt>
      <trkpt lat="43.71297" lon="6.90056">
        <ele>1261.901</ele>
        <time>2016-01-30T13:14:02Z</time>
      </trkpt>
      <trkpt lat="43.71295" lon="6.90058">
        <ele>1262.29</ele>
        <time>2016-01-30T13:14:05Z</time>
      </trkpt>
      <trkpt lat="43.71287" lon="6.9006">
        <ele>1263.554</ele>
        <time>2016-01-30T13:14:13Z</time>
      </trkpt>
      <trkpt lat="43.71281" lon="6.90065">
        <ele>1264.645</ele>
        <time>2016-01-30T13:14:19Z</time>
      </trkpt>
      <trkpt lat="43.71272" lon="6.90072">
        <ele>1267.494</ele>
        <time>2016-01-30T13:14:28Z</time>
      </trkpt>
      <trkpt lat="43.71265" lon="6.90075">
        <ele>1269.713</ele>
        <time>2016-01-30T13:14:35Z</time>
      </trkpt>
      <trkpt lat="43.71263" lon="6.90076">
        <ele>1270.484</ele>
        <time>2016-01-30T13:14:38Z</time>
      </trkpt>
      <trkpt lat="43.71253" lon="6.9008">
        <ele>1271.569</ele>
        <time>2016-01-30T13:14:48Z</time>
      </trkpt>
      <trkpt lat="43.71247" lon="6.90087">
        <ele>1273.132</ele>
        <time>2016-01-30T13:14:54Z</time>
      </trkpt>
      <trkpt lat="43.71245" lon="6.90097">
        <ele>1275.566</ele>
        <time>2016-01-30T13:15:01Z</time>
      </trkpt>
      <trkpt lat="43.71244" lon="6.90108">
        <ele>1277.664</ele>
        <time>2016-01-30T13:15:09Z</time>
      </trkpt>
      <trkpt lat="43.71244" lon="6.90113">
        <ele>1278.362</ele>
        <time>2016-01-30T13:15:13Z</time>
      </trkpt>
      <trkpt lat="43.71246" lon="6.90124">
        <ele>1276.911</ele>
        <time>2016-01-30T13:15:20Z</time>
      </trkpt>
      <trkpt lat="43.71246" lon="6.90125">
        <ele>1276.695</ele>
        <time>2016-01-30T13:15:21Z</time>
      </trkpt>
      <trkpt lat="43.71238" lon="6.90132">
        <ele>1276.032</ele>
        <time>2016-01-30T13:15:29Z</time>
      </trkpt>
      <trkpt lat="43.71233" lon="6.90136">
        <ele>1277.344</ele>
        <time>2016-01-30T13:15:36Z</time>
      </trkpt>
      <trkpt lat="43.71231" lon="6.90136">
        <ele>1278.137</ele>
        <time>2016-01-30T13:15:38Z</time>
      </trkpt>
      <trkpt lat="43.71228" lon="6.90141">
        <ele>1279.137</ele>
        <time>2016-01-30T13:15:44Z</time>
      </trkpt>
      <trkpt lat="43.71223" lon="6.90149">
        <ele>1281.783</ele>
        <time>2016-01-30T13:15:52Z</time>
      </trkpt>
      <trkpt lat="43.71219" lon="6.90156">
        <ele>1284.017</ele>
        <time>2016-01-30T13:16:00Z</time>
      </trkpt>
      <trkpt lat="43.71216" lon="6.90163">
        <ele>1286</ele>
        <time>2016-01-30T13:16:06Z</time>
      </trkpt>
      <trkpt lat="43.7122" lon="6.90169">
        <ele>1284.282</ele>
        <time>2016-01-30T13:16:10Z</time>
      </trkpt>
      <trkpt lat="43.7123" lon="6.90176">
        <ele>1282.965</ele>
        <time>2016-01-30T13:16:19Z</time>
      </trkpt>
      <trkpt lat="43.71235" lon="6.90184">
        <ele>1284.19</ele>
        <time>2016-01-30T13:16:28Z</time>
      </trkpt>
      <trkpt lat="43.71237" lon="6.90189">
        <ele>1284.606</ele>
        <time>2016-01-30T13:16:33Z</time>
      </trkpt>
      <trkpt lat="43.71239" lon="6.90193">
        <ele>1285.099</ele>
        <time>2016-01-30T13:16:38Z</time>
      </trkpt>
      <trkpt lat="43.71243" lon="6.90197">
        <ele>1286.05</ele>
        <time>2016-01-30T13:16:47Z</time>
      </trkpt>
      <trkpt lat="43.71243" lon="6.90196">
        <ele>1285.202</ele>
        <time>2016-01-30T13:16:56Z</time>
      </trkpt>
      <trkpt lat="43.71245" lon="6.902">
        <ele>1285.603</ele>
        <time>2016-01-30T13:17:02Z</time>
      </trkpt>
      <trkpt lat="43.71245" lon="6.90202">
        <ele>1285.186</ele>
        <time>2016-01-30T13:17:04Z</time>
      </trkpt>
      <trkpt lat="43.71248" lon="6.90213">
        <ele>1286.927</ele>
        <time>2016-01-30T13:17:14Z</time>
      </trkpt>
      <trkpt lat="43.71249" lon="6.90216">
        <ele>1287.56</ele>
        <time>2016-01-30T13:17:17Z</time>
      </trkpt>
      <trkpt lat="43.71253" lon="6.90222">
        <ele>1288.903</ele>
        <time>2016-01-30T13:17:24Z</time>
      </trkpt>
      <trkpt lat="43.71253" lon="6.90228">
        <ele>1290.454</ele>
        <time>2016-01-30T13:17:30Z</time>
      </trkpt>
      <trkpt lat="43.71256" lon="6.90232">
        <ele>1290.583</ele>
        <time>2016-01-30T13:17:33Z</time>
      </trkpt>
      <trkpt lat="43.71262" lon="6.90235">
        <ele>1292.751</ele>
        <time>2016-01-30T13:17:40Z</time>
      </trkpt>
      <trkpt lat="43.71263" lon="6.90239">
        <ele>1293.279</ele>
        <time>2016-01-30T13:17:47Z</time>
      </trkpt>
      <trkpt lat="43.71262" lon="6.90241">
        <ele>1293.771</ele>
        <time>2016-01-30T13:17:49Z</time>
      </trkpt>
      <trkpt lat="43.71262" lon="6.90246">
        <ele>1295.381</ele>
        <time>2016-01-30T13:17:54Z</time>
      </trkpt>
      <trkpt lat="43.71263" lon="6.90249">
        <ele>1295.471</ele>
        <time>2016-01-30T13:17:57Z</time>
      </trkpt>
      <trkpt lat="43.71267" lon="6.90255">
        <ele>1294.098</ele>
        <time>2016-01-30T13:18:04Z</time>
      </trkpt>
      <trkpt lat="43.71268" lon="6.9026">
        <ele>1294.82</ele>
        <time>2016-01-30T13:18:11Z</time>
      </trkpt>
      <trkpt lat="43.71268" lon="6.90263">
        <ele>1295.167</ele>
        <time>2016-01-30T13:18:14Z</time>
      </trkpt>
      <trkpt lat="43.71268" lon="6.9027">
        <ele>1297.019</ele>
        <time>2016-01-30T13:18:21Z</time>
      </trkpt>
      <trkpt lat="43.71267" lon="6.90277">
        <ele>1300.431</ele>
        <time>2016-01-30T13:18:28Z</time>
      </trkpt>
      <trkpt lat="43.71269" lon="6.90284">
        <ele>1301.975</ele>
        <time>2016-01-30T13:18:35Z</time>
      </trkpt>
      <trkpt lat="43.71271" lon="6.9029">
        <ele>1302.955</ele>
        <time>2016-01-30T13:18:41Z</time>
      </trkpt>
      <trkpt lat="43.71272" lon="6.90292">
        <ele>1303.74</ele>
        <time>2016-01-30T13:18:44Z</time>
      </trkpt>
      <trkpt lat="43.71283" lon="6.90294">
        <ele>1304.396</ele>
        <time>2016-01-30T13:18:53Z</time>
      </trkpt>
      <trkpt lat="43.71287" lon="6.90297">
        <ele>1304.459</ele>
        <time>2016-01-30T13:18:59Z</time>
      </trkpt>
      <trkpt lat="43.71284" lon="6.90301">
        <ele>1305.984</ele>
        <time>2016-01-30T13:19:03Z</time>
      </trkpt>
      <trkpt lat="43.71279" lon="6.90311">
        <ele>1307.661</ele>
        <time>2016-01-30T13:19:12Z</time>
      </trkpt>
      <trkpt lat="43.71275" lon="6.90324">
        <ele>1307.947</ele>
        <time>2016-01-30T13:19:21Z</time>
      </trkpt>
      <trkpt lat="43.71277" lon="6.90337">
        <ele>1308.453</ele>
        <time>2016-01-30T13:19:29Z</time>
      </trkpt>
      <trkpt lat="43.71276" lon="6.90338">
        <ele>1309.333</ele>
        <time>2016-01-30T13:19:32Z</time>
      </trkpt>
      <trkpt lat="43.71275" lon="6.9035">
        <ele>1309.375</ele>
        <time>2016-01-30T13:19:39Z</time>
      </trkpt>
      <trkpt lat="43.7128" lon="6.90368">
        <ele>1308.081</ele>
        <time>2016-01-30T13:19:45Z</time>
      </trkpt>
      <trkpt lat="43.71281" lon="6.90382">
        <ele>1306.858</ele>
        <time>2016-01-30T13:19:48Z</time>
      </trkpt>
      <trkpt lat="43.71277" lon="6.90407">
        <ele>1305.686</ele>
        <time>2016-01-30T13:19:53Z</time>
      </trkpt>
      <trkpt lat="43.71275" lon="6.90411">
        <ele>1305.129</ele>
        <time>2016-01-30T13:19:54Z</time>
      </trkpt>
      <trkpt lat="43.71266" lon="6.90436">
        <ele>1303.583</ele>
        <time>2016-01-30T13:19:59Z</time>
      </trkpt>
      <trkpt lat="43.71259" lon="6.90472">
        <ele>1300.155</ele>
        <time>2016-01-30T13:20:04Z</time>
      </trkpt>
      <trkpt lat="43.7126" lon="6.90494">
        <ele>1297.783</ele>
        <time>2016-01-30T13:20:07Z</time>
      </trkpt>
      <trkpt lat="43.71264" lon="6.90527">
        <ele>1293.048</ele>
        <time>2016-01-30T13:20:11Z</time>
      </trkpt>
      <trkpt lat="43.71264" lon="6.90534">
        <ele>1291.858</ele>
        <time>2016-01-30T13:20:12Z</time>
      </trkpt>
      <trkpt lat="43.71264" lon="6.90562">
        <ele>1288.961</ele>
        <time>2016-01-30T13:20:15Z</time>
      </trkpt>
      <trkpt lat="43.71264" lon="6.90611">
        <ele>1284.894</ele>
        <time>2016-01-30T13:20:20Z</time>
      </trkpt>
      <trkpt lat="43.71264" lon="6.90619">
        <ele>1284.442</ele>
        <time>2016-01-30T13:20:21Z</time>
      </trkpt>
      <trkpt lat="43.7127" lon="6.90651">
        <ele>1280.067</ele>
        <time>2016-01-30T13:20:27Z</time>
      </trkpt>
      <trkpt lat="43.71274" lon="6.90663">
        <ele>1277.798</ele>
        <time>2016-01-30T13:20:30Z</time>
      </trkpt>
      <trkpt lat="43.71279" lon="6.90701">
        <ele>1273.581</ele>
        <time>2016-01-30T13:20:35Z</time>
      </trkpt>
      <trkpt lat="43.71279" lon="6.90736">
        <ele>1271.164</ele>
        <time>2016-01-30T13:20:39Z</time>
      </trkpt>
      <trkpt lat="43.71276" lon="6.90754">
        <ele>1270.325</ele>
        <time>2016-01-30T13:20:41Z</time>
      </trkpt>
      <trkpt lat="43.71277" lon="6.90777">
        <ele>1269.452</ele>
        <time>2016-01-30T13:20:44Z</time>
      </trkpt>
      <trkpt lat="43.71272" lon="6.90806">
        <ele>1270.219</ele>
        <time>2016-01-30T13:20:49Z</time>
      </trkpt>
      <trkpt lat="43.71267" lon="6.90833">
        <ele>1270.458</ele>
        <time>2016-01-30T13:20:55Z</time>
      </trkpt>
      <trkpt lat="43.71265" lon="6.90848">
        <ele>1270.036</ele>
        <time>2016-01-30T13:20:58Z</time>
      </trkpt>
      <trkpt lat="43.71269" lon="6.90891">
        <ele>1265.305</ele>
        <time>2016-01-30T13:21:05Z</time>
      </trkpt>
      <trkpt lat="43.71263" lon="6.90919">
        <ele>1263.693</ele>
        <time>2016-01-30T13:21:10Z</time>
      </trkpt>
      <trkpt lat="43.71256" lon="6.90939">
        <ele>1263.475</ele>
        <time>2016-01-30T13:21:15Z</time>
      </trkpt>
      <trkpt lat="43.71251" lon="6.90951">
        <ele>1264.624</ele>
        <time>2016-01-30T13:21:21Z</time>
      </trkpt>
      <trkpt lat="43.71243" lon="6.9096">
        <ele>1266.309</ele>
        <time>2016-01-30T13:21:28Z</time>
      </trkpt>
      <trkpt lat="43.71237" lon="6.90973">
        <ele>1267.955</ele>
        <time>2016-01-30T13:21:35Z</time>
      </trkpt>
      <trkpt lat="43.71232" lon="6.90987">
        <ele>1269.881</ele>
        <time>2016-01-30T13:21:42Z</time>
      </trkpt>
      <trkpt lat="43.71229" lon="6.90993">
        <ele>1270.56</ele>
        <time>2016-01-30T13:21:45Z</time>
      </trkpt>
      <trkpt lat="43.71228" lon="6.91006">
        <ele>1271.508</ele>
        <time>2016-01-30T13:21:51Z</time>
      </trkpt>
      <trkpt lat="43.71223" lon="6.91024">
        <ele>1272.646</ele>
        <time>2016-01-30T13:21:59Z</time>
      </trkpt>
      <trkpt lat="43.71223" lon="6.91044">
        <ele>1271.945</ele>
        <time>2016-01-30T13:22:05Z</time>
      </trkpt>
      <trkpt lat="43.7122" lon="6.91075">
        <ele>1271.451</ele>
        <time>2016-01-30T13:22:13Z</time>
      </trkpt>
      <trkpt lat="43.71217" lon="6.91099">
        <ele>1270.836</ele>
        <time>2016-01-30T13:22:19Z</time>
      </trkpt>
      <trkpt lat="43.71217" lon="6.91121">
        <ele>1270.585</ele>
        <time>2016-01-30T13:22:24Z</time>
      </trkpt>
      <trkpt lat="43.71214" lon="6.91139">
        <ele>1269.336</ele>
        <time>2016-01-30T13:22:27Z</time>
      </trkpt>
      <trkpt lat="43.71211" lon="6.91174">
        <ele>1268.358</ele>
        <time>2016-01-30T13:22:33Z</time>
      </trkpt>
      <trkpt lat="43.71217" lon="6.91203">
        <ele>1268.802</ele>
        <time>2016-01-30T13:22:40Z</time>
      </trkpt>
      <trkpt lat="43.71218" lon="6.9124">
        <ele>1267.904</ele>
        <time>2016-01-30T13:22:46Z</time>
      </trkpt>
      <trkpt lat="43.71219" lon="6.91272">
        <ele>1266.445</ele>
        <time>2016-01-30T13:22:50Z</time>
      </trkpt>
      <trkpt lat="43.71216" lon="6.91307">
        <ele>1265.363</ele>
        <time>2016-01-30T13:22:55Z</time>
      </trkpt>
      <trkpt lat="43.71209" lon="6.91334">
        <ele>1264.249</ele>
        <time>2016-01-30T13:22:59Z</time>
      </trkpt>
      <trkpt lat="43.71208" lon="6.91341">
        <ele>1264.019</ele>
        <time>2016-01-30T13:23:00Z</time>
      </trkpt>
      <trkpt lat="43.71209" lon="6.91383">
        <ele>1263.344</ele>
        <time>2016-01-30T13:23:06Z</time>
      </trkpt>
      <trkpt lat="43.71209" lon="6.91389">
        <ele>1263.326</ele>
        <time>2016-01-30T13:23:07Z</time>
      </trkpt>
      <trkpt lat="43.71205" lon="6.91413">
        <ele>1263.168</ele>
        <time>2016-01-30T13:23:11Z</time>
      </trkpt>
      <trkpt lat="43.71204" lon="6.9143">
        <ele>1263.029</ele>
        <time>2016-01-30T13:23:14Z</time>
      </trkpt>
      <trkpt lat="43.71207" lon="6.91462">
        <ele>1262.426</ele>
        <time>2016-01-30T13:23:19Z</time>
      </trkpt>
      <trkpt lat="43.71204" lon="6.91493">
        <ele>1261.895</ele>
        <time>2016-01-30T13:23:24Z</time>
      </trkpt>
      <trkpt lat="43.71211" lon="6.91565">
        <ele>1259.541</ele>
        <time>2016-01-30T13:23:34Z</time>
      </trkpt>
      <trkpt lat="43.71209" lon="6.91589">
        <ele>1259.228</ele>
        <time>2016-01-30T13:23:38Z</time>
      </trkpt>
      <trkpt lat="43.71204" lon="6.91628">
        <ele>1257.876</ele>
        <time>2016-01-30T13:23:44Z</time>
      </trkpt>
      <trkpt lat="43.71198" lon="6.91656">
        <ele>1257.528</ele>
        <time>2016-01-30T13:23:49Z</time>
      </trkpt>
      <trkpt lat="43.71195" lon="6.91686">
        <ele>1257.701</ele>
        <time>2016-01-30T13:23:55Z</time>
      </trkpt>
      <trkpt lat="43.71195" lon="6.91726">
        <ele>1257.418</ele>
        <time>2016-01-30T13:24:03Z</time>
      </trkpt>
      <trkpt lat="43.71196" lon="6.91758">
        <ele>1256.416</ele>
        <time>2016-01-30T13:24:09Z</time>
      </trkpt>
      <trkpt lat="43.71194" lon="6.91784">
        <ele>1256.46</ele>
        <time>2016-01-30T13:24:14Z</time>
      </trkpt>
      <trkpt lat="43.71196" lon="6.91794">
        <ele>1257.427</ele>
        <time>2016-01-30T13:24:18Z</time>
      </trkpt>
      <trkpt lat="43.71199" lon="6.91804">
        <ele>1258.859</ele>
        <time>2016-01-30T13:24:23Z</time>
      </trkpt>
      <trkpt lat="43.712" lon="6.91807">
        <ele>1259.834</ele>
        <time>2016-01-30T13:24:25Z</time>
      </trkpt>
      <trkpt lat="43.71205" lon="6.91815">
        <ele>1260.547</ele>
        <time>2016-01-30T13:24:31Z</time>
      </trkpt>
      <trkpt lat="43.71207" lon="6.9182">
        <ele>1261.151</ele>
        <time>2016-01-30T13:24:36Z</time>
      </trkpt>
      <trkpt lat="43.71209" lon="6.91823">
        <ele>1262.012</ele>
        <time>2016-01-30T13:24:41Z</time>
      </trkpt>
      <trkpt lat="43.71209" lon="6.91826">
        <ele>1262.112</ele>
        <time>2016-01-30T13:24:45Z</time>
      </trkpt>
      <trkpt lat="43.71209" lon="6.91829">
        <ele>1261.811</ele>
        <time>2016-01-30T13:24:49Z</time>
      </trkpt>
      <trkpt lat="43.71207" lon="6.91839">
        <ele>1261.223</ele>
        <time>2016-01-30T13:24:58Z</time>
      </trkpt>
      <trkpt lat="43.71207" lon="6.91841">
        <ele>1261.126</ele>
        <time>2016-01-30T13:25:06Z</time>
      </trkpt>
      <trkpt lat="43.71209" lon="6.9184">
        <ele>1260.145</ele>
        <time>2016-01-30T13:26:26Z</time>
      </trkpt>
      <trkpt lat="43.71203" lon="6.9185">
        <ele>1260.414</ele>
        <time>2016-01-30T13:26:32Z</time>
      </trkpt>
      <trkpt lat="43.71201" lon="6.91852">
        <ele>1260.504</ele>
        <time>2016-01-30T13:26:33Z</time>
      </trkpt>
      <trkpt lat="43.71196" lon="6.91865">
        <ele>1260.024</ele>
        <time>2016-01-30T13:26:38Z</time>
      </trkpt>
      <trkpt lat="43.71192" lon="6.91879">
        <ele>1260.298</ele>
        <time>2016-01-30T13:26:43Z</time>
      </trkpt>
      <trkpt lat="43.71193" lon="6.91889">
        <ele>1259.507</ele>
        <time>2016-01-30T13:26:46Z</time>
      </trkpt>
      <trkpt lat="43.71203" lon="6.91913">
        <ele>1259.081</ele>
        <time>2016-01-30T13:26:53Z</time>
      </trkpt>
      <trkpt lat="43.71209" lon="6.91934">
        <ele>1259.263</ele>
        <time>2016-01-30T13:26:59Z</time>
      </trkpt>
      <trkpt lat="43.7122" lon="6.91961">
        <ele>1259.646</ele>
        <time>2016-01-30T13:27:06Z</time>
      </trkpt>
      <trkpt lat="43.71219" lon="6.91981">
        <ele>1259.943</ele>
        <time>2016-01-30T13:27:11Z</time>
      </trkpt>
      <trkpt lat="43.71218" lon="6.92005">
        <ele>1260.487</ele>
        <time>2016-01-30T13:27:17Z</time>
      </trkpt>
      <trkpt lat="43.71228" lon="6.92035">
        <ele>1261.186</ele>
        <time>2016-01-30T13:27:25Z</time>
      </trkpt>
      <trkpt lat="43.71232" lon="6.92052">
        <ele>1260.852</ele>
        <time>2016-01-30T13:27:30Z</time>
      </trkpt>
      <trkpt lat="43.71231" lon="6.9208">
        <ele>1261.258</ele>
        <time>2016-01-30T13:27:38Z</time>
      </trkpt>
      <trkpt lat="43.71229" lon="6.92085">
        <ele>1261.398</ele>
        <time>2016-01-30T13:27:40Z</time>
      </trkpt>
      <trkpt lat="43.71229" lon="6.92103">
        <ele>1260.132</ele>
        <time>2016-01-30T13:27:46Z</time>
      </trkpt>
      <trkpt lat="43.71231" lon="6.92117">
        <ele>1260.62</ele>
        <time>2016-01-30T13:27:50Z</time>
      </trkpt>
      <trkpt lat="43.7124" lon="6.92144">
        <ele>1262.907</ele>
        <time>2016-01-30T13:27:59Z</time>
      </trkpt>
      <trkpt lat="43.71246" lon="6.92162">
        <ele>1264.417</ele>
        <time>2016-01-30T13:28:06Z</time>
      </trkpt>
      <trkpt lat="43.71252" lon="6.92177">
        <ele>1266.408</ele>
        <time>2016-01-30T13:28:14Z</time>
      </trkpt>
      <trkpt lat="43.71258" lon="6.92193">
        <ele>1268.467</ele>
        <time>2016-01-30T13:28:24Z</time>
      </trkpt>
      <trkpt lat="43.71263" lon="6.92203">
        <ele>1269.776</ele>
        <time>2016-01-30T13:28:32Z</time>
      </trkpt>
      <trkpt lat="43.71265" lon="6.92208">
        <ele>1270.58</ele>
        <time>2016-01-30T13:28:39Z</time>
      </trkpt>
      <trkpt lat="43.71269" lon="6.92216">
        <ele>1271.611</ele>
        <time>2016-01-30T13:28:49Z</time>
      </trkpt>
      <trkpt lat="43.71272" lon="6.92222">
        <ele>1271.652</ele>
        <time>2016-01-30T13:28:59Z</time>
      </trkpt>
      <trkpt lat="43.71275" lon="6.92233">
        <ele>1272.781</ele>
        <time>2016-01-30T13:29:09Z</time>
      </trkpt>
      <trkpt lat="43.71281" lon="6.92245">
        <ele>1274.514</ele>
        <time>2016-01-30T13:29:19Z</time>
      </trkpt>
      <trkpt lat="43.71287" lon="6.92258">
        <ele>1274.81</ele>
        <time>2016-01-30T13:29:29Z</time>
      </trkpt>
      <trkpt lat="43.71288" lon="6.92262">
        <ele>1275.245</ele>
        <time>2016-01-30T13:29:35Z</time>
      </trkpt>
      <trkpt lat="43.71288" lon="6.92263">
        <ele>1276.04</ele>
        <time>2016-01-30T13:29:42Z</time>
      </trkpt>
      <trkpt lat="43.71289" lon="6.92271">
        <ele>1277.971</ele>
        <time>2016-01-30T13:29:47Z</time>
      </trkpt>
      <trkpt lat="43.71294" lon="6.92285">
        <ele>1279.582</ele>
        <time>2016-01-30T13:29:54Z</time>
      </trkpt>
      <trkpt lat="43.71299" lon="6.92298">
        <ele>1282.041</ele>
        <time>2016-01-30T13:30:01Z</time>
      </trkpt>
      <trkpt lat="43.71306" lon="6.92312">
        <ele>1283.529</ele>
        <time>2016-01-30T13:30:09Z</time>
      </trkpt>
      <trkpt lat="43.71312" lon="6.92324">
        <ele>1285.438</ele>
        <time>2016-01-30T13:30:17Z</time>
      </trkpt>
      <trkpt lat="43.7132" lon="6.92341">
        <ele>1287.446</ele>
        <time>2016-01-30T13:30:28Z</time>
      </trkpt>
      <trkpt lat="43.71325" lon="6.92355">
        <ele>1288.966</ele>
        <time>2016-01-30T13:30:36Z</time>
      </trkpt>
      <trkpt lat="43.7133" lon="6.92367">
        <ele>1289.969</ele>
        <time>2016-01-30T13:30:43Z</time>
      </trkpt>
      <trkpt lat="43.71334" lon="6.92379">
        <ele>1291.258</ele>
        <time>2016-01-30T13:30:50Z</time>
      </trkpt>
      <trkpt lat="43.71338" lon="6.9239">
        <ele>1293.018</ele>
        <time>2016-01-30T13:30:58Z</time>
      </trkpt>
      <trkpt lat="43.71344" lon="6.92403">
        <ele>1294.889</ele>
        <time>2016-01-30T13:31:07Z</time>
      </trkpt>
      <trkpt lat="43.71349" lon="6.92416">
        <ele>1296.677</ele>
        <time>2016-01-30T13:31:16Z</time>
      </trkpt>
      <trkpt lat="43.71355" lon="6.9243">
        <ele>1298.072</ele>
        <time>2016-01-30T13:31:25Z</time>
      </trkpt>
      <trkpt lat="43.71361" lon="6.92442">
        <ele>1298.954</ele>
        <time>2016-01-30T13:31:33Z</time>
      </trkpt>
      <trkpt lat="43.71368" lon="6.92458">
        <ele>1300.452</ele>
        <time>2016-01-30T13:31:43Z</time>
      </trkpt>
      <trkpt lat="43.7137" lon="6.92464">
        <ele>1300.981</ele>
        <time>2016-01-30T13:31:46Z</time>
      </trkpt>
      <trkpt lat="43.71378" lon="6.92482">
        <ele>1301.997</ele>
        <time>2016-01-30T13:31:55Z</time>
      </trkpt>
      <trkpt lat="43.71383" lon="6.925">
        <ele>1302.761</ele>
        <time>2016-01-30T13:32:02Z</time>
      </trkpt>
      <trkpt lat="43.71386" lon="6.92507">
        <ele>1303.723</ele>
        <time>2016-01-30T13:32:08Z</time>
      </trkpt>
      <trkpt lat="43.71388" lon="6.92517">
        <ele>1303.48</ele>
        <time>2016-01-30T13:32:17Z</time>
      </trkpt>
      <trkpt lat="43.71394" lon="6.9253">
        <ele>1301.734</ele>
        <time>2016-01-30T13:32:27Z</time>
      </trkpt>
      <trkpt lat="43.71399" lon="6.92542">
        <ele>1301.098</ele>
        <time>2016-01-30T13:32:36Z</time>
      </trkpt>
      <trkpt lat="43.71405" lon="6.92554">
        <ele>1299.487</ele>
        <time>2016-01-30T13:32:45Z</time>
      </trkpt>
      <trkpt lat="43.71407" lon="6.9256">
        <ele>1299.259</ele>
        <time>2016-01-30T13:32:52Z</time>
      </trkpt>
      <trkpt lat="43.71412" lon="6.92572">
        <ele>1300.718</ele>
        <time>2016-01-30T13:32:58Z</time>
      </trkpt>
      <trkpt lat="43.71421" lon="6.92592">
        <ele>1300.373</ele>
        <time>2016-01-30T13:33:06Z</time>
      </trkpt>
      <trkpt lat="43.7143" lon="6.92613">
        <ele>1300.639</ele>
        <time>2016-01-30T13:33:12Z</time>
      </trkpt>
      <trkpt lat="43.71446" lon="6.92652">
        <ele>1300.524</ele>
        <time>2016-01-30T13:33:20Z</time>
      </trkpt>
      <trkpt lat="43.7146" lon="6.92689">
        <ele>1301.177</ele>
        <time>2016-01-30T13:33:27Z</time>
      </trkpt>
      <trkpt lat="43.71466" lon="6.92703">
        <ele>1302.684</ele>
        <time>2016-01-30T13:33:32Z</time>
      </trkpt>
      <trkpt lat="43.71471" lon="6.92716">
        <ele>1304.245</ele>
        <time>2016-01-30T13:33:37Z</time>
      </trkpt>
      <trkpt lat="43.71479" lon="6.92733">
        <ele>1306.306</ele>
        <time>2016-01-30T13:33:44Z</time>
      </trkpt>
      <trkpt lat="43.71489" lon="6.92758">
        <ele>1308.395</ele>
        <time>2016-01-30T13:33:54Z</time>
      </trkpt>
      <trkpt lat="43.71498" lon="6.92782">
        <ele>1310.311</ele>
        <time>2016-01-30T13:34:05Z</time>
      </trkpt>
      <trkpt lat="43.71503" lon="6.92794">
        <ele>1313.021</ele>
        <time>2016-01-30T13:34:13Z</time>
      </trkpt>
      <trkpt lat="43.71506" lon="6.928">
        <ele>1313.04</ele>
        <time>2016-01-30T13:34:19Z</time>
      </trkpt>
      <trkpt lat="43.71507" lon="6.928">
        <ele>1312.652</ele>
        <time>2016-01-30T13:34:25Z</time>
      </trkpt>
      <trkpt lat="43.71511" lon="6.92813">
        <ele>1312.922</ele>
        <time>2016-01-30T13:34:35Z</time>
      </trkpt>
      <trkpt lat="43.71518" lon="6.92828">
        <ele>1311.388</ele>
        <time>2016-01-30T13:34:46Z</time>
      </trkpt>
      <trkpt lat="43.71523" lon="6.92839">
        <ele>1311.031</ele>
        <time>2016-01-30T13:34:55Z</time>
      </trkpt>
      <trkpt lat="43.71528" lon="6.92851">
        <ele>1310.865</ele>
        <time>2016-01-30T13:35:05Z</time>
      </trkpt>
      <trkpt lat="43.71533" lon="6.92863">
        <ele>1311.547</ele>
        <time>2016-01-30T13:35:15Z</time>
      </trkpt>
      <trkpt lat="43.71538" lon="6.92876">
        <ele>1313.473</ele>
        <time>2016-01-30T13:35:26Z</time>
      </trkpt>
      <trkpt lat="43.71543" lon="6.92889">
        <ele>1314.333</ele>
        <time>2016-01-30T13:35:36Z</time>
      </trkpt>
      <trkpt lat="43.71547" lon="6.92898">
        <ele>1315.32</ele>
        <time>2016-01-30T13:35:45Z</time>
      </trkpt>
      <trkpt lat="43.71548" lon="6.92903">
        <ele>1317.422</ele>
        <time>2016-01-30T13:35:56Z</time>
      </trkpt>
      <trkpt lat="43.71552" lon="6.92915">
        <ele>1319.025</ele>
        <time>2016-01-30T13:36:07Z</time>
      </trkpt>
      <trkpt lat="43.71557" lon="6.92925">
        <ele>1320.497</ele>
        <time>2016-01-30T13:36:17Z</time>
      </trkpt>
      <trkpt lat="43.71559" lon="6.92935">
        <ele>1322.76</ele>
        <time>2016-01-30T13:36:27Z</time>
      </trkpt>
      <trkpt lat="43.7156" lon="6.92945">
        <ele>1324.721</ele>
        <time>2016-01-30T13:36:35Z</time>
      </trkpt>
      <trkpt lat="43.71558" lon="6.92959">
        <ele>1325.344</ele>
        <time>2016-01-30T13:36:44Z</time>
      </trkpt>
      <trkpt lat="43.71557" lon="6.9297">
        <ele>1325.45</ele>
        <time>2016-01-30T13:36:53Z</time>
      </trkpt>
      <trkpt lat="43.71554" lon="6.9298">
        <ele>1325.573</ele>
        <time>2016-01-30T13:36:59Z</time>
      </trkpt>
      <trkpt lat="43.71553" lon="6.92992">
        <ele>1325.122</ele>
        <time>2016-01-30T13:37:07Z</time>
      </trkpt>
      <trkpt lat="43.71552" lon="6.93004">
        <ele>1326.123</ele>
        <time>2016-01-30T13:37:15Z</time>
      </trkpt>
      <trkpt lat="43.71552" lon="6.93005">
        <ele>1326.75</ele>
        <time>2016-01-30T13:37:16Z</time>
      </trkpt>
      <trkpt lat="43.71552" lon="6.93008">
        <ele>1327.327</ele>
        <time>2016-01-30T13:37:24Z</time>
      </trkpt>
      <trkpt lat="43.71552" lon="6.93006">
        <ele>1335.658</ele>
        <time>2016-01-30T13:38:40Z</time>
      </trkpt>
      <trkpt lat="43.71552" lon="6.93007">
        <ele>1335.076</ele>
        <time>2016-01-30T13:38:42Z</time>
      </trkpt>
      <trkpt lat="43.71543" lon="6.93008">
        <ele>1333.46</ele>
        <time>2016-01-30T13:38:46Z</time>
      </trkpt>
      <trkpt lat="43.7153" lon="6.93029">
        <ele>1332.075</ele>
        <time>2016-01-30T13:38:52Z</time>
      </trkpt>
      <trkpt lat="43.71519" lon="6.93037">
        <ele>1328.274</ele>
        <time>2016-01-30T13:38:56Z</time>
      </trkpt>
      <trkpt lat="43.71514" lon="6.93039">
        <ele>1326.963</ele>
        <time>2016-01-30T13:38:57Z</time>
      </trkpt>
      <trkpt lat="43.71498" lon="6.93053">
        <ele>1324.407</ele>
        <time>2016-01-30T13:39:01Z</time>
      </trkpt>
      <trkpt lat="43.71495" lon="6.93058">
        <ele>1323.844</ele>
        <time>2016-01-30T13:39:02Z</time>
      </trkpt>
      <trkpt lat="43.71489" lon="6.9307">
        <ele>1322.933</ele>
        <time>2016-01-30T13:39:04Z</time>
      </trkpt>
      <trkpt lat="43.71473" lon="6.93085">
        <ele>1318.194</ele>
        <time>2016-01-30T13:39:08Z</time>
      </trkpt>
      <trkpt lat="43.71439" lon="6.93094">
        <ele>1308.914</ele>
        <time>2016-01-30T13:39:14Z</time>
      </trkpt>
      <trkpt lat="43.7143" lon="6.93099">
        <ele>1306.628</ele>
        <time>2016-01-30T13:39:16Z</time>
      </trkpt>
      <trkpt lat="43.71419" lon="6.93113">
        <ele>1303.386</ele>
        <time>2016-01-30T13:39:19Z</time>
      </trkpt>
      <trkpt lat="43.7141" lon="6.9313">
        <ele>1299.688</ele>
        <time>2016-01-30T13:39:23Z</time>
      </trkpt>
      <trkpt lat="43.7142" lon="6.93159">
        <ele>1298.676</ele>
        <time>2016-01-30T13:39:29Z</time>
      </trkpt>
      <trkpt lat="43.71437" lon="6.93192">
        <ele>1299.205</ele>
        <time>2016-01-30T13:39:36Z</time>
      </trkpt>
      <trkpt lat="43.71442" lon="6.932">
        <ele>1299.189</ele>
        <time>2016-01-30T13:39:38Z</time>
      </trkpt>
      <trkpt lat="43.71449" lon="6.93208">
        <ele>1299.15</ele>
        <time>2016-01-30T13:39:40Z</time>
      </trkpt>
      <trkpt lat="43.7146" lon="6.9323">
        <ele>1297.203</ele>
        <time>2016-01-30T13:39:44Z</time>
      </trkpt>
      <trkpt lat="43.71475" lon="6.93251">
        <ele>1296.676</ele>
        <time>2016-01-30T13:39:48Z</time>
      </trkpt>
      <trkpt lat="43.71482" lon="6.93259">
        <ele>1296.635</ele>
        <time>2016-01-30T13:39:50Z</time>
      </trkpt>
      <trkpt lat="43.71496" lon="6.93265">
        <ele>1297.756</ele>
        <time>2016-01-30T13:39:54Z</time>
      </trkpt>
      <trkpt lat="43.71502" lon="6.93267">
        <ele>1297.739</ele>
        <time>2016-01-30T13:39:57Z</time>
      </trkpt>
      <trkpt lat="43.71522" lon="6.93279">
        <ele>1296.291</ele>
        <time>2016-01-30T13:40:03Z</time>
      </trkpt>
      <trkpt lat="43.71528" lon="6.93285">
        <ele>1295.569</ele>
        <time>2016-01-30T13:40:05Z</time>
      </trkpt>
      <trkpt lat="43.71538" lon="6.93309">
        <ele>1292.433</ele>
        <time>2016-01-30T13:40:10Z</time>
      </trkpt>
      <trkpt lat="43.71548" lon="6.93308">
        <ele>1291.562</ele>
        <time>2016-01-30T13:40:14Z</time>
      </trkpt>
      <trkpt lat="43.71554" lon="6.93314">
        <ele>1290.482</ele>
        <time>2016-01-30T13:40:17Z</time>
      </trkpt>
      <trkpt lat="43.71571" lon="6.9333">
        <ele>1289.809</ele>
        <time>2016-01-30T13:40:23Z</time>
      </trkpt>
      <trkpt lat="43.71586" lon="6.93355">
        <ele>1290.412</ele>
        <time>2016-01-30T13:40:29Z</time>
      </trkpt>
      <trkpt lat="43.71599" lon="6.93373">
        <ele>1290.14</ele>
        <time>2016-01-30T13:40:34Z</time>
      </trkpt>
      <trkpt lat="43.71611" lon="6.93376">
        <ele>1291.497</ele>
        <time>2016-01-30T13:40:38Z</time>
      </trkpt>
      <trkpt lat="43.7162" lon="6.9338">
        <ele>1293.178</ele>
        <time>2016-01-30T13:40:44Z</time>
      </trkpt>
      <trkpt lat="43.71628" lon="6.93382">
        <ele>1293.9</ele>
        <time>2016-01-30T13:40:49Z</time>
      </trkpt>
      <trkpt lat="43.71637" lon="6.93389">
        <ele>1291.755</ele>
        <time>2016-01-30T13:40:56Z</time>
      </trkpt>
      <trkpt lat="43.71648" lon="6.93398">
        <ele>1289.45</ele>
        <time>2016-01-30T13:41:00Z</time>
      </trkpt>
      <trkpt lat="43.71655" lon="6.93409">
        <ele>1287.226</ele>
        <time>2016-01-30T13:41:04Z</time>
      </trkpt>
      <trkpt lat="43.71656" lon="6.93411">
        <ele>1286.95</ele>
        <time>2016-01-30T13:41:05Z</time>
      </trkpt>
      <trkpt lat="43.71667" lon="6.93422">
        <ele>1283.186</ele>
        <time>2016-01-30T13:41:10Z</time>
      </trkpt>
      <trkpt lat="43.71676" lon="6.93422">
        <ele>1282.501</ele>
        <time>2016-01-30T13:41:14Z</time>
      </trkpt>
      <trkpt lat="43.71687" lon="6.93418">
        <ele>1282.031</ele>
        <time>2016-01-30T13:41:17Z</time>
      </trkpt>
      <trkpt lat="43.71703" lon="6.93413">
        <ele>1279.557</ele>
        <time>2016-01-30T13:41:22Z</time>
      </trkpt>
      <trkpt lat="43.71715" lon="6.93403">
        <ele>1277.384</ele>
        <time>2016-01-30T13:41:26Z</time>
      </trkpt>
      <trkpt lat="43.71727" lon="6.93398">
        <ele>1276.503</ele>
        <time>2016-01-30T13:41:30Z</time>
      </trkpt>
      <trkpt lat="43.71739" lon="6.93391">
        <ele>1275.589</ele>
        <time>2016-01-30T13:41:36Z</time>
      </trkpt>
      <trkpt lat="43.71755" lon="6.93388">
        <ele>1272.889</ele>
        <time>2016-01-30T13:41:41Z</time>
      </trkpt>
      <trkpt lat="43.71765" lon="6.93394">
        <ele>1271.424</ele>
        <time>2016-01-30T13:41:45Z</time>
      </trkpt>
      <trkpt lat="43.71773" lon="6.934">
        <ele>1268.997</ele>
        <time>2016-01-30T13:41:50Z</time>
      </trkpt>
      <trkpt lat="43.71775" lon="6.93401">
        <ele>1268.504</ele>
        <time>2016-01-30T13:41:51Z</time>
      </trkpt>
      <trkpt lat="43.71777" lon="6.9342">
        <ele>1264.86</ele>
        <time>2016-01-30T13:41:56Z</time>
      </trkpt>
      <trkpt lat="43.71774" lon="6.93454">
        <ele>1263.829</ele>
        <time>2016-01-30T13:42:03Z</time>
      </trkpt>
      <trkpt lat="43.71774" lon="6.9347">
        <ele>1266.333</ele>
        <time>2016-01-30T13:42:08Z</time>
      </trkpt>
      <trkpt lat="43.71773" lon="6.93479">
        <ele>1268.149</ele>
        <time>2016-01-30T13:42:11Z</time>
      </trkpt>
      <trkpt lat="43.71765" lon="6.93487">
        <ele>1269.835</ele>
        <time>2016-01-30T13:42:15Z</time>
      </trkpt>
      <trkpt lat="43.71753" lon="6.93496">
        <ele>1272.074</ele>
        <time>2016-01-30T13:42:22Z</time>
      </trkpt>
      <trkpt lat="43.71747" lon="6.9351">
        <ele>1272.979</ele>
        <time>2016-01-30T13:42:27Z</time>
      </trkpt>
      <trkpt lat="43.71738" lon="6.93528">
        <ele>1273.551</ele>
        <time>2016-01-30T13:42:31Z</time>
      </trkpt>
      <trkpt lat="43.71733" lon="6.93558">
        <ele>1267.35</ele>
        <time>2016-01-30T13:42:36Z</time>
      </trkpt>
      <trkpt lat="43.71728" lon="6.93581">
        <ele>1263.268</ele>
        <time>2016-01-30T13:42:41Z</time>
      </trkpt>
      <trkpt lat="43.71729" lon="6.93599">
        <ele>1257.355</ele>
        <time>2016-01-30T13:42:45Z</time>
      </trkpt>
      <trkpt lat="43.71736" lon="6.93607">
        <ele>1256.442</ele>
        <time>2016-01-30T13:42:48Z</time>
      </trkpt>
      <trkpt lat="43.71749" lon="6.93609">
        <ele>1255.464</ele>
        <time>2016-01-30T13:42:52Z</time>
      </trkpt>
      <trkpt lat="43.71757" lon="6.93611">
        <ele>1254.436</ele>
        <time>2016-01-30T13:42:54Z</time>
      </trkpt>
      <trkpt lat="43.71772" lon="6.93606">
        <ele>1252.8</ele>
        <time>2016-01-30T13:42:58Z</time>
      </trkpt>
      <trkpt lat="43.71784" lon="6.93604">
        <ele>1251.045</ele>
        <time>2016-01-30T13:43:04Z</time>
      </trkpt>
      <trkpt lat="43.71796" lon="6.93609">
        <ele>1249.889</ele>
        <time>2016-01-30T13:43:11Z</time>
      </trkpt>
      <trkpt lat="43.71805" lon="6.93626">
        <ele>1250.088</ele>
        <time>2016-01-30T13:43:16Z</time>
      </trkpt>
      <trkpt lat="43.71808" lon="6.9363">
        <ele>1250.035</ele>
        <time>2016-01-30T13:43:17Z</time>
      </trkpt>
      <trkpt lat="43.71819" lon="6.93638">
        <ele>1249.513</ele>
        <time>2016-01-30T13:43:20Z</time>
      </trkpt>
      <trkpt lat="43.71835" lon="6.9365">
        <ele>1249.036</ele>
        <time>2016-01-30T13:43:25Z</time>
      </trkpt>
      <trkpt lat="43.71839" lon="6.93667">
        <ele>1247.703</ele>
        <time>2016-01-30T13:43:29Z</time>
      </trkpt>
      <trkpt lat="43.71845" lon="6.93674">
        <ele>1246.575</ele>
        <time>2016-01-30T13:43:32Z</time>
      </trkpt>
      <trkpt lat="43.71852" lon="6.93687">
        <ele>1246.247</ele>
        <time>2016-01-30T13:43:35Z</time>
      </trkpt>
      <trkpt lat="43.71853" lon="6.93689">
        <ele>1246.331</ele>
        <time>2016-01-30T13:43:36Z</time>
      </trkpt>
      <trkpt lat="43.71867" lon="6.93705">
        <ele>1245.654</ele>
        <time>2016-01-30T13:43:42Z</time>
      </trkpt>
      <trkpt lat="43.71879" lon="6.93718">
        <ele>1245.191</ele>
        <time>2016-01-30T13:43:46Z</time>
      </trkpt>
      <trkpt lat="43.71882" lon="6.9372">
        <ele>1244.947</ele>
        <time>2016-01-30T13:43:49Z</time>
      </trkpt>
      <trkpt lat="43.7189" lon="6.93724">
        <ele>1244.409</ele>
        <time>2016-01-30T13:43:52Z</time>
      </trkpt>
      <trkpt lat="43.71909" lon="6.93719">
        <ele>1245.139</ele>
        <time>2016-01-30T13:43:58Z</time>
      </trkpt>
      <trkpt lat="43.71923" lon="6.93719">
        <ele>1247.897</ele>
        <time>2016-01-30T13:44:04Z</time>
      </trkpt>
      <trkpt lat="43.71936" lon="6.93725">
        <ele>1249.75</ele>
        <time>2016-01-30T13:44:08Z</time>
      </trkpt>
      <trkpt lat="43.7194" lon="6.93728">
        <ele>1250.2</ele>
        <time>2016-01-30T13:44:09Z</time>
      </trkpt>
      <trkpt lat="43.71964" lon="6.93746">
        <ele>1248.189</ele>
        <time>2016-01-30T13:44:13Z</time>
      </trkpt>
      <trkpt lat="43.71985" lon="6.93767">
        <ele>1244.849</ele>
        <time>2016-01-30T13:44:17Z</time>
      </trkpt>
      <trkpt lat="43.71996" lon="6.93793">
        <ele>1239.187</ele>
        <time>2016-01-30T13:44:22Z</time>
      </trkpt>
      <trkpt lat="43.72001" lon="6.93804">
        <ele>1236.076</ele>
        <time>2016-01-30T13:44:25Z</time>
      </trkpt>
      <trkpt lat="43.7201" lon="6.93806">
        <ele>1232.488</ele>
        <time>2016-01-30T13:44:29Z</time>
      </trkpt>
      <trkpt lat="43.72014" lon="6.93804">
        <ele>1232.33</ele>
        <time>2016-01-30T13:44:30Z</time>
      </trkpt>
      <trkpt lat="43.72025" lon="6.93801">
        <ele>1230.74</ele>
        <time>2016-01-30T13:44:33Z</time>
      </trkpt>
      <trkpt lat="43.72043" lon="6.938">
        <ele>1228.682</ele>
        <time>2016-01-30T13:44:37Z</time>
      </trkpt>
      <trkpt lat="43.72065" lon="6.93811">
        <ele>1225.626</ele>
        <time>2016-01-30T13:44:43Z</time>
      </trkpt>
      <trkpt lat="43.72066" lon="6.9383">
        <ele>1222.583</ele>
        <time>2016-01-30T13:44:46Z</time>
      </trkpt>
      <trkpt lat="43.72064" lon="6.93863">
        <ele>1218.578</ele>
        <time>2016-01-30T13:44:50Z</time>
      </trkpt>
      <trkpt lat="43.72071" lon="6.9389">
        <ele>1214.066</ele>
        <time>2016-01-30T13:44:54Z</time>
      </trkpt>
      <trkpt lat="43.72084" lon="6.93908">
        <ele>1210.562</ele>
        <time>2016-01-30T13:44:58Z</time>
      </trkpt>
      <trkpt lat="43.72092" lon="6.93915">
        <ele>1207.743</ele>
        <time>2016-01-30T13:45:01Z</time>
      </trkpt>
      <trkpt lat="43.72111" lon="6.93922">
        <ele>1206.125</ele>
        <time>2016-01-30T13:45:06Z</time>
      </trkpt>
      <trkpt lat="43.72124" lon="6.93942">
        <ele>1203.443</ele>
        <time>2016-01-30T13:45:10Z</time>
      </trkpt>
      <trkpt lat="43.72129" lon="6.93947">
        <ele>1202.823</ele>
        <time>2016-01-30T13:45:11Z</time>
      </trkpt>
      <trkpt lat="43.72143" lon="6.93964">
        <ele>1201.54</ele>
        <time>2016-01-30T13:45:14Z</time>
      </trkpt>
      <trkpt lat="43.72157" lon="6.93991">
        <ele>1199.737</ele>
        <time>2016-01-30T13:45:18Z</time>
      </trkpt>
      <trkpt lat="43.72166" lon="6.93991">
        <ele>1199.155</ele>
        <time>2016-01-30T13:45:20Z</time>
      </trkpt>
      <trkpt lat="43.72173" lon="6.9399">
        <ele>1198.01</ele>
        <time>2016-01-30T13:45:22Z</time>
      </trkpt>
      <trkpt lat="43.72178" lon="6.94003">
        <ele>1197.284</ele>
        <time>2016-01-30T13:45:26Z</time>
      </trkpt>
      <trkpt lat="43.72181" lon="6.94033">
        <ele>1192.558</ele>
        <time>2016-01-30T13:45:31Z</time>
      </trkpt>
      <trkpt lat="43.72182" lon="6.94053">
        <ele>1190.159</ele>
        <time>2016-01-30T13:45:34Z</time>
      </trkpt>
      <trkpt lat="43.72187" lon="6.94079">
        <ele>1190.809</ele>
        <time>2016-01-30T13:45:39Z</time>
      </trkpt>
      <trkpt lat="43.72188" lon="6.94081">
        <ele>1191.032</ele>
        <time>2016-01-30T13:45:40Z</time>
      </trkpt>
      <trkpt lat="43.7219" lon="6.94089">
        <ele>1190.517</ele>
        <time>2016-01-30T13:45:43Z</time>
      </trkpt>
      <trkpt lat="43.72199" lon="6.94101">
        <ele>1188.079</ele>
        <time>2016-01-30T13:45:49Z</time>
      </trkpt>
      <trkpt lat="43.72208" lon="6.94107">
        <ele>1185.715</ele>
        <time>2016-01-30T13:45:53Z</time>
      </trkpt>
      <trkpt lat="43.72214" lon="6.94119">
        <ele>1184.705</ele>
        <time>2016-01-30T13:45:57Z</time>
      </trkpt>
      <trkpt lat="43.72219" lon="6.94144">
        <ele>1185.819</ele>
        <time>2016-01-30T13:46:04Z</time>
      </trkpt>
      <trkpt lat="43.72219" lon="6.94151">
        <ele>1186.92</ele>
        <time>2016-01-30T13:46:10Z</time>
      </trkpt>
      <trkpt lat="43.72221" lon="6.94162">
        <ele>1185.871</ele>
        <time>2016-01-30T13:46:12Z</time>
      </trkpt>
      <trkpt lat="43.7223" lon="6.94188">
        <ele>1184.404</ele>
        <time>2016-01-30T13:46:16Z</time>
      </trkpt>
      <trkpt lat="43.72241" lon="6.94213">
        <ele>1180.5</ele>
        <time>2016-01-30T13:46:21Z</time>
      </trkpt>
      <trkpt lat="43.72242" lon="6.94219">
        <ele>1179.992</ele>
        <time>2016-01-30T13:46:22Z</time>
      </trkpt>
      <trkpt lat="43.72245" lon="6.94246">
        <ele>1177.479</ele>
        <time>2016-01-30T13:46:26Z</time>
      </trkpt>
      <trkpt lat="43.72254" lon="6.94274">
        <ele>1174.344</ele>
        <time>2016-01-30T13:46:30Z</time>
      </trkpt>
      <trkpt lat="43.72269" lon="6.94289">
        <ele>1174.065</ele>
        <time>2016-01-30T13:46:34Z</time>
      </trkpt>
      <trkpt lat="43.72278" lon="6.94299">
        <ele>1175.493</ele>
        <time>2016-01-30T13:46:38Z</time>
      </trkpt>
      <trkpt lat="43.72287" lon="6.94306">
        <ele>1176.307</ele>
        <time>2016-01-30T13:46:42Z</time>
      </trkpt>
      <trkpt lat="43.72292" lon="6.94315">
        <ele>1175.816</ele>
        <time>2016-01-30T13:46:47Z</time>
      </trkpt>
      <trkpt lat="43.72294" lon="6.94319">
        <ele>1175.408</ele>
        <time>2016-01-30T13:46:52Z</time>
      </trkpt>
      <trkpt lat="43.723" lon="6.94323">
        <ele>1173.335</ele>
        <time>2016-01-30T13:47:29Z</time>
      </trkpt>
      <trkpt lat="43.7231" lon="6.94338">
        <ele>1174.657</ele>
        <time>2016-01-30T13:47:35Z</time>
      </trkpt>
      <trkpt lat="43.72321" lon="6.94348">
        <ele>1175.451</ele>
        <time>2016-01-30T13:47:40Z</time>
      </trkpt>
      <trkpt lat="43.72338" lon="6.94362">
        <ele>1176.454</ele>
        <time>2016-01-30T13:47:49Z</time>
      </trkpt>
      <trkpt lat="43.72353" lon="6.94376">
        <ele>1177.287</ele>
        <time>2016-01-30T13:47:57Z</time>
      </trkpt>
      <trkpt lat="43.72366" lon="6.94388">
        <ele>1177.483</ele>
        <time>2016-01-30T13:48:02Z</time>
      </trkpt>
      <trkpt lat="43.72378" lon="6.94396">
        <ele>1177.186</ele>
        <time>2016-01-30T13:48:07Z</time>
      </trkpt>
      <trkpt lat="43.72391" lon="6.94396">
        <ele>1177.07</ele>
        <time>2016-01-30T13:48:12Z</time>
      </trkpt>
      <trkpt lat="43.72401" lon="6.94392">
        <ele>1177.305</ele>
        <time>2016-01-30T13:48:16Z</time>
      </trkpt>
      <trkpt lat="43.72424" lon="6.94385">
        <ele>1176.471</ele>
        <time>2016-01-30T13:48:24Z</time>
      </trkpt>
      <trkpt lat="43.72431" lon="6.94385">
        <ele>1174.985</ele>
        <time>2016-01-30T13:48:27Z</time>
      </trkpt>
      <trkpt lat="43.72446" lon="6.94396">
        <ele>1171.094</ele>
        <time>2016-01-30T13:48:31Z</time>
      </trkpt>
      <trkpt lat="43.72465" lon="6.94388">
        <ele>1166.415</ele>
        <time>2016-01-30T13:48:37Z</time>
      </trkpt>
      <trkpt lat="43.72485" lon="6.94368">
        <ele>1165.779</ele>
        <time>2016-01-30T13:48:44Z</time>
      </trkpt>
      <trkpt lat="43.72495" lon="6.94361">
        <ele>1165.145</ele>
        <time>2016-01-30T13:48:47Z</time>
      </trkpt>
      <trkpt lat="43.72509" lon="6.94354">
        <ele>1163.96</ele>
        <time>2016-01-30T13:48:51Z</time>
      </trkpt>
      <trkpt lat="43.72511" lon="6.94351">
        <ele>1163.683</ele>
        <time>2016-01-30T13:48:52Z</time>
      </trkpt>
      <trkpt lat="43.72518" lon="6.94337">
        <ele>1163.525</ele>
        <time>2016-01-30T13:48:58Z</time>
      </trkpt>
      <trkpt lat="43.72527" lon="6.94324">
        <ele>1163.83</ele>
        <time>2016-01-30T13:49:02Z</time>
      </trkpt>
      <trkpt lat="43.72538" lon="6.94316">
        <ele>1162.347</ele>
        <time>2016-01-30T13:49:06Z</time>
      </trkpt>
      <trkpt lat="43.72546" lon="6.94316">
        <ele>1160.438</ele>
        <time>2016-01-30T13:49:09Z</time>
      </trkpt>
      <trkpt lat="43.72562" lon="6.94305">
        <ele>1157.14</ele>
        <time>2016-01-30T13:49:13Z</time>
      </trkpt>
      <trkpt lat="43.72577" lon="6.94306">
        <ele>1154.983</ele>
        <time>2016-01-30T13:49:17Z</time>
      </trkpt>
      <trkpt lat="43.72581" lon="6.94315">
        <ele>1154.745</ele>
        <time>2016-01-30T13:49:20Z</time>
      </trkpt>
      <trkpt lat="43.72583" lon="6.94325">
        <ele>1153.554</ele>
        <time>2016-01-30T13:49:23Z</time>
      </trkpt>
      <trkpt lat="43.72589" lon="6.94358">
        <ele>1155.302</ele>
        <time>2016-01-30T13:49:30Z</time>
      </trkpt>
      <trkpt lat="43.72584" lon="6.94376">
        <ele>1153.756</ele>
        <time>2016-01-30T13:49:34Z</time>
      </trkpt>
      <trkpt lat="43.72579" lon="6.94388">
        <ele>1152.023</ele>
        <time>2016-01-30T13:49:37Z</time>
      </trkpt>
      <trkpt lat="43.72588" lon="6.94392">
        <ele>1148.089</ele>
        <time>2016-01-30T13:49:42Z</time>
      </trkpt>
      <trkpt lat="43.72598" lon="6.94387">
        <ele>1148.807</ele>
        <time>2016-01-30T13:49:46Z</time>
      </trkpt>
      <trkpt lat="43.72606" lon="6.9438">
        <ele>1149.047</ele>
        <time>2016-01-30T13:49:49Z</time>
      </trkpt>
      <trkpt lat="43.72611" lon="6.94379">
        <ele>1147.071</ele>
        <time>2016-01-30T13:49:51Z</time>
      </trkpt>
      <trkpt lat="43.72622" lon="6.94371">
        <ele>1146.337</ele>
        <time>2016-01-30T13:49:56Z</time>
      </trkpt>
      <trkpt lat="43.72624" lon="6.9437">
        <ele>1146.022</ele>
        <time>2016-01-30T13:49:57Z</time>
      </trkpt>
      <trkpt lat="43.72633" lon="6.94373">
        <ele>1143.457</ele>
        <time>2016-01-30T13:50:02Z</time>
      </trkpt>
      <trkpt lat="43.72638" lon="6.94365">
        <ele>1140.843</ele>
        <time>2016-01-30T13:50:06Z</time>
      </trkpt>
      <trkpt lat="43.72643" lon="6.94357">
        <ele>1140.224</ele>
        <time>2016-01-30T13:50:09Z</time>
      </trkpt>
      <trkpt lat="43.72654" lon="6.94363">
        <ele>1137.421</ele>
        <time>2016-01-30T13:50:14Z</time>
      </trkpt>
      <trkpt lat="43.7266" lon="6.94376">
        <ele>1134.43</ele>
        <time>2016-01-30T13:50:19Z</time>
      </trkpt>
      <trkpt lat="43.72663" lon="6.94384">
        <ele>1133.676</ele>
        <time>2016-01-30T13:50:22Z</time>
      </trkpt>
      <trkpt lat="43.72663" lon="6.94404">
        <ele>1130.618</ele>
        <time>2016-01-30T13:50:27Z</time>
      </trkpt>
      <trkpt lat="43.72669" lon="6.94418">
        <ele>1128.009</ele>
        <time>2016-01-30T13:50:31Z</time>
      </trkpt>
      <trkpt lat="43.72683" lon="6.9443">
        <ele>1124.974</ele>
        <time>2016-01-30T13:50:34Z</time>
      </trkpt>
      <trkpt lat="43.72686" lon="6.94435">
        <ele>1124.4</ele>
        <time>2016-01-30T13:50:35Z</time>
      </trkpt>
      <trkpt lat="43.72693" lon="6.94459">
        <ele>1122.99</ele>
        <time>2016-01-30T13:50:40Z</time>
      </trkpt>
      <trkpt lat="43.72685" lon="6.9448">
        <ele>1121.9</ele>
        <time>2016-01-30T13:50:46Z</time>
      </trkpt>
      <trkpt lat="43.72683" lon="6.94487">
        <ele>1120.954</ele>
        <time>2016-01-30T13:50:51Z</time>
      </trkpt>
      <trkpt lat="43.72685" lon="6.94486">
        <ele>1118.926</ele>
        <time>2016-01-30T13:50:59Z</time>
      </trkpt>
      <trkpt lat="43.72696" lon="6.94479">
        <ele>1118.203</ele>
        <time>2016-01-30T13:51:05Z</time>
      </trkpt>
      <trkpt lat="43.72701" lon="6.94478">
        <ele>1117.783</ele>
        <time>2016-01-30T13:51:07Z</time>
      </trkpt>
      <trkpt lat="43.72707" lon="6.94489">
        <ele>1116.85</ele>
        <time>2016-01-30T13:51:11Z</time>
      </trkpt>
      <trkpt lat="43.72712" lon="6.94515">
        <ele>1114.927</ele>
        <time>2016-01-30T13:51:17Z</time>
      </trkpt>
      <trkpt lat="43.72714" lon="6.94517">
        <ele>1114.965</ele>
        <time>2016-01-30T13:51:18Z</time>
      </trkpt>
      <trkpt lat="43.72715" lon="6.94527">
        <ele>1113.781</ele>
        <time>2016-01-30T13:51:20Z</time>
      </trkpt>
      <trkpt lat="43.72718" lon="6.94539">
        <ele>1112.104</ele>
        <time>2016-01-30T13:51:22Z</time>
      </trkpt>
      <trkpt lat="43.72722" lon="6.9458">
        <ele>1108.254</ele>
        <time>2016-01-30T13:51:27Z</time>
      </trkpt>
      <trkpt lat="43.72721" lon="6.94589">
        <ele>1107.677</ele>
        <time>2016-01-30T13:51:28Z</time>
      </trkpt>
      <trkpt lat="43.72724" lon="6.94616">
        <ele>1105.724</ele>
        <time>2016-01-30T13:51:32Z</time>
      </trkpt>
      <trkpt lat="43.72727" lon="6.94642">
        <ele>1104.809</ele>
        <time>2016-01-30T13:51:36Z</time>
      </trkpt>
      <trkpt lat="43.72727" lon="6.9466">
        <ele>1104.082</ele>
        <time>2016-01-30T13:51:40Z</time>
      </trkpt>
      <trkpt lat="43.72727" lon="6.94667">
        <ele>1103.956</ele>
        <time>2016-01-30T13:51:43Z</time>
      </trkpt>
      <trkpt lat="43.72718" lon="6.94677">
        <ele>1104.297</ele>
        <time>2016-01-30T13:51:48Z</time>
      </trkpt>
      <trkpt lat="43.72709" lon="6.94689">
        <ele>1104.215</ele>
        <time>2016-01-30T13:51:53Z</time>
      </trkpt>
      <trkpt lat="43.7271" lon="6.94701">
        <ele>1103.415</ele>
        <time>2016-01-30T13:51:57Z</time>
      </trkpt>
      <trkpt lat="43.72708" lon="6.94713">
        <ele>1102.922</ele>
        <time>2016-01-30T13:52:01Z</time>
      </trkpt>
      <trkpt lat="43.72707" lon="6.94723">
        <ele>1102.558</ele>
        <time>2016-01-30T13:52:03Z</time>
      </trkpt>
      <trkpt lat="43.72693" lon="6.94749">
        <ele>1101.017</ele>
        <time>2016-01-30T13:52:09Z</time>
      </trkpt>
      <trkpt lat="43.7269" lon="6.9475">
        <ele>1100.593</ele>
        <time>2016-01-30T13:52:10Z</time>
      </trkpt>
      <trkpt lat="43.72678" lon="6.94751">
        <ele>1099.832</ele>
        <time>2016-01-30T13:52:13Z</time>
      </trkpt>
      <trkpt lat="43.72659" lon="6.94747">
        <ele>1099.693</ele>
        <time>2016-01-30T13:52:18Z</time>
      </trkpt>
      <trkpt lat="43.72625" lon="6.94749">
        <ele>1097.352</ele>
        <time>2016-01-30T13:52:26Z</time>
      </trkpt>
      <trkpt lat="43.72614" lon="6.94745">
        <ele>1097.583</ele>
        <time>2016-01-30T13:52:29Z</time>
      </trkpt>
      <trkpt lat="43.72606" lon="6.94744">
        <ele>1098.377</ele>
        <time>2016-01-30T13:52:33Z</time>
      </trkpt>
      <trkpt lat="43.72591" lon="6.94764">
        <ele>1096.848</ele>
        <time>2016-01-30T13:52:40Z</time>
      </trkpt>
      <trkpt lat="43.72587" lon="6.94777">
        <ele>1096.053</ele>
        <time>2016-01-30T13:52:43Z</time>
      </trkpt>
      <trkpt lat="43.72585" lon="6.94803">
        <ele>1094.175</ele>
        <time>2016-01-30T13:52:47Z</time>
      </trkpt>
      <trkpt lat="43.7258" lon="6.9484">
        <ele>1093.064</ele>
        <time>2016-01-30T13:52:53Z</time>
      </trkpt>
      <trkpt lat="43.72574" lon="6.9485">
        <ele>1093.881</ele>
        <time>2016-01-30T13:52:57Z</time>
      </trkpt>
      <trkpt lat="43.72574" lon="6.94849">
        <ele>1094.72</ele>
        <time>2016-01-30T13:53:02Z</time>
      </trkpt>
      <trkpt lat="43.72577" lon="6.94846">
        <ele>1094.915</ele>
        <time>2016-01-30T13:58:19Z</time>
      </trkpt>
      <trkpt lat="43.72577" lon="6.94848">
        <ele>1094.664</ele>
        <time>2016-01-30T13:58:22Z</time>
      </trkpt>
      <trkpt lat="43.72568" lon="6.94851">
        <ele>1094.542</ele>
        <time>2016-01-30T13:58:29Z</time>
      </trkpt>
      <trkpt lat="43.72566" lon="6.94852">
        <ele>1094.239</ele>
        <time>2016-01-30T13:58:30Z</time>
      </trkpt>
      <trkpt lat="43.72563" lon="6.94853">
        <ele>1093.006</ele>
        <time>2016-01-30T13:58:32Z</time>
      </trkpt>
      <trkpt lat="43.72558" lon="6.94847">
        <ele>1090.761</ele>
        <time>2016-01-30T13:58:36Z</time>
      </trkpt>
      <trkpt lat="43.72557" lon="6.94837">
        <ele>1087.869</ele>
        <time>2016-01-30T13:58:39Z</time>
      </trkpt>
      <trkpt lat="43.72555" lon="6.94827">
        <ele>1086.28</ele>
        <time>2016-01-30T13:58:44Z</time>
      </trkpt>
      <trkpt lat="43.72546" lon="6.9483">
        <ele>1082.875</ele>
        <time>2016-01-30T13:58:48Z</time>
      </trkpt>
      <trkpt lat="43.72536" lon="6.94822">
        <ele>1080.895</ele>
        <time>2016-01-30T13:58:51Z</time>
      </trkpt>
      <trkpt lat="43.72534" lon="6.94816">
        <ele>1080.478</ele>
        <time>2016-01-30T13:58:52Z</time>
      </trkpt>
      <trkpt lat="43.72528" lon="6.94798">
        <ele>1079.434</ele>
        <time>2016-01-30T13:58:55Z</time>
      </trkpt>
      <trkpt lat="43.72522" lon="6.948">
        <ele>1076.762</ele>
        <time>2016-01-30T13:58:59Z</time>
      </trkpt>
      <trkpt lat="43.72522" lon="6.94806">
        <ele>1076.034</ele>
        <time>2016-01-30T13:59:00Z</time>
      </trkpt>
      <trkpt lat="43.72518" lon="6.9484">
        <ele>1071.19</ele>
        <time>2016-01-30T13:59:07Z</time>
      </trkpt>
      <trkpt lat="43.72515" lon="6.94839">
        <ele>1069.607</ele>
        <time>2016-01-30T13:59:11Z</time>
      </trkpt>
      <trkpt lat="43.7251" lon="6.94827">
        <ele>1068.411</ele>
        <time>2016-01-30T13:59:14Z</time>
      </trkpt>
      <trkpt lat="43.72497" lon="6.94804">
        <ele>1065.616</ele>
        <time>2016-01-30T13:59:18Z</time>
      </trkpt>
      <trkpt lat="43.72479" lon="6.94785">
        <ele>1061.49</ele>
        <time>2016-01-30T13:59:23Z</time>
      </trkpt>
      <trkpt lat="43.72476" lon="6.94783">
        <ele>1060.762</ele>
        <time>2016-01-30T13:59:24Z</time>
      </trkpt>
      <trkpt lat="43.72466" lon="6.94778">
        <ele>1055.659</ele>
        <time>2016-01-30T13:59:29Z</time>
      </trkpt>
      <trkpt lat="43.72464" lon="6.94776">
        <ele>1054.843</ele>
        <time>2016-01-30T13:59:31Z</time>
      </trkpt>
      <trkpt lat="43.72457" lon="6.94771">
        <ele>1054.014</ele>
        <time>2016-01-30T13:59:34Z</time>
      </trkpt>
      <trkpt lat="43.72449" lon="6.94772">
        <ele>1051.779</ele>
        <time>2016-01-30T13:59:37Z</time>
      </trkpt>
      <trkpt lat="43.72427" lon="6.94771">
        <ele>1047.565</ele>
        <time>2016-01-30T13:59:42Z</time>
      </trkpt>
      <trkpt lat="43.72417" lon="6.94769">
        <ele>1046.382</ele>
        <time>2016-01-30T13:59:44Z</time>
      </trkpt>
      <trkpt lat="43.72396" lon="6.94763">
        <ele>1045.212</ele>
        <time>2016-01-30T13:59:49Z</time>
      </trkpt>
      <trkpt lat="43.72378" lon="6.94768">
        <ele>1042.515</ele>
        <time>2016-01-30T13:59:54Z</time>
      </trkpt>
      <trkpt lat="43.72362" lon="6.94766">
        <ele>1041.022</ele>
        <time>2016-01-30T13:59:59Z</time>
      </trkpt>
      <trkpt lat="43.72356" lon="6.94763">
        <ele>1039.906</ele>
        <time>2016-01-30T14:00:01Z</time>
      </trkpt>
      <trkpt lat="43.72328" lon="6.94768">
        <ele>1035.135</ele>
        <time>2016-01-30T14:00:08Z</time>
      </trkpt>
      <trkpt lat="43.72318" lon="6.94769">
        <ele>1033.556</ele>
        <time>2016-01-30T14:00:10Z</time>
      </trkpt>
      <trkpt lat="43.72295" lon="6.94758">
        <ele>1029.635</ele>
        <time>2016-01-30T14:00:14Z</time>
      </trkpt>
      <trkpt lat="43.72282" lon="6.94745">
        <ele>1028.824</ele>
        <time>2016-01-30T14:00:16Z</time>
      </trkpt>
      <trkpt lat="43.72225" lon="6.9469">
        <ele>1027.062</ele>
        <time>2016-01-30T14:00:25Z</time>
      </trkpt>
      <trkpt lat="43.722" lon="6.94665">
        <ele>1027.254</ele>
        <time>2016-01-30T14:00:30Z</time>
      </trkpt>
      <trkpt lat="43.72187" lon="6.94654">
        <ele>1027.467</ele>
        <time>2016-01-30T14:00:34Z</time>
      </trkpt>
      <trkpt lat="43.72174" lon="6.94639">
        <ele>1028.047</ele>
        <time>2016-01-30T14:00:41Z</time>
      </trkpt>
      <trkpt lat="43.7216" lon="6.94618">
        <ele>1028.631</ele>
        <time>2016-01-30T14:00:49Z</time>
      </trkpt>
      <trkpt lat="43.72149" lon="6.94605">
        <ele>1029.662</ele>
        <time>2016-01-30T14:00:54Z</time>
      </trkpt>
      <trkpt lat="43.72133" lon="6.946">
        <ele>1028.828</ele>
        <time>2016-01-30T14:00:59Z</time>
      </trkpt>
      <trkpt lat="43.72123" lon="6.94599">
        <ele>1027.885</ele>
        <time>2016-01-30T14:01:02Z</time>
      </trkpt>
      <trkpt lat="43.72101" lon="6.94591">
        <ele>1025.753</ele>
        <time>2016-01-30T14:01:08Z</time>
      </trkpt>
      <trkpt lat="43.72087" lon="6.94582">
        <ele>1025.392</ele>
        <time>2016-01-30T14:01:13Z</time>
      </trkpt>
      <trkpt lat="43.72077" lon="6.94581">
        <ele>1024.304</ele>
        <time>2016-01-30T14:01:16Z</time>
      </trkpt>
      <trkpt lat="43.72061" lon="6.94575">
        <ele>1023.933</ele>
        <time>2016-01-30T14:01:21Z</time>
      </trkpt>
      <trkpt lat="43.72058" lon="6.94573">
        <ele>1023.933</ele>
        <time>2016-01-30T14:01:22Z</time>
      </trkpt>
      <trkpt lat="43.7204" lon="6.9457">
        <ele>1024.278</ele>
        <time>2016-01-30T14:01:28Z</time>
      </trkpt>
      <trkpt lat="43.72029" lon="6.94574">
        <ele>1024.096</ele>
        <time>2016-01-30T14:01:35Z</time>
      </trkpt>
      <trkpt lat="43.72021" lon="6.94573">
        <ele>1023.271</ele>
        <time>2016-01-30T14:01:38Z</time>
      </trkpt>
      <trkpt lat="43.7201" lon="6.94577">
        <ele>1021.354</ele>
        <time>2016-01-30T14:01:43Z</time>
      </trkpt>
      <trkpt lat="43.71999" lon="6.9459">
        <ele>1019.142</ele>
        <time>2016-01-30T14:01:48Z</time>
      </trkpt>
      <trkpt lat="43.71996" lon="6.94594">
        <ele>1018.787</ele>
        <time>2016-01-30T14:01:49Z</time>
      </trkpt>
      <trkpt lat="43.71986" lon="6.94594">
        <ele>1018.499</ele>
        <time>2016-01-30T14:01:53Z</time>
      </trkpt>
      <trkpt lat="43.71983" lon="6.9459">
        <ele>1017.73</ele>
        <time>2016-01-30T14:01:56Z</time>
      </trkpt>
      <trkpt lat="43.71973" lon="6.94581">
        <ele>1016.44</ele>
        <time>2016-01-30T14:02:01Z</time>
      </trkpt>
      <trkpt lat="43.71961" lon="6.94568">
        <ele>1015.488</ele>
        <time>2016-01-30T14:02:05Z</time>
      </trkpt>
      <trkpt lat="43.71941" lon="6.94556">
        <ele>1013.794</ele>
        <time>2016-01-30T14:02:10Z</time>
      </trkpt>
      <trkpt lat="43.71927" lon="6.94549">
        <ele>1012.434</ele>
        <time>2016-01-30T14:02:14Z</time>
      </trkpt>
      <trkpt lat="43.71913" lon="6.94554">
        <ele>1010.556</ele>
        <time>2016-01-30T14:02:19Z</time>
      </trkpt>
      <trkpt lat="43.71895" lon="6.94581">
        <ele>1008.486</ele>
        <time>2016-01-30T14:02:25Z</time>
      </trkpt>
      <trkpt lat="43.71892" lon="6.94586">
        <ele>1007.945</ele>
        <time>2016-01-30T14:02:26Z</time>
      </trkpt>
      <trkpt lat="43.71878" lon="6.94594">
        <ele>1006.855</ele>
        <time>2016-01-30T14:02:29Z</time>
      </trkpt>
      <trkpt lat="43.71863" lon="6.94606">
        <ele>1004.677</ele>
        <time>2016-01-30T14:02:33Z</time>
      </trkpt>
      <trkpt lat="43.71859" lon="6.9461">
        <ele>1003.887</ele>
        <time>2016-01-30T14:02:34Z</time>
      </trkpt>
      <trkpt lat="43.71843" lon="6.94623">
        <ele>999.306</ele>
        <time>2016-01-30T14:02:39Z</time>
      </trkpt>
      <trkpt lat="43.7184" lon="6.94639">
        <ele>996.627</ele>
        <time>2016-01-30T14:02:43Z</time>
      </trkpt>
      <trkpt lat="43.71841" lon="6.94644">
        <ele>996.128</ele>
        <time>2016-01-30T14:02:44Z</time>
      </trkpt>
      <trkpt lat="43.7183" lon="6.94655">
        <ele>993.834</ele>
        <time>2016-01-30T14:02:48Z</time>
      </trkpt>
      <trkpt lat="43.71825" lon="6.94659">
        <ele>992.851</ele>
        <time>2016-01-30T14:02:49Z</time>
      </trkpt>
      <trkpt lat="43.71782" lon="6.94682">
        <ele>987.874</ele>
        <time>2016-01-30T14:02:56Z</time>
      </trkpt>
      <trkpt lat="43.71777" lon="6.94684">
        <ele>987.577</ele>
        <time>2016-01-30T14:02:57Z</time>
      </trkpt>
      <trkpt lat="43.7176" lon="6.94694">
        <ele>985.879</ele>
        <time>2016-01-30T14:03:00Z</time>
      </trkpt>
      <trkpt lat="43.71743" lon="6.94713">
        <ele>984.228</ele>
        <time>2016-01-30T14:03:03Z</time>
      </trkpt>
      <trkpt lat="43.71725" lon="6.94732">
        <ele>982.472</ele>
        <time>2016-01-30T14:03:07Z</time>
      </trkpt>
      <trkpt lat="43.71724" lon="6.94741">
        <ele>981.822</ele>
        <time>2016-01-30T14:03:09Z</time>
      </trkpt>
      <trkpt lat="43.71726" lon="6.94772">
        <ele>980.395</ele>
        <time>2016-01-30T14:03:16Z</time>
      </trkpt>
      <trkpt lat="43.71729" lon="6.94792">
        <ele>981.467</ele>
        <time>2016-01-30T14:03:21Z</time>
      </trkpt>
      <trkpt lat="43.71726" lon="6.94813">
        <ele>983.142</ele>
        <time>2016-01-30T14:03:26Z</time>
      </trkpt>
      <trkpt lat="43.7172" lon="6.94838">
        <ele>982.508</ele>
        <time>2016-01-30T14:03:32Z</time>
      </trkpt>
      <trkpt lat="43.71712" lon="6.94858">
        <ele>981.11</ele>
        <time>2016-01-30T14:03:37Z</time>
      </trkpt>
      <trkpt lat="43.71704" lon="6.94876">
        <ele>979.591</ele>
        <time>2016-01-30T14:03:42Z</time>
      </trkpt>
      <trkpt lat="43.71697" lon="6.94896">
        <ele>978.901</ele>
        <time>2016-01-30T14:03:47Z</time>
      </trkpt>
      <trkpt lat="43.71691" lon="6.94919">
        <ele>978.421</ele>
        <time>2016-01-30T14:03:52Z</time>
      </trkpt>
      <trkpt lat="43.71686" lon="6.94942">
        <ele>978.684</ele>
        <time>2016-01-30T14:03:57Z</time>
      </trkpt>
      <trkpt lat="43.71672" lon="6.94956">
        <ele>977.59</ele>
        <time>2016-01-30T14:04:02Z</time>
      </trkpt>
      <trkpt lat="43.7166" lon="6.9497">
        <ele>976.353</ele>
        <time>2016-01-30T14:04:07Z</time>
      </trkpt>
      <trkpt lat="43.71653" lon="6.94987">
        <ele>976.14</ele>
        <time>2016-01-30T14:04:12Z</time>
      </trkpt>
      <trkpt lat="43.71648" lon="6.94997">
        <ele>975.992</ele>
        <time>2016-01-30T14:04:15Z</time>
      </trkpt>
      <trkpt lat="43.7165" lon="6.95009">
        <ele>976.806</ele>
        <time>2016-01-30T14:04:20Z</time>
      </trkpt>
      <trkpt lat="43.7165" lon="6.95012">
        <ele>977.775</ele>
        <time>2016-01-30T14:04:25Z</time>
      </trkpt>
      <trkpt lat="43.71652" lon="6.95017">
        <ele>978.524</ele>
        <time>2016-01-30T14:04:29Z</time>
      </trkpt>
      <trkpt lat="43.71654" lon="6.95025">
        <ele>979.753</ele>
        <time>2016-01-30T14:04:35Z</time>
      </trkpt>
      <trkpt lat="43.71654" lon="6.95028">
        <ele>978.971</ele>
        <time>2016-01-30T14:04:41Z</time>
      </trkpt>
      <trkpt lat="43.71653" lon="6.95039">
        <ele>978.833</ele>
        <time>2016-01-30T14:04:46Z</time>
      </trkpt>
      <trkpt lat="43.7165" lon="6.95053">
        <ele>979.036</ele>
        <time>2016-01-30T14:04:51Z</time>
      </trkpt>
      <trkpt lat="43.71646" lon="6.95066">
        <ele>977.478</ele>
        <time>2016-01-30T14:04:56Z</time>
      </trkpt>
      <trkpt lat="43.71642" lon="6.95081">
        <ele>976.853</ele>
        <time>2016-01-30T14:05:02Z</time>
      </trkpt>
      <trkpt lat="43.71637" lon="6.95093">
        <ele>976.426</ele>
        <time>2016-01-30T14:05:07Z</time>
      </trkpt>
      <trkpt lat="43.71636" lon="6.95099">
        <ele>976.57</ele>
        <time>2016-01-30T14:05:09Z</time>
      </trkpt>
      <trkpt lat="43.71626" lon="6.95119">
        <ele>976.642</ele>
        <time>2016-01-30T14:05:16Z</time>
      </trkpt>
      <trkpt lat="43.71615" lon="6.95132">
        <ele>976.089</ele>
        <time>2016-01-30T14:05:21Z</time>
      </trkpt>
      <trkpt lat="43.71611" lon="6.95137">
        <ele>975.73</ele>
        <time>2016-01-30T14:05:23Z</time>
      </trkpt>
      <trkpt lat="43.71591" lon="6.95157">
        <ele>977.689</ele>
        <time>2016-01-30T14:05:32Z</time>
      </trkpt>
      <trkpt lat="43.71581" lon="6.95168">
        <ele>978.816</ele>
        <time>2016-01-30T14:05:38Z</time>
      </trkpt>
      <trkpt lat="43.71571" lon="6.95175">
        <ele>976.942</ele>
        <time>2016-01-30T14:05:43Z</time>
      </trkpt>
      <trkpt lat="43.71569" lon="6.95177">
        <ele>976.245</ele>
        <time>2016-01-30T14:05:44Z</time>
      </trkpt>
      <trkpt lat="43.71548" lon="6.95189">
        <ele>971.445</ele>
        <time>2016-01-30T14:05:51Z</time>
      </trkpt>
      <trkpt lat="43.71532" lon="6.95188">
        <ele>970.097</ele>
        <time>2016-01-30T14:05:56Z</time>
      </trkpt>
      <trkpt lat="43.71518" lon="6.95187">
        <ele>968.673</ele>
        <time>2016-01-30T14:06:00Z</time>
      </trkpt>
      <trkpt lat="43.71504" lon="6.95187">
        <ele>966.736</ele>
        <time>2016-01-30T14:06:04Z</time>
      </trkpt>
      <trkpt lat="43.71478" lon="6.95179">
        <ele>962.162</ele>
        <time>2016-01-30T14:06:11Z</time>
      </trkpt>
      <trkpt lat="43.71453" lon="6.95173">
        <ele>958.417</ele>
        <time>2016-01-30T14:06:17Z</time>
      </trkpt>
      <trkpt lat="43.71442" lon="6.95172">
        <ele>956.943</ele>
        <time>2016-01-30T14:06:21Z</time>
      </trkpt>
      <trkpt lat="43.71424" lon="6.95176">
        <ele>954.319</ele>
        <time>2016-01-30T14:06:27Z</time>
      </trkpt>
      <trkpt lat="43.71412" lon="6.95179">
        <ele>951.651</ele>
        <time>2016-01-30T14:06:31Z</time>
      </trkpt>
      <trkpt lat="43.71399" lon="6.95189">
        <ele>950.49</ele>
        <time>2016-01-30T14:06:35Z</time>
      </trkpt>
      <trkpt lat="43.71384" lon="6.95195">
        <ele>949.124</ele>
        <time>2016-01-30T14:06:39Z</time>
      </trkpt>
      <trkpt lat="43.71371" lon="6.95203">
        <ele>947.59</ele>
        <time>2016-01-30T14:06:43Z</time>
      </trkpt>
      <trkpt lat="43.71362" lon="6.95211">
        <ele>945.002</ele>
        <time>2016-01-30T14:06:47Z</time>
      </trkpt>
      <trkpt lat="43.71345" lon="6.95223">
        <ele>940.845</ele>
        <time>2016-01-30T14:06:53Z</time>
      </trkpt>
      <trkpt lat="43.71332" lon="6.95238">
        <ele>936.721</ele>
        <time>2016-01-30T14:06:58Z</time>
      </trkpt>
      <trkpt lat="43.71317" lon="6.95244">
        <ele>933.77</ele>
        <time>2016-01-30T14:07:02Z</time>
      </trkpt>
      <trkpt lat="43.71301" lon="6.95256">
        <ele>931.922</ele>
        <time>2016-01-30T14:07:07Z</time>
      </trkpt>
      <trkpt lat="43.71286" lon="6.95271">
        <ele>929.164</ele>
        <time>2016-01-30T14:07:12Z</time>
      </trkpt>
      <trkpt lat="43.7128" lon="6.95275">
        <ele>928.25</ele>
        <time>2016-01-30T14:07:14Z</time>
      </trkpt>
      <trkpt lat="43.71262" lon="6.95291">
        <ele>925.447</ele>
        <time>2016-01-30T14:07:20Z</time>
      </trkpt>
      <trkpt lat="43.7125" lon="6.95301">
        <ele>922.127</ele>
        <time>2016-01-30T14:07:25Z</time>
      </trkpt>
      <trkpt lat="43.71247" lon="6.95304">
        <ele>921.207</ele>
        <time>2016-01-30T14:07:26Z</time>
      </trkpt>
      <trkpt lat="43.71226" lon="6.95302">
        <ele>919.753</ele>
        <time>2016-01-30T14:07:32Z</time>
      </trkpt>
      <trkpt lat="43.71215" lon="6.9531">
        <ele>917.35</ele>
        <time>2016-01-30T14:07:36Z</time>
      </trkpt>
      <trkpt lat="43.712" lon="6.95314">
        <ele>915.939</ele>
        <time>2016-01-30T14:07:41Z</time>
      </trkpt>
      <trkpt lat="43.71184" lon="6.9532">
        <ele>915.928</ele>
        <time>2016-01-30T14:07:46Z</time>
      </trkpt>
      <trkpt lat="43.71169" lon="6.95332">
        <ele>914.562</ele>
        <time>2016-01-30T14:07:52Z</time>
      </trkpt>
      <trkpt lat="43.71154" lon="6.95342">
        <ele>912.596</ele>
        <time>2016-01-30T14:07:57Z</time>
      </trkpt>
      <trkpt lat="43.7115" lon="6.95344">
        <ele>911.902</ele>
        <time>2016-01-30T14:07:58Z</time>
      </trkpt>
      <trkpt lat="43.7113" lon="6.95356">
        <ele>907.369</ele>
        <time>2016-01-30T14:08:04Z</time>
      </trkpt>
      <trkpt lat="43.71118" lon="6.95376">
        <ele>901.272</ele>
        <time>2016-01-30T14:08:10Z</time>
      </trkpt>
      <trkpt lat="43.71103" lon="6.95384">
        <ele>895.699</ele>
        <time>2016-01-30T14:08:15Z</time>
      </trkpt>
      <trkpt lat="43.71088" lon="6.9539">
        <ele>890.262</ele>
        <time>2016-01-30T14:08:20Z</time>
      </trkpt>
      <trkpt lat="43.71082" lon="6.95395">
        <ele>887.782</ele>
        <time>2016-01-30T14:08:22Z</time>
      </trkpt>
      <trkpt lat="43.71066" lon="6.95391">
        <ele>884.662</ele>
        <time>2016-01-30T14:08:27Z</time>
      </trkpt>
      <trkpt lat="43.71053" lon="6.95386">
        <ele>882.366</ele>
        <time>2016-01-30T14:08:31Z</time>
      </trkpt>
      <trkpt lat="43.7104" lon="6.95391">
        <ele>880.267</ele>
        <time>2016-01-30T14:08:36Z</time>
      </trkpt>
      <trkpt lat="43.71037" lon="6.95392">
        <ele>879.722</ele>
        <time>2016-01-30T14:08:37Z</time>
      </trkpt>
      <trkpt lat="43.71019" lon="6.95404">
        <ele>877.154</ele>
        <time>2016-01-30T14:08:43Z</time>
      </trkpt>
      <trkpt lat="43.71008" lon="6.95408">
        <ele>875.065</ele>
        <time>2016-01-30T14:08:47Z</time>
      </trkpt>
      <trkpt lat="43.71002" lon="6.95411">
        <ele>874.305</ele>
        <time>2016-01-30T14:08:49Z</time>
      </trkpt>
      <trkpt lat="43.70988" lon="6.95416">
        <ele>873.015</ele>
        <time>2016-01-30T14:08:54Z</time>
      </trkpt>
      <trkpt lat="43.70972" lon="6.95428">
        <ele>870.226</ele>
        <time>2016-01-30T14:08:59Z</time>
      </trkpt>
      <trkpt lat="43.70966" lon="6.9543">
        <ele>869.064</ele>
        <time>2016-01-30T14:09:01Z</time>
      </trkpt>
      <trkpt lat="43.70961" lon="6.95439">
        <ele>867.139</ele>
        <time>2016-01-30T14:09:05Z</time>
      </trkpt>
      <trkpt lat="43.70951" lon="6.95445">
        <ele>865.098</ele>
        <time>2016-01-30T14:09:09Z</time>
      </trkpt>
      <trkpt lat="43.7094" lon="6.95452">
        <ele>862.897</ele>
        <time>2016-01-30T14:09:13Z</time>
      </trkpt>
      <trkpt lat="43.70939" lon="6.95453">
        <ele>862.587</ele>
        <time>2016-01-30T14:09:14Z</time>
      </trkpt>
      <trkpt lat="43.70931" lon="6.9546">
        <ele>860.59</ele>
        <time>2016-01-30T14:09:19Z</time>
      </trkpt>
      <trkpt lat="43.70919" lon="6.95471">
        <ele>858.676</ele>
        <time>2016-01-30T14:09:23Z</time>
      </trkpt>
      <trkpt lat="43.70916" lon="6.95472">
        <ele>858.309</ele>
        <time>2016-01-30T14:09:24Z</time>
      </trkpt>
      <trkpt lat="43.70906" lon="6.95472">
        <ele>856.725</ele>
        <time>2016-01-30T14:09:27Z</time>
      </trkpt>
      <trkpt lat="43.70898" lon="6.95482">
        <ele>854.955</ele>
        <time>2016-01-30T14:09:31Z</time>
      </trkpt>
      <trkpt lat="43.70895" lon="6.95497">
        <ele>853.739</ele>
        <time>2016-01-30T14:09:35Z</time>
      </trkpt>
      <trkpt lat="43.70884" lon="6.95513">
        <ele>851.608</ele>
        <time>2016-01-30T14:09:40Z</time>
      </trkpt>
      <trkpt lat="43.70881" lon="6.95515">
        <ele>851.081</ele>
        <time>2016-01-30T14:09:41Z</time>
      </trkpt>
      <trkpt lat="43.70865" lon="6.9551">
        <ele>847.503</ele>
        <time>2016-01-30T14:09:46Z</time>
      </trkpt>
      <trkpt lat="43.70856" lon="6.95512">
        <ele>845.039</ele>
        <time>2016-01-30T14:09:51Z</time>
      </trkpt>
      <trkpt lat="43.70856" lon="6.95512">
        <ele>846.541</ele>
        <time>2016-01-30T14:09:59Z</time>
      </trkpt>
      <trkpt lat="43.70855" lon="6.95521">
        <ele>849.931</ele>
        <time>2016-01-30T14:11:08Z</time>
      </trkpt>
      <trkpt lat="43.70854" lon="6.95525">
        <ele>850.119</ele>
        <time>2016-01-30T14:11:09Z</time>
      </trkpt>
      <trkpt lat="43.70841" lon="6.95552">
        <ele>846.234</ele>
        <time>2016-01-30T14:11:14Z</time>
      </trkpt>
      <trkpt lat="43.70834" lon="6.95583">
        <ele>843.824</ele>
        <time>2016-01-30T14:11:18Z</time>
      </trkpt>
      <trkpt lat="43.7083" lon="6.95613">
        <ele>840.923</ele>
        <time>2016-01-30T14:11:22Z</time>
      </trkpt>
      <trkpt lat="43.7083" lon="6.95622">
        <ele>839.471</ele>
        <time>2016-01-30T14:11:23Z</time>
      </trkpt>
      <trkpt lat="43.70826" lon="6.9565">
        <ele>836.537</ele>
        <time>2016-01-30T14:11:27Z</time>
      </trkpt>
      <trkpt lat="43.70824" lon="6.95666">
        <ele>835.112</ele>
        <time>2016-01-30T14:11:29Z</time>
      </trkpt>
      <trkpt lat="43.70815" lon="6.95691">
        <ele>831.987</ele>
        <time>2016-01-30T14:11:33Z</time>
      </trkpt>
      <trkpt lat="43.70812" lon="6.95693">
        <ele>830.813</ele>
        <time>2016-01-30T14:11:34Z</time>
      </trkpt>
      <trkpt lat="43.708" lon="6.95705">
        <ele>825.772</ele>
        <time>2016-01-30T14:11:39Z</time>
      </trkpt>
      <trkpt lat="43.70797" lon="6.9572">
        <ele>821.04</ele>
        <time>2016-01-30T14:11:43Z</time>
      </trkpt>
      <trkpt lat="43.70789" lon="6.95737">
        <ele>815.808</ele>
        <time>2016-01-30T14:11:47Z</time>
      </trkpt>
      <trkpt lat="43.70787" lon="6.9574">
        <ele>815.215</ele>
        <time>2016-01-30T14:11:48Z</time>
      </trkpt>
      <trkpt lat="43.70786" lon="6.95748">
        <ele>814.079</ele>
        <time>2016-01-30T14:11:50Z</time>
      </trkpt>
      <trkpt lat="43.70791" lon="6.95766">
        <ele>812.899</ele>
        <time>2016-01-30T14:11:55Z</time>
      </trkpt>
      <trkpt lat="43.70786" lon="6.9578">
        <ele>813.9</ele>
        <time>2016-01-30T14:11:58Z</time>
      </trkpt>
      <trkpt lat="43.70785" lon="6.95786">
        <ele>813.752</ele>
        <time>2016-01-30T14:11:59Z</time>
      </trkpt>
      <trkpt lat="43.70785" lon="6.95821">
        <ele>810.541</ele>
        <time>2016-01-30T14:12:04Z</time>
      </trkpt>
      <trkpt lat="43.70778" lon="6.95832">
        <ele>808.795</ele>
        <time>2016-01-30T14:12:07Z</time>
      </trkpt>
      <trkpt lat="43.70773" lon="6.95841">
        <ele>806.801</ele>
        <time>2016-01-30T14:12:09Z</time>
      </trkpt>
      <trkpt lat="43.70763" lon="6.95853">
        <ele>806.727</ele>
        <time>2016-01-30T14:12:12Z</time>
      </trkpt>
      <trkpt lat="43.70747" lon="6.95858">
        <ele>804.195</ele>
        <time>2016-01-30T14:12:16Z</time>
      </trkpt>
      <trkpt lat="43.70735" lon="6.95864">
        <ele>805.399</ele>
        <time>2016-01-30T14:12:19Z</time>
      </trkpt>
      <trkpt lat="43.70732" lon="6.95868">
        <ele>806.312</ele>
        <time>2016-01-30T14:12:20Z</time>
      </trkpt>
      <trkpt lat="43.70719" lon="6.95888">
        <ele>806.953</ele>
        <time>2016-01-30T14:12:25Z</time>
      </trkpt>
      <trkpt lat="43.70699" lon="6.9589">
        <ele>803.196</ele>
        <time>2016-01-30T14:12:29Z</time>
      </trkpt>
      <trkpt lat="43.7069" lon="6.95903">
        <ele>801.775</ele>
        <time>2016-01-30T14:12:33Z</time>
      </trkpt>
      <trkpt lat="43.70689" lon="6.95908">
        <ele>797.936</ele>
        <time>2016-01-30T14:12:37Z</time>
      </trkpt>
      <trkpt lat="43.70687" lon="6.95909">
        <ele>797.82</ele>
        <time>2016-01-30T14:12:42Z</time>
      </trkpt>
      <trkpt lat="43.70679" lon="6.95916">
        <ele>796.261</ele>
        <time>2016-01-30T14:12:48Z</time>
      </trkpt>
      <trkpt lat="43.70678" lon="6.95918">
        <ele>795.287</ele>
        <time>2016-01-30T14:12:49Z</time>
      </trkpt>
      <trkpt lat="43.70669" lon="6.95927">
        <ele>792.673</ele>
        <time>2016-01-30T14:12:53Z</time>
      </trkpt>
      <trkpt lat="43.70649" lon="6.95935">
        <ele>792.011</ele>
        <time>2016-01-30T14:12:57Z</time>
      </trkpt>
      <trkpt lat="43.70638" lon="6.95948">
        <ele>790.751</ele>
        <time>2016-01-30T14:13:00Z</time>
      </trkpt>
      <trkpt lat="43.70633" lon="6.95971">
        <ele>788.254</ele>
        <time>2016-01-30T14:13:04Z</time>
      </trkpt>
      <trkpt lat="43.70634" lon="6.95977">
        <ele>787.914</ele>
        <time>2016-01-30T14:13:05Z</time>
      </trkpt>
      <trkpt lat="43.70644" lon="6.96017">
        <ele>787.882</ele>
        <time>2016-01-30T14:13:11Z</time>
      </trkpt>
      <trkpt lat="43.70646" lon="6.96035">
        <ele>788.495</ele>
        <time>2016-01-30T14:13:14Z</time>
      </trkpt>
      <trkpt lat="43.70651" lon="6.96053">
        <ele>789.127</ele>
        <time>2016-01-30T14:13:17Z</time>
      </trkpt>
      <trkpt lat="43.70654" lon="6.96065">
        <ele>788.739</ele>
        <time>2016-01-30T14:13:19Z</time>
      </trkpt>
      <trkpt lat="43.70663" lon="6.96095">
        <ele>788.267</ele>
        <time>2016-01-30T14:13:24Z</time>
      </trkpt>
      <trkpt lat="43.70674" lon="6.96106">
        <ele>788.824</ele>
        <time>2016-01-30T14:13:27Z</time>
      </trkpt>
      <trkpt lat="43.70684" lon="6.96124">
        <ele>788.76</ele>
        <time>2016-01-30T14:13:31Z</time>
      </trkpt>
      <trkpt lat="43.70692" lon="6.96143">
        <ele>788.388</ele>
        <time>2016-01-30T14:13:35Z</time>
      </trkpt>
      <trkpt lat="43.70701" lon="6.96173">
        <ele>790.087</ele>
        <time>2016-01-30T14:13:40Z</time>
      </trkpt>
      <trkpt lat="43.70708" lon="6.96187">
        <ele>790.715</ele>
        <time>2016-01-30T14:13:43Z</time>
      </trkpt>
      <trkpt lat="43.70707" lon="6.96198">
        <ele>791.155</ele>
        <time>2016-01-30T14:13:45Z</time>
      </trkpt>
      <trkpt lat="43.70706" lon="6.96212">
        <ele>790.949</ele>
        <time>2016-01-30T14:13:47Z</time>
      </trkpt>
      <trkpt lat="43.70709" lon="6.96231">
        <ele>790.094</ele>
        <time>2016-01-30T14:13:50Z</time>
      </trkpt>
      <trkpt lat="43.70712" lon="6.96253">
        <ele>790.617</ele>
        <time>2016-01-30T14:13:53Z</time>
      </trkpt>
      <trkpt lat="43.70722" lon="6.96274">
        <ele>790.169</ele>
        <time>2016-01-30T14:13:57Z</time>
      </trkpt>
      <trkpt lat="43.70726" lon="6.96288">
        <ele>789.355</ele>
        <time>2016-01-30T14:14:00Z</time>
      </trkpt>
      <trkpt lat="43.70729" lon="6.96307">
        <ele>787.212</ele>
        <time>2016-01-30T14:14:03Z</time>
      </trkpt>
      <trkpt lat="43.70732" lon="6.96327">
        <ele>787.25</ele>
        <time>2016-01-30T14:14:06Z</time>
      </trkpt>
      <trkpt lat="43.70723" lon="6.96353">
        <ele>788.669</ele>
        <time>2016-01-30T14:14:10Z</time>
      </trkpt>
      <trkpt lat="43.70709" lon="6.96374">
        <ele>786.428</ele>
        <time>2016-01-30T14:14:14Z</time>
      </trkpt>
      <trkpt lat="43.70699" lon="6.964">
        <ele>782.91</ele>
        <time>2016-01-30T14:14:18Z</time>
      </trkpt>
      <trkpt lat="43.70693" lon="6.96421">
        <ele>780.477</ele>
        <time>2016-01-30T14:14:21Z</time>
      </trkpt>
      <trkpt lat="43.70689" lon="6.96457">
        <ele>777.299</ele>
        <time>2016-01-30T14:14:27Z</time>
      </trkpt>
      <trkpt lat="43.70686" lon="6.96484">
        <ele>776.515</ele>
        <time>2016-01-30T14:14:32Z</time>
      </trkpt>
      <trkpt lat="43.70692" lon="6.96489">
        <ele>776.086</ele>
        <time>2016-01-30T14:14:34Z</time>
      </trkpt>
      <trkpt lat="43.70692" lon="6.965">
        <ele>775.224</ele>
        <time>2016-01-30T14:14:37Z</time>
      </trkpt>
      <trkpt lat="43.70682" lon="6.9651">
        <ele>773.629</ele>
        <time>2016-01-30T14:14:40Z</time>
      </trkpt>
      <trkpt lat="43.70671" lon="6.9653">
        <ele>770.127</ele>
        <time>2016-01-30T14:14:44Z</time>
      </trkpt>
      <trkpt lat="43.70664" lon="6.96545">
        <ele>767.87</ele>
        <time>2016-01-30T14:14:47Z</time>
      </trkpt>
      <trkpt lat="43.70649" lon="6.96557">
        <ele>760.885</ele>
        <time>2016-01-30T14:14:53Z</time>
      </trkpt>
      <trkpt lat="43.70631" lon="6.96571">
        <ele>756.795</ele>
        <time>2016-01-30T14:14:58Z</time>
      </trkpt>
      <trkpt lat="43.70624" lon="6.96578">
        <ele>755.613</ele>
        <time>2016-01-30T14:15:00Z</time>
      </trkpt>
      <trkpt lat="43.70606" lon="6.9658">
        <ele>751.124</ele>
        <time>2016-01-30T14:15:04Z</time>
      </trkpt>
      <trkpt lat="43.70602" lon="6.96581">
        <ele>750.244</ele>
        <time>2016-01-30T14:15:05Z</time>
      </trkpt>
      <trkpt lat="43.70588" lon="6.96591">
        <ele>744.575</ele>
        <time>2016-01-30T14:15:10Z</time>
      </trkpt>
      <trkpt lat="43.70585" lon="6.966">
        <ele>744.637</ele>
        <time>2016-01-30T14:15:12Z</time>
      </trkpt>
      <trkpt lat="43.70572" lon="6.96607">
        <ele>743.364</ele>
        <time>2016-01-30T14:15:16Z</time>
      </trkpt>
      <trkpt lat="43.70565" lon="6.96614">
        <ele>742.406</ele>
        <time>2016-01-30T14:15:19Z</time>
      </trkpt>
      <trkpt lat="43.70553" lon="6.96614">
        <ele>739.465</ele>
        <time>2016-01-30T14:15:23Z</time>
      </trkpt>
      <trkpt lat="43.70545" lon="6.96621">
        <ele>736.511</ele>
        <time>2016-01-30T14:15:27Z</time>
      </trkpt>
      <trkpt lat="43.70542" lon="6.9663">
        <ele>735.439</ele>
        <time>2016-01-30T14:15:30Z</time>
      </trkpt>
      <trkpt lat="43.70545" lon="6.96643">
        <ele>735.482</ele>
        <time>2016-01-30T14:15:33Z</time>
      </trkpt>
      <trkpt lat="43.70542" lon="6.96667">
        <ele>733.419</ele>
        <time>2016-01-30T14:15:37Z</time>
      </trkpt>
      <trkpt lat="43.70544" lon="6.96684">
        <ele>734.294</ele>
        <time>2016-01-30T14:15:40Z</time>
      </trkpt>
      <trkpt lat="43.70537" lon="6.96706">
        <ele>731.091</ele>
        <time>2016-01-30T14:15:44Z</time>
      </trkpt>
      <trkpt lat="43.70533" lon="6.96717">
        <ele>729.171</ele>
        <time>2016-01-30T14:15:46Z</time>
      </trkpt>
      <trkpt lat="43.7053" lon="6.96738">
        <ele>726.26</ele>
        <time>2016-01-30T14:15:49Z</time>
      </trkpt>
      <trkpt lat="43.70529" lon="6.96772">
        <ele>722.85</ele>
        <time>2016-01-30T14:15:54Z</time>
      </trkpt>
      <trkpt lat="43.70527" lon="6.96804">
        <ele>719.181</ele>
        <time>2016-01-30T14:15:59Z</time>
      </trkpt>
      <trkpt lat="43.70524" lon="6.96828">
        <ele>716.874</ele>
        <time>2016-01-30T14:16:03Z</time>
      </trkpt>
      <trkpt lat="43.70522" lon="6.96839">
        <ele>715.603</ele>
        <time>2016-01-30T14:16:05Z</time>
      </trkpt>
      <trkpt lat="43.70523" lon="6.96863">
        <ele>712.113</ele>
        <time>2016-01-30T14:16:10Z</time>
      </trkpt>
      <trkpt lat="43.70523" lon="6.96869">
        <ele>711.212</ele>
        <time>2016-01-30T14:16:11Z</time>
      </trkpt>
      <trkpt lat="43.70522" lon="6.96895">
        <ele>708.415</ele>
        <time>2016-01-30T14:16:16Z</time>
      </trkpt>
      <trkpt lat="43.70527" lon="6.96919">
        <ele>706.376</ele>
        <time>2016-01-30T14:16:20Z</time>
      </trkpt>
      <trkpt lat="43.70529" lon="6.9694">
        <ele>705.296</ele>
        <time>2016-01-30T14:16:23Z</time>
      </trkpt>
      <trkpt lat="43.70538" lon="6.96962">
        <ele>702.815</ele>
        <time>2016-01-30T14:16:27Z</time>
      </trkpt>
      <trkpt lat="43.70539" lon="6.96965">
        <ele>700.829</ele>
        <time>2016-01-30T14:16:30Z</time>
      </trkpt>
      <trkpt lat="43.70541" lon="6.96976">
        <ele>699.811</ele>
        <time>2016-01-30T14:16:34Z</time>
      </trkpt>
      <trkpt lat="43.70548" lon="6.96993">
        <ele>701.342</ele>
        <time>2016-01-30T14:16:38Z</time>
      </trkpt>
      <trkpt lat="43.70559" lon="6.97013">
        <ele>699.608</ele>
        <time>2016-01-30T14:16:44Z</time>
      </trkpt>
      <trkpt lat="43.70562" lon="6.97027">
        <ele>697.227</ele>
        <time>2016-01-30T14:16:48Z</time>
      </trkpt>
      <trkpt lat="43.70564" lon="6.97029">
        <ele>696.599</ele>
        <time>2016-01-30T14:16:50Z</time>
      </trkpt>
      <trkpt lat="43.70571" lon="6.97038">
        <ele>695.99</ele>
        <time>2016-01-30T14:16:55Z</time>
      </trkpt>
      <trkpt lat="43.70577" lon="6.97053">
        <ele>693.495</ele>
        <time>2016-01-30T14:16:59Z</time>
      </trkpt>
      <trkpt lat="43.70586" lon="6.97063">
        <ele>690.918</ele>
        <time>2016-01-30T14:17:04Z</time>
      </trkpt>
      <trkpt lat="43.70594" lon="6.97064">
        <ele>688.602</ele>
        <time>2016-01-30T14:17:08Z</time>
      </trkpt>
      <trkpt lat="43.70608" lon="6.97064">
        <ele>687.599</ele>
        <time>2016-01-30T14:17:16Z</time>
      </trkpt>
      <trkpt lat="43.7062" lon="6.97065">
        <ele>687.359</ele>
        <time>2016-01-30T14:17:23Z</time>
      </trkpt>
      <trkpt lat="43.70632" lon="6.97065">
        <ele>688.792</ele>
        <time>2016-01-30T14:17:30Z</time>
      </trkpt>
      <trkpt lat="43.70643" lon="6.97067">
        <ele>688.161</ele>
        <time>2016-01-30T14:17:36Z</time>
      </trkpt>
      <trkpt lat="43.70657" lon="6.97066">
        <ele>688.563</ele>
        <time>2016-01-30T14:17:43Z</time>
      </trkpt>
      <trkpt lat="43.70675" lon="6.97065">
        <ele>688.768</ele>
        <time>2016-01-30T14:17:51Z</time>
      </trkpt>
      <trkpt lat="43.70693" lon="6.97067">
        <ele>689.01</ele>
        <time>2016-01-30T14:17:58Z</time>
      </trkpt>
      <trkpt lat="43.7071" lon="6.97068">
        <ele>689.851</ele>
        <time>2016-01-30T14:18:05Z</time>
      </trkpt>
      <trkpt lat="43.70723" lon="6.97065">
        <ele>689.837</ele>
        <time>2016-01-30T14:18:11Z</time>
      </trkpt>
      <trkpt lat="43.70737" lon="6.97062">
        <ele>689.667</ele>
        <time>2016-01-30T14:18:18Z</time>
      </trkpt>
      <trkpt lat="43.7075" lon="6.97065">
        <ele>689.118</ele>
        <time>2016-01-30T14:18:24Z</time>
      </trkpt>
      <trkpt lat="43.7077" lon="6.97072">
        <ele>691.833</ele>
        <time>2016-01-30T14:18:33Z</time>
      </trkpt>
      <trkpt lat="43.70785" lon="6.97075">
        <ele>692.62</ele>
        <time>2016-01-30T14:18:40Z</time>
      </trkpt>
      <trkpt lat="43.70804" lon="6.97076">
        <ele>695.109</ele>
        <time>2016-01-30T14:18:51Z</time>
      </trkpt>
      <trkpt lat="43.70818" lon="6.97077">
        <ele>693.414</ele>
        <time>2016-01-30T14:18:58Z</time>
      </trkpt>
      <trkpt lat="43.70833" lon="6.97078">
        <ele>694.599</ele>
        <time>2016-01-30T14:19:06Z</time>
      </trkpt>
      <trkpt lat="43.70843" lon="6.97074">
        <ele>695.01</ele>
        <time>2016-01-30T14:19:12Z</time>
      </trkpt>
      <trkpt lat="43.70859" lon="6.97075">
        <ele>697.517</ele>
        <time>2016-01-30T14:19:20Z</time>
      </trkpt>
      <trkpt lat="43.70873" lon="6.97074">
        <ele>700.465</ele>
        <time>2016-01-30T14:19:27Z</time>
      </trkpt>
      <trkpt lat="43.70883" lon="6.97075">
        <ele>700.573</ele>
        <time>2016-01-30T14:19:32Z</time>
      </trkpt>
      <trkpt lat="43.70894" lon="6.97078">
        <ele>699.347</ele>
        <time>2016-01-30T14:19:36Z</time>
      </trkpt>
      <trkpt lat="43.70903" lon="6.97069">
        <ele>698.148</ele>
        <time>2016-01-30T14:19:42Z</time>
      </trkpt>
      <trkpt lat="43.70905" lon="6.97065">
        <ele>696.693</ele>
        <time>2016-01-30T14:19:44Z</time>
      </trkpt>
      <trkpt lat="43.70916" lon="6.97055">
        <ele>695.359</ele>
        <time>2016-01-30T14:19:51Z</time>
      </trkpt>
      <trkpt lat="43.7093" lon="6.97047">
        <ele>692.934</ele>
        <time>2016-01-30T14:19:55Z</time>
      </trkpt>
      <trkpt lat="43.70938" lon="6.97047">
        <ele>692.034</ele>
        <time>2016-01-30T14:19:58Z</time>
      </trkpt>
      <trkpt lat="43.70933" lon="6.97056">
        <ele>691.837</ele>
        <time>2016-01-30T14:20:01Z</time>
      </trkpt>
      <trkpt lat="43.70922" lon="6.97082">
        <ele>693.474</ele>
        <time>2016-01-30T14:20:07Z</time>
      </trkpt>
      <trkpt lat="43.70909" lon="6.97117">
        <ele>694.763</ele>
        <time>2016-01-30T14:20:13Z</time>
      </trkpt>
      <trkpt lat="43.70902" lon="6.9713">
        <ele>694.789</ele>
        <time>2016-01-30T14:20:15Z</time>
      </trkpt>
      <trkpt lat="43.7089" lon="6.97171">
        <ele>688.816</ele>
        <time>2016-01-30T14:20:20Z</time>
      </trkpt>
      <trkpt lat="43.70883" lon="6.9719">
        <ele>687.014</ele>
        <time>2016-01-30T14:20:22Z</time>
      </trkpt>
      <trkpt lat="43.70859" lon="6.97219">
        <ele>685.647</ele>
        <time>2016-01-30T14:20:26Z</time>
      </trkpt>
      <trkpt lat="43.70821" lon="6.97266">
        <ele>677.565</ele>
        <time>2016-01-30T14:20:32Z</time>
      </trkpt>
      <trkpt lat="43.70816" lon="6.97277">
        <ele>676.205</ele>
        <time>2016-01-30T14:20:33Z</time>
      </trkpt>
      <trkpt lat="43.708" lon="6.9732">
        <ele>671.092</ele>
        <time>2016-01-30T14:20:37Z</time>
      </trkpt>
      <trkpt lat="43.70789" lon="6.97354">
        <ele>668.215</ele>
        <time>2016-01-30T14:20:41Z</time>
      </trkpt>
      <trkpt lat="43.70784" lon="6.97365">
        <ele>667.148</ele>
        <time>2016-01-30T14:20:43Z</time>
      </trkpt>
      <trkpt lat="43.70781" lon="6.97377">
        <ele>666.902</ele>
        <time>2016-01-30T14:20:45Z</time>
      </trkpt>
      <trkpt lat="43.70779" lon="6.97379">
        <ele>667.213</ele>
        <time>2016-01-30T14:20:49Z</time>
      </trkpt>
      <trkpt lat="43.70779" lon="6.97379">
        <ele>667.431</ele>
        <time>2016-01-30T14:20:50Z</time>
      </trkpt>
    </trkseg>
  </trk>
</gpx>